Wetterdaten: Mittwoch, 23.01.2019
Datum Zeit Temp. A. Feuchte A. Luftdruck Regen Wind Richtung Richtung Sonnenschein ET UV Solar Taupunkt Windchill Windböen
23.01.2019 00:00 -8,6 °C 91 % 1003,3 hPa 0,0 mm 2,5 km/h (1 Bft) S 178 ° 0 min 0,000 mm 0,0 UV-I 0 W/m² -9,8 °C -8,6 °C 3,2 km/h (1 Bft)
23.01.2019 00:01 -8,6 °C 91 % 1003,3 hPa 0,0 mm 2,3 km/h (1 Bft) S 178 ° 0 min 0,000 mm 0,0 UV-I 0 W/m² -9,8 °C -8,6 °C 3,2 km/h (1 Bft)
23.01.2019 00:02 -8,6 °C 91 % 1003,3 hPa 0,0 mm 1,0 km/h (0 Bft) S 178 ° 0 min 0,000 mm 0,0 UV-I 0 W/m² -9,8 °C -8,6 °C 3,2 km/h (1 Bft)
23.01.2019 00:03 -8,6 °C 91 % 1003,3 hPa 0,0 mm 1,4 km/h (1 Bft) S 178 ° 0 min 0,000 mm 0,0 UV-I 0 W/m² -9,8 °C -8,6 °C 3,2 km/h (1 Bft)
23.01.2019 00:04 -8,6 °C 91 % 1003,3 hPa 0,0 mm 3,2 km/h (1 Bft) S 178 ° 0 min 0,000 mm 0,0 UV-I 0 W/m² -9,8 °C -8,6 °C 4,8 km/h (1 Bft)
23.01.2019 00:05 -8,6 °C 91 % 1003,3 hPa 0,0 mm 4,4 km/h (1 Bft) S 179 ° 0 min 0,000 mm 0,0 UV-I 0 W/m² -9,8 °C -8,6 °C 6,4 km/h (2 Bft)
23.01.2019 00:06 -8,6 °C 91 % 1003,3 hPa 0,0 mm 5,4 km/h (1 Bft) S-SW 193 ° 0 min 0,000 mm 0,0 UV-I 0 W/m² -9,8 °C -11,6 °C 6,4 km/h (2 Bft)
23.01.2019 00:07 -8,6 °C 91 % 1003,3 hPa 0,0 mm 4,5 km/h (1 Bft) S-SW 194 ° 0 min 0,000 mm 0,0 UV-I 0 W/m² -9,8 °C -8,6 °C 6,4 km/h (2 Bft)
23.01.2019 00:08 -8,6 °C 91 % 1003,2 hPa 0,0 mm 4,7 km/h (1 Bft) S-SW 194 ° 0 min 0,000 mm 0,0 UV-I 0 W/m² -9,8 °C -11,2 °C 6,4 km/h (2 Bft)
23.01.2019 00:09 -8,6 °C 91 % 1003,2 hPa 0,0 mm 4,3 km/h (1 Bft) S-SW 194 ° 0 min 0,000 mm 0,0 UV-I 0 W/m² -9,8 °C -8,6 °C 4,8 km/h (1 Bft)
23.01.2019 00:10 -8,7 °C 91 % 1003,2 hPa 0,0 mm 4,2 km/h (1 Bft) S-SW 194 ° 0 min 0,000 mm 0,0 UV-I 0 W/m² -9,9 °C -8,7 °C 4,8 km/h (1 Bft)
23.01.2019 00:11 -8,7 °C 91 % 1003,2 hPa 0,0 mm 4,4 km/h (1 Bft) S-SW 194 ° 0 min 0,000 mm 0,0 UV-I 0 W/m² -9,9 °C -8,7 °C 6,4 km/h (2 Bft)
23.01.2019 00:12 -8,7 °C 91 % 1003,2 hPa 0,0 mm 3,6 km/h (1 Bft) S-SW 194 ° 0 min 0,000 mm 0,0 UV-I 0 W/m² -9,9 °C -8,7 °C 6,4 km/h (2 Bft)
23.01.2019 00:13 -8,7 °C 91 % 1003,2 hPa 0,0 mm 3,5 km/h (1 Bft) S-SW 194 ° 0 min 0,000 mm 0,0 UV-I 0 W/m² -9,9 °C -8,7 °C 4,8 km/h (1 Bft)
23.01.2019 00:14 -8,7 °C 91 % 1003,2 hPa 0,0 mm 3,4 km/h (1 Bft) S-SW 194 ° 0 min 0,000 mm 0,0 UV-I 0 W/m² -9,9 °C -8,7 °C 4,8 km/h (1 Bft)
23.01.2019 00:15 -8,7 °C 91 % 1003,1 hPa 0,0 mm 3,4 km/h (1 Bft) S-SW 194 ° 0 min 0,000 mm 0,0 UV-I 0 W/m² -9,9 °C -8,7 °C 4,8 km/h (1 Bft)
23.01.2019 00:16 -8,7 °C 91 % 1003,1 hPa 0,0 mm 2,7 km/h (1 Bft) S-SW 194 ° 0 min 0,000 mm 0,0 UV-I 0 W/m² -9,9 °C -8,7 °C 4,8 km/h (1 Bft)
23.01.2019 00:17 -8,7 °C 91 % 1003,1 hPa 0,0 mm 2,5 km/h (1 Bft) S-SW 194 ° 0 min 0,000 mm 0,0 UV-I 0 W/m² -9,9 °C -8,7 °C 3,2 km/h (1 Bft)
23.01.2019 00:18 -8,7 °C 91 % 1003,1 hPa 0,0 mm 1,8 km/h (1 Bft) S-SW 194 ° 0 min 0,000 mm 0,0 UV-I 0 W/m² -9,9 °C -8,7 °C 3,2 km/h (1 Bft)
23.01.2019 00:19 -8,8 °C 91 % 1003,1 hPa 0,0 mm 2,7 km/h (1 Bft) S-SW 194 ° 0 min 0,000 mm 0,0 UV-I 0 W/m² -10,0 °C -8,8 °C 4,8 km/h (1 Bft)
23.01.2019 00:20 -8,7 °C 91 % 1003,1 hPa 0,0 mm 6,8 km/h (2 Bft) S-SW 196 ° 0 min 0,000 mm 0,0 UV-I 0 W/m² -9,9 °C -12,4 °C 9,7 km/h (2 Bft)
23.01.2019 00:21 -8,8 °C 91 % 1003,1 hPa 0,0 mm 6,0 km/h (2 Bft) S-SW 205 ° 0 min 0,000 mm 0,0 UV-I 0 W/m² -10,0 °C -12,1 °C 8,0 km/h (2 Bft)
23.01.2019 00:22 -8,8 °C 91 % 1003,1 hPa 0,0 mm 5,6 km/h (1 Bft) S-SW 202 ° 0 min 0,000 mm 0,0 UV-I 0 W/m² -10,0 °C -11,9 °C 6,4 km/h (2 Bft)
23.01.2019 00:23 -8,8 °C 91 % 1003,1 hPa 0,0 mm 4,8 km/h (1 Bft) S-SW 202 ° 0 min 0,000 mm 0,0 UV-I 0 W/m² -10,0 °C -11,4 °C 6,4 km/h (2 Bft)
23.01.2019 00:24 -8,8 °C 91 % 1003,1 hPa 0,0 mm 3,6 km/h (1 Bft) S-SW 202 ° 0 min 0,000 mm 0,0 UV-I 0 W/m² -10,0 °C -8,8 °C 4,8 km/h (1 Bft)
23.01.2019 00:25 -8,8 °C 91 % 1003,0 hPa 0,0 mm 3,7 km/h (1 Bft) S-SW 202 ° 0 min 0,000 mm 0,0 UV-I 0 W/m² -10,0 °C -8,8 °C 4,8 km/h (1 Bft)
23.01.2019 00:26 -8,8 °C 91 % 1003,1 hPa 0,0 mm 2,8 km/h (1 Bft) S-SW 202 ° 0 min 0,000 mm 0,0 UV-I 0 W/m² -10,0 °C -8,8 °C 3,2 km/h (1 Bft)
23.01.2019 00:27 -8,8 °C 91 % 1003,1 hPa 0,0 mm 2,3 km/h (1 Bft) S-SW 202 ° 0 min 0,000 mm 0,0 UV-I 0 W/m² -10,0 °C -8,8 °C 4,8 km/h (1 Bft)
23.01.2019 00:28 -8,8 °C 91 % 1003,1 hPa 0,0 mm 0,0 km/h (0 Bft) S-SW 202 ° 0 min 0,000 mm 0,0 UV-I 0 W/m² -10,0 °C -8,8 °C 0,0 km/h (0 Bft)
23.01.2019 00:29 -8,8 °C 91 % 1003,0 hPa 0,0 mm 0,0 km/h (0 Bft) S-SW 202 ° 0 min 0,000 mm 0,0 UV-I 0 W/m² -10,0 °C -8,8 °C 0,0 km/h (0 Bft)
23.01.2019 00:30 -8,8 °C 91 % 1003,0 hPa 0,0 mm 0,0 km/h (0 Bft) S-SW 202 ° 0 min 0,000 mm 0,0 UV-I 0 W/m² -10,0 °C -8,8 °C 0,0 km/h (0 Bft)
23.01.2019 00:31 -8,9 °C 91 % 1003,0 hPa 0,0 mm 0,0 km/h (0 Bft) S-SW 202 ° 0 min 0,000 mm 0,0 UV-I 0 W/m² -10,1 °C -8,9 °C 0,0 km/h (0 Bft)
23.01.2019 00:32 -8,8 °C 91 % 1003,0 hPa 0,0 mm 1,3 km/h (1 Bft) S-SW 202 ° 0 min 0,000 mm 0,0 UV-I 0 W/m² -10,0 °C -8,8 °C 1,6 km/h (1 Bft)
23.01.2019 00:33 -8,9 °C 91 % 1003,0 hPa 0,0 mm 1,0 km/h (0 Bft) S-SW 202 ° 0 min 0,000 mm 0,0 UV-I 0 W/m² -10,1 °C -8,9 °C 3,2 km/h (1 Bft)
23.01.2019 00:34 -8,9 °C 91 % 1002,9 hPa 0,0 mm 0,1 km/h (0 Bft) S-SW 202 ° 0 min 0,000 mm 0,0 UV-I 0 W/m² -10,1 °C -8,9 °C 1,6 km/h (1 Bft)
23.01.2019 00:35 -8,9 °C 91 % 1002,9 hPa 0,0 mm 0,0 km/h (0 Bft) S-SW 202 ° 0 min 0,000 mm 0,0 UV-I 0 W/m² -10,1 °C -8,9 °C 0,0 km/h (0 Bft)
23.01.2019 00:36 -8,9 °C 91 % 1002,9 hPa 0,0 mm 0,5 km/h (0 Bft) S-SW 202 ° 0 min 0,000 mm 0,0 UV-I 0 W/m² -10,1 °C -8,9 °C 3,2 km/h (1 Bft)
23.01.2019 00:37 -8,9 °C 91 % 1002,9 hPa 0,0 mm 0,3 km/h (0 Bft) S-SW 202 ° 0 min 0,000 mm 0,0 UV-I 0 W/m² -10,1 °C -8,9 °C 1,6 km/h (1 Bft)
23.01.2019 00:38 -8,9 °C 91 % 1002,9 hPa 0,0 mm 2,5 km/h (1 Bft) S-SW 202 ° 0 min 0,000 mm 0,0 UV-I 0 W/m² -10,1 °C -8,9 °C 4,8 km/h (1 Bft)
23.01.2019 00:39 -8,9 °C 91 % 1002,9 hPa 0,0 mm 4,0 km/h (1 Bft) S-SW 202 ° 0 min 0,000 mm 0,0 UV-I 0 W/m² -10,1 °C -8,9 °C 4,8 km/h (1 Bft)
23.01.2019 00:40 -8,9 °C 91 % 1002,8 hPa 0,0 mm 2,1 km/h (1 Bft) S-SW 202 ° 0 min 0,000 mm 0,0 UV-I 0 W/m² -10,1 °C -8,9 °C 3,2 km/h (1 Bft)
23.01.2019 00:41 -8,9 °C 91 % 1002,8 hPa 0,0 mm 1,5 km/h (1 Bft) S-SW 202 ° 0 min 0,000 mm 0,0 UV-I 0 W/m² -10,1 °C -8,9 °C 1,6 km/h (1 Bft)
23.01.2019 00:42 -9,0 °C 91 % 1002,8 hPa 0,0 mm 0,4 km/h (0 Bft) S-SW 202 ° 0 min 0,000 mm 0,0 UV-I 0 W/m² -10,2 °C -9,0 °C 1,6 km/h (1 Bft)
23.01.2019 00:43 -8,9 °C 91 % 1002,9 hPa 0,0 mm 0,0 km/h (0 Bft) S-SW 202 ° 0 min 0,000 mm 0,0 UV-I 0 W/m² -10,1 °C -8,9 °C 0,0 km/h (0 Bft)
23.01.2019 00:44 -9,0 °C 91 % 1002,9 hPa 0,0 mm 0,0 km/h (0 Bft) S-SW 202 ° 0 min 0,000 mm 0,0 UV-I 0 W/m² -10,2 °C -9,0 °C 0,0 km/h (0 Bft)
23.01.2019 00:45 -9,0 °C 91 % 1002,9 hPa 0,0 mm 0,0 km/h (0 Bft) S-SW 202 ° 0 min 0,000 mm 0,0 UV-I 0 W/m² -10,2 °C -9,0 °C 0,0 km/h (0 Bft)
23.01.2019 00:46 -9,0 °C 91 % 1002,8 hPa 0,0 mm 0,0 km/h (0 Bft) S-SW 202 ° 0 min 0,000 mm 0,0 UV-I 0 W/m² -10,2 °C -9,0 °C 0,0 km/h (0 Bft)
23.01.2019 00:47 -9,0 °C 91 % 1002,8 hPa 0,0 mm 0,0 km/h (0 Bft) S-SW 202 ° 0 min 0,000 mm 0,0 UV-I 0 W/m² -10,2 °C -9,0 °C 0,0 km/h (0 Bft)
23.01.2019 00:48 -9,0 °C 91 % 1002,8 hPa 0,0 mm 1,3 km/h (1 Bft) S-SW 202 ° 0 min 0,000 mm 0,0 UV-I 0 W/m² -10,2 °C -9,0 °C 3,2 km/h (1 Bft)
23.01.2019 00:49 -9,0 °C 91 % 1002,9 hPa 0,0 mm 0,8 km/h (0 Bft) S-SW 202 ° 0 min 0,000 mm 0,0 UV-I 0 W/m² -10,2 °C -9,0 °C 3,2 km/h (1 Bft)
23.01.2019 00:50 -9,0 °C 91 % 1002,8 hPa 0,0 mm 1,8 km/h (1 Bft) S-SW 202 ° 0 min 0,000 mm 0,0 UV-I 0 W/m² -10,2 °C -9,0 °C 3,2 km/h (1 Bft)
23.01.2019 00:51 -9,0 °C 91 % 1002,8 hPa 0,0 mm 1,3 km/h (1 Bft) S-SW 202 ° 0 min 0,000 mm 0,0 UV-I 0 W/m² -10,2 °C -9,0 °C 3,2 km/h (1 Bft)
23.01.2019 00:52 -9,0 °C 91 % 1002,8 hPa 0,0 mm 0,7 km/h (0 Bft) S-SW 202 ° 0 min 0,000 mm 0,0 UV-I 0 W/m² -10,2 °C -9,0 °C 1,6 km/h (1 Bft)
23.01.2019 00:53 -9,0 °C 91 % 1002,8 hPa 0,0 mm 0,3 km/h (0 Bft) S-SW 202 ° 0 min 0,000 mm 0,0 UV-I 0 W/m² -10,2 °C -9,0 °C 1,6 km/h (1 Bft)
23.01.2019 00:54 -9,1 °C 91 % 1002,8 hPa 0,0 mm 0,0 km/h (0 Bft) S-SW 202 ° 0 min 0,000 mm 0,0 UV-I 0 W/m² -10,3 °C -9,1 °C 0,0 km/h (0 Bft)
23.01.2019 00:55 -9,1 °C 91 % 1002,8 hPa 0,0 mm 2,9 km/h (1 Bft) S-SW 202 ° 0 min 0,000 mm 0,0 UV-I 0 W/m² -10,3 °C -9,1 °C 4,8 km/h (1 Bft)
23.01.2019 00:56 -9,1 °C 91 % 1002,8 hPa 0,0 mm 2,9 km/h (1 Bft) S-SW 202 ° 0 min 0,000 mm 0,0 UV-I 0 W/m² -10,3 °C -9,1 °C 3,2 km/h (1 Bft)
23.01.2019 00:57 -9,1 °C 91 % 1002,8 hPa 0,0 mm 2,4 km/h (1 Bft) S-SW 202 ° 0 min 0,000 mm 0,0 UV-I 0 W/m² -10,3 °C -9,1 °C 3,2 km/h (1 Bft)
23.01.2019 00:58 -9,1 °C 91 % 1002,8 hPa 0,0 mm 3,3 km/h (1 Bft) S-SW 202 ° 0 min 0,000 mm 0,0 UV-I 0 W/m² -10,3 °C -9,1 °C 4,8 km/h (1 Bft)
23.01.2019 00:59 -9,1 °C 91 % 1002,8 hPa 0,0 mm 3,2 km/h (1 Bft) S-SW 202 ° 0 min 0,000 mm 0,0 UV-I 0 W/m² -10,3 °C -9,1 °C 3,2 km/h (1 Bft)
23.01.2019 01:00 -9,1 °C 91 % 1002,8 hPa 0,0 mm 3,2 km/h (1 Bft) S-SW 202 ° 0 min 0,000 mm 0,0 UV-I 0 W/m² -10,3 °C -9,1 °C 4,8 km/h (1 Bft)
23.01.2019 01:01 -9,1 °C 91 % 1002,8 hPa 0,0 mm 3,0 km/h (1 Bft) S-SW 202 ° 0 min 0,000 mm 0,0 UV-I 0 W/m² -10,3 °C -9,1 °C 4,8 km/h (1 Bft)
23.01.2019 01:02 -9,1 °C 91 % 1002,8 hPa 0,0 mm 1,9 km/h (1 Bft) S-SW 202 ° 0 min 0,000 mm 0,0 UV-I 0 W/m² -10,3 °C -9,1 °C 3,2 km/h (1 Bft)
23.01.2019 01:03 -9,1 °C 91 % 1002,8 hPa 0,0 mm 1,0 km/h (0 Bft) S-SW 202 ° 0 min 0,000 mm 0,0 UV-I 0 W/m² -10,3 °C -9,1 °C 1,6 km/h (1 Bft)
23.01.2019 01:04 -9,1 °C 91 % 1002,8 hPa 0,0 mm 1,0 km/h (0 Bft) S-SW 202 ° 0 min 0,000 mm 0,0 UV-I 0 W/m² -10,3 °C -9,1 °C 1,6 km/h (1 Bft)
23.01.2019 01:05 -9,1 °C 91 % 1002,7 hPa 0,0 mm 0,9 km/h (0 Bft) S-SW 202 ° 0 min 0,000 mm 0,0 UV-I 0 W/m² -10,3 °C -9,1 °C 1,6 km/h (1 Bft)
23.01.2019 01:06 -9,1 °C 91 % 1002,7 hPa 0,0 mm 0,0 km/h (0 Bft) S-SW 202 ° 0 min 0,000 mm 0,0 UV-I 0 W/m² -10,3 °C -9,1 °C 0,0 km/h (0 Bft)
23.01.2019 01:07 -9,1 °C 91 % 1002,7 hPa 0,0 mm 0,1 km/h (0 Bft) S-SW 202 ° 0 min 0,000 mm 0,0 UV-I 0 W/m² -10,3 °C -9,1 °C 1,6 km/h (1 Bft)
23.01.2019 01:08 -9,1 °C 91 % 1002,7 hPa 0,0 mm 0,0 km/h (0 Bft) S-SW 202 ° 0 min 0,000 mm 0,0 UV-I 0 W/m² -10,3 °C -9,1 °C 0,0 km/h (0 Bft)
23.01.2019 01:09 -9,1 °C 91 % 1002,7 hPa 0,0 mm 1,1 km/h (1 Bft) S-SW 202 ° 0 min 0,000 mm 0,0 UV-I 0 W/m² -10,3 °C -9,1 °C 3,2 km/h (1 Bft)
23.01.2019 01:10 -9,1 °C 91 % 1002,7 hPa 0,0 mm 0,0 km/h (0 Bft) S-SW 202 ° 0 min 0,000 mm 0,0 UV-I 0 W/m² -10,3 °C -9,1 °C 0,0 km/h (0 Bft)
23.01.2019 01:11 -9,1 °C 91 % 1002,8 hPa 0,0 mm 0,2 km/h (0 Bft) S-SW 202 ° 0 min 0,000 mm 0,0 UV-I 0 W/m² -10,3 °C -9,1 °C 1,6 km/h (1 Bft)
23.01.2019 01:12 -9,1 °C 91 % 1002,7 hPa 0,0 mm 0,2 km/h (0 Bft) S-SW 202 ° 0 min 0,000 mm 0,0 UV-I 0 W/m² -10,3 °C -9,1 °C 1,6 km/h (1 Bft)
23.01.2019 01:13 -9,1 °C 91 % 1002,7 hPa 0,0 mm 0,0 km/h (0 Bft) S-SW 202 ° 0 min 0,000 mm 0,0 UV-I 0 W/m² -10,3 °C -9,1 °C 0,0 km/h (0 Bft)
23.01.2019 01:14 -9,2 °C 91 % 1002,7 hPa 0,0 mm 0,0 km/h (0 Bft) S-SW 202 ° 0 min 0,000 mm 0,0 UV-I 0 W/m² -10,4 °C -9,2 °C 0,0 km/h (0 Bft)
23.01.2019 01:15 -9,2 °C 91 % 1002,7 hPa 0,0 mm 0,0 km/h (0 Bft) S-SW 202 ° 0 min 0,000 mm 0,0 UV-I 0 W/m² -10,4 °C -9,2 °C 0,0 km/h (0 Bft)
23.01.2019 01:16 -9,2 °C 91 % 1002,7 hPa 0,0 mm 0,0 km/h (0 Bft) S-SW 202 ° 0 min 0,000 mm 0,0 UV-I 0 W/m² -10,4 °C -9,2 °C 0,0 km/h (0 Bft)
23.01.2019 01:17 -9,2 °C 91 % 1002,7 hPa 0,0 mm 0,0 km/h (0 Bft) S-SW 202 ° 0 min 0,000 mm 0,0 UV-I 0 W/m² -10,4 °C -9,2 °C 0,0 km/h (0 Bft)
23.01.2019 01:18 -9,2 °C 91 % 1002,7 hPa 0,0 mm 0,6 km/h (0 Bft) S-SW 202 ° 0 min 0,000 mm 0,0 UV-I 0 W/m² -10,4 °C -9,2 °C 1,6 km/h (1 Bft)
23.01.2019 01:19 -9,2 °C 91 % 1002,7 hPa 0,0 mm 2,2 km/h (1 Bft) S-SW 202 ° 0 min 0,000 mm 0,0 UV-I 0 W/m² -10,4 °C -9,2 °C 3,2 km/h (1 Bft)
23.01.2019 01:20 -9,2 °C 91 % 1002,7 hPa 0,0 mm 1,5 km/h (1 Bft) S-SW 202 ° 0 min 0,000 mm 0,0 UV-I 0 W/m² -10,4 °C -9,2 °C 3,2 km/h (1 Bft)
23.01.2019 01:21 -9,2 °C 91 % 1002,7 hPa 0,0 mm 2,1 km/h (1 Bft) S-SW 202 ° 0 min 0,000 mm 0,0 UV-I 0 W/m² -10,4 °C -9,2 °C 3,2 km/h (1 Bft)
23.01.2019 01:22 -9,2 °C 91 % 1002,7 hPa 0,0 mm 1,4 km/h (1 Bft) S-SW 202 ° 0 min 0,000 mm 0,0 UV-I 0 W/m² -10,4 °C -9,2 °C 1,6 km/h (1 Bft)
23.01.2019 01:23 -9,2 °C 91 % 1002,7 hPa 0,0 mm 1,9 km/h (1 Bft) S-SW 202 ° 0 min 0,000 mm 0,0 UV-I 0 W/m² -10,4 °C -9,2 °C 3,2 km/h (1 Bft)
23.01.2019 01:24 -9,2 °C 91 % 1002,7 hPa 0,0 mm 1,8 km/h (1 Bft) S-SW 202 ° 0 min 0,000 mm 0,0 UV-I 0 W/m² -10,4 °C -9,2 °C 3,2 km/h (1 Bft)
23.01.2019 01:25 -9,2 °C 91 % 1002,7 hPa 0,0 mm 1,1 km/h (1 Bft) S-SW 202 ° 0 min 0,000 mm 0,0 UV-I 0 W/m² -10,4 °C -9,2 °C 1,6 km/h (1 Bft)
23.01.2019 01:26 -9,2 °C 91 % 1002,7 hPa 0,0 mm 0,8 km/h (0 Bft) S-SW 202 ° 0 min 0,000 mm 0,0 UV-I 0 W/m² -10,4 °C -9,2 °C 1,6 km/h (1 Bft)
23.01.2019 01:27 -9,2 °C 91 % 1002,7 hPa 0,0 mm 0,0 km/h (0 Bft) S-SW 202 ° 0 min 0,000 mm 0,0 UV-I 0 W/m² -10,4 °C -9,2 °C 0,0 km/h (0 Bft)
23.01.2019 01:28 -9,2 °C 91 % 1002,7 hPa 0,0 mm 0,0 km/h (0 Bft) S-SW 202 ° 0 min 0,000 mm 0,0 UV-I 0 W/m² -10,4 °C -9,2 °C 0,0 km/h (0 Bft)
23.01.2019 01:29 -9,2 °C 91 % 1002,7 hPa 0,0 mm 0,0 km/h (0 Bft) S-SW 202 ° 0 min 0,000 mm 0,0 UV-I 0 W/m² -10,4 °C -9,2 °C 0,0 km/h (0 Bft)
23.01.2019 01:30 -9,2 °C 91 % 1002,6 hPa 0,0 mm 0,0 km/h (0 Bft) S-SW 202 ° 0 min 0,000 mm 0,0 UV-I 0 W/m² -10,4 °C -9,2 °C 0,0 km/h (0 Bft)
23.01.2019 01:31 -9,2 °C 91 % 1002,6 hPa 0,0 mm 0,0 km/h (0 Bft) S-SW 202 ° 0 min 0,000 mm 0,0 UV-I 0 W/m² -10,4 °C -9,2 °C 0,0 km/h (0 Bft)
23.01.2019 01:32 -9,2 °C 91 % 1002,6 hPa 0,0 mm 0,0 km/h (0 Bft) S-SW 202 ° 0 min 0,000 mm 0,0 UV-I 0 W/m² -10,4 °C -9,2 °C 0,0 km/h (0 Bft)
23.01.2019 01:33 -9,2 °C 91 % 1002,6 hPa 0,0 mm 0,0 km/h (0 Bft) S-SW 202 ° 0 min 0,000 mm 0,0 UV-I 0 W/m² -10,4 °C -9,2 °C 0,0 km/h (0 Bft)
23.01.2019 01:34 -9,2 °C 91 % 1002,6 hPa 0,0 mm 0,0 km/h (0 Bft) S-SW 202 ° 0 min 0,000 mm 0,0 UV-I 0 W/m² -10,4 °C -9,2 °C 0,0 km/h (0 Bft)
23.01.2019 01:35 -9,2 °C 91 % 1002,6 hPa 0,0 mm 0,5 km/h (0 Bft) S-SW 202 ° 0 min 0,000 mm 0,0 UV-I 0 W/m² -10,4 °C -9,2 °C 1,6 km/h (1 Bft)
23.01.2019 01:36 -9,2 °C 91 % 1002,6 hPa 0,0 mm 0,0 km/h (0 Bft) S-SW 202 ° 0 min 0,000 mm 0,0 UV-I 0 W/m² -10,4 °C -9,2 °C 0,0 km/h (0 Bft)
23.01.2019 01:37 -9,2 °C 91 % 1002,6 hPa 0,0 mm 0,0 km/h (0 Bft) S-SW 202 ° 0 min 0,000 mm 0,0 UV-I 0 W/m² -10,4 °C -9,2 °C 0,0 km/h (0 Bft)
23.01.2019 01:38 -9,2 °C 91 % 1002,6 hPa 0,0 mm 0,0 km/h (0 Bft) S-SW 202 ° 0 min 0,000 mm 0,0 UV-I 0 W/m² -10,4 °C -9,2 °C 0,0 km/h (0 Bft)
23.01.2019 01:39 -9,2 °C 91 % 1002,6 hPa 0,0 mm 0,0 km/h (0 Bft) S-SW 202 ° 0 min 0,000 mm 0,0 UV-I 0 W/m² -10,4 °C -9,2 °C 0,0 km/h (0 Bft)
23.01.2019 01:40 -9,2 °C 91 % 1002,6 hPa 0,0 mm 0,0 km/h (0 Bft) S-SW 202 ° 0 min 0,000 mm 0,0 UV-I 0 W/m² -10,4 °C -9,2 °C 0,0 km/h (0 Bft)
23.01.2019 01:41 -9,2 °C 91 % 1002,6 hPa 0,0 mm 0,0 km/h (0 Bft) S-SW 202 ° 0 min 0,000 mm 0,0 UV-I 0 W/m² -10,4 °C -9,2 °C 0,0 km/h (0 Bft)
23.01.2019 01:42 -9,2 °C 91 % 1002,6 hPa 0,0 mm 0,0 km/h (0 Bft) S-SW 202 ° 0 min 0,000 mm 0,0 UV-I 0 W/m² -10,4 °C -9,2 °C 0,0 km/h (0 Bft)
23.01.2019 01:43 -9,1 °C 91 % 1002,6 hPa 0,0 mm 0,0 km/h (0 Bft) S-SW 202 ° 0 min 0,000 mm 0,0 UV-I 0 W/m² -10,3 °C -9,1 °C 0,0 km/h (0 Bft)
23.01.2019 01:44 -9,2 °C 91 % 1002,6 hPa 0,0 mm 0,0 km/h (0 Bft) S-SW 202 ° 0 min 0,000 mm 0,0 UV-I 0 W/m² -10,4 °C -9,2 °C 0,0 km/h (0 Bft)
23.01.2019 01:45 -9,2 °C 91 % 1002,6 hPa 0,0 mm 0,0 km/h (0 Bft) S-SW 202 ° 0 min 0,000 mm 0,0 UV-I 0 W/m² -10,4 °C -9,2 °C 0,0 km/h (0 Bft)
23.01.2019 01:46 -9,2 °C 91 % 1002,5 hPa 0,0 mm 0,0 km/h (0 Bft) S-SW 202 ° 0 min 0,000 mm 0,0 UV-I 0 W/m² -10,4 °C -9,2 °C 0,0 km/h (0 Bft)
23.01.2019 01:47 -9,2 °C 91 % 1002,6 hPa 0,0 mm 0,0 km/h (0 Bft) S-SW 202 ° 0 min 0,000 mm 0,0 UV-I 0 W/m² -10,4 °C -9,2 °C 0,0 km/h (0 Bft)
23.01.2019 01:48 -9,1 °C 91 % 1002,5 hPa 0,0 mm 0,0 km/h (0 Bft) S-SW 202 ° 0 min 0,000 mm 0,0 UV-I 0 W/m² -10,3 °C -9,1 °C 0,0 km/h (0 Bft)
23.01.2019 01:49 -9,1 °C 91 % 1002,6 hPa 0,0 mm 0,0 km/h (0 Bft) S-SW 202 ° 0 min 0,000 mm 0,0 UV-I 0 W/m² -10,3 °C -9,1 °C 0,0 km/h (0 Bft)
23.01.2019 01:50 -9,1 °C 91 % 1002,6 hPa 0,0 mm 0,2 km/h (0 Bft) S-SW 202 ° 0 min 0,000 mm 0,0 UV-I 0 W/m² -10,3 °C -9,1 °C 1,6 km/h (1 Bft)
23.01.2019 01:51 -9,1 °C 91 % 1002,6 hPa 0,0 mm 1,0 km/h (0 Bft) S-SW 202 ° 0 min 0,000 mm 0,0 UV-I 0 W/m² -10,3 °C -9,1 °C 1,6 km/h (1 Bft)
23.01.2019 01:52 -9,1 °C 91 % 1002,6 hPa 0,0 mm 0,3 km/h (0 Bft) S-SW 202 ° 0 min 0,000 mm 0,0 UV-I 0 W/m² -10,3 °C -9,1 °C 1,6 km/h (1 Bft)
23.01.2019 01:53 -9,1 °C 91 % 1002,6 hPa 0,0 mm 0,0 km/h (0 Bft) S-SW 202 ° 0 min 0,000 mm 0,0 UV-I 0 W/m² -10,3 °C -9,1 °C 0,0 km/h (0 Bft)
23.01.2019 01:54 -9,1 °C 91 % 1002,6 hPa 0,0 mm 0,0 km/h (0 Bft) S-SW 202 ° 0 min 0,000 mm 0,0 UV-I 0 W/m² -10,3 °C -9,1 °C 0,0 km/h (0 Bft)
23.01.2019 01:55 -9,1 °C 91 % 1002,6 hPa 0,0 mm 0,0 km/h (0 Bft) S-SW 202 ° 0 min 0,000 mm 0,0 UV-I 0 W/m² -10,3 °C -9,1 °C 0,0 km/h (0 Bft)
23.01.2019 01:56 -9,1 °C 91 % 1002,6 hPa 0,0 mm 0,0 km/h (0 Bft) S-SW 202 ° 0 min 0,000 mm 0,0 UV-I 0 W/m² -10,3 °C -9,1 °C 0,0 km/h (0 Bft)
23.01.2019 01:57 -9,1 °C 91 % 1002,6 hPa 0,0 mm 0,0 km/h (0 Bft) S-SW 202 ° 0 min 0,000 mm 0,0 UV-I 0 W/m² -10,3 °C -9,1 °C 0,0 km/h (0 Bft)
23.01.2019 01:58 -9,2 °C 91 % 1002,6 hPa 0,0 mm 0,0 km/h (0 Bft) S-SW 202 ° 0 min 0,000 mm 0,0 UV-I 0 W/m² -10,4 °C -9,2 °C 0,0 km/h (0 Bft)
23.01.2019 01:59 -9,1 °C 91 % 1002,6 hPa 0,0 mm 0,0 km/h (0 Bft) S-SW 202 ° 0 min 0,000 mm 0,0 UV-I 0 W/m² -10,3 °C -9,1 °C 0,0 km/h (0 Bft)
23.01.2019 02:00 -9,1 °C 91 % 1002,5 hPa 0,0 mm 0,0 km/h (0 Bft) S-SW 202 ° 0 min 0,000 mm 0,0 UV-I 0 W/m² -10,3 °C -9,1 °C 0,0 km/h (0 Bft)
23.01.2019 02:01 -9,1 °C 91 % 1002,5 hPa 0,0 mm 0,0 km/h (0 Bft) S-SW 202 ° 0 min 0,000 mm 0,0 UV-I 0 W/m² -10,3 °C -9,1 °C 0,0 km/h (0 Bft)
23.01.2019 02:02 -9,1 °C 91 % 1002,5 hPa 0,0 mm 0,0 km/h (0 Bft) S-SW 202 ° 0 min 0,000 mm 0,0 UV-I 0 W/m² -10,3 °C -9,1 °C 0,0 km/h (0 Bft)
23.01.2019 02:03 -9,1 °C 91 % 1002,5 hPa 0,0 mm 0,0 km/h (0 Bft) S-SW 202 ° 0 min 0,000 mm 0,0 UV-I 0 W/m² -10,3 °C -9,1 °C 0,0 km/h (0 Bft)
23.01.2019 02:04 -9,1 °C 91 % 1002,5 hPa 0,0 mm 0,0 km/h (0 Bft) S-SW 202 ° 0 min 0,000 mm 0,0 UV-I 0 W/m² -10,3 °C -9,1 °C 0,0 km/h (0 Bft)
23.01.2019 02:05 -9,1 °C 91 % 1002,5 hPa 0,0 mm 0,0 km/h (0 Bft) S-SW 202 ° 0 min 0,000 mm 0,0 UV-I 0 W/m² -10,3 °C -9,1 °C 0,0 km/h (0 Bft)
23.01.2019 02:06 -9,1 °C 91 % 1002,5 hPa 0,0 mm 0,0 km/h (0 Bft) S-SW 202 ° 0 min 0,000 mm 0,0 UV-I 0 W/m² -10,3 °C -9,1 °C 0,0 km/h (0 Bft)
23.01.2019 02:07 -9,1 °C 91 % 1002,4 hPa 0,0 mm 0,0 km/h (0 Bft) S-SW 202 ° 0 min 0,000 mm 0,0 UV-I 0 W/m² -10,3 °C -9,1 °C 0,0 km/h (0 Bft)
23.01.2019 02:08 -9,2 °C 91 % 1002,4 hPa 0,0 mm 0,0 km/h (0 Bft) S-SW 202 ° 0 min 0,000 mm 0,0 UV-I 0 W/m² -10,4 °C -9,2 °C 0,0 km/h (0 Bft)
23.01.2019 02:09 -9,1 °C 91 % 1002,4 hPa 0,0 mm 0,0 km/h (0 Bft) S-SW 202 ° 0 min 0,000 mm 0,0 UV-I 0 W/m² -10,3 °C -9,1 °C 0,0 km/h (0 Bft)
23.01.2019 02:10 -9,1 °C 91 % 1002,4 hPa 0,0 mm 0,0 km/h (0 Bft) S-SW 202 ° 0 min 0,000 mm 0,0 UV-I 0 W/m² -10,3 °C -9,1 °C 0,0 km/h (0 Bft)
23.01.2019 02:11 -9,1 °C 91 % 1002,4 hPa 0,0 mm 0,0 km/h (0 Bft) S-SW 202 ° 0 min 0,000 mm 0,0 UV-I 0 W/m² -10,3 °C -9,1 °C 0,0 km/h (0 Bft)
23.01.2019 02:12 -9,1 °C 91 % 1002,4 hPa 0,0 mm 0,0 km/h (0 Bft) S-SW 202 ° 0 min 0,000 mm 0,0 UV-I 0 W/m² -10,3 °C -9,1 °C 0,0 km/h (0 Bft)
23.01.2019 02:13 -9,1 °C 91 % 1002,4 hPa 0,0 mm 0,0 km/h (0 Bft) S-SW 202 ° 0 min 0,000 mm 0,0 UV-I 0 W/m² -10,3 °C -9,1 °C 0,0 km/h (0 Bft)
23.01.2019 02:14 -9,1 °C 91 % 1002,4 hPa 0,0 mm 0,0 km/h (0 Bft) S-SW 202 ° 0 min 0,000 mm 0,0 UV-I 0 W/m² -10,3 °C -9,1 °C 0,0 km/h (0 Bft)
23.01.2019 02:15 -9,1 °C 91 % 1002,4 hPa 0,0 mm 0,0 km/h (0 Bft) S-SW 202 ° 0 min 0,000 mm 0,0 UV-I 0 W/m² -10,3 °C -9,1 °C 0,0 km/h (0 Bft)
23.01.2019 02:16 -9,1 °C 91 % 1002,4 hPa 0,0 mm 0,0 km/h (0 Bft) S-SW 202 ° 0 min 0,000 mm 0,0 UV-I 0 W/m² -10,3 °C -9,1 °C 0,0 km/h (0 Bft)
23.01.2019 02:17 -9,1 °C 91 % 1002,4 hPa 0,0 mm 0,0 km/h (0 Bft) S-SW 202 ° 0 min 0,000 mm 0,0 UV-I 0 W/m² -10,3 °C -9,1 °C 0,0 km/h (0 Bft)
23.01.2019 02:18 -9,1 °C 91 % 1002,4 hPa 0,0 mm 0,0 km/h (0 Bft) S-SW 202 ° 0 min 0,000 mm 0,0 UV-I 0 W/m² -10,3 °C -9,1 °C 0,0 km/h (0 Bft)
23.01.2019 02:19 -9,1 °C 91 % 1002,4 hPa 0,0 mm 0,0 km/h (0 Bft) S-SW 202 ° 0 min 0,000 mm 0,0 UV-I 0 W/m² -10,3 °C -9,1 °C 0,0 km/h (0 Bft)
23.01.2019 02:20 -9,1 °C 91 % 1002,4 hPa 0,0 mm 0,0 km/h (0 Bft) S-SW 202 ° 0 min 0,000 mm 0,0 UV-I 0 W/m² -10,3 °C -9,1 °C 0,0 km/h (0 Bft)
23.01.2019 02:21 -9,1 °C 91 % 1002,4 hPa 0,0 mm 0,0 km/h (0 Bft) S-SW 202 ° 0 min 0,000 mm 0,0 UV-I 0 W/m² -10,3 °C -9,1 °C 0,0 km/h (0 Bft)
23.01.2019 02:22 -9,1 °C 91 % 1002,3 hPa 0,0 mm 0,0 km/h (0 Bft) S-SW 202 ° 0 min 0,000 mm 0,0 UV-I 0 W/m² -10,3 °C -9,1 °C 0,0 km/h (0 Bft)
23.01.2019 02:23 -9,1 °C 91 % 1002,3 hPa 0,0 mm 0,0 km/h (0 Bft) S-SW 202 ° 0 min 0,000 mm 0,0 UV-I 0 W/m² -10,3 °C -9,1 °C 0,0 km/h (0 Bft)
23.01.2019 02:24 -9,1 °C 91 % 1002,3 hPa 0,0 mm 0,0 km/h (0 Bft) S-SW 202 ° 0 min 0,000 mm 0,0 UV-I 0 W/m² -10,3 °C -9,1 °C 0,0 km/h (0 Bft)
23.01.2019 02:25 -9,2 °C 91 % 1002,3 hPa 0,0 mm 0,6 km/h (0 Bft) S-SW 202 ° 0 min 0,000 mm 0,0 UV-I 0 W/m² -10,4 °C -9,2 °C 3,2 km/h (1 Bft)
23.01.2019 02:26 -9,1 °C 91 % 1002,3 hPa 0,0 mm 2,8 km/h (1 Bft) S-SW 202 ° 0 min 0,000 mm 0,0 UV-I 0 W/m² -10,3 °C -9,1 °C 3,2 km/h (1 Bft)
23.01.2019 02:27 -9,2 °C 91 % 1002,3 hPa 0,0 mm 3,2 km/h (1 Bft) S-SW 202 ° 0 min 0,000 mm 0,0 UV-I 0 W/m² -10,4 °C -9,2 °C 4,8 km/h (1 Bft)
23.01.2019 02:28 -9,2 °C 91 % 1002,3 hPa 0,0 mm 1,5 km/h (1 Bft) S-SW 202 ° 0 min 0,000 mm 0,0 UV-I 0 W/m² -10,4 °C -9,2 °C 1,6 km/h (1 Bft)
23.01.2019 02:29 -9,2 °C 91 % 1002,3 hPa 0,0 mm 0,1 km/h (0 Bft) S-SW 202 ° 0 min 0,000 mm 0,0 UV-I 0 W/m² -10,4 °C -9,2 °C 1,6 km/h (1 Bft)
23.01.2019 02:30 -9,2 °C 91 % 1002,3 hPa 0,0 mm 0,0 km/h (0 Bft) S-SW 202 ° 0 min 0,000 mm 0,0 UV-I 0 W/m² -10,4 °C -9,2 °C 0,0 km/h (0 Bft)
23.01.2019 02:31 -9,2 °C 91 % 1002,2 hPa 0,0 mm 0,0 km/h (0 Bft) S-SW 202 ° 0 min 0,000 mm 0,0 UV-I 0 W/m² -10,4 °C -9,2 °C 0,0 km/h (0 Bft)
23.01.2019 02:32 -9,2 °C 91 % 1002,2 hPa 0,0 mm 0,0 km/h (0 Bft) S-SW 202 ° 0 min 0,000 mm 0,0 UV-I 0 W/m² -10,4 °C -9,2 °C 0,0 km/h (0 Bft)
23.01.2019 02:33 -9,2 °C 91 % 1002,2 hPa 0,0 mm 1,5 km/h (1 Bft) S-SW 202 ° 0 min 0,000 mm 0,0 UV-I 0 W/m² -10,4 °C -9,2 °C 3,2 km/h (1 Bft)
23.01.2019 02:34 -9,2 °C 91 % 1002,2 hPa 0,0 mm 1,2 km/h (1 Bft) S-SW 202 ° 0 min 0,000 mm 0,0 UV-I 0 W/m² -10,4 °C -9,2 °C 3,2 km/h (1 Bft)
23.01.2019 02:35 -9,2 °C 91 % 1002,2 hPa 0,0 mm 2,3 km/h (1 Bft) S-SW 202 ° 0 min 0,000 mm 0,0 UV-I 0 W/m² -10,4 °C -9,2 °C 3,2 km/h (1 Bft)
23.01.2019 02:36 -9,3 °C 91 % 1002,2 hPa 0,0 mm 1,7 km/h (1 Bft) S-SW 202 ° 0 min 0,000 mm 0,0 UV-I 0 W/m² -10,5 °C -9,3 °C 3,2 km/h (1 Bft)
23.01.2019 02:37 -9,3 °C 91 % 1002,2 hPa 0,0 mm 0,7 km/h (0 Bft) S-SW 202 ° 0 min 0,000 mm 0,0 UV-I 0 W/m² -10,5 °C -9,3 °C 1,6 km/h (1 Bft)
23.01.2019 02:38 -9,3 °C 91 % 1002,1 hPa 0,0 mm 0,0 km/h (0 Bft) S-SW 202 ° 0 min 0,000 mm 0,0 UV-I 0 W/m² -10,5 °C -9,3 °C 0,0 km/h (0 Bft)
23.01.2019 02:39 -9,3 °C 91 % 1002,1 hPa 0,0 mm 0,0 km/h (0 Bft) S-SW 202 ° 0 min 0,000 mm 0,0 UV-I 0 W/m² -10,5 °C -9,3 °C 0,0 km/h (0 Bft)
23.01.2019 02:40 -9,3 °C 91 % 1002,1 hPa 0,0 mm 0,0 km/h (0 Bft) S-SW 202 ° 0 min 0,000 mm 0,0 UV-I 0 W/m² -10,5 °C -9,3 °C 0,0 km/h (0 Bft)
23.01.2019 02:41 -9,4 °C 91 % 1002,1 hPa 0,0 mm 2,7 km/h (1 Bft) S-SW 202 ° 0 min 0,000 mm 0,0 UV-I 0 W/m² -10,6 °C -9,4 °C 3,2 km/h (1 Bft)
23.01.2019 02:42 -9,4 °C 91 % 1002,0 hPa 0,0 mm 2,7 km/h (1 Bft) S-SW 202 ° 0 min 0,000 mm 0,0 UV-I 0 W/m² -10,6 °C -9,4 °C 4,8 km/h (1 Bft)
23.01.2019 02:43 -9,4 °C 91 % 1002,1 hPa 0,0 mm 1,8 km/h (1 Bft) S-SW 202 ° 0 min 0,000 mm 0,0 UV-I 0 W/m² -10,6 °C -9,4 °C 3,2 km/h (1 Bft)
23.01.2019 02:44 -9,4 °C 91 % 1002,0 hPa 0,0 mm 1,2 km/h (1 Bft) S-SW 202 ° 0 min 0,000 mm 0,0 UV-I 0 W/m² -10,6 °C -9,4 °C 3,2 km/h (1 Bft)
23.01.2019 02:45 -9,5 °C 91 % 1002,0 hPa 0,0 mm 0,9 km/h (0 Bft) S-SW 202 ° 0 min 0,000 mm 0,0 UV-I 0 W/m² -10,7 °C -9,5 °C 3,2 km/h (1 Bft)
23.01.2019 02:46 -9,6 °C 91 % 1002,0 hPa 0,0 mm 0,1 km/h (0 Bft) S-SW 202 ° 0 min 0,000 mm 0,0 UV-I 0 W/m² -10,8 °C -9,6 °C 1,6 km/h (1 Bft)
23.01.2019 02:47 -9,6 °C 91 % 1002,0 hPa 0,0 mm 0,6 km/h (0 Bft) S-SW 202 ° 0 min 0,000 mm 0,0 UV-I 0 W/m² -10,8 °C -9,6 °C 1,6 km/h (1 Bft)
23.01.2019 02:48 -9,6 °C 91 % 1002,0 hPa 0,0 mm 1,2 km/h (1 Bft) S-SW 202 ° 0 min 0,000 mm 0,0 UV-I 0 W/m² -10,8 °C -9,6 °C 3,2 km/h (1 Bft)
23.01.2019 02:49 -9,6 °C 91 % 1001,9 hPa 0,0 mm 1,6 km/h (1 Bft) S-SW 202 ° 0 min 0,000 mm 0,0 UV-I 0 W/m² -10,8 °C -9,6 °C 3,2 km/h (1 Bft)
23.01.2019 02:50 -9,7 °C 91 % 1001,9 hPa 0,0 mm 1,5 km/h (1 Bft) S-SW 202 ° 0 min 0,000 mm 0,0 UV-I 0 W/m² -10,9 °C -9,7 °C 3,2 km/h (1 Bft)
23.01.2019 02:51 -9,7 °C 91 % 1001,9 hPa 0,0 mm 0,8 km/h (0 Bft) S-SW 202 ° 0 min 0,000 mm 0,0 UV-I 0 W/m² -10,9 °C -9,7 °C 1,6 km/h (1 Bft)
23.01.2019 02:52 -9,8 °C 91 % 1001,8 hPa 0,0 mm 2,1 km/h (1 Bft) S-SW 202 ° 0 min 0,000 mm 0,0 UV-I 0 W/m² -11,0 °C -9,8 °C 3,2 km/h (1 Bft)
23.01.2019 02:53 -9,8 °C 91 % 1001,8 hPa 0,0 mm 1,9 km/h (1 Bft) S-SW 202 ° 0 min 0,000 mm 0,0 UV-I 0 W/m² -11,0 °C -9,8 °C 3,2 km/h (1 Bft)
23.01.2019 02:54 -9,8 °C 91 % 1001,7 hPa 0,0 mm 1,6 km/h (1 Bft) S-SW 202 ° 0 min 0,000 mm 0,0 UV-I 0 W/m² -11,0 °C -9,8 °C 3,2 km/h (1 Bft)
23.01.2019 02:55 -9,8 °C 91 % 1001,7 hPa 0,0 mm 1,1 km/h (1 Bft) S-SW 202 ° 0 min 0,000 mm 0,0 UV-I 0 W/m² -11,0 °C -9,8 °C 3,2 km/h (1 Bft)
23.01.2019 02:56 -9,9 °C 91 % 1001,8 hPa 0,0 mm 0,8 km/h (0 Bft) S-SW 202 ° 0 min 0,000 mm 0,0 UV-I 0 W/m² -11,1 °C -9,9 °C 3,2 km/h (1 Bft)
23.01.2019 02:57 -9,9 °C 91 % 1001,7 hPa 0,0 mm 0,0 km/h (0 Bft) S-SW 202 ° 0 min 0,000 mm 0,0 UV-I 0 W/m² -11,1 °C -9,9 °C 0,0 km/h (0 Bft)
23.01.2019 02:58 -9,9 °C 91 % 1001,7 hPa 0,0 mm 0,8 km/h (0 Bft) S-SW 202 ° 0 min 0,000 mm 0,0 UV-I 0 W/m² -11,1 °C -9,9 °C 3,2 km/h (1 Bft)
23.01.2019 02:59 -10,0 °C 91 % 1001,7 hPa 0,0 mm 3,2 km/h (1 Bft) S-SW 202 ° 0 min 0,000 mm 0,0 UV-I 0 W/m² -11,2 °C -10,0 °C 4,8 km/h (1 Bft)
23.01.2019 03:00 -10,0 °C 91 % 1001,7 hPa 0,0 mm 3,6 km/h (1 Bft) S-SW 202 ° 0 min 0,000 mm 0,0 UV-I 0 W/m² -11,2 °C -10,0 °C 4,8 km/h (1 Bft)
23.01.2019 03:01 -10,1 °C 91 % 1001,7 hPa 0,0 mm 2,8 km/h (1 Bft) S-SW 202 ° 0 min 0,000 mm 0,0 UV-I 0 W/m² -11,3 °C -10,1 °C 4,8 km/h (1 Bft)
23.01.2019 03:02 -10,1 °C 91 % 1001,7 hPa 0,0 mm 2,5 km/h (1 Bft) S-SW 202 ° 0 min 0,000 mm 0,0 UV-I 0 W/m² -11,3 °C -10,1 °C 3,2 km/h (1 Bft)
23.01.2019 03:03 -10,1 °C 91 % 1001,7 hPa 0,0 mm 3,2 km/h (1 Bft) S-SW 202 ° 0 min 0,000 mm 0,0 UV-I 0 W/m² -11,3 °C -10,1 °C 3,2 km/h (1 Bft)
23.01.2019 03:04 -10,2 °C 91 % 1001,7 hPa 0,0 mm 2,4 km/h (1 Bft) S-SW 202 ° 0 min 0,000 mm 0,0 UV-I 0 W/m² -11,4 °C -10,2 °C 3,2 km/h (1 Bft)
23.01.2019 03:05 -10,2 °C 91 % 1001,7 hPa 0,0 mm 2,9 km/h (1 Bft) S-SW 202 ° 0 min 0,000 mm 0,0 UV-I 0 W/m² -11,4 °C -10,2 °C 4,8 km/h (1 Bft)
23.01.2019 03:06 -10,2 °C 91 % 1001,6 hPa 0,0 mm 3,2 km/h (1 Bft) S-SW 202 ° 0 min 0,000 mm 0,0 UV-I 0 W/m² -11,4 °C -10,2 °C 3,2 km/h (1 Bft)
23.01.2019 03:07 -10,2 °C 91 % 1001,6 hPa 0,0 mm 4,2 km/h (1 Bft) S-SW 202 ° 0 min 0,000 mm 0,0 UV-I 0 W/m² -11,4 °C -10,2 °C 4,8 km/h (1 Bft)
23.01.2019 03:08 -10,2 °C 91 % 1001,6 hPa 0,0 mm 3,7 km/h (1 Bft) S-SW 202 ° 0 min 0,000 mm 0,0 UV-I 0 W/m² -11,4 °C -10,2 °C 4,8 km/h (1 Bft)
23.01.2019 03:09 -10,2 °C 91 % 1001,6 hPa 0,0 mm 3,0 km/h (1 Bft) S-SW 202 ° 0 min 0,000 mm 0,0 UV-I 0 W/m² -11,4 °C -10,2 °C 3,2 km/h (1 Bft)
23.01.2019 03:10 -10,2 °C 91 % 1001,6 hPa 0,0 mm 2,2 km/h (1 Bft) S-SW 202 ° 0 min 0,000 mm 0,0 UV-I 0 W/m² -11,4 °C -10,2 °C 3,2 km/h (1 Bft)
23.01.2019 03:11 -10,3 °C 91 % 1001,6 hPa 0,0 mm 1,9 km/h (1 Bft) S-SW 202 ° 0 min 0,000 mm 0,0 UV-I 0 W/m² -11,5 °C -10,3 °C 3,2 km/h (1 Bft)
23.01.2019 03:12 -10,3 °C 91 % 1001,6 hPa 0,0 mm 1,7 km/h (1 Bft) S-SW 202 ° 0 min 0,000 mm 0,0 UV-I 0 W/m² -11,5 °C -10,3 °C 3,2 km/h (1 Bft)
23.01.2019 03:13 -10,2 °C 91 % 1001,6 hPa 0,0 mm 1,9 km/h (1 Bft) S-SW 202 ° 0 min 0,000 mm 0,0 UV-I 0 W/m² -11,4 °C -10,2 °C 3,2 km/h (1 Bft)
23.01.2019 03:14 -10,3 °C 91 % 1001,5 hPa 0,0 mm 1,9 km/h (1 Bft) S-SW 202 ° 0 min 0,000 mm 0,0 UV-I 0 W/m² -11,5 °C -10,3 °C 3,2 km/h (1 Bft)
23.01.2019 03:15 -10,3 °C 91 % 1001,5 hPa 0,0 mm 0,6 km/h (0 Bft) S-SW 202 ° 0 min 0,000 mm 0,0 UV-I 0 W/m² -11,5 °C -10,3 °C 1,6 km/h (1 Bft)
23.01.2019 03:16 -10,3 °C 91 % 1001,5 hPa 0,0 mm 0,3 km/h (0 Bft) S-SW 202 ° 0 min 0,000 mm 0,0 UV-I 0 W/m² -11,5 °C -10,3 °C 1,6 km/h (1 Bft)
23.01.2019 03:17 -10,3 °C 91 % 1001,4 hPa 0,0 mm 2,3 km/h (1 Bft) S-SW 202 ° 0 min 0,000 mm 0,0 UV-I 0 W/m² -11,5 °C -10,3 °C 3,2 km/h (1 Bft)
23.01.2019 03:18 -10,3 °C 91 % 1001,4 hPa 0,0 mm 2,4 km/h (1 Bft) S-SW 202 ° 0 min 0,000 mm 0,0 UV-I 0 W/m² -11,5 °C -10,3 °C 3,2 km/h (1 Bft)
23.01.2019 03:19 -10,3 °C 91 % 1001,4 hPa 0,0 mm 2,0 km/h (1 Bft) S-SW 202 ° 0 min 0,000 mm 0,0 UV-I 0 W/m² -11,5 °C -10,3 °C 3,2 km/h (1 Bft)
23.01.2019 03:20 -10,3 °C 91 % 1001,4 hPa 0,0 mm 1,3 km/h (1 Bft) S-SW 202 ° 0 min 0,000 mm 0,0 UV-I 0 W/m² -11,5 °C -10,3 °C 1,6 km/h (1 Bft)
23.01.2019 03:21 -10,3 °C 91 % 1001,4 hPa 0,0 mm 2,2 km/h (1 Bft) S-SW 202 ° 0 min 0,000 mm 0,0 UV-I 0 W/m² -11,5 °C -10,3 °C 3,2 km/h (1 Bft)
23.01.2019 03:22 -10,3 °C 91 % 1001,4 hPa 0,0 mm 1,6 km/h (1 Bft) S-SW 202 ° 0 min 0,000 mm 0,0 UV-I 0 W/m² -11,5 °C -10,3 °C 3,2 km/h (1 Bft)
23.01.2019 03:23 -10,3 °C 91 % 1001,3 hPa 0,0 mm 2,7 km/h (1 Bft) S-SW 202 ° 0 min 0,000 mm 0,0 UV-I 0 W/m² -11,5 °C -10,3 °C 3,2 km/h (1 Bft)
23.01.2019 03:24 -10,3 °C 91 % 1001,4 hPa 0,0 mm 3,0 km/h (1 Bft) S-SW 202 ° 0 min 0,000 mm 0,0 UV-I 0 W/m² -11,5 °C -10,3 °C 3,2 km/h (1 Bft)
23.01.2019 03:25 -10,3 °C 91 % 1001,3 hPa 0,0 mm 4,9 km/h (1 Bft) S-SW 202 ° 0 min 0,000 mm 0,0 UV-I 0 W/m² -11,5 °C -13,2 °C 6,4 km/h (2 Bft)
23.01.2019 03:26 -10,3 °C 91 % 1001,3 hPa 0,0 mm 3,4 km/h (1 Bft) S-SW 202 ° 0 min 0,000 mm 0,0 UV-I 0 W/m² -11,5 °C -10,3 °C 4,8 km/h (1 Bft)
23.01.2019 03:27 -10,3 °C 91 % 1001,3 hPa 0,0 mm 4,6 km/h (1 Bft) S-SW 202 ° 0 min 0,000 mm 0,0 UV-I 0 W/m² -11,5 °C -13,0 °C 4,8 km/h (1 Bft)
23.01.2019 03:28 -10,3 °C 91 % 1001,2 hPa 0,0 mm 5,0 km/h (1 Bft) S-SW 202 ° 0 min 0,000 mm 0,0 UV-I 0 W/m² -11,5 °C -13,3 °C 6,4 km/h (2 Bft)
23.01.2019 03:29 -10,3 °C 91 % 1001,2 hPa 0,0 mm 4,8 km/h (1 Bft) S-SW 202 ° 0 min 0,000 mm 0,0 UV-I 0 W/m² -11,5 °C -13,1 °C 6,4 km/h (2 Bft)
23.01.2019 03:30 -10,3 °C 91 % 1001,2 hPa 0,0 mm 4,5 km/h (1 Bft) S-SW 202 ° 0 min 0,000 mm 0,0 UV-I 0 W/m² -11,5 °C -10,3 °C 4,8 km/h (1 Bft)
23.01.2019 03:31 -10,4 °C 91 % 1001,1 hPa 0,0 mm 3,6 km/h (1 Bft) S-SW 202 ° 0 min 0,000 mm 0,0 UV-I 0 W/m² -11,6 °C -10,4 °C 4,8 km/h (1 Bft)
23.01.2019 03:32 -10,4 °C 91 % 1001,2 hPa 0,0 mm 3,1 km/h (1 Bft) S-SW 202 ° 0 min 0,000 mm 0,0 UV-I 0 W/m² -11,6 °C -10,4 °C 4,8 km/h (1 Bft)
23.01.2019 03:33 -10,4 °C 91 % 1001,1 hPa 0,0 mm 1,3 km/h (1 Bft) S-SW 202 ° 0 min 0,000 mm 0,0 UV-I 0 W/m² -11,6 °C -10,4 °C 3,2 km/h (1 Bft)
23.01.2019 03:34 -10,4 °C 91 % 1001,0 hPa 0,0 mm 0,0 km/h (0 Bft) S-SW 202 ° 0 min 0,000 mm 0,0 UV-I 0 W/m² -11,6 °C -10,4 °C 0,0 km/h (0 Bft)
23.01.2019 03:35 -10,4 °C 90 % 1001,0 hPa 0,0 mm 0,0 km/h (0 Bft) S-SW 202 ° 0 min 0,000 mm 0,0 UV-I 0 W/m² -11,7 °C -10,4 °C 0,0 km/h (0 Bft)
23.01.2019 03:36 -10,4 °C 90 % 1001,1 hPa 0,0 mm 0,0 km/h (0 Bft) S-SW 202 ° 0 min 0,000 mm 0,0 UV-I 0 W/m² -11,7 °C -10,4 °C 0,0 km/h (0 Bft)
23.01.2019 03:37 -10,4 °C 90 % 1001,1 hPa 0,0 mm 0,0 km/h (0 Bft) S-SW 202 ° 0 min 0,000 mm 0,0 UV-I 0 W/m² -11,7 °C -10,4 °C 0,0 km/h (0 Bft)
23.01.2019 03:38 -10,4 °C 90 % 1001,0 hPa 0,0 mm 0,0 km/h (0 Bft) S-SW 202 ° 0 min 0,000 mm 0,0 UV-I 0 W/m² -11,7 °C -10,4 °C 0,0 km/h (0 Bft)
23.01.2019 03:39 -10,5 °C 90 % 1001,0 hPa 0,0 mm 0,0 km/h (0 Bft) S-SW 202 ° 0 min 0,000 mm 0,0 UV-I 0 W/m² -11,8 °C -10,5 °C 0,0 km/h (0 Bft)
23.01.2019 03:40 -10,5 °C 90 % 1001,0 hPa 0,0 mm 0,0 km/h (0 Bft) S-SW 202 ° 0 min 0,000 mm 0,0 UV-I 0 W/m² -11,8 °C -10,5 °C 0,0 km/h (0 Bft)
23.01.2019 03:41 -10,5 °C 90 % 1001,0 hPa 0,0 mm 0,0 km/h (0 Bft) S-SW 202 ° 0 min 0,000 mm 0,0 UV-I 0 W/m² -11,8 °C -10,5 °C 0,0 km/h (0 Bft)
23.01.2019 03:42 -10,6 °C 90 % 1000,9 hPa 0,0 mm 0,0 km/h (0 Bft) S-SW 202 ° 0 min 0,000 mm 0,0 UV-I 0 W/m² -11,9 °C -10,6 °C 0,0 km/h (0 Bft)
23.01.2019 03:43 -10,5 °C 90 % 1000,9 hPa 0,0 mm 0,0 km/h (0 Bft) S-SW 202 ° 0 min 0,000 mm 0,0 UV-I 0 W/m² -11,8 °C -10,5 °C 0,0 km/h (0 Bft)
23.01.2019 03:44 -10,6 °C 90 % 1000,9 hPa 0,0 mm 0,0 km/h (0 Bft) S-SW 202 ° 0 min 0,000 mm 0,0 UV-I 0 W/m² -11,9 °C -10,6 °C 0,0 km/h (0 Bft)
23.01.2019 03:45 -10,6 °C 90 % 1000,9 hPa 0,0 mm 0,0 km/h (0 Bft) S-SW 202 ° 0 min 0,000 mm 0,0 UV-I 0 W/m² -11,9 °C -10,6 °C 0,0 km/h (0 Bft)
23.01.2019 03:46 -10,6 °C 90 % 1000,9 hPa 0,0 mm 0,0 km/h (0 Bft) S-SW 202 ° 0 min 0,000 mm 0,0 UV-I 0 W/m² -11,9 °C -10,6 °C 0,0 km/h (0 Bft)
23.01.2019 03:47 -10,6 °C 90 % 1000,8 hPa 0,0 mm 0,0 km/h (0 Bft) S-SW 202 ° 0 min 0,000 mm 0,0 UV-I 0 W/m² -11,9 °C -10,6 °C 0,0 km/h (0 Bft)
23.01.2019 03:48 -10,6 °C 90 % 1000,8 hPa 0,0 mm 0,0 km/h (0 Bft) S-SW 202 ° 0 min 0,000 mm 0,0 UV-I 0 W/m² -11,9 °C -10,6 °C 0,0 km/h (0 Bft)
23.01.2019 03:49 -10,6 °C 90 % 1000,8 hPa 0,0 mm 0,0 km/h (0 Bft) S-SW 202 ° 0 min 0,000 mm 0,0 UV-I 0 W/m² -11,9 °C -10,6 °C 0,0 km/h (0 Bft)
23.01.2019 03:50 -10,6 °C 90 % 1000,8 hPa 0,0 mm 0,0 km/h (0 Bft) S-SW 202 ° 0 min 0,000 mm 0,0 UV-I 0 W/m² -11,9 °C -10,6 °C 0,0 km/h (0 Bft)
23.01.2019 03:51 -10,6 °C 90 % 1000,8 hPa 0,0 mm 0,0 km/h (0 Bft) S-SW 202 ° 0 min 0,000 mm 0,0 UV-I 0 W/m² -11,9 °C -10,6 °C 0,0 km/h (0 Bft)
23.01.2019 03:52 -10,6 °C 90 % 1000,8 hPa 0,0 mm 0,0 km/h (0 Bft) S-SW 202 ° 0 min 0,000 mm 0,0 UV-I 0 W/m² -11,9 °C -10,6 °C 0,0 km/h (0 Bft)
23.01.2019 03:53 -10,6 °C 90 % 1000,8 hPa 0,0 mm 0,0 km/h (0 Bft) S-SW 202 ° 0 min 0,000 mm 0,0 UV-I 0 W/m² -11,9 °C -10,6 °C 0,0 km/h (0 Bft)
23.01.2019 03:54 -10,6 °C 90 % 1000,7 hPa 0,0 mm 0,0 km/h (0 Bft) S-SW 202 ° 0 min 0,000 mm 0,0 UV-I 0 W/m² -11,9 °C -10,6 °C 0,0 km/h (0 Bft)
23.01.2019 03:55 -10,6 °C 90 % 1000,7 hPa 0,0 mm 0,0 km/h (0 Bft) S-SW 202 ° 0 min 0,000 mm 0,0 UV-I 0 W/m² -11,9 °C -10,6 °C 0,0 km/h (0 Bft)
23.01.2019 03:56 -10,6 °C 90 % 1000,7 hPa 0,0 mm 0,0 km/h (0 Bft) S-SW 202 ° 0 min 0,000 mm 0,0 UV-I 0 W/m² -11,9 °C -10,6 °C 0,0 km/h (0 Bft)
23.01.2019 03:57 -10,7 °C 90 % 1000,7 hPa 0,0 mm 0,0 km/h (0 Bft) S-SW 202 ° 0 min 0,000 mm 0,0 UV-I 0 W/m² -12,0 °C -10,7 °C 0,0 km/h (0 Bft)
23.01.2019 03:58 -10,7 °C 90 % 1000,7 hPa 0,0 mm 0,0 km/h (0 Bft) S-SW 202 ° 0 min 0,000 mm 0,0 UV-I 0 W/m² -12,0 °C -10,7 °C 0,0 km/h (0 Bft)
23.01.2019 03:59 -10,7 °C 90 % 1000,7 hPa 0,0 mm 0,0 km/h (0 Bft) S-SW 202 ° 0 min 0,000 mm 0,0 UV-I 0 W/m² -12,0 °C -10,7 °C 0,0 km/h (0 Bft)
23.01.2019 04:00 -10,7 °C 90 % 1000,7 hPa 0,0 mm 0,0 km/h (0 Bft) S-SW 202 ° 0 min 0,000 mm 0,0 UV-I 0 W/m² -12,0 °C -10,7 °C 0,0 km/h (0 Bft)
23.01.2019 04:01 -10,7 °C 90 % 1000,7 hPa 0,0 mm 0,0 km/h (0 Bft) S-SW 202 ° 0 min 0,000 mm 0,0 UV-I 0 W/m² -12,0 °C -10,7 °C 0,0 km/h (0 Bft)
23.01.2019 04:02 -10,7 °C 90 % 1000,7 hPa 0,0 mm 0,0 km/h (0 Bft) S-SW 202 ° 0 min 0,000 mm 0,0 UV-I 0 W/m² -12,0 °C -10,7 °C 0,0 km/h (0 Bft)
23.01.2019 04:03 -10,7 °C 90 % 1000,7 hPa 0,0 mm 0,0 km/h (0 Bft) S-SW 202 ° 0 min 0,000 mm 0,0 UV-I 0 W/m² -12,0 °C -10,7 °C 0,0 km/h (0 Bft)
23.01.2019 04:04 -10,7 °C 90 % 1000,7 hPa 0,0 mm 0,0 km/h (0 Bft) S-SW 202 ° 0 min 0,000 mm 0,0 UV-I 0 W/m² -12,0 °C -10,7 °C 0,0 km/h (0 Bft)
23.01.2019 04:05 -10,8 °C 90 % 1000,6 hPa 0,0 mm 0,0 km/h (0 Bft) S-SW 202 ° 0 min 0,000 mm 0,0 UV-I 0 W/m² -12,1 °C -10,8 °C 0,0 km/h (0 Bft)
23.01.2019 04:06 -10,8 °C 90 % 1000,6 hPa 0,0 mm 0,0 km/h (0 Bft) S-SW 202 ° 0 min 0,000 mm 0,0 UV-I 0 W/m² -12,1 °C -10,8 °C 0,0 km/h (0 Bft)
23.01.2019 04:07 -10,8 °C 90 % 1000,6 hPa 0,0 mm 0,0 km/h (0 Bft) S-SW 202 ° 0 min 0,000 mm 0,0 UV-I 0 W/m² -12,1 °C -10,8 °C 0,0 km/h (0 Bft)
23.01.2019 04:08 -10,8 °C 90 % 1000,6 hPa 0,0 mm 0,0 km/h (0 Bft) S-SW 202 ° 0 min 0,000 mm 0,0 UV-I 0 W/m² -12,1 °C -10,8 °C 0,0 km/h (0 Bft)
23.01.2019 04:09 -10,8 °C 90 % 1000,6 hPa 0,0 mm 0,0 km/h (0 Bft) S-SW 202 ° 0 min 0,000 mm 0,0 UV-I 0 W/m² -12,1 °C -10,8 °C 0,0 km/h (0 Bft)
23.01.2019 04:10 -10,8 °C 90 % 1000,6 hPa 0,0 mm 0,0 km/h (0 Bft) S-SW 202 ° 0 min 0,000 mm 0,0 UV-I 0 W/m² -12,1 °C -10,8 °C 0,0 km/h (0 Bft)
23.01.2019 04:11 -10,9 °C 90 % 1000,6 hPa 0,0 mm 0,0 km/h (0 Bft) S-SW 202 ° 0 min 0,000 mm 0,0 UV-I 0 W/m² -12,2 °C -10,9 °C 0,0 km/h (0 Bft)
23.01.2019 04:12 -10,8 °C 90 % 1000,6 hPa 0,0 mm 0,0 km/h (0 Bft) S-SW 202 ° 0 min 0,000 mm 0,0 UV-I 0 W/m² -12,1 °C -10,8 °C 0,0 km/h (0 Bft)
23.01.2019 04:13 -10,9 °C 90 % 1000,5 hPa 0,0 mm 0,0 km/h (0 Bft) S-SW 202 ° 0 min 0,000 mm 0,0 UV-I 0 W/m² -12,2 °C -10,9 °C 0,0 km/h (0 Bft)
23.01.2019 04:14 -10,9 °C 90 % 1000,5 hPa 0,0 mm 0,0 km/h (0 Bft) S-SW 202 ° 0 min 0,000 mm 0,0 UV-I 0 W/m² -12,2 °C -10,9 °C 0,0 km/h (0 Bft)
23.01.2019 04:15 -10,9 °C 90 % 1000,6 hPa 0,0 mm 0,0 km/h (0 Bft) S-SW 202 ° 0 min 0,000 mm 0,0 UV-I 0 W/m² -12,2 °C -10,9 °C 0,0 km/h (0 Bft)
23.01.2019 04:16 -10,9 °C 90 % 1000,6 hPa 0,0 mm 0,0 km/h (0 Bft) S-SW 202 ° 0 min 0,000 mm 0,0 UV-I 0 W/m² -12,2 °C -10,9 °C 0,0 km/h (0 Bft)
23.01.2019 04:17 -10,9 °C 90 % 1000,6 hPa 0,0 mm 0,0 km/h (0 Bft) S-SW 202 ° 0 min 0,000 mm 0,0 UV-I 0 W/m² -12,2 °C -10,9 °C 0,0 km/h (0 Bft)
23.01.2019 04:18 -10,9 °C 90 % 1000,6 hPa 0,0 mm 0,0 km/h (0 Bft) S-SW 202 ° 0 min 0,000 mm 0,0 UV-I 0 W/m² -12,2 °C -10,9 °C 0,0 km/h (0 Bft)
23.01.2019 04:19 -10,9 °C 90 % 1000,6 hPa 0,0 mm 0,0 km/h (0 Bft) S-SW 202 ° 0 min 0,000 mm 0,0 UV-I 0 W/m² -12,2 °C -10,9 °C 0,0 km/h (0 Bft)
23.01.2019 04:20 -10,9 °C 90 % 1000,6 hPa 0,0 mm 0,0 km/h (0 Bft) S-SW 202 ° 0 min 0,000 mm 0,0 UV-I 0 W/m² -12,2 °C -10,9 °C 0,0 km/h (0 Bft)
23.01.2019 04:21 -10,9 °C 90 % 1000,6 hPa 0,0 mm 0,0 km/h (0 Bft) S-SW 202 ° 0 min 0,000 mm 0,0 UV-I 0 W/m² -12,2 °C -10,9 °C 0,0 km/h (0 Bft)
23.01.2019 04:22 -11,0 °C 90 % 1000,6 hPa 0,0 mm 0,0 km/h (0 Bft) S-SW 202 ° 0 min 0,000 mm 0,0 UV-I 0 W/m² -12,3 °C -11,0 °C 0,0 km/h (0 Bft)
23.01.2019 04:23 -11,0 °C 90 % 1000,6 hPa 0,0 mm 0,0 km/h (0 Bft) S-SW 202 ° 0 min 0,000 mm 0,0 UV-I 0 W/m² -12,3 °C -11,0 °C 0,0 km/h (0 Bft)
23.01.2019 04:24 -11,1 °C 90 % 1000,6 hPa 0,0 mm 0,3 km/h (0 Bft) S-SW 202 ° 0 min 0,000 mm 0,0 UV-I 0 W/m² -12,4 °C -11,1 °C 1,6 km/h (1 Bft)
23.01.2019 04:25 -11,1 °C 90 % 1000,6 hPa 0,0 mm 1,2 km/h (1 Bft) S-SW 202 ° 0 min 0,000 mm 0,0 UV-I 0 W/m² -12,4 °C -11,1 °C 3,2 km/h (1 Bft)
23.01.2019 04:26 -11,1 °C 90 % 1000,5 hPa 0,0 mm 0,1 km/h (0 Bft) S-SW 202 ° 0 min 0,000 mm 0,0 UV-I 0 W/m² -12,4 °C -11,1 °C 1,6 km/h (1 Bft)
23.01.2019 04:27 -11,1 °C 90 % 1000,6 hPa 0,0 mm 0,0 km/h (0 Bft) S-SW 202 ° 0 min 0,000 mm 0,0 UV-I 0 W/m² -12,4 °C -11,1 °C 0,0 km/h (0 Bft)
23.01.2019 04:28 -11,1 °C 90 % 1000,6 hPa 0,0 mm 0,0 km/h (0 Bft) S-SW 202 ° 0 min 0,000 mm 0,0 UV-I 0 W/m² -12,4 °C -11,1 °C 0,0 km/h (0 Bft)
23.01.2019 04:29 -11,1 °C 90 % 1000,5 hPa 0,0 mm 0,0 km/h (0 Bft) S-SW 202 ° 0 min 0,000 mm 0,0 UV-I 0 W/m² -12,4 °C -11,1 °C 0,0 km/h (0 Bft)
23.01.2019 04:30 -11,1 °C 90 % 1000,5 hPa 0,0 mm 0,0 km/h (0 Bft) S-SW 202 ° 0 min 0,000 mm 0,0 UV-I 0 W/m² -12,4 °C -11,1 °C 0,0 km/h (0 Bft)
23.01.2019 04:31 -11,1 °C 90 % 1000,5 hPa 0,0 mm 0,0 km/h (0 Bft) S-SW 202 ° 0 min 0,000 mm 0,0 UV-I 0 W/m² -12,4 °C -11,1 °C 0,0 km/h (0 Bft)
23.01.2019 04:32 -11,1 °C 90 % 1000,5 hPa 0,0 mm 0,0 km/h (0 Bft) S-SW 202 ° 0 min 0,000 mm 0,0 UV-I 0 W/m² -12,4 °C -11,1 °C 0,0 km/h (0 Bft)
23.01.2019 04:33 -11,1 °C 90 % 1000,5 hPa 0,0 mm 0,0 km/h (0 Bft) S-SW 202 ° 0 min 0,000 mm 0,0 UV-I 0 W/m² -12,4 °C -11,1 °C 0,0 km/h (0 Bft)
23.01.2019 04:34 -11,1 °C 90 % 1000,5 hPa 0,0 mm 0,0 km/h (0 Bft) S-SW 202 ° 0 min 0,000 mm 0,0 UV-I 0 W/m² -12,4 °C -11,1 °C 0,0 km/h (0 Bft)
23.01.2019 04:35 -11,1 °C 90 % 1000,5 hPa 0,0 mm 0,0 km/h (0 Bft) S-SW 202 ° 0 min 0,000 mm 0,0 UV-I 0 W/m² -12,4 °C -11,1 °C 0,0 km/h (0 Bft)
23.01.2019 04:36 -11,1 °C 90 % 1000,6 hPa 0,0 mm 0,0 km/h (0 Bft) S-SW 202 ° 0 min 0,000 mm 0,0 UV-I 0 W/m² -12,4 °C -11,1 °C 0,0 km/h (0 Bft)
23.01.2019 04:37 -11,1 °C 90 % 1000,6 hPa 0,0 mm 0,0 km/h (0 Bft) S-SW 202 ° 0 min 0,000 mm 0,0 UV-I 0 W/m² -12,4 °C -11,1 °C 0,0 km/h (0 Bft)
23.01.2019 04:38 -11,1 °C 90 % 1000,6 hPa 0,0 mm 0,0 km/h (0 Bft) S-SW 202 ° 0 min 0,000 mm 0,0 UV-I 0 W/m² -12,4 °C -11,1 °C 0,0 km/h (0 Bft)
23.01.2019 04:39 -11,1 °C 90 % 1000,5 hPa 0,0 mm 0,0 km/h (0 Bft) S-SW 202 ° 0 min 0,000 mm 0,0 UV-I 0 W/m² -12,4 °C -11,1 °C 0,0 km/h (0 Bft)
23.01.2019 04:40 -11,1 °C 90 % 1000,5 hPa 0,0 mm 0,0 km/h (0 Bft) S-SW 202 ° 0 min 0,000 mm 0,0 UV-I 0 W/m² -12,4 °C -11,1 °C 0,0 km/h (0 Bft)
23.01.2019 04:41 -11,1 °C 90 % 1000,5 hPa 0,0 mm 0,0 km/h (0 Bft) S-SW 202 ° 0 min 0,000 mm 0,0 UV-I 0 W/m² -12,4 °C -11,1 °C 0,0 km/h (0 Bft)
23.01.2019 04:42 -11,1 °C 90 % 1000,5 hPa 0,0 mm 0,0 km/h (0 Bft) S-SW 202 ° 0 min 0,000 mm 0,0 UV-I 0 W/m² -12,4 °C -11,1 °C 0,0 km/h (0 Bft)
23.01.2019 04:43 -11,2 °C 90 % 1000,5 hPa 0,0 mm 0,0 km/h (0 Bft) S-SW 202 ° 0 min 0,000 mm 0,0 UV-I 0 W/m² -12,5 °C -11,2 °C 0,0 km/h (0 Bft)
23.01.2019 04:44 -11,2 °C 90 % 1000,5 hPa 0,0 mm 0,0 km/h (0 Bft) S-SW 202 ° 0 min 0,000 mm 0,0 UV-I 0 W/m² -12,5 °C -11,2 °C 0,0 km/h (0 Bft)
23.01.2019 04:45 -11,2 °C 89 % 1000,5 hPa 0,0 mm 0,0 km/h (0 Bft) S-SW 202 ° 0 min 0,000 mm 0,0 UV-I 0 W/m² -12,6 °C -11,2 °C 0,0 km/h (0 Bft)
23.01.2019 04:46 -11,2 °C 89 % 1000,5 hPa 0,0 mm 0,0 km/h (0 Bft) S-SW 202 ° 0 min 0,000 mm 0,0 UV-I 0 W/m² -12,6 °C -11,2 °C 0,0 km/h (0 Bft)
23.01.2019 04:47 -11,2 °C 89 % 1000,4 hPa 0,0 mm 0,0 km/h (0 Bft) S-SW 202 ° 0 min 0,000 mm 0,0 UV-I 0 W/m² -12,6 °C -11,2 °C 0,0 km/h (0 Bft)
23.01.2019 04:48 -11,2 °C 90 % 1000,4 hPa 0,0 mm 0,0 km/h (0 Bft) S-SW 202 ° 0 min 0,000 mm 0,0 UV-I 0 W/m² -12,5 °C -11,2 °C 0,0 km/h (0 Bft)
23.01.2019 04:49 -11,2 °C 90 % 1000,4 hPa 0,0 mm 0,0 km/h (0 Bft) S-SW 202 ° 0 min 0,000 mm 0,0 UV-I 0 W/m² -12,5 °C -11,2 °C 0,0 km/h (0 Bft)
23.01.2019 04:50 -11,2 °C 90 % 1000,4 hPa 0,0 mm 0,0 km/h (0 Bft) S-SW 202 ° 0 min 0,000 mm 0,0 UV-I 0 W/m² -12,5 °C -11,2 °C 0,0 km/h (0 Bft)
23.01.2019 04:51 -11,2 °C 90 % 1000,4 hPa 0,0 mm 0,0 km/h (0 Bft) S-SW 202 ° 0 min 0,000 mm 0,0 UV-I 0 W/m² -12,5 °C -11,2 °C 0,0 km/h (0 Bft)
23.01.2019 04:52 -11,2 °C 90 % 1000,4 hPa 0,0 mm 0,0 km/h (0 Bft) S-SW 202 ° 0 min 0,000 mm 0,0 UV-I 0 W/m² -12,5 °C -11,2 °C 0,0 km/h (0 Bft)
23.01.2019 04:53 -11,2 °C 90 % 1000,3 hPa 0,0 mm 0,0 km/h (0 Bft) S-SW 202 ° 0 min 0,000 mm 0,0 UV-I 0 W/m² -12,5 °C -11,2 °C 0,0 km/h (0 Bft)
23.01.2019 04:54 -11,3 °C 90 % 1000,3 hPa 0,0 mm 0,0 km/h (0 Bft) S-SW 202 ° 0 min 0,000 mm 0,0 UV-I 0 W/m² -12,6 °C -11,3 °C 0,0 km/h (0 Bft)
23.01.2019 04:55 -11,2 °C 90 % 1000,3 hPa 0,0 mm 0,0 km/h (0 Bft) S-SW 202 ° 0 min 0,000 mm 0,0 UV-I 0 W/m² -12,5 °C -11,2 °C 0,0 km/h (0 Bft)
23.01.2019 04:56 -11,2 °C 90 % 1000,3 hPa 0,0 mm 0,0 km/h (0 Bft) S-SW 202 ° 0 min 0,000 mm 0,0 UV-I 0 W/m² -12,5 °C -11,2 °C 0,0 km/h (0 Bft)
23.01.2019 04:57 -11,2 °C 90 % 1000,3 hPa 0,0 mm 0,0 km/h (0 Bft) S-SW 202 ° 0 min 0,000 mm 0,0 UV-I 0 W/m² -12,5 °C -11,2 °C 0,0 km/h (0 Bft)
23.01.2019 04:58 -11,2 °C 90 % 1000,3 hPa 0,0 mm 0,0 km/h (0 Bft) S-SW 202 ° 0 min 0,000 mm 0,0 UV-I 0 W/m² -12,5 °C -11,2 °C 0,0 km/h (0 Bft)
23.01.2019 04:59 -11,2 °C 90 % 1000,3 hPa 0,0 mm 0,0 km/h (0 Bft) S-SW 202 ° 0 min 0,000 mm 0,0 UV-I 0 W/m² -12,5 °C -11,2 °C 0,0 km/h (0 Bft)
23.01.2019 05:00 -11,2 °C 90 % 1000,3 hPa 0,0 mm 0,0 km/h (0 Bft) S-SW 202 ° 0 min 0,000 mm 0,0 UV-I 0 W/m² -12,5 °C -11,2 °C 0,0 km/h (0 Bft)
23.01.2019 05:01 -11,2 °C 90 % 1000,3 hPa 0,0 mm 0,0 km/h (0 Bft) S-SW 202 ° 0 min 0,000 mm 0,0 UV-I 0 W/m² -12,5 °C -11,2 °C 0,0 km/h (0 Bft)
23.01.2019 05:02 -11,2 °C 90 % 1000,3 hPa 0,0 mm 0,0 km/h (0 Bft) S-SW 202 ° 0 min 0,000 mm 0,0 UV-I 0 W/m² -12,5 °C -11,2 °C 0,0 km/h (0 Bft)
23.01.2019 05:03 -11,2 °C 90 % 1000,2 hPa 0,0 mm 0,0 km/h (0 Bft) S-SW 202 ° 0 min 0,000 mm 0,0 UV-I 0 W/m² -12,5 °C -11,2 °C 0,0 km/h (0 Bft)
23.01.2019 05:04 -11,2 °C 90 % 1000,3 hPa 0,0 mm 0,0 km/h (0 Bft) S-SW 202 ° 0 min 0,000 mm 0,0 UV-I 0 W/m² -12,5 °C -11,2 °C 0,0 km/h (0 Bft)
23.01.2019 05:05 -11,2 °C 90 % 1000,2 hPa 0,0 mm 0,0 km/h (0 Bft) S-SW 202 ° 0 min 0,000 mm 0,0 UV-I 0 W/m² -12,5 °C -11,2 °C 0,0 km/h (0 Bft)
23.01.2019 05:06 -11,2 °C 90 % 1000,3 hPa 0,0 mm 0,0 km/h (0 Bft) S-SW 202 ° 0 min 0,000 mm 0,0 UV-I 0 W/m² -12,5 °C -11,2 °C 0,0 km/h (0 Bft)
23.01.2019 05:07 -11,2 °C 90 % 1000,3 hPa 0,0 mm 0,0 km/h (0 Bft) S-SW 202 ° 0 min 0,000 mm 0,0 UV-I 0 W/m² -12,5 °C -11,2 °C 0,0 km/h (0 Bft)
23.01.2019 05:08 -11,2 °C 90 % 1000,2 hPa 0,0 mm 0,0 km/h (0 Bft) S-SW 202 ° 0 min 0,000 mm 0,0 UV-I 0 W/m² -12,5 °C -11,2 °C 0,0 km/h (0 Bft)
23.01.2019 05:09 -11,2 °C 90 % 1000,2 hPa 0,0 mm 0,0 km/h (0 Bft) S-SW 202 ° 0 min 0,000 mm 0,0 UV-I 0 W/m² -12,5 °C -11,2 °C 0,0 km/h (0 Bft)
23.01.2019 05:10 -11,2 °C 90 % 1000,2 hPa 0,0 mm 0,0 km/h (0 Bft) S-SW 202 ° 0 min 0,000 mm 0,0 UV-I 0 W/m² -12,5 °C -11,2 °C 0,0 km/h (0 Bft)
23.01.2019 05:11 -11,2 °C 90 % 1000,2 hPa 0,0 mm 0,0 km/h (0 Bft) S-SW 202 ° 0 min 0,000 mm 0,0 UV-I 0 W/m² -12,5 °C -11,2 °C 0,0 km/h (0 Bft)
23.01.2019 05:12 -11,3 °C 90 % 1000,2 hPa 0,0 mm 0,0 km/h (0 Bft) S-SW 202 ° 0 min 0,000 mm 0,0 UV-I 0 W/m² -12,6 °C -11,3 °C 0,0 km/h (0 Bft)
23.01.2019 05:13 -11,3 °C 90 % 1000,2 hPa 0,0 mm 0,0 km/h (0 Bft) S-SW 202 ° 0 min 0,000 mm 0,0 UV-I 0 W/m² -12,6 °C -11,3 °C 0,0 km/h (0 Bft)
23.01.2019 05:14 -11,2 °C 90 % 1000,1 hPa 0,0 mm 0,0 km/h (0 Bft) S-SW 202 ° 0 min 0,000 mm 0,0 UV-I 0 W/m² -12,5 °C -11,2 °C 0,0 km/h (0 Bft)
23.01.2019 05:15 -11,3 °C 90 % 1000,1 hPa 0,0 mm 0,0 km/h (0 Bft) S-SW 202 ° 0 min 0,000 mm 0,0 UV-I 0 W/m² -12,6 °C -11,3 °C 0,0 km/h (0 Bft)
23.01.2019 05:16 -11,3 °C 90 % 1000,1 hPa 0,0 mm 0,0 km/h (0 Bft) S-SW 202 ° 0 min 0,000 mm 0,0 UV-I 0 W/m² -12,6 °C -11,3 °C 0,0 km/h (0 Bft)
23.01.2019 05:17 -11,3 °C 90 % 1000,1 hPa 0,0 mm 0,0 km/h (0 Bft) S-SW 202 ° 0 min 0,000 mm 0,0 UV-I 0 W/m² -12,6 °C -11,3 °C 0,0 km/h (0 Bft)
23.01.2019 05:18 -11,3 °C 90 % 1000,1 hPa 0,0 mm 0,0 km/h (0 Bft) S-SW 202 ° 0 min 0,000 mm 0,0 UV-I 0 W/m² -12,6 °C -11,3 °C 0,0 km/h (0 Bft)
23.01.2019 05:19 -11,3 °C 90 % 1000,1 hPa 0,0 mm 0,0 km/h (0 Bft) S-SW 202 ° 0 min 0,000 mm 0,0 UV-I 0 W/m² -12,6 °C -11,3 °C 0,0 km/h (0 Bft)
23.01.2019 05:20 -11,3 °C 90 % 1000,1 hPa 0,0 mm 0,0 km/h (0 Bft) S-SW 202 ° 0 min 0,000 mm 0,0 UV-I 0 W/m² -12,6 °C -11,3 °C 0,0 km/h (0 Bft)
23.01.2019 05:21 -11,3 °C 90 % 1000,1 hPa 0,0 mm 0,0 km/h (0 Bft) S-SW 202 ° 0 min 0,000 mm 0,0 UV-I 0 W/m² -12,6 °C -11,3 °C 0,0 km/h (0 Bft)
23.01.2019 05:22 -11,3 °C 90 % 1000,1 hPa 0,0 mm 0,0 km/h (0 Bft) S-SW 202 ° 0 min 0,000 mm 0,0 UV-I 0 W/m² -12,6 °C -11,3 °C 0,0 km/h (0 Bft)
23.01.2019 05:23 -11,3 °C 90 % 1000,1 hPa 0,0 mm 0,0 km/h (0 Bft) S-SW 202 ° 0 min 0,000 mm 0,0 UV-I 0 W/m² -12,6 °C -11,3 °C 0,0 km/h (0 Bft)
23.01.2019 05:24 -11,3 °C 90 % 1000,1 hPa 0,0 mm 0,0 km/h (0 Bft) S-SW 202 ° 0 min 0,000 mm 0,0 UV-I 0 W/m² -12,6 °C -11,3 °C 0,0 km/h (0 Bft)
23.01.2019 05:25 -11,3 °C 90 % 1000,1 hPa 0,0 mm 0,0 km/h (0 Bft) S-SW 202 ° 0 min 0,000 mm 0,0 UV-I 0 W/m² -12,6 °C -11,3 °C 0,0 km/h (0 Bft)
23.01.2019 05:26 -11,4 °C 90 % 1000,1 hPa 0,0 mm 0,0 km/h (0 Bft) S-SW 202 ° 0 min 0,000 mm 0,0 UV-I 0 W/m² -12,7 °C -11,4 °C 0,0 km/h (0 Bft)
23.01.2019 05:27 -11,4 °C 89 % 1000,1 hPa 0,0 mm 0,0 km/h (0 Bft) S-SW 202 ° 0 min 0,000 mm 0,0 UV-I 0 W/m² -12,8 °C -11,4 °C 0,0 km/h (0 Bft)
23.01.2019 05:28 -11,4 °C 89 % 1000,1 hPa 0,0 mm 0,0 km/h (0 Bft) S-SW 202 ° 0 min 0,000 mm 0,0 UV-I 0 W/m² -12,8 °C -11,4 °C 0,0 km/h (0 Bft)
23.01.2019 05:29 -11,4 °C 89 % 1000,1 hPa 0,0 mm 0,0 km/h (0 Bft) S-SW 202 ° 0 min 0,000 mm 0,0 UV-I 0 W/m² -12,8 °C -11,4 °C 0,0 km/h (0 Bft)
23.01.2019 05:30 -11,4 °C 89 % 1000,1 hPa 0,0 mm 0,0 km/h (0 Bft) S-SW 202 ° 0 min 0,000 mm 0,0 UV-I 0 W/m² -12,8 °C -11,4 °C 0,0 km/h (0 Bft)
23.01.2019 05:31 -11,4 °C 89 % 1000,0 hPa 0,0 mm 0,0 km/h (0 Bft) S-SW 202 ° 0 min 0,000 mm 0,0 UV-I 0 W/m² -12,8 °C -11,4 °C 0,0 km/h (0 Bft)
23.01.2019 05:32 -11,5 °C 89 % 1000,0 hPa 0,0 mm 0,0 km/h (0 Bft) S-SW 202 ° 0 min 0,000 mm 0,0 UV-I 0 W/m² -12,9 °C -11,5 °C 0,0 km/h (0 Bft)
23.01.2019 05:33 -11,5 °C 89 % 1000,0 hPa 0,0 mm 0,0 km/h (0 Bft) S-SW 202 ° 0 min 0,000 mm 0,0 UV-I 0 W/m² -12,9 °C -11,5 °C 0,0 km/h (0 Bft)
23.01.2019 05:34 -11,6 °C 89 % 1000,0 hPa 0,0 mm 0,0 km/h (0 Bft) S-SW 202 ° 0 min 0,000 mm 0,0 UV-I 0 W/m² -13,0 °C -11,6 °C 0,0 km/h (0 Bft)
23.01.2019 05:35 -11,6 °C 89 % 1000,0 hPa 0,0 mm 0,0 km/h (0 Bft) S-SW 202 ° 0 min 0,000 mm 0,0 UV-I 0 W/m² -13,0 °C -11,6 °C 0,0 km/h (0 Bft)
23.01.2019 05:36 -11,6 °C 89 % 1000,0 hPa 0,0 mm 0,0 km/h (0 Bft) S-SW 202 ° 0 min 0,000 mm 0,0 UV-I 0 W/m² -13,0 °C -11,6 °C 0,0 km/h (0 Bft)
23.01.2019 05:37 -11,6 °C 89 % 1000,0 hPa 0,0 mm 0,0 km/h (0 Bft) S-SW 202 ° 0 min 0,000 mm 0,0 UV-I 0 W/m² -13,0 °C -11,6 °C 0,0 km/h (0 Bft)
23.01.2019 05:38 -11,6 °C 89 % 1000,0 hPa 0,0 mm 0,0 km/h (0 Bft) S-SW 202 ° 0 min 0,000 mm 0,0 UV-I 0 W/m² -13,0 °C -11,6 °C 0,0 km/h (0 Bft)
23.01.2019 05:39 -11,6 °C 89 % 1000,0 hPa 0,0 mm 0,0 km/h (0 Bft) S-SW 202 ° 0 min 0,000 mm 0,0 UV-I 0 W/m² -13,0 °C -11,6 °C 0,0 km/h (0 Bft)
23.01.2019 05:40 -11,7 °C 89 % 1000,0 hPa 0,0 mm 0,0 km/h (0 Bft) S-SW 202 ° 0 min 0,000 mm 0,0 UV-I 0 W/m² -13,1 °C -11,7 °C 0,0 km/h (0 Bft)
23.01.2019 05:41 -11,7 °C 89 % 1000,0 hPa 0,0 mm 0,0 km/h (0 Bft) S-SW 202 ° 0 min 0,000 mm 0,0 UV-I 0 W/m² -13,1 °C -11,7 °C 0,0 km/h (0 Bft)
23.01.2019 05:42 -11,7 °C 89 % 999,9 hPa 0,0 mm 0,0 km/h (0 Bft) S-SW 202 ° 0 min 0,000 mm 0,0 UV-I 0 W/m² -13,1 °C -11,7 °C 0,0 km/h (0 Bft)
23.01.2019 05:43 -11,7 °C 89 % 999,9 hPa 0,0 mm 0,0 km/h (0 Bft) S-SW 202 ° 0 min 0,000 mm 0,0 UV-I 0 W/m² -13,1 °C -11,7 °C 0,0 km/h (0 Bft)
23.01.2019 05:44 -11,7 °C 89 % 999,9 hPa 0,0 mm 0,0 km/h (0 Bft) S-SW 202 ° 0 min 0,000 mm 0,0 UV-I 0 W/m² -13,1 °C -11,7 °C 0,0 km/h (0 Bft)
23.01.2019 05:45 -11,7 °C 89 % 999,9 hPa 0,0 mm 0,0 km/h (0 Bft) S-SW 202 ° 0 min 0,000 mm 0,0 UV-I 0 W/m² -13,1 °C -11,7 °C 0,0 km/h (0 Bft)
23.01.2019 05:46 -11,8 °C 89 % 999,9 hPa 0,0 mm 0,0 km/h (0 Bft) S-SW 202 ° 0 min 0,000 mm 0,0 UV-I 0 W/m² -13,2 °C -11,8 °C 0,0 km/h (0 Bft)
23.01.2019 05:47 -11,8 °C 89 % 999,9 hPa 0,0 mm 0,0 km/h (0 Bft) S-SW 202 ° 0 min 0,000 mm 0,0 UV-I 0 W/m² -13,2 °C -11,8 °C 0,0 km/h (0 Bft)
23.01.2019 05:48 -11,8 °C 89 % 999,9 hPa 0,0 mm 0,0 km/h (0 Bft) S-SW 202 ° 0 min 0,000 mm 0,0 UV-I 0 W/m² -13,2 °C -11,8 °C 0,0 km/h (0 Bft)
23.01.2019 05:49 -11,8 °C 89 % 999,9 hPa 0,0 mm 0,0 km/h (0 Bft) S-SW 202 ° 0 min 0,000 mm 0,0 UV-I 0 W/m² -13,2 °C -11,8 °C 0,0 km/h (0 Bft)
23.01.2019 05:50 -11,8 °C 89 % 999,9 hPa 0,0 mm 0,0 km/h (0 Bft) S-SW 202 ° 0 min 0,000 mm 0,0 UV-I 0 W/m² -13,2 °C -11,8 °C 0,0 km/h (0 Bft)
23.01.2019 05:51 -11,8 °C 89 % 999,9 hPa 0,0 mm 0,0 km/h (0 Bft) S-SW 202 ° 0 min 0,000 mm 0,0 UV-I 0 W/m² -13,2 °C -11,8 °C 0,0 km/h (0 Bft)
23.01.2019 05:52 -11,8 °C 89 % 999,8 hPa 0,0 mm 0,0 km/h (0 Bft) S-SW 202 ° 0 min 0,000 mm 0,0 UV-I 0 W/m² -13,2 °C -11,8 °C 0,0 km/h (0 Bft)
23.01.2019 05:53 -11,8 °C 89 % 999,8 hPa 0,0 mm 0,0 km/h (0 Bft) S-SW 202 ° 0 min 0,000 mm 0,0 UV-I 0 W/m² -13,2 °C -11,8 °C 0,0 km/h (0 Bft)
23.01.2019 05:54 -11,8 °C 89 % 999,8 hPa 0,0 mm 0,0 km/h (0 Bft) S-SW 202 ° 0 min 0,000 mm 0,0 UV-I 0 W/m² -13,2 °C -11,8 °C 0,0 km/h (0 Bft)
23.01.2019 05:55 -11,8 °C 89 % 999,8 hPa 0,0 mm 0,0 km/h (0 Bft) S-SW 202 ° 0 min 0,000 mm 0,0 UV-I 0 W/m² -13,2 °C -11,8 °C 0,0 km/h (0 Bft)
23.01.2019 05:56 -11,8 °C 89 % 999,8 hPa 0,0 mm 0,0 km/h (0 Bft) S-SW 202 ° 0 min 0,000 mm 0,0 UV-I 0 W/m² -13,2 °C -11,8 °C 0,0 km/h (0 Bft)
23.01.2019 05:57 -11,8 °C 89 % 999,9 hPa 0,0 mm 0,0 km/h (0 Bft) S-SW 202 ° 0 min 0,000 mm 0,0 UV-I 0 W/m² -13,2 °C -11,8 °C 0,0 km/h (0 Bft)
23.01.2019 05:58 -11,9 °C 89 % 999,8 hPa 0,0 mm 0,0 km/h (0 Bft) S-SW 202 ° 0 min 0,000 mm 0,0 UV-I 0 W/m² -13,3 °C -11,9 °C 0,0 km/h (0 Bft)
23.01.2019 05:59 -11,9 °C 89 % 999,8 hPa 0,0 mm 0,0 km/h (0 Bft) S-SW 202 ° 0 min 0,000 mm 0,0 UV-I 0 W/m² -13,3 °C -11,9 °C 0,0 km/h (0 Bft)
23.01.2019 06:00 -11,9 °C 89 % 999,8 hPa 0,0 mm 0,0 km/h (0 Bft) S-SW 202 ° 0 min 0,000 mm 0,0 UV-I 0 W/m² -13,3 °C -11,9 °C 0,0 km/h (0 Bft)
23.01.2019 06:01 -11,9 °C 89 % 999,8 hPa 0,0 mm 0,0 km/h (0 Bft) S-SW 202 ° 0 min 0,000 mm 0,0 UV-I 0 W/m² -13,3 °C -11,9 °C 0,0 km/h (0 Bft)
23.01.2019 06:02 -11,9 °C 90 % 999,8 hPa 0,0 mm 0,0 km/h (0 Bft) S-SW 202 ° 0 min 0,000 mm 0,0 UV-I 0 W/m² -13,2 °C -11,9 °C 0,0 km/h (0 Bft)
23.01.2019 06:03 -11,9 °C 89 % 999,8 hPa 0,0 mm 0,0 km/h (0 Bft) S-SW 202 ° 0 min 0,000 mm 0,0 UV-I 0 W/m² -13,3 °C -11,9 °C 0,0 km/h (0 Bft)
23.01.2019 06:04 -11,9 °C 89 % 999,8 hPa 0,0 mm 0,0 km/h (0 Bft) S-SW 202 ° 0 min 0,000 mm 0,0 UV-I 0 W/m² -13,3 °C -11,9 °C 0,0 km/h (0 Bft)
23.01.2019 06:05 -11,9 °C 89 % 999,8 hPa 0,0 mm 0,0 km/h (0 Bft) S-SW 202 ° 0 min 0,000 mm 0,0 UV-I 0 W/m² -13,3 °C -11,9 °C 0,0 km/h (0 Bft)
23.01.2019 06:06 -11,9 °C 89 % 999,8 hPa 0,0 mm 0,0 km/h (0 Bft) S-SW 202 ° 0 min 0,000 mm 0,0 UV-I 0 W/m² -13,3 °C -11,9 °C 0,0 km/h (0 Bft)
23.01.2019 06:07 -11,9 °C 89 % 999,8 hPa 0,0 mm 0,0 km/h (0 Bft) S-SW 202 ° 0 min 0,000 mm 0,0 UV-I 0 W/m² -13,3 °C -11,9 °C 0,0 km/h (0 Bft)
23.01.2019 06:08 -11,9 °C 89 % 999,8 hPa 0,0 mm 0,0 km/h (0 Bft) S-SW 202 ° 0 min 0,000 mm 0,0 UV-I 0 W/m² -13,3 °C -11,9 °C 0,0 km/h (0 Bft)
23.01.2019 06:09 -12,0 °C 89 % 999,8 hPa 0,0 mm 0,0 km/h (0 Bft) S-SW 202 ° 0 min 0,000 mm 0,0 UV-I 0 W/m² -13,4 °C -12,0 °C 0,0 km/h (0 Bft)
23.01.2019 06:10 -11,9 °C 89 % 999,8 hPa 0,0 mm 0,0 km/h (0 Bft) S-SW 202 ° 0 min 0,000 mm 0,0 UV-I 0 W/m² -13,3 °C -11,9 °C 0,0 km/h (0 Bft)
23.01.2019 06:11 -12,0 °C 89 % 999,8 hPa 0,0 mm 0,0 km/h (0 Bft) S-SW 202 ° 0 min 0,000 mm 0,0 UV-I 0 W/m² -13,4 °C -12,0 °C 0,0 km/h (0 Bft)
23.01.2019 06:12 -12,0 °C 89 % 999,8 hPa 0,0 mm 0,0 km/h (0 Bft) S-SW 202 ° 0 min 0,000 mm 0,0 UV-I 0 W/m² -13,4 °C -12,0 °C 0,0 km/h (0 Bft)
23.01.2019 06:13 -12,1 °C 89 % 999,8 hPa 0,0 mm 0,0 km/h (0 Bft) S-SW 202 ° 0 min 0,000 mm 0,0 UV-I 0 W/m² -13,5 °C -12,1 °C 0,0 km/h (0 Bft)
23.01.2019 06:14 -12,1 °C 89 % 999,8 hPa 0,0 mm 0,0 km/h (0 Bft) S-SW 202 ° 0 min 0,000 mm 0,0 UV-I 0 W/m² -13,5 °C -12,1 °C 0,0 km/h (0 Bft)
23.01.2019 06:15 -12,1 °C 89 % 999,8 hPa 0,0 mm 0,0 km/h (0 Bft) S-SW 202 ° 0 min 0,000 mm 0,0 UV-I 0 W/m² -13,5 °C -12,1 °C 0,0 km/h (0 Bft)
23.01.2019 06:16 -12,1 °C 89 % 999,8 hPa 0,0 mm 0,0 km/h (0 Bft) S-SW 202 ° 0 min 0,000 mm 0,0 UV-I 0 W/m² -13,5 °C -12,1 °C 0,0 km/h (0 Bft)
23.01.2019 06:17 -12,1 °C 89 % 999,8 hPa 0,0 mm 0,0 km/h (0 Bft) S-SW 202 ° 0 min 0,000 mm 0,0 UV-I 0 W/m² -13,5 °C -12,1 °C 0,0 km/h (0 Bft)
23.01.2019 06:18 -12,1 °C 89 % 999,7 hPa 0,0 mm 0,0 km/h (0 Bft) S-SW 202 ° 0 min 0,000 mm 0,0 UV-I 0 W/m² -13,5 °C -12,1 °C 0,0 km/h (0 Bft)
23.01.2019 06:19 -12,1 °C 89 % 999,7 hPa 0,0 mm 0,0 km/h (0 Bft) S-SW 202 ° 0 min 0,000 mm 0,0 UV-I 0 W/m² -13,5 °C -12,1 °C 0,0 km/h (0 Bft)
23.01.2019 06:20 -12,1 °C 89 % 999,7 hPa 0,0 mm 0,0 km/h (0 Bft) S-SW 202 ° 0 min 0,000 mm 0,0 UV-I 0 W/m² -13,5 °C -12,1 °C 0,0 km/h (0 Bft)
23.01.2019 06:21 -12,1 °C 89 % 999,7 hPa 0,0 mm 0,0 km/h (0 Bft) S-SW 202 ° 0 min 0,000 mm 0,0 UV-I 0 W/m² -13,5 °C -12,1 °C 0,0 km/h (0 Bft)
23.01.2019 06:22 -12,1 °C 89 % 999,6 hPa 0,0 mm 0,0 km/h (0 Bft) S-SW 202 ° 0 min 0,000 mm 0,0 UV-I 0 W/m² -13,5 °C -12,1 °C 0,0 km/h (0 Bft)
23.01.2019 06:23 -12,1 °C 89 % 999,6 hPa 0,0 mm 0,0 km/h (0 Bft) S-SW 202 ° 0 min 0,000 mm 0,0 UV-I 0 W/m² -13,5 °C -12,1 °C 0,0 km/h (0 Bft)
23.01.2019 06:24 -12,1 °C 89 % 999,6 hPa 0,0 mm 0,0 km/h (0 Bft) S-SW 202 ° 0 min 0,000 mm 0,0 UV-I 0 W/m² -13,5 °C -12,1 °C 0,0 km/h (0 Bft)
23.01.2019 06:25 -12,1 °C 89 % 999,7 hPa 0,0 mm 0,0 km/h (0 Bft) S-SW 202 ° 0 min 0,000 mm 0,0 UV-I 0 W/m² -13,5 °C -12,1 °C 0,0 km/h (0 Bft)
23.01.2019 06:26 -12,1 °C 89 % 999,6 hPa 0,0 mm 0,0 km/h (0 Bft) S-SW 202 ° 0 min 0,000 mm 0,0 UV-I 0 W/m² -13,5 °C -12,1 °C 0,0 km/h (0 Bft)
23.01.2019 06:27 -12,1 °C 90 % 999,6 hPa 0,0 mm 0,0 km/h (0 Bft) S-SW 202 ° 0 min 0,000 mm 0,0 UV-I 0 W/m² -13,4 °C -12,1 °C 0,0 km/h (0 Bft)
23.01.2019 06:28 -12,1 °C 90 % 999,6 hPa 0,0 mm 0,0 km/h (0 Bft) S-SW 202 ° 0 min 0,000 mm 0,0 UV-I 0 W/m² -13,4 °C -12,1 °C 0,0 km/h (0 Bft)
23.01.2019 06:29 -12,1 °C 90 % 999,6 hPa 0,0 mm 0,0 km/h (0 Bft) S-SW 202 ° 0 min 0,000 mm 0,0 UV-I 0 W/m² -13,4 °C -12,1 °C 0,0 km/h (0 Bft)
23.01.2019 06:30 -12,0 °C 90 % 999,6 hPa 0,0 mm 0,0 km/h (0 Bft) S-SW 202 ° 0 min 0,000 mm 0,0 UV-I 0 W/m² -13,3 °C -12,0 °C 0,0 km/h (0 Bft)
23.01.2019 06:31 -12,1 °C 90 % 999,6 hPa 0,0 mm 0,0 km/h (0 Bft) S-SW 202 ° 0 min 0,000 mm 0,0 UV-I 0 W/m² -13,4 °C -12,1 °C 0,0 km/h (0 Bft)
23.01.2019 06:32 -12,1 °C 90 % 999,6 hPa 0,0 mm 0,0 km/h (0 Bft) S-SW 202 ° 0 min 0,000 mm 0,0 UV-I 0 W/m² -13,4 °C -12,1 °C 0,0 km/h (0 Bft)
23.01.2019 06:33 -12,0 °C 90 % 999,5 hPa 0,0 mm 0,0 km/h (0 Bft) S-SW 202 ° 0 min 0,000 mm 0,0 UV-I 0 W/m² -13,3 °C -12,0 °C 0,0 km/h (0 Bft)
23.01.2019 06:34 -12,1 °C 90 % 999,5 hPa 0,0 mm 0,0 km/h (0 Bft) S-SW 202 ° 0 min 0,000 mm 0,0 UV-I 0 W/m² -13,4 °C -12,1 °C 0,0 km/h (0 Bft)
23.01.2019 06:35 -12,1 °C 90 % 999,6 hPa 0,0 mm 0,0 km/h (0 Bft) S-SW 202 ° 0 min 0,000 mm 0,0 UV-I 0 W/m² -13,4 °C -12,1 °C 0,0 km/h (0 Bft)
23.01.2019 06:36 -12,1 °C 90 % 999,6 hPa 0,0 mm 0,0 km/h (0 Bft) S-SW 202 ° 0 min 0,000 mm 0,0 UV-I 0 W/m² -13,4 °C -12,1 °C 0,0 km/h (0 Bft)
23.01.2019 06:37 -12,1 °C 90 % 999,6 hPa 0,0 mm 0,0 km/h (0 Bft) S-SW 202 ° 0 min 0,000 mm 0,0 UV-I 0 W/m² -13,4 °C -12,1 °C 0,0 km/h (0 Bft)
23.01.2019 06:38 -12,1 °C 90 % 999,6 hPa 0,0 mm 0,0 km/h (0 Bft) S-SW 202 ° 0 min 0,000 mm 0,0 UV-I 0 W/m² -13,4 °C -12,1 °C 0,0 km/h (0 Bft)
23.01.2019 06:39 -12,1 °C 90 % 999,6 hPa 0,0 mm 0,0 km/h (0 Bft) S-SW 202 ° 0 min 0,000 mm 0,0 UV-I 0 W/m² -13,4 °C -12,1 °C 0,0 km/h (0 Bft)
23.01.2019 06:40 -12,1 °C 90 % 999,5 hPa 0,0 mm 0,0 km/h (0 Bft) S-SW 202 ° 0 min 0,000 mm 0,0 UV-I 0 W/m² -13,4 °C -12,1 °C 0,0 km/h (0 Bft)
23.01.2019 06:41 -12,1 °C 90 % 999,6 hPa 0,0 mm 0,0 km/h (0 Bft) S-SW 202 ° 0 min 0,000 mm 0,0 UV-I 0 W/m² -13,4 °C -12,1 °C 0,0 km/h (0 Bft)
23.01.2019 06:42 -12,1 °C 90 % 999,5 hPa 0,0 mm 0,0 km/h (0 Bft) S-SW 202 ° 0 min 0,000 mm 0,0 UV-I 0 W/m² -13,4 °C -12,1 °C 0,0 km/h (0 Bft)
23.01.2019 06:43 -12,1 °C 90 % 999,5 hPa 0,0 mm 0,0 km/h (0 Bft) S-SW 202 ° 0 min 0,000 mm 0,0 UV-I 0 W/m² -13,4 °C -12,1 °C 0,0 km/h (0 Bft)
23.01.2019 06:44 -12,1 °C 90 % 999,6 hPa 0,0 mm 0,0 km/h (0 Bft) S-SW 202 ° 0 min 0,000 mm 0,0 UV-I 0 W/m² -13,4 °C -12,1 °C 0,0 km/h (0 Bft)
23.01.2019 06:45 -12,1 °C 90 % 999,6 hPa 0,0 mm 0,0 km/h (0 Bft) S-SW 202 ° 0 min 0,000 mm 0,0 UV-I 0 W/m² -13,4 °C -12,1 °C 0,0 km/h (0 Bft)
23.01.2019 06:46 -12,1 °C 90 % 999,6 hPa 0,0 mm 0,0 km/h (0 Bft) S-SW 202 ° 0 min 0,000 mm 0,0 UV-I 0 W/m² -13,4 °C -12,1 °C 0,0 km/h (0 Bft)
23.01.2019 06:47 -12,1 °C 90 % 999,5 hPa 0,0 mm 0,0 km/h (0 Bft) S-SW 202 ° 0 min 0,000 mm 0,0 UV-I 0 W/m² -13,4 °C -12,1 °C 0,0 km/h (0 Bft)
23.01.2019 06:48 -12,1 °C 90 % 999,5 hPa 0,0 mm 0,0 km/h (0 Bft) S-SW 202 ° 0 min 0,000 mm 0,0 UV-I 0 W/m² -13,4 °C -12,1 °C 0,0 km/h (0 Bft)
23.01.2019 06:49 -12,1 °C 90 % 999,5 hPa 0,0 mm 0,0 km/h (0 Bft) S-SW 202 ° 0 min 0,000 mm 0,0 UV-I 0 W/m² -13,4 °C -12,1 °C 0,0 km/h (0 Bft)
23.01.2019 06:50 -12,1 °C 90 % 999,5 hPa 0,0 mm 0,0 km/h (0 Bft) S-SW 202 ° 0 min 0,000 mm 0,0 UV-I 0 W/m² -13,4 °C -12,1 °C 0,0 km/h (0 Bft)
23.01.2019 06:51 -12,1 °C 90 % 999,4 hPa 0,0 mm 0,0 km/h (0 Bft) S-SW 202 ° 0 min 0,000 mm 0,0 UV-I 0 W/m² -13,4 °C -12,1 °C 0,0 km/h (0 Bft)
23.01.2019 06:52 -12,1 °C 90 % 999,4 hPa 0,0 mm 0,0 km/h (0 Bft) S-SW 202 ° 0 min 0,000 mm 0,0 UV-I 0 W/m² -13,4 °C -12,1 °C 0,0 km/h (0 Bft)
23.01.2019 06:53 -12,1 °C 90 % 999,5 hPa 0,0 mm 0,0 km/h (0 Bft) S-SW 202 ° 0 min 0,000 mm 0,0 UV-I 0 W/m² -13,4 °C -12,1 °C 0,0 km/h (0 Bft)
23.01.2019 06:54 -12,1 °C 90 % 999,5 hPa 0,0 mm 0,0 km/h (0 Bft) S-SW 202 ° 0 min 0,000 mm 0,0 UV-I 0 W/m² -13,4 °C -12,1 °C 0,0 km/h (0 Bft)
23.01.2019 06:55 -12,1 °C 90 % 999,4 hPa 0,0 mm 0,0 km/h (0 Bft) S-SW 202 ° 0 min 0,000 mm 0,0 UV-I 0 W/m² -13,4 °C -12,1 °C 0,0 km/h (0 Bft)
23.01.2019 06:56 -12,1 °C 90 % 999,4 hPa 0,0 mm 0,0 km/h (0 Bft) S-SW 202 ° 0 min 0,000 mm 0,0 UV-I 0 W/m² -13,4 °C -12,1 °C 0,0 km/h (0 Bft)
23.01.2019 06:57 -12,1 °C 90 % 999,5 hPa 0,0 mm 0,0 km/h (0 Bft) S-SW 202 ° 0 min 0,000 mm 0,0 UV-I 0 W/m² -13,4 °C -12,1 °C 0,0 km/h (0 Bft)
23.01.2019 06:58 -12,1 °C 90 % 999,4 hPa 0,0 mm 0,0 km/h (0 Bft) S-SW 202 ° 0 min 0,000 mm 0,0 UV-I 0 W/m² -13,4 °C -12,1 °C 0,0 km/h (0 Bft)
23.01.2019 06:59 -12,1 °C 90 % 999,4 hPa 0,0 mm 0,0 km/h (0 Bft) S-SW 202 ° 0 min 0,000 mm 0,0 UV-I 0 W/m² -13,4 °C -12,1 °C 0,0 km/h (0 Bft)
23.01.2019 07:00 -12,1 °C 90 % 999,4 hPa 0,0 mm 0,0 km/h (0 Bft) S-SW 202 ° 0 min 0,000 mm 0,0 UV-I 0 W/m² -13,4 °C -12,1 °C 0,0 km/h (0 Bft)
23.01.2019 07:01 -12,1 °C 90 % 999,5 hPa 0,0 mm 0,0 km/h (0 Bft) S-SW 202 ° 0 min 0,000 mm 0,0 UV-I 0 W/m² -13,4 °C -12,1 °C 0,0 km/h (0 Bft)
23.01.2019 07:02 -12,1 °C 90 % 999,4 hPa 0,0 mm 0,0 km/h (0 Bft) S-SW 202 ° 0 min 0,000 mm 0,0 UV-I 0 W/m² -13,4 °C -12,1 °C 0,0 km/h (0 Bft)
23.01.2019 07:03 -12,1 °C 90 % 999,4 hPa 0,0 mm 0,0 km/h (0 Bft) S-SW 202 ° 0 min 0,000 mm 0,0 UV-I 0 W/m² -13,4 °C -12,1 °C 0,0 km/h (0 Bft)
23.01.2019 07:04 -12,1 °C 90 % 999,4 hPa 0,0 mm 0,0 km/h (0 Bft) S-SW 202 ° 0 min 0,000 mm 0,0 UV-I 0 W/m² -13,4 °C -12,1 °C 0,0 km/h (0 Bft)
23.01.2019 07:05 -12,1 °C 90 % 999,5 hPa 0,0 mm 0,0 km/h (0 Bft) S-SW 202 ° 0 min 0,000 mm 0,0 UV-I 0 W/m² -13,4 °C -12,1 °C 0,0 km/h (0 Bft)
23.01.2019 07:06 -12,1 °C 90 % 999,4 hPa 0,0 mm 0,0 km/h (0 Bft) S-SW 202 ° 0 min 0,000 mm 0,0 UV-I 0 W/m² -13,4 °C -12,1 °C 0,0 km/h (0 Bft)
23.01.2019 07:07 -12,1 °C 90 % 999,4 hPa 0,0 mm 0,0 km/h (0 Bft) S-SW 202 ° 0 min 0,000 mm 0,0 UV-I 0 W/m² -13,4 °C -12,1 °C 0,0 km/h (0 Bft)
23.01.2019 07:08 -12,1 °C 90 % 999,4 hPa 0,0 mm 0,0 km/h (0 Bft) S-SW 202 ° 0 min 0,000 mm 0,0 UV-I 0 W/m² -13,4 °C -12,1 °C 0,0 km/h (0 Bft)
23.01.2019 07:09 -12,1 °C 90 % 999,4 hPa 0,0 mm 0,0 km/h (0 Bft) S-SW 202 ° 0 min 0,000 mm 0,0 UV-I 0 W/m² -13,4 °C -12,1 °C 0,0 km/h (0 Bft)
23.01.2019 07:10 -12,1 °C 90 % 999,4 hPa 0,0 mm 0,0 km/h (0 Bft) S-SW 202 ° 0 min 0,000 mm 0,0 UV-I 0 W/m² -13,4 °C -12,1 °C 0,0 km/h (0 Bft)
23.01.2019 07:11 -12,1 °C 90 % 999,4 hPa 0,0 mm 0,0 km/h (0 Bft) S-SW 202 ° 0 min 0,000 mm 0,0 UV-I 0 W/m² -13,4 °C -12,1 °C 0,0 km/h (0 Bft)
23.01.2019 07:12 -12,1 °C 90 % 999,4 hPa 0,0 mm 0,0 km/h (0 Bft) S-SW 202 ° 0 min 0,000 mm 0,0 UV-I 0 W/m² -13,4 °C -12,1 °C 0,0 km/h (0 Bft)
23.01.2019 07:13 -12,1 °C 90 % 999,4 hPa 0,0 mm 0,0 km/h (0 Bft) S-SW 202 ° 0 min 0,000 mm 0,0 UV-I 0 W/m² -13,4 °C -12,1 °C 0,0 km/h (0 Bft)
23.01.2019 07:14 -12,1 °C 90 % 999,4 hPa 0,0 mm 0,0 km/h (0 Bft) S-SW 202 ° 0 min 0,000 mm 0,0 UV-I 0 W/m² -13,4 °C -12,1 °C 0,0 km/h (0 Bft)
23.01.2019 07:15 -12,1 °C 90 % 999,4 hPa 0,0 mm 0,0 km/h (0 Bft) S-SW 202 ° 0 min 0,000 mm 0,0 UV-I 0 W/m² -13,4 °C -12,1 °C 0,0 km/h (0 Bft)
23.01.2019 07:16 -12,1 °C 90 % 999,4 hPa 0,0 mm 0,0 km/h (0 Bft) S-SW 202 ° 0 min 0,000 mm 0,0 UV-I 0 W/m² -13,4 °C -12,1 °C 0,0 km/h (0 Bft)
23.01.2019 07:17 -12,0 °C 90 % 999,5 hPa 0,0 mm 0,0 km/h (0 Bft) S-SW 202 ° 0 min 0,000 mm 0,0 UV-I 0 W/m² -13,3 °C -12,0 °C 0,0 km/h (0 Bft)
23.01.2019 07:18 -12,0 °C 90 % 999,5 hPa 0,0 mm 0,0 km/h (0 Bft) S-SW 202 ° 0 min 0,000 mm 0,0 UV-I 0 W/m² -13,3 °C -12,0 °C 0,0 km/h (0 Bft)
23.01.2019 07:19 -12,0 °C 90 % 999,5 hPa 0,0 mm 0,0 km/h (0 Bft) S-SW 202 ° 0 min 0,000 mm 0,0 UV-I 0 W/m² -13,3 °C -12,0 °C 0,0 km/h (0 Bft)
23.01.2019 07:20 -12,0 °C 90 % 999,5 hPa 0,0 mm 0,0 km/h (0 Bft) S-SW 202 ° 0 min 0,000 mm 0,0 UV-I 0 W/m² -13,3 °C -12,0 °C 0,0 km/h (0 Bft)
23.01.2019 07:21 -12,0 °C 90 % 999,5 hPa 0,0 mm 0,0 km/h (0 Bft) S-SW 202 ° 0 min 0,000 mm 0,0 UV-I 0 W/m² -13,3 °C -12,0 °C 0,0 km/h (0 Bft)
23.01.2019 07:22 -11,9 °C 90 % 999,5 hPa 0,0 mm 0,0 km/h (0 Bft) S-SW 202 ° 0 min 0,000 mm 0,0 UV-I 0 W/m² -13,2 °C -11,9 °C 0,0 km/h (0 Bft)
23.01.2019 07:23 -11,9 °C 90 % 999,5 hPa 0,0 mm 0,0 km/h (0 Bft) S-SW 202 ° 0 min 0,000 mm 0,0 UV-I 0 W/m² -13,2 °C -11,9 °C 0,0 km/h (0 Bft)
23.01.2019 07:24 -11,9 °C 90 % 999,5 hPa 0,0 mm 0,0 km/h (0 Bft) S-SW 202 ° 0 min 0,000 mm 0,0 UV-I 0 W/m² -13,2 °C -11,9 °C 0,0 km/h (0 Bft)
23.01.2019 07:25 -11,9 °C 90 % 999,5 hPa 0,0 mm 0,0 km/h (0 Bft) S-SW 202 ° 0 min 0,000 mm 0,0 UV-I 0 W/m² -13,2 °C -11,9 °C 0,0 km/h (0 Bft)
23.01.2019 07:26 -11,9 °C 90 % 999,5 hPa 0,0 mm 0,0 km/h (0 Bft) S-SW 202 ° 0 min 0,000 mm 0,0 UV-I 0 W/m² -13,2 °C -11,9 °C 0,0 km/h (0 Bft)
23.01.2019 07:27 -11,9 °C 90 % 999,5 hPa 0,0 mm 0,0 km/h (0 Bft) S-SW 202 ° 0 min 0,000 mm 0,0 UV-I 0 W/m² -13,2 °C -11,9 °C 0,0 km/h (0 Bft)
23.01.2019 07:28 -11,9 °C 90 % 999,5 hPa 0,0 mm 0,0 km/h (0 Bft) S-SW 202 ° 0 min 0,000 mm 0,0 UV-I 0 W/m² -13,2 °C -11,9 °C 0,0 km/h (0 Bft)
23.01.2019 07:29 -11,9 °C 90 % 999,5 hPa 0,0 mm 0,0 km/h (0 Bft) S-SW 202 ° 0 min 0,000 mm 0,0 UV-I 0 W/m² -13,2 °C -11,9 °C 0,0 km/h (0 Bft)
23.01.2019 07:30 -11,8 °C 90 % 999,5 hPa 0,0 mm 0,0 km/h (0 Bft) S-SW 202 ° 0 min 0,000 mm 0,0 UV-I 0 W/m² -13,1 °C -11,8 °C 0,0 km/h (0 Bft)
23.01.2019 07:31 -11,9 °C 90 % 999,5 hPa 0,0 mm 0,0 km/h (0 Bft) S-SW 202 ° 0 min 0,000 mm 0,0 UV-I 0 W/m² -13,2 °C -11,9 °C 0,0 km/h (0 Bft)
23.01.2019 07:32 -11,8 °C 90 % 999,4 hPa 0,0 mm 0,0 km/h (0 Bft) S-SW 202 ° 0 min 0,000 mm 0,0 UV-I 0 W/m² -13,1 °C -11,8 °C 0,0 km/h (0 Bft)
23.01.2019 07:33 -11,8 °C 90 % 999,4 hPa 0,0 mm 0,0 km/h (0 Bft) S-SW 202 ° 0 min 0,000 mm 0,0 UV-I 0 W/m² -13,1 °C -11,8 °C 0,0 km/h (0 Bft)
23.01.2019 07:34 -11,8 °C 90 % 999,4 hPa 0,0 mm 0,0 km/h (0 Bft) S-SW 202 ° 0 min 0,000 mm 0,0 UV-I 0 W/m² -13,1 °C -11,8 °C 0,0 km/h (0 Bft)
23.01.2019 07:35 -11,8 °C 90 % 999,4 hPa 0,0 mm 0,0 km/h (0 Bft) S-SW 202 ° 0 min 0,000 mm 0,0 UV-I 0 W/m² -13,1 °C -11,8 °C 0,0 km/h (0 Bft)
23.01.2019 07:36 -11,8 °C 90 % 999,4 hPa 0,0 mm 0,0 km/h (0 Bft) S-SW 202 ° 0 min 0,000 mm 0,0 UV-I 0 W/m² -13,1 °C -11,8 °C 0,0 km/h (0 Bft)
23.01.2019 07:37 -11,8 °C 90 % 999,5 hPa 0,0 mm 0,0 km/h (0 Bft) S-SW 202 ° 0 min 0,000 mm 0,0 UV-I 0 W/m² -13,1 °C -11,8 °C 0,0 km/h (0 Bft)
23.01.2019 07:38 -11,8 °C 90 % 999,4 hPa 0,0 mm 0,0 km/h (0 Bft) S-SW 202 ° 0 min 0,000 mm 0,0 UV-I 0 W/m² -13,1 °C -11,8 °C 0,0 km/h (0 Bft)
23.01.2019 07:39 -11,8 °C 91 % 999,4 hPa 0,0 mm 0,0 km/h (0 Bft) S-SW 202 ° 0 min 0,000 mm 0,0 UV-I 0 W/m² -13,0 °C -11,8 °C 0,0 km/h (0 Bft)
23.01.2019 07:40 -11,8 °C 90 % 999,4 hPa 0,0 mm 0,0 km/h (0 Bft) S-SW 202 ° 0 min 0,000 mm 0,0 UV-I 0 W/m² -13,1 °C -11,8 °C 0,0 km/h (0 Bft)
23.01.2019 07:41 -11,8 °C 91 % 999,5 hPa 0,0 mm 0,0 km/h (0 Bft) S-SW 202 ° 0 min 0,000 mm 0,0 UV-I 0 W/m² -13,0 °C -11,8 °C 0,0 km/h (0 Bft)
23.01.2019 07:42 -11,8 °C 91 % 999,4 hPa 0,0 mm 0,0 km/h (0 Bft) S-SW 202 ° 0 min 0,000 mm 0,0 UV-I 0 W/m² -13,0 °C -11,8 °C 0,0 km/h (0 Bft)
23.01.2019 07:43 -11,7 °C 91 % 999,4 hPa 0,0 mm 0,0 km/h (0 Bft) S-SW 202 ° 0 min 0,000 mm 0,0 UV-I 0 W/m² -12,9 °C -11,7 °C 0,0 km/h (0 Bft)
23.01.2019 07:44 -11,7 °C 91 % 999,4 hPa 0,0 mm 0,0 km/h (0 Bft) S-SW 202 ° 0 min 0,000 mm 0,0 UV-I 0 W/m² -12,9 °C -11,7 °C 0,0 km/h (0 Bft)
23.01.2019 07:45 -11,7 °C 91 % 999,3 hPa 0,0 mm 0,0 km/h (0 Bft) S-SW 202 ° 0 min 0,000 mm 0,0 UV-I 0 W/m² -12,9 °C -11,7 °C 0,0 km/h (0 Bft)
23.01.2019 07:46 -11,7 °C 91 % 999,3 hPa 0,0 mm 0,0 km/h (0 Bft) S-SW 202 ° 0 min 0,000 mm 0,0 UV-I 0 W/m² -12,9 °C -11,7 °C 0,0 km/h (0 Bft)
23.01.2019 07:47 -11,7 °C 91 % 999,3 hPa 0,0 mm 0,0 km/h (0 Bft) S-SW 202 ° 0 min 0,000 mm 0,0 UV-I 0 W/m² -12,9 °C -11,7 °C 0,0 km/h (0 Bft)
23.01.2019 07:48 -11,7 °C 91 % 999,3 hPa 0,0 mm 0,0 km/h (0 Bft) S-SW 202 ° 0 min 0,000 mm 0,0 UV-I 0 W/m² -12,9 °C -11,7 °C 0,0 km/h (0 Bft)
23.01.2019 07:49 -11,7 °C 91 % 999,3 hPa 0,0 mm 0,0 km/h (0 Bft) S-SW 202 ° 0 min 0,000 mm 0,0 UV-I 0 W/m² -12,9 °C -11,7 °C 0,0 km/h (0 Bft)
23.01.2019 07:50 -11,7 °C 91 % 999,3 hPa 0,0 mm 0,0 km/h (0 Bft) S-SW 202 ° 0 min 0,000 mm 0,0 UV-I 0 W/m² -12,9 °C -11,7 °C 0,0 km/h (0 Bft)
23.01.2019 07:51 -11,7 °C 91 % 999,4 hPa 0,0 mm 0,0 km/h (0 Bft) S-SW 202 ° 0 min 0,000 mm 0,0 UV-I 0 W/m² -12,9 °C -11,7 °C 0,0 km/h (0 Bft)
23.01.2019 07:52 -11,6 °C 91 % 999,3 hPa 0,0 mm 0,0 km/h (0 Bft) S-SW 202 ° 0 min 0,000 mm 0,0 UV-I 0 W/m² -12,8 °C -11,6 °C 0,0 km/h (0 Bft)
23.01.2019 07:53 -11,6 °C 91 % 999,3 hPa 0,0 mm 0,0 km/h (0 Bft) S-SW 202 ° 0 min 0,000 mm 0,0 UV-I 0 W/m² -12,8 °C -11,6 °C 0,0 km/h (0 Bft)
23.01.2019 07:54 -11,6 °C 91 % 999,4 hPa 0,0 mm 0,0 km/h (0 Bft) S-SW 202 ° 0 min 0,000 mm 0,0 UV-I 0 W/m² -12,8 °C -11,6 °C 0,0 km/h (0 Bft)
23.01.2019 07:55 -11,6 °C 91 % 999,4 hPa 0,0 mm 0,0 km/h (0 Bft) S-SW 202 ° 0 min 0,000 mm 0,0 UV-I 0 W/m² -12,8 °C -11,6 °C 0,0 km/h (0 Bft)
23.01.2019 07:56 -11,6 °C 91 % 999,3 hPa 0,0 mm 0,0 km/h (0 Bft) S-SW 202 ° 0 min 0,000 mm 0,0 UV-I 0 W/m² -12,8 °C -11,6 °C 0,0 km/h (0 Bft)
23.01.2019 07:57 -11,6 °C 91 % 999,3 hPa 0,0 mm 0,0 km/h (0 Bft) S-SW 202 ° 0 min 0,000 mm 0,0 UV-I 0 W/m² -12,8 °C -11,6 °C 0,0 km/h (0 Bft)
23.01.2019 07:58 -11,6 °C 91 % 999,3 hPa 0,0 mm 0,0 km/h (0 Bft) S-SW 202 ° 0 min 0,000 mm 0,0 UV-I 0 W/m² -12,8 °C -11,6 °C 0,0 km/h (0 Bft)
23.01.2019 07:59 -11,6 °C 91 % 999,3 hPa 0,0 mm 0,0 km/h (0 Bft) S-SW 202 ° 0 min 0,000 mm 0,0 UV-I 0 W/m² -12,8 °C -11,6 °C 0,0 km/h (0 Bft)
23.01.2019 08:00 -11,6 °C 91 % 999,3 hPa 0,0 mm 0,0 km/h (0 Bft) S-SW 202 ° 0 min 0,000 mm 0,0 UV-I 0 W/m² -12,8 °C -11,6 °C 0,0 km/h (0 Bft)
23.01.2019 08:01 -11,6 °C 91 % 999,3 hPa 0,0 mm 0,0 km/h (0 Bft) S-SW 202 ° 0 min 0,000 mm 0,0 UV-I 0 W/m² -12,8 °C -11,6 °C 0,0 km/h (0 Bft)
23.01.2019 08:02 -11,5 °C 91 % 999,3 hPa 0,0 mm 0,0 km/h (0 Bft) S-SW 202 ° 0 min 0,000 mm 0,0 UV-I 0 W/m² -12,7 °C -11,5 °C 0,0 km/h (0 Bft)
23.01.2019 08:03 -11,5 °C 91 % 999,3 hPa 0,0 mm 0,0 km/h (0 Bft) S-SW 202 ° 0 min 0,000 mm 0,0 UV-I 0 W/m² -12,7 °C -11,5 °C 0,0 km/h (0 Bft)
23.01.2019 08:04 -11,5 °C 91 % 999,3 hPa 0,0 mm 0,0 km/h (0 Bft) S-SW 202 ° 0 min 0,000 mm 0,0 UV-I 0 W/m² -12,7 °C -11,5 °C 0,0 km/h (0 Bft)
23.01.2019 08:05 -11,5 °C 91 % 999,3 hPa 0,0 mm 0,0 km/h (0 Bft) S-SW 202 ° 0 min 0,000 mm 0,0 UV-I 0 W/m² -12,7 °C -11,5 °C 0,0 km/h (0 Bft)
23.01.2019 08:06 -11,4 °C 91 % 999,3 hPa 0,0 mm 0,0 km/h (0 Bft) S-SW 202 ° 0 min 0,000 mm 0,0 UV-I 0 W/m² -12,6 °C -11,4 °C 0,0 km/h (0 Bft)
23.01.2019 08:07 -11,5 °C 91 % 999,3 hPa 0,0 mm 0,0 km/h (0 Bft) S-SW 202 ° 0 min 0,000 mm 0,0 UV-I 5 W/m² -12,7 °C -11,5 °C 0,0 km/h (0 Bft)
23.01.2019 08:08 -11,4 °C 91 % 999,2 hPa 0,0 mm 0,0 km/h (0 Bft) S-SW 202 ° 0 min 0,000 mm 0,0 UV-I 5 W/m² -12,6 °C -11,4 °C 0,0 km/h (0 Bft)
23.01.2019 08:09 -11,4 °C 91 % 999,2 hPa 0,0 mm 0,0 km/h (0 Bft) S-SW 202 ° 0 min 0,000 mm 0,0 UV-I 5 W/m² -12,6 °C -11,4 °C 0,0 km/h (0 Bft)
23.01.2019 08:10 -11,4 °C 91 % 999,2 hPa 0,0 mm 0,0 km/h (0 Bft) S-SW 202 ° 0 min 0,000 mm 0,0 UV-I 5 W/m² -12,6 °C -11,4 °C 0,0 km/h (0 Bft)
23.01.2019 08:11 -11,4 °C 91 % 999,3 hPa 0,0 mm 0,0 km/h (0 Bft) S-SW 202 ° 0 min 0,000 mm 0,0 UV-I 5 W/m² -12,6 °C -11,4 °C 0,0 km/h (0 Bft)
23.01.2019 08:12 -11,4 °C 91 % 999,3 hPa 0,0 mm 0,0 km/h (0 Bft) S-SW 202 ° 0 min 0,000 mm 0,0 UV-I 5 W/m² -12,6 °C -11,4 °C 0,0 km/h (0 Bft)
23.01.2019 08:13 -11,4 °C 91 % 999,2 hPa 0,0 mm 0,0 km/h (0 Bft) S-SW 202 ° 0 min 0,000 mm 0,0 UV-I 7 W/m² -12,6 °C -11,4 °C 0,0 km/h (0 Bft)
23.01.2019 08:14 -11,4 °C 91 % 999,2 hPa 0,0 mm 0,0 km/h (0 Bft) S-SW 202 ° 0 min 0,000 mm 0,0 UV-I 7 W/m² -12,6 °C -11,4 °C 0,0 km/h (0 Bft)
23.01.2019 08:15 -11,4 °C 91 % 999,2 hPa 0,0 mm 0,0 km/h (0 Bft) S-SW 202 ° 0 min 0,000 mm 0,0 UV-I 7 W/m² -12,6 °C -11,4 °C 0,0 km/h (0 Bft)
23.01.2019 08:16 -11,4 °C 91 % 999,3 hPa 0,0 mm 0,0 km/h (0 Bft) S-SW 202 ° 0 min 0,000 mm 0,0 UV-I 7 W/m² -12,6 °C -11,4 °C 0,0 km/h (0 Bft)
23.01.2019 08:17 -11,4 °C 91 % 999,2 hPa 0,0 mm 0,0 km/h (0 Bft) S-SW 202 ° 0 min 0,000 mm 0,0 UV-I 9 W/m² -12,6 °C -11,4 °C 0,0 km/h (0 Bft)
23.01.2019 08:18 -11,3 °C 91 % 999,2 hPa 0,0 mm 0,0 km/h (0 Bft) S-SW 202 ° 0 min 0,000 mm 0,0 UV-I 9 W/m² -12,5 °C -11,3 °C 0,0 km/h (0 Bft)
23.01.2019 08:19 -11,3 °C 91 % 999,2 hPa 0,0 mm 0,0 km/h (0 Bft) S-SW 202 ° 0 min 0,000 mm 0,0 UV-I 9 W/m² -12,5 °C -11,3 °C 0,0 km/h (0 Bft)
23.01.2019 08:20 -11,3 °C 91 % 999,2 hPa 0,0 mm 0,0 km/h (0 Bft) S-SW 202 ° 0 min 0,000 mm 0,0 UV-I 11 W/m² -12,5 °C -11,3 °C 0,0 km/h (0 Bft)
23.01.2019 08:21 -11,3 °C 91 % 999,2 hPa 0,0 mm 0,0 km/h (0 Bft) S-SW 202 ° 0 min 0,000 mm 0,0 UV-I 11 W/m² -12,5 °C -11,3 °C 0,0 km/h (0 Bft)
23.01.2019 08:22 -11,3 °C 91 % 999,2 hPa 0,0 mm 0,0 km/h (0 Bft) S-SW 202 ° 0 min 0,000 mm 0,0 UV-I 11 W/m² -12,5 °C -11,3 °C 0,0 km/h (0 Bft)
23.01.2019 08:23 -11,3 °C 91 % 999,2 hPa 0,0 mm 0,0 km/h (0 Bft) S-SW 202 ° 0 min 0,000 mm 0,0 UV-I 12 W/m² -12,5 °C -11,3 °C 0,0 km/h (0 Bft)
23.01.2019 08:24 -11,2 °C 91 % 999,3 hPa 0,0 mm 0,0 km/h (0 Bft) S-SW 202 ° 0 min 0,000 mm 0,0 UV-I 12 W/m² -12,4 °C -11,2 °C 0,0 km/h (0 Bft)
23.01.2019 08:25 -11,2 °C 91 % 999,2 hPa 0,0 mm 0,0 km/h (0 Bft) S-SW 202 ° 0 min 0,000 mm 0,0 UV-I 12 W/m² -12,4 °C -11,2 °C 0,0 km/h (0 Bft)
23.01.2019 08:26 -11,2 °C 91 % 999,3 hPa 0,0 mm 0,0 km/h (0 Bft) S-SW 202 ° 0 min 0,000 mm 0,0 UV-I 14 W/m² -12,4 °C -11,2 °C 0,0 km/h (0 Bft)
23.01.2019 08:27 -11,2 °C 91 % 999,2 hPa 0,0 mm 0,0 km/h (0 Bft) S-SW 202 ° 0 min 0,000 mm 0,0 UV-I 14 W/m² -12,4 °C -11,2 °C 0,0 km/h (0 Bft)
23.01.2019 08:28 -11,2 °C 91 % 999,2 hPa 0,0 mm 0,0 km/h (0 Bft) S-SW 202 ° 0 min 0,000 mm 0,0 UV-I 14 W/m² -12,4 °C -11,2 °C 0,0 km/h (0 Bft)
23.01.2019 08:29 -11,2 °C 91 % 999,2 hPa 0,0 mm 0,0 km/h (0 Bft) S-SW 202 ° 0 min 0,000 mm 0,0 UV-I 14 W/m² -12,4 °C -11,2 °C 0,0 km/h (0 Bft)
23.01.2019 08:30 -11,2 °C 91 % 999,2 hPa 0,0 mm 0,0 km/h (0 Bft) S-SW 202 ° 0 min 0,000 mm 0,0 UV-I 16 W/m² -12,4 °C -11,2 °C 0,0 km/h (0 Bft)
23.01.2019 08:31 -11,1 °C 91 % 999,1 hPa 0,0 mm 0,0 km/h (0 Bft) S-SW 202 ° 0 min 0,000 mm 0,0 UV-I 16 W/m² -12,3 °C -11,1 °C 0,0 km/h (0 Bft)
23.01.2019 08:32 -11,2 °C 91 % 999,1 hPa 0,0 mm 0,0 km/h (0 Bft) S-SW 202 ° 0 min 0,000 mm 0,0 UV-I 18 W/m² -12,4 °C -11,2 °C 0,0 km/h (0 Bft)
23.01.2019 08:33 -11,2 °C 91 % 999,1 hPa 0,0 mm 0,0 km/h (0 Bft) S-SW 202 ° 0 min 0,000 mm 0,0 UV-I 18 W/m² -12,4 °C -11,2 °C 0,0 km/h (0 Bft)
23.01.2019 08:34 -11,1 °C 91 % 999,1 hPa 0,0 mm 0,0 km/h (0 Bft) S-SW 202 ° 0 min 0,000 mm 0,0 UV-I 18 W/m² -12,3 °C -11,1 °C 0,0 km/h (0 Bft)
23.01.2019 08:35 -11,1 °C 91 % 999,2 hPa 0,0 mm 0,0 km/h (0 Bft) S-SW 202 ° 0 min 0,000 mm 0,0 UV-I 19 W/m² -12,3 °C -11,1 °C 0,0 km/h (0 Bft)
23.01.2019 08:36 -11,1 °C 91 % 999,2 hPa 0,0 mm 0,0 km/h (0 Bft) S-SW 202 ° 0 min 0,000 mm 0,0 UV-I 19 W/m² -12,3 °C -11,1 °C 0,0 km/h (0 Bft)
23.01.2019 08:37 -11,1 °C 91 % 999,2 hPa 0,0 mm 0,0 km/h (0 Bft) S-SW 202 ° 0 min 0,000 mm 0,0 UV-I 21 W/m² -12,3 °C -11,1 °C 0,0 km/h (0 Bft)
23.01.2019 08:38 -11,1 °C 91 % 999,1 hPa 0,0 mm 0,0 km/h (0 Bft) S-SW 202 ° 0 min 0,000 mm 0,0 UV-I 21 W/m² -12,3 °C -11,1 °C 0,0 km/h (0 Bft)
23.01.2019 08:39 -11,1 °C 91 % 999,2 hPa 0,0 mm 0,0 km/h (0 Bft) S-SW 202 ° 0 min 0,000 mm 0,0 UV-I 21 W/m² -12,3 °C -11,1 °C 0,0 km/h (0 Bft)
23.01.2019 08:40 -11,0 °C 91 % 999,2 hPa 0,0 mm 0,0 km/h (0 Bft) S-SW 202 ° 0 min 0,000 mm 0,0 UV-I 23 W/m² -12,2 °C -11,0 °C 0,0 km/h (0 Bft)
23.01.2019 08:41 -11,0 °C 91 % 999,2 hPa 0,0 mm 0,0 km/h (0 Bft) S-SW 202 ° 0 min 0,000 mm 0,0 UV-I 23 W/m² -12,2 °C -11,0 °C 0,0 km/h (0 Bft)
23.01.2019 08:42 -11,0 °C 91 % 999,2 hPa 0,0 mm 0,0 km/h (0 Bft) S-SW 202 ° 0 min 0,000 mm 0,0 UV-I 25 W/m² -12,2 °C -11,0 °C 0,0 km/h (0 Bft)
23.01.2019 08:43 -10,9 °C 91 % 999,1 hPa 0,0 mm 0,0 km/h (0 Bft) S-SW 202 ° 0 min 0,000 mm 0,0 UV-I 26 W/m² -12,1 °C -10,9 °C 0,0 km/h (0 Bft)
23.01.2019 08:44 -10,9 °C 91 % 999,2 hPa 0,0 mm 0,0 km/h (0 Bft) S-SW 202 ° 0 min 0,000 mm 0,0 UV-I 26 W/m² -12,1 °C -10,9 °C 0,0 km/h (0 Bft)
23.01.2019 08:45 -10,9 °C 91 % 999,1 hPa 0,0 mm 0,0 km/h (0 Bft) S-SW 202 ° 0 min 0,000 mm 0,0 UV-I 26 W/m² -12,1 °C -10,9 °C 0,0 km/h (0 Bft)
23.01.2019 08:46 -10,9 °C 91 % 999,1 hPa 0,0 mm 0,0 km/h (0 Bft) S-SW 202 ° 0 min 0,000 mm 0,0 UV-I 28 W/m² -12,1 °C -10,9 °C 0,0 km/h (0 Bft)
23.01.2019 08:47 -10,9 °C 91 % 999,1 hPa 0,0 mm 0,0 km/h (0 Bft) S-SW 202 ° 0 min 0,000 mm 0,0 UV-I 28 W/m² -12,1 °C -10,9 °C 0,0 km/h (0 Bft)
23.01.2019 08:48 -10,9 °C 91 % 999,1 hPa 0,0 mm 0,0 km/h (0 Bft) S-SW 202 ° 0 min 0,000 mm 0,0 UV-I 30 W/m² -12,1 °C -10,9 °C 0,0 km/h (0 Bft)
23.01.2019 08:49 -10,9 °C 91 % 999,1 hPa 0,0 mm 0,0 km/h (0 Bft) S-SW 202 ° 0 min 0,000 mm 0,0 UV-I 32 W/m² -12,1 °C -10,9 °C 0,0 km/h (0 Bft)
23.01.2019 08:50 -10,8 °C 91 % 999,1 hPa 0,0 mm 0,0 km/h (0 Bft) S-SW 202 ° 0 min 0,000 mm 0,0 UV-I 32 W/m² -12,0 °C -10,8 °C 0,0 km/h (0 Bft)
23.01.2019 08:51 -10,8 °C 91 % 999,1 hPa 0,0 mm 0,0 km/h (0 Bft) S-SW 202 ° 0 min 0,000 mm 0,0 UV-I 32 W/m² -12,0 °C -10,8 °C 0,0 km/h (0 Bft)
23.01.2019 08:52 -10,8 °C 91 % 999,2 hPa 0,0 mm 0,0 km/h (0 Bft) S-SW 202 ° 0 min 0,000 mm 0,0 UV-I 33 W/m² -12,0 °C -10,8 °C 0,0 km/h (0 Bft)
23.01.2019 08:53 -10,8 °C 91 % 999,2 hPa 0,0 mm 0,0 km/h (0 Bft) S-SW 202 ° 0 min 0,000 mm 0,0 UV-I 33 W/m² -12,0 °C -10,8 °C 0,0 km/h (0 Bft)
23.01.2019 08:54 -10,8 °C 91 % 999,1 hPa 0,0 mm 0,0 km/h (0 Bft) S-SW 202 ° 0 min 0,000 mm 0,0 UV-I 35 W/m² -12,0 °C -10,8 °C 0,0 km/h (0 Bft)
23.01.2019 08:55 -10,8 °C 91 % 999,1 hPa 0,0 mm 0,0 km/h (0 Bft) S-SW 202 ° 0 min 0,000 mm 0,0 UV-I 37 W/m² -12,0 °C -10,8 °C 0,0 km/h (0 Bft)
23.01.2019 08:56 -10,8 °C 91 % 999,1 hPa 0,0 mm 0,0 km/h (0 Bft) S-SW 202 ° 0 min 0,000 mm 0,0 UV-I 39 W/m² -12,0 °C -10,8 °C 0,0 km/h (0 Bft)
23.01.2019 08:57 -10,8 °C 91 % 999,1 hPa 0,0 mm 0,0 km/h (0 Bft) S-SW 202 ° 0 min 0,000 mm 0,0 UV-I 40 W/m² -12,0 °C -10,8 °C 0,0 km/h (0 Bft)
23.01.2019 08:58 -10,8 °C 91 % 999,1 hPa 0,0 mm 0,0 km/h (0 Bft) S-SW 202 ° 0 min 0,000 mm 0,0 UV-I 40 W/m² -12,0 °C -10,8 °C 0,0 km/h (0 Bft)
23.01.2019 08:59 -10,7 °C 91 % 999,1 hPa 0,0 mm 0,0 km/h (0 Bft) S-SW 202 ° 0 min 0,000 mm 0,0 UV-I 42 W/m² -11,9 °C -10,7 °C 0,0 km/h (0 Bft)
23.01.2019 09:00 -10,7 °C 91 % 999,1 hPa 0,0 mm 0,0 km/h (0 Bft) S-SW 202 ° 0 min 0,000 mm 0,0 UV-I 44 W/m² -11,9 °C -10,7 °C 0,0 km/h (0 Bft)
23.01.2019 09:01 -10,7 °C 91 % 999,1 hPa 0,0 mm 0,0 km/h (0 Bft) S-SW 202 ° 0 min 0,000 mm 0,0 UV-I 46 W/m² -11,9 °C -10,7 °C 0,0 km/h (0 Bft)
23.01.2019 09:02 -10,7 °C 91 % 999,1 hPa 0,0 mm 0,0 km/h (0 Bft) S-SW 202 ° 0 min 0,000 mm 0,0 UV-I 47 W/m² -11,9 °C -10,7 °C 0,0 km/h (0 Bft)
23.01.2019 09:03 -10,7 °C 91 % 999,1 hPa 0,0 mm 0,0 km/h (0 Bft) S-SW 202 ° 0 min 0,000 mm 0,0 UV-I 49 W/m² -11,9 °C -10,7 °C 0,0 km/h (0 Bft)
23.01.2019 09:04 -10,6 °C 91 % 999,1 hPa 0,0 mm 0,0 km/h (0 Bft) S-SW 202 ° 0 min 0,000 mm 0,0 UV-I 51 W/m² -11,8 °C -10,6 °C 0,0 km/h (0 Bft)
23.01.2019 09:05 -10,6 °C 91 % 999,1 hPa 0,0 mm 0,0 km/h (0 Bft) S-SW 202 ° 0 min 0,000 mm 0,0 UV-I 53 W/m² -11,8 °C -10,6 °C 0,0 km/h (0 Bft)
23.01.2019 09:06 -10,6 °C 91 % 999,1 hPa 0,0 mm 0,0 km/h (0 Bft) S-SW 202 ° 0 min 0,000 mm 0,0 UV-I 53 W/m² -11,8 °C -10,6 °C 0,0 km/h (0 Bft)
23.01.2019 09:07 -10,6 °C 91 % 999,0 hPa 0,0 mm 0,0 km/h (0 Bft) S-SW 202 ° 0 min 0,000 mm 0,0 UV-I 56 W/m² -11,8 °C -10,6 °C 0,0 km/h (0 Bft)
23.01.2019 09:08 -10,6 °C 91 % 999,1 hPa 0,0 mm 0,0 km/h (0 Bft) S-SW 202 ° 0 min 0,000 mm 0,0 UV-I 58 W/m² -11,8 °C -10,6 °C 0,0 km/h (0 Bft)
23.01.2019 09:09 -10,6 °C 91 % 999,1 hPa 0,0 mm 0,0 km/h (0 Bft) S-SW 202 ° 0 min 0,000 mm 0,0 UV-I 60 W/m² -11,8 °C -10,6 °C 0,0 km/h (0 Bft)
23.01.2019 09:10 -10,5 °C 91 % 999,0 hPa 0,0 mm 0,0 km/h (0 Bft) S-SW 202 ° 0 min 0,000 mm 0,0 UV-I 60 W/m² -11,7 °C -10,5 °C 0,0 km/h (0 Bft)
23.01.2019 09:11 -10,4 °C 91 % 999,1 hPa 0,0 mm 0,0 km/h (0 Bft) S-SW 202 ° 0 min 0,000 mm 0,0 UV-I 62 W/m² -11,6 °C -10,4 °C 0,0 km/h (0 Bft)
23.01.2019 09:12 -10,4 °C 91 % 999,0 hPa 0,0 mm 0,0 km/h (0 Bft) S-SW 202 ° 0 min 0,000 mm 0,0 UV-I 65 W/m² -11,6 °C -10,4 °C 0,0 km/h (0 Bft)
23.01.2019 09:13 -10,4 °C 91 % 998,9 hPa 0,0 mm 0,0 km/h (0 Bft) S-SW 202 ° 0 min 0,000 mm 0,0 UV-I 67 W/m² -11,6 °C -10,4 °C 0,0 km/h (0 Bft)
23.01.2019 09:14 -10,4 °C 92 % 998,9 hPa 0,0 mm 0,0 km/h (0 Bft) S-SW 202 ° 0 min 0,000 mm 0,0 UV-I 67 W/m² -11,4 °C -10,4 °C 0,0 km/h (0 Bft)
23.01.2019 09:15 -10,3 °C 92 % 998,9 hPa 0,0 mm 0,0 km/h (0 Bft) S-SW 202 ° 0 min 0,000 mm 0,0 UV-I 69 W/m² -11,3 °C -10,3 °C 0,0 km/h (0 Bft)
23.01.2019 09:16 -10,3 °C 92 % 998,9 hPa 0,0 mm 0,0 km/h (0 Bft) S-SW 202 ° 0 min 0,000 mm 0,0 UV-I 70 W/m² -11,3 °C -10,3 °C 0,0 km/h (0 Bft)
23.01.2019 09:17 -10,3 °C 92 % 998,9 hPa 0,0 mm 0,0 km/h (0 Bft) S-SW 202 ° 0 min 0,000 mm 0,0 UV-I 70 W/m² -11,3 °C -10,3 °C 0,0 km/h (0 Bft)
23.01.2019 09:18 -10,3 °C 92 % 998,9 hPa 0,0 mm 0,0 km/h (0 Bft) S-SW 202 ° 0 min 0,000 mm 0,0 UV-I 72 W/m² -11,3 °C -10,3 °C 0,0 km/h (0 Bft)
23.01.2019 09:19 -10,2 °C 92 % 998,9 hPa 0,0 mm 0,0 km/h (0 Bft) S-SW 202 ° 0 min 0,000 mm 0,0 UV-I 74 W/m² -11,2 °C -10,2 °C 0,0 km/h (0 Bft)
23.01.2019 09:20 -10,2 °C 91 % 998,9 hPa 0,0 mm 0,0 km/h (0 Bft) S-SW 202 ° 0 min 0,000 mm 0,0 UV-I 74 W/m² -11,4 °C -10,2 °C 0,0 km/h (0 Bft)
23.01.2019 09:21 -10,2 °C 92 % 998,9 hPa 0,0 mm 0,0 km/h (0 Bft) S-SW 202 ° 0 min 0,000 mm 0,0 UV-I 74 W/m² -11,2 °C -10,2 °C 0,0 km/h (0 Bft)
23.01.2019 09:22 -10,2 °C 92 % 998,9 hPa 0,0 mm 0,0 km/h (0 Bft) S-SW 202 ° 0 min 0,000 mm 0,0 UV-I 76 W/m² -11,2 °C -10,2 °C 0,0 km/h (0 Bft)
23.01.2019 09:23 -10,1 °C 92 % 998,8 hPa 0,0 mm 0,0 km/h (0 Bft) S-SW 202 ° 0 min 0,000 mm 0,0 UV-I 76 W/m² -11,1 °C -10,1 °C 0,0 km/h (0 Bft)
23.01.2019 09:24 -10,1 °C 92 % 998,9 hPa 0,0 mm 0,0 km/h (0 Bft) S-SW 202 ° 0 min 0,000 mm 0,0 UV-I 76 W/m² -11,1 °C -10,1 °C 0,0 km/h (0 Bft)
23.01.2019 09:25 -10,0 °C 92 % 998,9 hPa 0,0 mm 0,0 km/h (0 Bft) S-SW 202 ° 0 min 0,000 mm 0,0 UV-I 76 W/m² -11,0 °C -10,0 °C 0,0 km/h (0 Bft)
23.01.2019 09:26 -10,0 °C 92 % 998,8 hPa 0,0 mm 0,0 km/h (0 Bft) S-SW 202 ° 0 min 0,000 mm 0,0 UV-I 76 W/m² -11,0 °C -10,0 °C 0,0 km/h (0 Bft)
23.01.2019 09:27 -9,9 °C 92 % 998,8 hPa 0,0 mm 0,0 km/h (0 Bft) S-SW 202 ° 0 min 0,000 mm 0,0 UV-I 76 W/m² -10,9 °C -9,9 °C 0,0 km/h (0 Bft)
23.01.2019 09:28 -9,9 °C 92 % 998,8 hPa 0,0 mm 0,0 km/h (0 Bft) S-SW 202 ° 0 min 0,000 mm 0,5 UV-I 76 W/m² -10,9 °C -9,9 °C 0,0 km/h (0 Bft)
23.01.2019 09:29 -9,9 °C 92 % 998,8 hPa 0,0 mm 0,0 km/h (0 Bft) S-SW 202 ° 0 min 0,000 mm 0,5 UV-I 77 W/m² -10,9 °C -9,9 °C 0,0 km/h (0 Bft)
23.01.2019 09:30 -9,8 °C 92 % 998,8 hPa 0,0 mm 0,0 km/h (0 Bft) S-SW 202 ° 0 min 0,000 mm 0,5 UV-I 77 W/m² -10,8 °C -9,8 °C 0,0 km/h (0 Bft)
23.01.2019 09:31 -9,8 °C 92 % 998,8 hPa 0,0 mm 0,0 km/h (0 Bft) S-SW 202 ° 0 min 0,000 mm 0,5 UV-I 77 W/m² -10,8 °C -9,8 °C 0,0 km/h (0 Bft)
23.01.2019 09:32 -9,8 °C 92 % 998,8 hPa 0,0 mm 0,0 km/h (0 Bft) S-SW 202 ° 0 min 0,000 mm 0,5 UV-I 77 W/m² -10,8 °C -9,8 °C 0,0 km/h (0 Bft)
23.01.2019 09:33 -9,8 °C 92 % 998,8 hPa 0,0 mm 0,0 km/h (0 Bft) S-SW 202 ° 0 min 0,000 mm 0,5 UV-I 77 W/m² -10,8 °C -9,8 °C 0,0 km/h (0 Bft)
23.01.2019 09:34 -9,8 °C 92 % 998,8 hPa 0,0 mm 0,0 km/h (0 Bft) S-SW 202 ° 0 min 0,000 mm 0,5 UV-I 77 W/m² -10,8 °C -9,8 °C 0,0 km/h (0 Bft)
23.01.2019 09:35 -9,7 °C 92 % 998,8 hPa 0,0 mm 0,0 km/h (0 Bft) S-SW 202 ° 0 min 0,000 mm 0,5 UV-I 77 W/m² -10,7 °C -9,7 °C 0,0 km/h (0 Bft)
23.01.2019 09:36 -9,7 °C 92 % 998,7 hPa 0,0 mm 0,0 km/h (0 Bft) S-SW 202 ° 0 min 0,000 mm 0,5 UV-I 79 W/m² -10,7 °C -9,7 °C 0,0 km/h (0 Bft)
23.01.2019 09:37 -9,7 °C 92 % 998,7 hPa 0,0 mm 0,0 km/h (0 Bft) S-SW 202 ° 0 min 0,000 mm 0,5 UV-I 79 W/m² -10,7 °C -9,7 °C 0,0 km/h (0 Bft)
23.01.2019 09:38 -9,7 °C 92 % 998,7 hPa 0,0 mm 0,0 km/h (0 Bft) S-SW 202 ° 0 min 0,000 mm 0,5 UV-I 79 W/m² -10,7 °C -9,7 °C 0,0 km/h (0 Bft)
23.01.2019 09:39 -9,6 °C 92 % 998,7 hPa 0,0 mm 0,0 km/h (0 Bft) S-SW 202 ° 0 min 0,000 mm 0,5 UV-I 79 W/m² -10,6 °C -9,6 °C 0,0 km/h (0 Bft)
23.01.2019 09:40 -9,6 °C 92 % 998,7 hPa 0,0 mm 0,0 km/h (0 Bft) S-SW 202 ° 0 min 0,000 mm 0,5 UV-I 79 W/m² -10,6 °C -9,6 °C 0,0 km/h (0 Bft)
23.01.2019 09:41 -9,6 °C 92 % 998,7 hPa 0,0 mm 0,0 km/h (0 Bft) S-SW 202 ° 0 min 0,000 mm 0,5 UV-I 79 W/m² -10,6 °C -9,6 °C 0,0 km/h (0 Bft)
23.01.2019 09:42 -9,4 °C 92 % 998,7 hPa 0,0 mm 0,0 km/h (0 Bft) S-SW 202 ° 0 min 0,000 mm 0,5 UV-I 79 W/m² -10,5 °C -9,4 °C 0,0 km/h (0 Bft)
23.01.2019 09:43 -9,4 °C 92 % 998,7 hPa 0,0 mm 0,0 km/h (0 Bft) S-SW 202 ° 0 min 0,000 mm 0,6 UV-I 81 W/m² -10,5 °C -9,4 °C 0,0 km/h (0 Bft)
23.01.2019 09:44 -9,4 °C 92 % 998,7 hPa 0,0 mm 0,0 km/h (0 Bft) S-SW 202 ° 0 min 0,000 mm 0,6 UV-I 81 W/m² -10,5 °C -9,4 °C 0,0 km/h (0 Bft)
23.01.2019 09:45 -9,3 °C 92 % 998,7 hPa 0,0 mm 0,0 km/h (0 Bft) S-SW 202 ° 0 min 0,000 mm 0,6 UV-I 81 W/m² -10,4 °C -9,3 °C 0,0 km/h (0 Bft)
23.01.2019 09:46 -9,3 °C 92 % 998,7 hPa 0,0 mm 0,0 km/h (0 Bft) S-SW 202 ° 0 min 0,000 mm 0,6 UV-I 83 W/m² -10,4 °C -9,3 °C 0,0 km/h (0 Bft)
23.01.2019 09:47 -9,3 °C 92 % 998,7 hPa 0,0 mm 0,0 km/h (0 Bft) S-SW 202 ° 0 min 0,000 mm 0,6 UV-I 83 W/m² -10,4 °C -9,3 °C 0,0 km/h (0 Bft)
23.01.2019 09:48 -9,3 °C 92 % 998,7 hPa 0,0 mm 0,0 km/h (0 Bft) S-SW 202 ° 0 min 0,000 mm 0,6 UV-I 83 W/m² -10,4 °C -9,3 °C 0,0 km/h (0 Bft)
23.01.2019 09:49 -9,3 °C 92 % 998,7 hPa 0,0 mm 0,0 km/h (0 Bft) S-SW 202 ° 0 min 0,000 mm 0,6 UV-I 83 W/m² -10,4 °C -9,3 °C 0,0 km/h (0 Bft)
23.01.2019 09:50 -9,2 °C 92 % 998,7 hPa 0,0 mm 0,0 km/h (0 Bft) S-SW 202 ° 0 min 0,000 mm 0,6 UV-I 83 W/m² -10,3 °C -9,2 °C 0,0 km/h (0 Bft)
23.01.2019 09:51 -9,2 °C 92 % 998,7 hPa 0,0 mm 0,0 km/h (0 Bft) S-SW 202 ° 0 min 0,000 mm 0,6 UV-I 83 W/m² -10,3 °C -9,2 °C 0,0 km/h (0 Bft)
23.01.2019 09:52 -9,1 °C 92 % 998,7 hPa 0,0 mm 0,0 km/h (0 Bft) S-SW 202 ° 0 min 0,000 mm 0,6 UV-I 81 W/m² -10,2 °C -9,1 °C 0,0 km/h (0 Bft)
23.01.2019 09:53 -9,1 °C 92 % 998,7 hPa 0,0 mm 0,0 km/h (0 Bft) S-SW 202 ° 0 min 0,000 mm 0,6 UV-I 81 W/m² -10,2 °C -9,1 °C 0,0 km/h (0 Bft)
23.01.2019 09:54 -9,1 °C 92 % 998,7 hPa 0,0 mm 0,0 km/h (0 Bft) S-SW 202 ° 0 min 0,000 mm 0,6 UV-I 81 W/m² -10,2 °C -9,1 °C 0,0 km/h (0 Bft)
23.01.2019 09:55 -9,0 °C 92 % 998,7 hPa 0,0 mm 0,0 km/h (0 Bft) S-SW 202 ° 0 min 0,000 mm 0,6 UV-I 81 W/m² -10,1 °C -9,0 °C 0,0 km/h (0 Bft)
23.01.2019 09:56 -9,1 °C 92 % 998,7 hPa 0,0 mm 0,0 km/h (0 Bft) S-SW 202 ° 0 min 0,000 mm 0,6 UV-I 79 W/m² -10,2 °C -9,1 °C 0,0 km/h (0 Bft)
23.01.2019 09:57 -9,0 °C 92 % 998,7 hPa 0,0 mm 0,0 km/h (0 Bft) S-SW 202 ° 0 min 0,000 mm 0,6 UV-I 79 W/m² -10,1 °C -9,0 °C 0,0 km/h (0 Bft)
23.01.2019 09:58 -8,9 °C 91 % 998,7 hPa 0,0 mm 0,0 km/h (0 Bft) S-SW 202 ° 0 min 0,000 mm 0,6 UV-I 79 W/m² -10,1 °C -8,9 °C 0,0 km/h (0 Bft)
23.01.2019 09:59 -8,9 °C 91 % 998,7 hPa 0,0 mm 0,0 km/h (0 Bft) S-SW 202 ° 0 min 0,000 mm 0,6 UV-I 81 W/m² -10,1 °C -8,9 °C 0,0 km/h (0 Bft)
23.01.2019 10:00 -8,9 °C 91 % 998,7 hPa 0,0 mm 0,0 km/h (0 Bft) S-SW 202 ° 0 min 0,000 mm 0,6 UV-I 81 W/m² -10,1 °C -8,9 °C 0,0 km/h (0 Bft)
23.01.2019 10:01 -8,8 °C 92 % 998,7 hPa 0,0 mm 0,0 km/h (0 Bft) S-SW 202 ° 0 min 0,025 mm 0,6 UV-I 81 W/m² -9,9 °C -8,8 °C 0,0 km/h (0 Bft)
23.01.2019 10:02 -8,8 °C 91 % 998,7 hPa 0,0 mm 0,0 km/h (0 Bft) S-SW 202 ° 0 min 0,000 mm 0,6 UV-I 83 W/m² -10,0 °C -8,8 °C 0,0 km/h (0 Bft)
23.01.2019 10:03 -8,8 °C 91 % 998,6 hPa 0,0 mm 0,0 km/h (0 Bft) S-SW 202 ° 0 min 0,000 mm 0,6 UV-I 84 W/m² -10,0 °C -8,8 °C 0,0 km/h (0 Bft)
23.01.2019 10:04 -8,8 °C 91 % 998,6 hPa 0,0 mm 0,0 km/h (0 Bft) S-SW 202 ° 0 min 0,000 mm 0,6 UV-I 86 W/m² -10,0 °C -8,8 °C 0,0 km/h (0 Bft)
23.01.2019 10:05 -8,8 °C 91 % 998,6 hPa 0,0 mm 0,0 km/h (0 Bft) S-SW 202 ° 0 min 0,000 mm 0,6 UV-I 90 W/m² -10,0 °C -8,8 °C 0,0 km/h (0 Bft)
23.01.2019 10:06 -8,8 °C 91 % 998,6 hPa 0,0 mm 0,0 km/h (0 Bft) S-SW 202 ° 0 min 0,000 mm 0,6 UV-I 91 W/m² -10,0 °C -8,8 °C 0,0 km/h (0 Bft)
23.01.2019 10:07 -8,7 °C 91 % 998,6 hPa 0,0 mm 0,0 km/h (0 Bft) S-SW 202 ° 0 min 0,000 mm 0,6 UV-I 93 W/m² -9,9 °C -8,7 °C 0,0 km/h (0 Bft)
23.01.2019 10:08 -8,8 °C 91 % 998,6 hPa 0,0 mm 0,0 km/h (0 Bft) S-SW 202 ° 0 min 0,000 mm 0,6 UV-I 95 W/m² -10,0 °C -8,8 °C 0,0 km/h (0 Bft)
23.01.2019 10:09 -8,7 °C 91 % 998,6 hPa 0,0 mm 0,0 km/h (0 Bft) S-SW 202 ° 0 min 0,000 mm 0,7 UV-I 98 W/m² -9,9 °C -8,7 °C 0,0 km/h (0 Bft)
23.01.2019 10:10 -8,7 °C 91 % 998,6 hPa 0,0 mm 0,0 km/h (0 Bft) S-SW 202 ° 0 min 0,000 mm 0,7 UV-I 102 W/m² -9,9 °C -8,7 °C 0,0 km/h (0 Bft)
23.01.2019 10:11 -8,8 °C 91 % 998,6 hPa 0,0 mm 0,0 km/h (0 Bft) S-SW 202 ° 0 min 0,000 mm 0,7 UV-I 107 W/m² -10,0 °C -8,8 °C 0,0 km/h (0 Bft)
23.01.2019 10:12 -8,8 °C 91 % 998,6 hPa 0,0 mm 0,0 km/h (0 Bft) S-SW 202 ° 0 min 0,000 mm 0,7 UV-I 111 W/m² -10,0 °C -8,8 °C 0,0 km/h (0 Bft)
23.01.2019 10:13 -8,8 °C 91 % 998,6 hPa 0,0 mm 0,0 km/h (0 Bft) S-SW 202 ° 0 min 0,000 mm 0,7 UV-I 114 W/m² -10,0 °C -8,8 °C 0,0 km/h (0 Bft)
23.01.2019 10:14 -8,8 °C 90 % 998,6 hPa 0,0 mm 0,0 km/h (0 Bft) S-SW 202 ° 0 min 0,000 mm 0,7 UV-I 118 W/m² -10,1 °C -8,8 °C 0,0 km/h (0 Bft)
23.01.2019 10:15 -8,8 °C 90 % 998,6 hPa 0,0 mm 0,0 km/h (0 Bft) S-SW 202 ° 0 min 0,000 mm 0,7 UV-I 120 W/m² -10,1 °C -8,8 °C 0,0 km/h (0 Bft)
23.01.2019 10:16 -8,8 °C 90 % 998,6 hPa 0,0 mm 0,0 km/h (0 Bft) S-SW 202 ° 0 min 0,000 mm 0,7 UV-I 125 W/m² -10,1 °C -8,8 °C 0,0 km/h (0 Bft)
23.01.2019 10:17 -8,7 °C 90 % 998,5 hPa 0,0 mm 0,0 km/h (0 Bft) S-SW 202 ° 0 min 0,000 mm 0,7 UV-I 135 W/m² -10,0 °C -8,7 °C 0,0 km/h (0 Bft)
23.01.2019 10:18 -8,7 °C 90 % 998,6 hPa 0,0 mm 0,0 km/h (0 Bft) S-SW 202 ° 0 min 0,000 mm 0,8 UV-I 139 W/m² -10,0 °C -8,7 °C 0,0 km/h (0 Bft)
23.01.2019 10:19 -8,7 °C 90 % 998,6 hPa 0,0 mm 0,0 km/h (0 Bft) S-SW 202 ° 0 min 0,000 mm 0,8 UV-I 142 W/m² -10,0 °C -8,7 °C 0,0 km/h (0 Bft)
23.01.2019 10:20 -8,7 °C 90 % 998,6 hPa 0,0 mm 0,0 km/h (0 Bft) S-SW 202 ° 0 min 0,000 mm 0,8 UV-I 148 W/m² -10,0 °C -8,7 °C 0,0 km/h (0 Bft)
23.01.2019 10:21 -8,7 °C 90 % 998,6 hPa 0,0 mm 0,0 km/h (0 Bft) S-SW 202 ° 0 min 0,000 mm 0,8 UV-I 153 W/m² -10,0 °C -8,7 °C 0,0 km/h (0 Bft)
23.01.2019 10:22 -8,6 °C 91 % 998,6 hPa 0,0 mm 0,0 km/h (0 Bft) S-SW 202 ° 0 min 0,000 mm 0,8 UV-I 158 W/m² -9,8 °C -8,6 °C 0,0 km/h (0 Bft)
23.01.2019 10:23 -8,6 °C 91 % 998,6 hPa 0,0 mm 0,0 km/h (0 Bft) S-SW 202 ° 0 min 0,000 mm 0,8 UV-I 165 W/m² -9,8 °C -8,6 °C 0,0 km/h (0 Bft)
23.01.2019 10:24 -8,5 °C 91 % 998,5 hPa 0,0 mm 0,0 km/h (0 Bft) S-SW 202 ° 0 min 0,000 mm 0,9 UV-I 167 W/m² -9,7 °C -8,5 °C 0,0 km/h (0 Bft)
23.01.2019 10:25 -8,4 °C 91 % 998,6 hPa 0,0 mm 0,0 km/h (0 Bft) S-SW 202 ° 0 min 0,000 mm 0,9 UV-I 171 W/m² -9,6 °C -8,4 °C 0,0 km/h (0 Bft)
23.01.2019 10:26 -8,3 °C 90 % 998,6 hPa 0,0 mm 0,0 km/h (0 Bft) S-SW 202 ° 0 min 0,000 mm 0,9 UV-I 172 W/m² -9,6 °C -8,3 °C 0,0 km/h (0 Bft)
23.01.2019 10:27 -8,3 °C 91 % 998,5 hPa 0,0 mm 0,0 km/h (0 Bft) S-SW 202 ° 0 min 0,000 mm 0,9 UV-I 174 W/m² -9,5 °C -8,3 °C 0,0 km/h (0 Bft)
23.01.2019 10:28 -8,3 °C 91 % 998,5 hPa 0,0 mm 0,0 km/h (0 Bft) S-SW 202 ° 0 min 0,000 mm 0,9 UV-I 181 W/m² -9,5 °C -8,3 °C 0,0 km/h (0 Bft)
23.01.2019 10:29 -8,3 °C 91 % 998,5 hPa 0,0 mm 0,0 km/h (0 Bft) S-SW 202 ° 0 min 0,000 mm 0,9 UV-I 183 W/m² -9,5 °C -8,3 °C 0,0 km/h (0 Bft)
23.01.2019 10:30 -8,2 °C 91 % 998,5 hPa 0,0 mm 0,0 km/h (0 Bft) S-SW 202 ° 0 min 0,000 mm 0,9 UV-I 183 W/m² -9,4 °C -8,2 °C 0,0 km/h (0 Bft)
23.01.2019 10:31 -8,2 °C 91 % 998,5 hPa 0,0 mm 0,0 km/h (0 Bft) S-SW 202 ° 0 min 0,000 mm 0,9 UV-I 183 W/m² -9,4 °C -8,2 °C 0,0 km/h (0 Bft)
23.01.2019 10:32 -8,2 °C 91 % 998,5 hPa 0,0 mm 0,0 km/h (0 Bft) S-SW 202 ° 0 min 0,000 mm 0,9 UV-I 183 W/m² -9,4 °C -8,2 °C 0,0 km/h (0 Bft)
23.01.2019 10:33 -8,1 °C 91 % 998,4 hPa 0,0 mm 0,0 km/h (0 Bft) S-SW 202 ° 0 min 0,000 mm 0,9 UV-I 183 W/m² -9,3 °C -8,1 °C 0,0 km/h (0 Bft)
23.01.2019 10:34 -8,1 °C 91 % 998,4 hPa 0,0 mm 0,0 km/h (0 Bft) S-SW 202 ° 0 min 0,000 mm 0,9 UV-I 185 W/m² -9,3 °C -8,1 °C 0,0 km/h (0 Bft)
23.01.2019 10:35 -8,1 °C 91 % 998,5 hPa 0,0 mm 0,0 km/h (0 Bft) S-SW 202 ° 0 min 0,000 mm 1,0 UV-I 185 W/m² -9,3 °C -8,1 °C 0,0 km/h (0 Bft)
23.01.2019 10:36 -8,1 °C 91 % 998,4 hPa 0,0 mm 0,0 km/h (0 Bft) S-SW 202 ° 0 min 0,000 mm 1,0 UV-I 186 W/m² -9,3 °C -8,1 °C 0,0 km/h (0 Bft)
23.01.2019 10:37 -8,1 °C 90 % 998,5 hPa 0,0 mm 0,0 km/h (0 Bft) S-SW 202 ° 0 min 0,000 mm 1,0 UV-I 186 W/m² -9,4 °C -8,1 °C 0,0 km/h (0 Bft)
23.01.2019 10:38 -8,1 °C 91 % 998,4 hPa 0,0 mm 0,0 km/h (0 Bft) S-SW 202 ° 0 min 0,000 mm 1,0 UV-I 186 W/m² -9,3 °C -8,1 °C 0,0 km/h (0 Bft)
23.01.2019 10:39 -8,0 °C 91 % 998,4 hPa 0,0 mm 0,1 km/h (0 Bft) S-SW 202 ° 0 min 0,000 mm 1,0 UV-I 186 W/m² -9,2 °C -8,0 °C 1,6 km/h (1 Bft)
23.01.2019 10:40 -7,9 °C 91 % 998,4 hPa 0,0 mm 0,0 km/h (0 Bft) S-SW 202 ° 0 min 0,000 mm 1,0 UV-I 186 W/m² -9,1 °C -7,9 °C 0,0 km/h (0 Bft)
23.01.2019 10:41 -7,9 °C 91 % 998,4 hPa 0,0 mm 0,0 km/h (0 Bft) S-SW 202 ° 0 min 0,000 mm 1,0 UV-I 188 W/m² -9,1 °C -7,9 °C 0,0 km/h (0 Bft)
23.01.2019 10:42 -7,9 °C 91 % 998,4 hPa 0,0 mm 0,0 km/h (0 Bft) S-SW 202 ° 0 min 0,000 mm 1,0 UV-I 190 W/m² -9,1 °C -7,9 °C 0,0 km/h (0 Bft)
23.01.2019 10:43 -7,8 °C 91 % 998,4 hPa 0,0 mm 0,0 km/h (0 Bft) S-SW 202 ° 0 min 0,000 mm 1,0 UV-I 190 W/m² -9,0 °C -7,8 °C 0,0 km/h (0 Bft)
23.01.2019 10:44 -7,8 °C 91 % 998,4 hPa 0,0 mm 0,0 km/h (0 Bft) S-SW 202 ° 0 min 0,000 mm 1,0 UV-I 193 W/m² -9,0 °C -7,8 °C 0,0 km/h (0 Bft)
23.01.2019 10:45 -7,8 °C 91 % 998,4 hPa 0,0 mm 0,0 km/h (0 Bft) S-SW 202 ° 0 min 0,000 mm 1,0 UV-I 193 W/m² -9,0 °C -7,8 °C 0,0 km/h (0 Bft)
23.01.2019 10:46 -7,7 °C 91 % 998,4 hPa 0,0 mm 0,0 km/h (0 Bft) S-SW 202 ° 0 min 0,000 mm 1,0 UV-I 197 W/m² -8,9 °C -7,7 °C 0,0 km/h (0 Bft)
23.01.2019 10:47 -7,7 °C 91 % 998,4 hPa 0,0 mm 0,0 km/h (0 Bft) S-SW 202 ° 0 min 0,000 mm 1,0 UV-I 195 W/m² -8,9 °C -7,7 °C 0,0 km/h (0 Bft)
23.01.2019 10:48 -7,7 °C 91 % 998,4 hPa 0,0 mm 0,0 km/h (0 Bft) S-SW 202 ° 0 min 0,000 mm 1,1 UV-I 197 W/m² -8,9 °C -7,7 °C 0,0 km/h (0 Bft)
23.01.2019 10:49 -7,7 °C 91 % 998,4 hPa 0,0 mm 0,0 km/h (0 Bft) S-SW 202 ° 0 min 0,000 mm 1,1 UV-I 202 W/m² -8,9 °C -7,7 °C 0,0 km/h (0 Bft)
23.01.2019 10:50 -7,6 °C 91 % 998,3 hPa 0,0 mm 0,0 km/h (0 Bft) S-SW 202 ° 0 min 0,000 mm 1,1 UV-I 204 W/m² -8,8 °C -7,6 °C 0,0 km/h (0 Bft)
23.01.2019 10:51 -7,7 °C 91 % 998,4 hPa 0,0 mm 0,0 km/h (0 Bft) S-SW 202 ° 0 min 0,000 mm 1,1 UV-I 206 W/m² -8,9 °C -7,7 °C 0,0 km/h (0 Bft)
23.01.2019 10:52 -7,7 °C 91 % 998,3 hPa 0,0 mm 0,0 km/h (0 Bft) S-SW 202 ° 0 min 0,000 mm 1,1 UV-I 207 W/m² -8,9 °C -7,7 °C 0,0 km/h (0 Bft)
23.01.2019 10:53 -7,6 °C 91 % 998,3 hPa 0,0 mm 0,0 km/h (0 Bft) S-SW 202 ° 0 min 0,000 mm 1,1 UV-I 207 W/m² -8,8 °C -7,6 °C 0,0 km/h (0 Bft)
23.01.2019 10:54 -7,6 °C 91 % 998,3 hPa 0,0 mm 0,0 km/h (0 Bft) S-SW 202 ° 0 min 0,000 mm 1,1 UV-I 207 W/m² -8,8 °C -7,6 °C 0,0 km/h (0 Bft)
23.01.2019 10:55 -7,6 °C 91 % 998,3 hPa 0,0 mm 0,0 km/h (0 Bft) S-SW 202 ° 0 min 0,000 mm 1,1 UV-I 206 W/m² -8,8 °C -7,6 °C 0,0 km/h (0 Bft)
23.01.2019 10:56 -7,6 °C 91 % 998,3 hPa 0,0 mm 0,0 km/h (0 Bft) S-SW 202 ° 0 min 0,000 mm 1,2 UV-I 207 W/m² -8,8 °C -7,6 °C 0,0 km/h (0 Bft)
23.01.2019 10:57 -7,6 °C 91 % 998,3 hPa 0,0 mm 0,0 km/h (0 Bft) S-SW 202 ° 0 min 0,000 mm 1,2 UV-I 204 W/m² -8,8 °C -7,6 °C 0,0 km/h (0 Bft)
23.01.2019 10:58 -7,6 °C 91 % 998,3 hPa 0,0 mm 0,0 km/h (0 Bft) S-SW 202 ° 0 min 0,000 mm 1,2 UV-I 202 W/m² -8,8 °C -7,6 °C 0,0 km/h (0 Bft)
23.01.2019 10:59 -7,6 °C 91 % 998,2 hPa 0,0 mm 0,0 km/h (0 Bft) S-SW 202 ° 0 min 0,000 mm 1,2 UV-I 200 W/m² -8,8 °C -7,6 °C 0,0 km/h (0 Bft)
23.01.2019 11:00 -7,6 °C 91 % 998,2 hPa 0,0 mm 0,0 km/h (0 Bft) S-SW 202 ° 0 min 0,026 mm 1,2 UV-I 199 W/m² -8,8 °C -7,6 °C 0,0 km/h (0 Bft)
23.01.2019 11:01 -7,6 °C 91 % 998,3 hPa 0,0 mm 0,0 km/h (0 Bft) S-SW 202 ° 0 min 0,000 mm 1,2 UV-I 195 W/m² -8,8 °C -7,6 °C 0,0 km/h (0 Bft)
23.01.2019 11:02 -7,6 °C 91 % 998,2 hPa 0,0 mm 0,0 km/h (0 Bft) S-SW 202 ° 0 min 0,000 mm 1,2 UV-I 193 W/m² -8,8 °C -7,6 °C 0,0 km/h (0 Bft)
23.01.2019 11:03 -7,6 °C 91 % 998,2 hPa 0,0 mm 0,0 km/h (0 Bft) S-SW 202 ° 0 min 0,000 mm 1,2 UV-I 188 W/m² -8,8 °C -7,6 °C 0,0 km/h (0 Bft)
23.01.2019 11:04 -7,4 °C 91 % 998,2 hPa 0,0 mm 0,0 km/h (0 Bft) S-SW 202 ° 0 min 0,000 mm 1,2 UV-I 181 W/m² -8,6 °C -7,4 °C 0,0 km/h (0 Bft)
23.01.2019 11:05 -7,4 °C 91 % 998,2 hPa 0,0 mm 0,0 km/h (0 Bft) S-SW 202 ° 0 min 0,000 mm 1,2 UV-I 179 W/m² -8,6 °C -7,4 °C 0,0 km/h (0 Bft)
23.01.2019 11:06 -7,4 °C 91 % 998,2 hPa 0,0 mm 0,0 km/h (0 Bft) S-SW 202 ° 0 min 0,000 mm 1,2 UV-I 176 W/m² -8,6 °C -7,4 °C 0,0 km/h (0 Bft)
23.01.2019 11:07 -7,4 °C 91 % 998,1 hPa 0,0 mm 0,0 km/h (0 Bft) S-SW 202 ° 0 min 0,000 mm 1,2 UV-I 172 W/m² -8,6 °C -7,4 °C 0,0 km/h (0 Bft)
23.01.2019 11:08 -7,3 °C 91 % 998,1 hPa 0,0 mm 0,0 km/h (0 Bft) S-SW 202 ° 0 min 0,000 mm 1,2 UV-I 172 W/m² -8,5 °C -7,3 °C 0,0 km/h (0 Bft)
23.01.2019 11:09 -7,3 °C 91 % 998,1 hPa 0,0 mm 0,0 km/h (0 Bft) S-SW 202 ° 0 min 0,000 mm 1,2 UV-I 169 W/m² -8,5 °C -7,3 °C 0,0 km/h (0 Bft)
23.01.2019 11:10 -7,3 °C 91 % 998,2 hPa 0,0 mm 0,0 km/h (0 Bft) S-SW 202 ° 0 min 0,000 mm 1,2 UV-I 169 W/m² -8,5 °C -7,3 °C 0,0 km/h (0 Bft)
23.01.2019 11:11 -7,4 °C 90 % 998,1 hPa 0,0 mm 0,0 km/h (0 Bft) S-SW 202 ° 0 min 0,000 mm 1,2 UV-I 167 W/m² -8,8 °C -7,4 °C 0,0 km/h (0 Bft)
23.01.2019 11:12 -7,4 °C 91 % 998,1 hPa 0,0 mm 0,0 km/h (0 Bft) S-SW 202 ° 0 min 0,000 mm 1,2 UV-I 167 W/m² -8,6 °C -7,4 °C 0,0 km/h (0 Bft)
23.01.2019 11:13 -7,3 °C 91 % 998,1 hPa 0,0 mm 0,0 km/h (0 Bft) S-SW 202 ° 0 min 0,000 mm 1,2 UV-I 169 W/m² -8,5 °C -7,3 °C 0,0 km/h (0 Bft)
23.01.2019 11:14 -7,2 °C 91 % 998,1 hPa 0,0 mm 0,0 km/h (0 Bft) S-SW 202 ° 0 min 0,000 mm 1,2 UV-I 171 W/m² -8,4 °C -7,2 °C 0,0 km/h (0 Bft)
23.01.2019 11:15 -7,2 °C 91 % 998,0 hPa 0,0 mm 2,8 km/h (1 Bft) S-SW 202 ° 0 min 0,000 mm 1,2 UV-I 169 W/m² -8,4 °C -7,2 °C 4,8 km/h (1 Bft)
23.01.2019 11:16 -7,1 °C 91 % 998,0 hPa 0,0 mm 0,9 km/h (0 Bft) S-SW 202 ° 0 min 0,000 mm 1,2 UV-I 165 W/m² -8,3 °C -7,1 °C 3,2 km/h (1 Bft)
23.01.2019 11:17 -7,0 °C 91 % 998,0 hPa 0,0 mm 2,6 km/h (1 Bft) S-SW 202 ° 0 min 0,000 mm 1,2 UV-I 163 W/m² -8,2 °C -7,0 °C 4,8 km/h (1 Bft)
23.01.2019 11:18 -6,9 °C 91 % 998,0 hPa 0,0 mm 2,1 km/h (1 Bft) S-SW 202 ° 0 min 0,000 mm 1,2 UV-I 169 W/m² -8,1 °C -6,9 °C 3,2 km/h (1 Bft)
23.01.2019 11:19 -6,9 °C 91 % 998,0 hPa 0,0 mm 1,6 km/h (1 Bft) S-SW 202 ° 0 min 0,000 mm 1,2 UV-I 167 W/m² -8,1 °C -6,9 °C 3,2 km/h (1 Bft)
23.01.2019 11:20 -6,9 °C 91 % 998,0 hPa 0,0 mm 1,0 km/h (0 Bft) S-SW 202 ° 0 min 0,000 mm 1,1 UV-I 153 W/m² -8,1 °C -6,9 °C 3,2 km/h (1 Bft)
23.01.2019 11:21 -6,9 °C 91 % 998,0 hPa 0,0 mm 0,0 km/h (0 Bft) S-SW 202 ° 0 min 0,000 mm 1,1 UV-I 130 W/m² -8,1 °C -6,9 °C 0,0 km/h (0 Bft)
23.01.2019 11:22 -6,9 °C 91 % 998,0 hPa 0,0 mm 0,0 km/h (0 Bft) S-SW 202 ° 0 min 0,000 mm 1,1 UV-I 128 W/m² -8,1 °C -6,9 °C 0,0 km/h (0 Bft)
23.01.2019 11:23 -6,8 °C 91 % 998,0 hPa 0,0 mm 0,0 km/h (0 Bft) S-SW 202 ° 0 min 0,000 mm 1,1 UV-I 125 W/m² -8,0 °C -6,8 °C 0,0 km/h (0 Bft)
23.01.2019 11:24 -6,8 °C 91 % 998,0 hPa 0,0 mm 0,0 km/h (0 Bft) S-SW 202 ° 0 min 0,000 mm 1,1 UV-I 118 W/m² -8,0 °C -6,8 °C 0,0 km/h (0 Bft)
23.01.2019 11:25 -6,8 °C 91 % 997,9 hPa 0,0 mm 0,0 km/h (0 Bft) S-SW 202 ° 0 min 0,000 mm 1,1 UV-I 118 W/m² -8,0 °C -6,8 °C 0,0 km/h (0 Bft)
23.01.2019 11:26 -6,8 °C 91 % 997,9 hPa 0,0 mm 0,1 km/h (0 Bft) S-SW 202 ° 0 min 0,000 mm 1,1 UV-I 120 W/m² -8,0 °C -6,8 °C 1,6 km/h (1 Bft)
23.01.2019 11:27 -6,8 °C 91 % 997,9 hPa 0,0 mm 0,1 km/h (0 Bft) S-SW 202 ° 0 min 0,000 mm 1,1 UV-I 123 W/m² -8,0 °C -6,8 °C 1,6 km/h (1 Bft)
23.01.2019 11:28 -6,9 °C 90 % 997,8 hPa 0,0 mm 0,0 km/h (0 Bft) S-SW 202 ° 0 min 0,000 mm 1,1 UV-I 125 W/m² -8,3 °C -6,9 °C 0,0 km/h (0 Bft)
23.01.2019 11:29 -6,9 °C 90 % 997,8 hPa 0,0 mm 0,0 km/h (0 Bft) S-SW 202 ° 0 min 0,000 mm 1,1 UV-I 127 W/m² -8,3 °C -6,9 °C 0,0 km/h (0 Bft)
23.01.2019 11:30 -7,0 °C 90 % 997,8 hPa 0,0 mm 0,0 km/h (0 Bft) S-SW 202 ° 0 min 0,000 mm 1,1 UV-I 128 W/m² -8,4 °C -7,0 °C 0,0 km/h (0 Bft)
23.01.2019 11:31 -7,0 °C 90 % 997,8 hPa 0,0 mm 0,0 km/h (0 Bft) S-SW 202 ° 0 min 0,000 mm 1,1 UV-I 130 W/m² -8,4 °C -7,0 °C 0,0 km/h (0 Bft)
23.01.2019 11:32 -7,1 °C 90 % 997,7 hPa 0,0 mm 0,0 km/h (0 Bft) S-SW 202 ° 0 min 0,000 mm 1,1 UV-I 134 W/m² -8,5 °C -7,1 °C 0,0 km/h (0 Bft)
23.01.2019 11:33 -7,1 °C 90 % 997,8 hPa 0,0 mm 0,0 km/h (0 Bft) S-SW 202 ° 0 min 0,000 mm 1,1 UV-I 137 W/m² -8,5 °C -7,1 °C 0,0 km/h (0 Bft)
23.01.2019 11:34 -7,0 °C 90 % 997,7 hPa 0,0 mm 0,0 km/h (0 Bft) S-SW 202 ° 0 min 0,000 mm 1,1 UV-I 144 W/m² -8,4 °C -7,0 °C 0,0 km/h (0 Bft)
23.01.2019 11:35 -7,1 °C 90 % 997,7 hPa 0,0 mm 0,0 km/h (0 Bft) S-SW 202 ° 0 min 0,000 mm 1,1 UV-I 148 W/m² -8,5 °C -7,1 °C 0,0 km/h (0 Bft)
23.01.2019 11:36 -7,1 °C 90 % 997,7 hPa 0,0 mm 0,0 km/h (0 Bft) S-SW 202 ° 0 min 0,000 mm 1,1 UV-I 151 W/m² -8,5 °C -7,1 °C 0,0 km/h (0 Bft)
23.01.2019 11:37 -7,0 °C 90 % 997,7 hPa 0,0 mm 0,0 km/h (0 Bft) S-SW 202 ° 0 min 0,000 mm 1,1 UV-I 153 W/m² -8,4 °C -7,0 °C 0,0 km/h (0 Bft)
23.01.2019 11:38 -7,0 °C 90 % 997,7 hPa 0,0 mm 0,0 km/h (0 Bft) S-SW 202 ° 0 min 0,000 mm 1,1 UV-I 153 W/m² -8,4 °C -7,0 °C 0,0 km/h (0 Bft)
23.01.2019 11:39 -6,9 °C 90 % 997,7 hPa 0,0 mm 0,0 km/h (0 Bft) S-SW 202 ° 0 min 0,000 mm 1,2 UV-I 160 W/m² -8,3 °C -6,9 °C 0,0 km/h (0 Bft)
23.01.2019 11:40 -6,9 °C 90 % 997,7 hPa 0,0 mm 0,0 km/h (0 Bft) S-SW 202 ° 0 min 0,000 mm 1,2 UV-I 162 W/m² -8,3 °C -6,9 °C 0,0 km/h (0 Bft)
23.01.2019 11:41 -6,8 °C 90 % 997,7 hPa 0,0 mm 0,0 km/h (0 Bft) S-SW 202 ° 0 min 0,000 mm 1,2 UV-I 163 W/m² -8,2 °C -6,8 °C 0,0 km/h (0 Bft)
23.01.2019 11:42 -6,8 °C 90 % 997,7 hPa 0,0 mm 0,0 km/h (0 Bft) S-SW 202 ° 0 min 0,000 mm 1,2 UV-I 165 W/m² -8,2 °C -6,8 °C 0,0 km/h (0 Bft)
23.01.2019 11:43 -6,8 °C 90 % 997,7 hPa 0,0 mm 0,0 km/h (0 Bft) S-SW 202 ° 0 min 0,000 mm 1,2 UV-I 167 W/m² -8,2 °C -6,8 °C 0,0 km/h (0 Bft)
23.01.2019 11:44 -6,8 °C 90 % 997,7 hPa 0,0 mm 1,5 km/h (1 Bft) S-SW 202 ° 0 min 0,000 mm 1,2 UV-I 169 W/m² -8,2 °C -6,8 °C 3,2 km/h (1 Bft)
23.01.2019 11:45 -6,7 °C 90 % 997,7 hPa 0,0 mm 1,7 km/h (1 Bft) S-SW 202 ° 0 min 0,000 mm 1,2 UV-I 172 W/m² -8,1 °C -6,7 °C 4,8 km/h (1 Bft)
23.01.2019 11:46 -6,6 °C 90 % 997,7 hPa 0,0 mm 0,0 km/h (0 Bft) S-SW 202 ° 0 min 0,000 mm 1,2 UV-I 174 W/m² -8,0 °C -6,6 °C 0,0 km/h (0 Bft)
23.01.2019 11:47 -6,6 °C 90 % 997,7 hPa 0,0 mm 2,0 km/h (1 Bft) S-SW 202 ° 0 min 0,000 mm 1,2 UV-I 176 W/m² -8,0 °C -6,6 °C 3,2 km/h (1 Bft)
23.01.2019 11:48 -6,5 °C 90 % 997,7 hPa 0,0 mm 1,9 km/h (1 Bft) S-SW 200 ° 0 min 0,000 mm 1,2 UV-I 178 W/m² -7,9 °C -6,5 °C 3,2 km/h (1 Bft)
23.01.2019 11:49 -6,4 °C 90 % 997,7 hPa 0,0 mm 1,3 km/h (1 Bft) S-SW 199 ° 0 min 0,000 mm 1,2 UV-I 179 W/m² -7,8 °C -6,4 °C 3,2 km/h (1 Bft)
23.01.2019 11:50 -6,4 °C 90 % 997,7 hPa 0,0 mm 1,3 km/h (1 Bft) S-SW 198 ° 0 min 0,000 mm 1,2 UV-I 181 W/m² -7,8 °C -6,4 °C 3,2 km/h (1 Bft)
23.01.2019 11:51 -6,4 °C 90 % 997,7 hPa 0,0 mm 1,3 km/h (1 Bft) S-SW 198 ° 0 min 0,000 mm 1,2 UV-I 183 W/m² -7,8 °C -6,4 °C 3,2 km/h (1 Bft)
23.01.2019 11:52 -6,4 °C 90 % 997,6 hPa 0,0 mm 1,3 km/h (1 Bft) S-SW 194 ° 0 min 0,000 mm 1,2 UV-I 185 W/m² -7,8 °C -6,4 °C 3,2 km/h (1 Bft)
23.01.2019 11:53 -6,4 °C 90 % 997,6 hPa 0,0 mm 1,5 km/h (1 Bft) S 188 ° 0 min 0,000 mm 1,2 UV-I 186 W/m² -7,8 °C -6,4 °C 3,2 km/h (1 Bft)
23.01.2019 11:54 -6,3 °C 90 % 997,6 hPa 0,0 mm 0,1 km/h (0 Bft) S 188 ° 0 min 0,000 mm 1,2 UV-I 188 W/m² -7,7 °C -6,3 °C 1,6 km/h (1 Bft)
23.01.2019 11:55 -6,3 °C 90 % 997,6 hPa 0,0 mm 0,1 km/h (0 Bft) S 188 ° 0 min 0,000 mm 1,2 UV-I 190 W/m² -7,7 °C -6,3 °C 1,6 km/h (1 Bft)
23.01.2019 11:56 -6,3 °C 90 % 997,6 hPa 0,0 mm 0,3 km/h (0 Bft) S 188 ° 0 min 0,000 mm 1,2 UV-I 190 W/m² -7,7 °C -6,3 °C 1,6 km/h (1 Bft)
23.01.2019 11:57 -6,2 °C 90 % 997,6 hPa 0,0 mm 0,7 km/h (0 Bft) S 187 ° 0 min 0,000 mm 1,2 UV-I 190 W/m² -7,6 °C -6,2 °C 3,2 km/h (1 Bft)
23.01.2019 11:58 -6,3 °C 90 % 997,6 hPa 0,0 mm 0,0 km/h (0 Bft) S 187 ° 0 min 0,000 mm 1,2 UV-I 190 W/m² -7,7 °C -6,3 °C 0,0 km/h (0 Bft)
23.01.2019 11:59 -6,3 °C 90 % 997,6 hPa 0,0 mm 0,0 km/h (0 Bft) S 187 ° 0 min 0,000 mm 1,2 UV-I 188 W/m² -7,7 °C -6,3 °C 0,0 km/h (0 Bft)
23.01.2019 12:00 -6,3 °C 90 % 997,6 hPa 0,0 mm 2,2 km/h (1 Bft) O 99 ° 0 min 0,000 mm 1,2 UV-I 190 W/m² -7,7 °C -6,3 °C 3,2 km/h (1 Bft)
23.01.2019 12:01 -6,2 °C 90 % 997,6 hPa 0,0 mm 2,1 km/h (1 Bft) O 94 ° 0 min 0,051 mm 1,2 UV-I 192 W/m² -7,6 °C -6,2 °C 4,8 km/h (1 Bft)
23.01.2019 12:02 -6,2 °C 90 % 997,6 hPa 0,0 mm 3,9 km/h (1 Bft) O 82 ° 0 min 0,000 mm 1,2 UV-I 199 W/m² -7,6 °C -6,2 °C 6,4 km/h (2 Bft)
23.01.2019 12:03 -6,3 °C 90 % 997,6 hPa 0,0 mm 2,1 km/h (1 Bft) O 82 ° 0 min 0,000 mm 1,3 UV-I 204 W/m² -7,7 °C -6,3 °C 4,8 km/h (1 Bft)
23.01.2019 12:04 -6,2 °C 90 % 997,6 hPa 0,0 mm 3,5 km/h (1 Bft) O 82 ° 0 min 0,000 mm 1,3 UV-I 207 W/m² -7,6 °C -6,2 °C 4,8 km/h (1 Bft)
23.01.2019 12:05 -6,2 °C 90 % 997,6 hPa 0,0 mm 3,1 km/h (1 Bft) O 82 ° 0 min 0,000 mm 1,3 UV-I 213 W/m² -7,6 °C -6,2 °C 4,8 km/h (1 Bft)
23.01.2019 12:06 -6,2 °C 89 % 997,6 hPa 0,0 mm 2,9 km/h (1 Bft) O 82 ° 0 min 0,000 mm 1,3 UV-I 214 W/m² -7,7 °C -6,2 °C 4,8 km/h (1 Bft)
23.01.2019 12:07 -6,2 °C 89 % 997,6 hPa 0,0 mm 2,5 km/h (1 Bft) O 82 ° 0 min 0,000 mm 1,3 UV-I 216 W/m² -7,7 °C -6,2 °C 4,8 km/h (1 Bft)
23.01.2019 12:08 -6,2 °C 90 % 997,6 hPa 0,0 mm 1,1 km/h (1 Bft) O 82 ° 0 min 0,000 mm 1,3 UV-I 216 W/m² -7,6 °C -6,2 °C 3,2 km/h (1 Bft)
23.01.2019 12:09 -6,2 °C 90 % 997,6 hPa 0,0 mm 1,8 km/h (1 Bft) O 82 ° 0 min 0,000 mm 1,3 UV-I 214 W/m² -7,6 °C -6,2 °C 3,2 km/h (1 Bft)
23.01.2019 12:10 -6,2 °C 89 % 997,5 hPa 0,0 mm 0,1 km/h (0 Bft) O 82 ° 0 min 0,000 mm 1,3 UV-I 213 W/m² -7,7 °C -6,2 °C 1,6 km/h (1 Bft)
23.01.2019 12:11 -6,2 °C 89 % 997,5 hPa 0,0 mm 2,0 km/h (1 Bft) O 82 ° 0 min 0,000 mm 1,3 UV-I 209 W/m² -7,7 °C -6,2 °C 3,2 km/h (1 Bft)
23.01.2019 12:12 -6,2 °C 89 % 997,6 hPa 0,0 mm 0,1 km/h (0 Bft) O 82 ° 0 min 0,000 mm 1,3 UV-I 206 W/m² -7,7 °C -6,2 °C 1,6 km/h (1 Bft)
23.01.2019 12:13 -6,2 °C 90 % 997,5 hPa 0,0 mm 2,2 km/h (1 Bft) O 82 ° 0 min 0,000 mm 1,3 UV-I 202 W/m² -7,6 °C -6,2 °C 3,2 km/h (1 Bft)
23.01.2019 12:14 -6,2 °C 90 % 997,5 hPa 0,0 mm 0,3 km/h (0 Bft) O 82 ° 0 min 0,000 mm 1,3 UV-I 199 W/m² -7,6 °C -6,2 °C 3,2 km/h (1 Bft)
23.01.2019 12:15 -6,1 °C 89 % 997,6 hPa 0,0 mm 0,0 km/h (0 Bft) O 82 ° 0 min 0,000 mm 1,2 UV-I 193 W/m² -7,6 °C -6,1 °C 0,0 km/h (0 Bft)
23.01.2019 12:16 -6,2 °C 89 % 997,5 hPa 0,0 mm 0,0 km/h (0 Bft) O 82 ° 0 min 0,000 mm 1,2 UV-I 192 W/m² -7,7 °C -6,2 °C 0,0 km/h (0 Bft)
23.01.2019 12:17 -6,1 °C 89 % 997,5 hPa 0,0 mm 0,0 km/h (0 Bft) O 82 ° 0 min 0,000 mm 1,2 UV-I 190 W/m² -7,6 °C -6,1 °C 0,0 km/h (0 Bft)
23.01.2019 12:18 -6,1 °C 89 % 997,5 hPa 0,0 mm 0,1 km/h (0 Bft) O 82 ° 0 min 0,000 mm 1,2 UV-I 188 W/m² -7,6 °C -6,1 °C 1,6 km/h (1 Bft)
23.01.2019 12:19 -6,1 °C 89 % 997,5 hPa 0,0 mm 1,7 km/h (1 Bft) O 82 ° 0 min 0,000 mm 1,2 UV-I 183 W/m² -7,6 °C -6,1 °C 3,2 km/h (1 Bft)
23.01.2019 12:20 -6,0 °C 89 % 997,5 hPa 0,0 mm 0,3 km/h (0 Bft) O 82 ° 0 min 0,000 mm 1,2 UV-I 181 W/m² -7,5 °C -6,0 °C 3,2 km/h (1 Bft)
23.01.2019 12:21 -6,0 °C 89 % 997,5 hPa 0,0 mm 1,7 km/h (1 Bft) O 82 ° 0 min 0,000 mm 1,2 UV-I 179 W/m² -7,5 °C -6,0 °C 4,8 km/h (1 Bft)
23.01.2019 12:22 -6,0 °C 89 % 997,5 hPa 0,0 mm 2,6 km/h (1 Bft) O 82 ° 0 min 0,000 mm 1,2 UV-I 178 W/m² -7,5 °C -6,0 °C 3,2 km/h (1 Bft)
23.01.2019 12:23 -6,0 °C 89 % 997,5 hPa 0,0 mm 2,5 km/h (1 Bft) O 82 ° 0 min 0,000 mm 1,2 UV-I 176 W/m² -7,5 °C -6,0 °C 3,2 km/h (1 Bft)
23.01.2019 12:24 -6,0 °C 89 % 997,5 hPa 0,0 mm 1,7 km/h (1 Bft) O 82 ° 0 min 0,000 mm 1,2 UV-I 174 W/m² -7,5 °C -6,0 °C 3,2 km/h (1 Bft)
23.01.2019 12:25 -5,9 °C 89 % 997,5 hPa 0,0 mm 0,1 km/h (0 Bft) O 82 ° 0 min 0,000 mm 1,2 UV-I 171 W/m² -7,4 °C -5,9 °C 1,6 km/h (1 Bft)
23.01.2019 12:26 -5,9 °C 89 % 997,4 hPa 0,0 mm 0,7 km/h (0 Bft) O 82 ° 0 min 0,000 mm 1,2 UV-I 171 W/m² -7,4 °C -5,9 °C 1,6 km/h (1 Bft)
23.01.2019 12:27 -5,9 °C 89 % 997,4 hPa 0,0 mm 0,0 km/h (0 Bft) O 82 ° 0 min 0,000 mm 1,2 UV-I 167 W/m² -7,4 °C -5,9 °C 0,0 km/h (0 Bft)
23.01.2019 12:28 -5,9 °C 89 % 997,4 hPa 0,0 mm 0,0 km/h (0 Bft) O 82 ° 0 min 0,000 mm 1,2 UV-I 165 W/m² -7,4 °C -5,9 °C 0,0 km/h (0 Bft)
23.01.2019 12:29 -5,9 °C 89 % 997,4 hPa 0,0 mm 2,5 km/h (1 Bft) O 82 ° 0 min 0,000 mm 1,2 UV-I 165 W/m² -7,4 °C -5,9 °C 4,8 km/h (1 Bft)
23.01.2019 12:30 -5,8 °C 89 % 997,4 hPa 0,0 mm 3,2 km/h (1 Bft) O-NO 60 ° 0 min 0,000 mm 1,2 UV-I 163 W/m² -7,3 °C -5,8 °C 4,8 km/h (1 Bft)
23.01.2019 12:31 -5,8 °C 89 % 997,4 hPa 0,0 mm 1,9 km/h (1 Bft) O-NO 60 ° 0 min 0,000 mm 1,2 UV-I 162 W/m² -7,3 °C -5,8 °C 3,2 km/h (1 Bft)
23.01.2019 12:32 -5,8 °C 88 % 997,4 hPa 0,0 mm 3,8 km/h (1 Bft) O-NO 60 ° 0 min 0,000 mm 1,2 UV-I 162 W/m² -7,5 °C -5,8 °C 6,4 km/h (2 Bft)
23.01.2019 12:33 -5,8 °C 88 % 997,4 hPa 0,0 mm 2,6 km/h (1 Bft) O-NO 60 ° 0 min 0,000 mm 1,2 UV-I 162 W/m² -7,5 °C -5,8 °C 3,2 km/h (1 Bft)
23.01.2019 12:34 -5,8 °C 88 % 997,4 hPa 0,0 mm 3,6 km/h (1 Bft) O-NO 60 ° 0 min 0,000 mm 1,2 UV-I 162 W/m² -7,5 °C -5,8 °C 4,8 km/h (1 Bft)
23.01.2019 12:35 -5,8 °C 88 % 997,4 hPa 0,0 mm 3,4 km/h (1 Bft) O-NO 60 ° 0 min 0,000 mm 1,2 UV-I 162 W/m² -7,5 °C -5,8 °C 4,8 km/h (1 Bft)
23.01.2019 12:36 -5,8 °C 88 % 997,4 hPa 0,0 mm 2,0 km/h (1 Bft) O-NO 60 ° 0 min 0,000 mm 1,2 UV-I 163 W/m² -7,5 °C -5,8 °C 4,8 km/h (1 Bft)
23.01.2019 12:37 -5,8 °C 88 % 997,4 hPa 0,0 mm 0,0 km/h (0 Bft) O-NO 60 ° 0 min 0,000 mm 1,2 UV-I 165 W/m² -7,5 °C -5,8 °C 0,0 km/h (0 Bft)
23.01.2019 12:38 -5,8 °C 88 % 997,4 hPa 0,0 mm 0,0 km/h (0 Bft) O-NO 60 ° 0 min 0,000 mm 1,2 UV-I 165 W/m² -7,5 °C -5,8 °C 0,0 km/h (0 Bft)
23.01.2019 12:39 -5,8 °C 88 % 997,4 hPa 0,0 mm 2,5 km/h (1 Bft) O-NO 60 ° 0 min 0,000 mm 1,2 UV-I 163 W/m² -7,5 °C -5,8 °C 4,8 km/h (1 Bft)
23.01.2019 12:40 -5,8 °C 88 % 997,4 hPa 0,0 mm 1,6 km/h (1 Bft) O-NO 60 ° 0 min 0,000 mm 1,2 UV-I 163 W/m² -7,5 °C -5,8 °C 4,8 km/h (1 Bft)
23.01.2019 12:41 -5,8 °C 88 % 997,4 hPa 0,0 mm 0,2 km/h (0 Bft) O-NO 60 ° 0 min 0,000 mm 1,2 UV-I 163 W/m² -7,5 °C -5,8 °C 1,6 km/h (1 Bft)
23.01.2019 12:42 -5,7 °C 88 % 997,4 hPa 0,0 mm 1,2 km/h (1 Bft) O-NO 60 ° 0 min 0,000 mm 1,2 UV-I 162 W/m² -7,4 °C -5,7 °C 1,6 km/h (1 Bft)
23.01.2019 12:43 -5,7 °C 88 % 997,4 hPa 0,0 mm 0,0 km/h (0 Bft) O-NO 60 ° 0 min 0,000 mm 1,2 UV-I 162 W/m² -7,4 °C -5,7 °C 0,0 km/h (0 Bft)
23.01.2019 12:44 -5,7 °C 88 % 997,4 hPa 0,0 mm 0,0 km/h (0 Bft) O-NO 60 ° 0 min 0,000 mm 1,2 UV-I 162 W/m² -7,4 °C -5,7 °C 0,0 km/h (0 Bft)
23.01.2019 12:45 -5,7 °C 88 % 997,4 hPa 0,0 mm 0,1 km/h (0 Bft) O-NO 60 ° 0 min 0,000 mm 1,2 UV-I 162 W/m² -7,4 °C -5,7 °C 1,6 km/h (1 Bft)
23.01.2019 12:46 -5,7 °C 88 % 997,3 hPa 0,0 mm 0,0 km/h (0 Bft) O-NO 60 ° 0 min 0,000 mm 1,2 UV-I 162 W/m² -7,4 °C -5,7 °C 0,0 km/h (0 Bft)
23.01.2019 12:47 -5,7 °C 88 % 997,3 hPa 0,0 mm 0,0 km/h (0 Bft) O-NO 60 ° 0 min 0,000 mm 1,2 UV-I 163 W/m² -7,4 °C -5,7 °C 0,0 km/h (0 Bft)
23.01.2019 12:48 -5,7 °C 88 % 997,3 hPa 0,0 mm 0,0 km/h (0 Bft) O-NO 60 ° 0 min 0,000 mm 1,2 UV-I 163 W/m² -7,4 °C -5,7 °C 0,0 km/h (0 Bft)
23.01.2019 12:49 -5,7 °C 88 % 997,3 hPa 0,0 mm 0,8 km/h (0 Bft) O-NO 60 ° 0 min 0,000 mm 1,2 UV-I 162 W/m² -7,4 °C -5,7 °C 3,2 km/h (1 Bft)
23.01.2019 12:50 -5,7 °C 88 % 997,3 hPa 0,0 mm 1,5 km/h (1 Bft) O-NO 60 ° 0 min 0,000 mm 1,2 UV-I 162 W/m² -7,4 °C -5,7 °C 3,2 km/h (1 Bft)
23.01.2019 12:51 -5,7 °C 88 % 997,3 hPa 0,0 mm 0,7 km/h (0 Bft) O-NO 60 ° 0 min 0,000 mm 1,2 UV-I 160 W/m² -7,4 °C -5,7 °C 3,2 km/h (1 Bft)
23.01.2019 12:52 -5,7 °C 88 % 997,3 hPa 0,0 mm 2,1 km/h (1 Bft) O-NO 60 ° 0 min 0,000 mm 1,2 UV-I 158 W/m² -7,4 °C -5,7 °C 3,2 km/h (1 Bft)
23.01.2019 12:53 -5,7 °C 88 % 997,3 hPa 0,0 mm 0,1 km/h (0 Bft) O-NO 60 ° 0 min 0,000 mm 1,2 UV-I 156 W/m² -7,4 °C -5,7 °C 1,6 km/h (1 Bft)
23.01.2019 12:54 -5,7 °C 88 % 997,3 hPa 0,0 mm 0,4 km/h (0 Bft) O-NO 60 ° 0 min 0,000 mm 1,2 UV-I 155 W/m² -7,4 °C -5,7 °C 1,6 km/h (1 Bft)
23.01.2019 12:55 -5,7 °C 88 % 997,3 hPa 0,0 mm 0,4 km/h (0 Bft) O-NO 60 ° 0 min 0,000 mm 1,2 UV-I 151 W/m² -7,4 °C -5,7 °C 1,6 km/h (1 Bft)
23.01.2019 12:56 -5,6 °C 88 % 997,3 hPa 0,0 mm 1,1 km/h (1 Bft) O-NO 60 ° 0 min 0,000 mm 1,2 UV-I 149 W/m² -7,3 °C -5,6 °C 3,2 km/h (1 Bft)
23.01.2019 12:57 -5,6 °C 88 % 997,3 hPa 0,0 mm 1,6 km/h (1 Bft) O-NO 60 ° 0 min 0,000 mm 1,2 UV-I 149 W/m² -7,3 °C -5,6 °C 3,2 km/h (1 Bft)
23.01.2019 12:58 -5,6 °C 88 % 997,3 hPa 0,0 mm 0,7 km/h (0 Bft) O-NO 60 ° 0 min 0,000 mm 1,2 UV-I 149 W/m² -7,3 °C -5,6 °C 1,6 km/h (1 Bft)
23.01.2019 12:59 -5,7 °C 87 % 997,3 hPa 0,0 mm 0,0 km/h (0 Bft) O-NO 60 ° 0 min 0,000 mm 1,2 UV-I 149 W/m² -7,5 °C -5,7 °C 0,0 km/h (0 Bft)
23.01.2019 13:00 -5,6 °C 87 % 997,3 hPa 0,0 mm 0,0 km/h (0 Bft) O-NO 60 ° 0 min 0,000 mm 1,2 UV-I 149 W/m² -7,4 °C -5,6 °C 0,0 km/h (0 Bft)
23.01.2019 13:01 -5,6 °C 88 % 997,3 hPa 0,0 mm 2,1 km/h (1 Bft) O-NO 58 ° 0 min 0,050 mm 1,2 UV-I 149 W/m² -7,3 °C -5,6 °C 3,2 km/h (1 Bft)
23.01.2019 13:02 -5,6 °C 88 % 997,3 hPa 0,0 mm 0,8 km/h (0 Bft) O-NO 58 ° 0 min 0,000 mm 1,2 UV-I 149 W/m² -7,3 °C -5,6 °C 3,2 km/h (1 Bft)
23.01.2019 13:03 -5,6 °C 87 % 997,3 hPa 0,0 mm 3,7 km/h (1 Bft) NW 323 ° 0 min 0,000 mm 1,2 UV-I 151 W/m² -7,4 °C -5,6 °C 4,8 km/h (1 Bft)
23.01.2019 13:04 -5,6 °C 87 % 997,2 hPa 0,0 mm 3,3 km/h (1 Bft) N-NW 341 ° 0 min 0,000 mm 1,2 UV-I 151 W/m² -7,4 °C -5,6 °C 4,8 km/h (1 Bft)
23.01.2019 13:05 -5,5 °C 87 % 997,3 hPa 0,0 mm 3,1 km/h (1 Bft) N-NW 341 ° 0 min 0,000 mm 1,2 UV-I 151 W/m² -7,3 °C -5,5 °C 4,8 km/h (1 Bft)
23.01.2019 13:06 -5,5 °C 87 % 997,3 hPa 0,0 mm 2,1 km/h (1 Bft) N-NW 341 ° 0 min 0,000 mm 1,2 UV-I 158 W/m² -7,3 °C -5,5 °C 3,2 km/h (1 Bft)
23.01.2019 13:07 -5,5 °C 87 % 997,3 hPa 0,0 mm 1,7 km/h (1 Bft) N-NW 341 ° 0 min 0,000 mm 1,2 UV-I 162 W/m² -7,3 °C -5,5 °C 3,2 km/h (1 Bft)
23.01.2019 13:08 -5,4 °C 87 % 997,3 hPa 0,0 mm 0,0 km/h (0 Bft) N-NW 341 ° 0 min 0,000 mm 1,2 UV-I 165 W/m² -7,2 °C -5,4 °C 0,0 km/h (0 Bft)
23.01.2019 13:09 -5,4 °C 87 % 997,3 hPa 0,0 mm 0,3 km/h (0 Bft) N-NW 341 ° 0 min 0,000 mm 1,2 UV-I 169 W/m² -7,2 °C -5,4 °C 1,6 km/h (1 Bft)
23.01.2019 13:10 -5,4 °C 87 % 997,3 hPa 0,0 mm 2,3 km/h (1 Bft) NW 323 ° 0 min 0,000 mm 1,2 UV-I 174 W/m² -7,2 °C -5,4 °C 3,2 km/h (1 Bft)
23.01.2019 13:11 -5,4 °C 87 % 997,3 hPa 0,0 mm 2,4 km/h (1 Bft) NW 323 ° 0 min 0,000 mm 1,2 UV-I 176 W/m² -7,2 °C -5,4 °C 4,8 km/h (1 Bft)
23.01.2019 13:12 -5,5 °C 87 % 997,3 hPa 0,0 mm 2,9 km/h (1 Bft) NW 320 ° 0 min 0,000 mm 1,3 UV-I 181 W/m² -7,3 °C -5,5 °C 4,8 km/h (1 Bft)
23.01.2019 13:13 -5,6 °C 87 % 997,3 hPa 0,0 mm 2,8 km/h (1 Bft) NW 320 ° 0 min 0,000 mm 1,3 UV-I 183 W/m² -7,4 °C -5,6 °C 4,8 km/h (1 Bft)
23.01.2019 13:14 -5,6 °C 87 % 997,3 hPa 0,0 mm 2,5 km/h (1 Bft) NW 320 ° 0 min 0,000 mm 1,3 UV-I 185 W/m² -7,4 °C -5,6 °C 4,8 km/h (1 Bft)
23.01.2019 13:15 -5,6 °C 87 % 997,3 hPa 0,0 mm 4,0 km/h (1 Bft) NW 307 ° 0 min 0,000 mm 1,3 UV-I 185 W/m² -7,4 °C -5,6 °C 6,4 km/h (2 Bft)
23.01.2019 13:16 -5,6 °C 87 % 997,3 hPa 0,0 mm 3,8 km/h (1 Bft) NW 307 ° 0 min 0,000 mm 1,3 UV-I 185 W/m² -7,4 °C -5,6 °C 4,8 km/h (1 Bft)
23.01.2019 13:17 -5,6 °C 87 % 997,3 hPa 0,0 mm 1,7 km/h (1 Bft) NW 307 ° 0 min 0,000 mm 1,3 UV-I 185 W/m² -7,4 °C -5,6 °C 3,2 km/h (1 Bft)
23.01.2019 13:18 -5,7 °C 87 % 997,4 hPa 0,0 mm 3,5 km/h (1 Bft) NW 307 ° 0 min 0,000 mm 1,3 UV-I 181 W/m² -7,5 °C -5,7 °C 4,8 km/h (1 Bft)
23.01.2019 13:19 -5,6 °C 87 % 997,3 hPa 0,0 mm 3,0 km/h (1 Bft) NW 307 ° 0 min 0,000 mm 1,3 UV-I 183 W/m² -7,4 °C -5,6 °C 4,8 km/h (1 Bft)
23.01.2019 13:20 -5,6 °C 87 % 997,4 hPa 0,0 mm 3,0 km/h (1 Bft) NW 307 ° 0 min 0,000 mm 1,3 UV-I 181 W/m² -7,4 °C -5,6 °C 4,8 km/h (1 Bft)
23.01.2019 13:21 -5,6 °C 88 % 997,3 hPa 0,0 mm 3,7 km/h (1 Bft) NW 307 ° 0 min 0,000 mm 1,3 UV-I 178 W/m² -7,3 °C -5,6 °C 4,8 km/h (1 Bft)
23.01.2019 13:22 -5,6 °C 88 % 997,3 hPa 0,0 mm 2,4 km/h (1 Bft) NW 307 ° 0 min 0,000 mm 1,3 UV-I 174 W/m² -7,3 °C -5,6 °C 4,8 km/h (1 Bft)
23.01.2019 13:23 -5,6 °C 88 % 997,3 hPa 0,0 mm 4,4 km/h (1 Bft) NW 307 ° 0 min 0,000 mm 1,3 UV-I 174 W/m² -7,3 °C -5,6 °C 6,4 km/h (2 Bft)
23.01.2019 13:24 -5,6 °C 88 % 997,3 hPa 0,0 mm 3,2 km/h (1 Bft) NW 307 ° 0 min 0,000 mm 1,3 UV-I 167 W/m² -7,3 °C -5,6 °C 4,8 km/h (1 Bft)
23.01.2019 13:25 -5,6 °C 88 % 997,3 hPa 0,0 mm 2,0 km/h (1 Bft) NW 307 ° 0 min 0,000 mm 1,3 UV-I 162 W/m² -7,3 °C -5,6 °C 3,2 km/h (1 Bft)
23.01.2019 13:26 -5,6 °C 88 % 997,3 hPa 0,0 mm 1,9 km/h (1 Bft) NW 307 ° 0 min 0,000 mm 1,3 UV-I 158 W/m² -7,3 °C -5,6 °C 3,2 km/h (1 Bft)
23.01.2019 13:27 -5,7 °C 88 % 997,3 hPa 0,0 mm 1,8 km/h (1 Bft) NW 307 ° 0 min 0,000 mm 1,2 UV-I 155 W/m² -7,4 °C -5,7 °C 3,2 km/h (1 Bft)
23.01.2019 13:28 -5,7 °C 88 % 997,3 hPa 0,0 mm 1,8 km/h (1 Bft) NW 307 ° 0 min 0,000 mm 1,2 UV-I 151 W/m² -7,4 °C -5,7 °C 4,8 km/h (1 Bft)
23.01.2019 13:29 -5,7 °C 88 % 997,3 hPa 0,0 mm 1,5 km/h (1 Bft) NW 307 ° 0 min 0,000 mm 1,2 UV-I 151 W/m² -7,4 °C -5,7 °C 3,2 km/h (1 Bft)
23.01.2019 13:30 -5,6 °C 88 % 997,3 hPa 0,0 mm 1,8 km/h (1 Bft) NW 307 ° 0 min 0,000 mm 1,2 UV-I 148 W/m² -7,3 °C -5,6 °C 3,2 km/h (1 Bft)
23.01.2019 13:31 -5,6 °C 88 % 997,3 hPa 0,0 mm 0,5 km/h (0 Bft) NW 307 ° 0 min 0,000 mm 1,2 UV-I 146 W/m² -7,3 °C -5,6 °C 1,6 km/h (1 Bft)
23.01.2019 13:32 -5,6 °C 88 % 997,3 hPa 0,0 mm 0,0 km/h (0 Bft) NW 307 ° 0 min 0,000 mm 1,2 UV-I 146 W/m² -7,3 °C -5,6 °C 0,0 km/h (0 Bft)
23.01.2019 13:33 -5,6 °C 88 % 997,3 hPa 0,0 mm 0,0 km/h (0 Bft) NW 307 ° 0 min 0,000 mm 1,2 UV-I 148 W/m² -7,3 °C -5,6 °C 0,0 km/h (0 Bft)
23.01.2019 13:34 -5,6 °C 88 % 997,3 hPa 0,0 mm 0,0 km/h (0 Bft) NW 307 ° 0 min 0,000 mm 1,2 UV-I 148 W/m² -7,3 °C -5,6 °C 0,0 km/h (0 Bft)
23.01.2019 13:35 -5,6 °C 88 % 997,3 hPa 0,0 mm 0,0 km/h (0 Bft) NW 307 ° 0 min 0,000 mm 1,2 UV-I 149 W/m² -7,3 °C -5,6 °C 0,0 km/h (0 Bft)
23.01.2019 13:36 -5,6 °C 88 % 997,3 hPa 0,0 mm 0,4 km/h (0 Bft) NW 307 ° 0 min 0,000 mm 1,2 UV-I 151 W/m² -7,3 °C -5,6 °C 1,6 km/h (1 Bft)
23.01.2019 13:37 -5,6 °C 88 % 997,3 hPa 0,0 mm 0,3 km/h (0 Bft) NW 307 ° 0 min 0,000 mm 1,2 UV-I 151 W/m² -7,3 °C -5,6 °C 1,6 km/h (1 Bft)
23.01.2019 13:38 -5,6 °C 88 % 997,3 hPa 0,0 mm 0,0 km/h (0 Bft) NW 307 ° 0 min 0,000 mm 1,2 UV-I 149 W/m² -7,3 °C -5,6 °C 0,0 km/h (0 Bft)
23.01.2019 13:39 -5,6 °C 88 % 997,3 hPa 0,0 mm 1,7 km/h (1 Bft) NW 307 ° 0 min 0,000 mm 1,2 UV-I 148 W/m² -7,3 °C -5,6 °C 3,2 km/h (1 Bft)
23.01.2019 13:40 -5,6 °C 89 % 997,3 hPa 0,0 mm 0,2 km/h (0 Bft) NW 307 ° 0 min 0,000 mm 1,2 UV-I 146 W/m² -7,1 °C -5,6 °C 1,6 km/h (1 Bft)
23.01.2019 13:41 -5,6 °C 89 % 997,3 hPa 0,0 mm 0,0 km/h (0 Bft) NW 307 ° 0 min 0,000 mm 1,2 UV-I 146 W/m² -7,1 °C -5,6 °C 0,0 km/h (0 Bft)
23.01.2019 13:42 -5,6 °C 89 % 997,3 hPa 0,0 mm 1,7 km/h (1 Bft) NW 307 ° 0 min 0,000 mm 1,2 UV-I 142 W/m² -7,1 °C -5,6 °C 4,8 km/h (1 Bft)
23.01.2019 13:43 -5,5 °C 89 % 997,3 hPa 0,0 mm 0,9 km/h (0 Bft) NW 307 ° 0 min 0,000 mm 1,2 UV-I 142 W/m² -7,0 °C -5,5 °C 1,6 km/h (1 Bft)
23.01.2019 13:44 -5,5 °C 89 % 997,3 hPa 0,0 mm 0,4 km/h (0 Bft) NW 307 ° 0 min 0,000 mm 1,2 UV-I 141 W/m² -7,0 °C -5,5 °C 3,2 km/h (1 Bft)
23.01.2019 13:45 -5,5 °C 89 % 997,3 hPa 0,0 mm 0,0 km/h (0 Bft) NW 307 ° 0 min 0,000 mm 1,1 UV-I 139 W/m² -7,0 °C -5,5 °C 0,0 km/h (0 Bft)
23.01.2019 13:46 -5,4 °C 89 % 997,4 hPa 0,0 mm 0,0 km/h (0 Bft) NW 307 ° 0 min 0,000 mm 1,1 UV-I 137 W/m² -6,9 °C -5,4 °C 0,0 km/h (0 Bft)
23.01.2019 13:47 -5,4 °C 89 % 997,3 hPa 0,0 mm 1,3 km/h (1 Bft) NW 307 ° 0 min 0,000 mm 1,1 UV-I 137 W/m² -6,9 °C -5,4 °C 3,2 km/h (1 Bft)
23.01.2019 13:48 -5,6 °C 88 % 997,3 hPa 0,0 mm 0,0 km/h (0 Bft) NW 307 ° 0 min 0,000 mm 1,1 UV-I 135 W/m² -7,3 °C -5,6 °C 0,0 km/h (0 Bft)
23.01.2019 13:49 -5,7 °C 88 % 997,3 hPa 0,0 mm 0,0 km/h (0 Bft) NW 307 ° 0 min 0,000 mm 1,1 UV-I 134 W/m² -7,4 °C -5,7 °C 0,0 km/h (0 Bft)
23.01.2019 13:50 -5,7 °C 88 % 997,3 hPa 0,0 mm 0,0 km/h (0 Bft) NW 307 ° 0 min 0,000 mm 1,1 UV-I 134 W/m² -7,4 °C -5,7 °C 0,0 km/h (0 Bft)
23.01.2019 13:51 -5,8 °C 88 % 997,3 hPa 0,0 mm 0,0 km/h (0 Bft) NW 307 ° 0 min 0,000 mm 1,1 UV-I 134 W/m² -7,5 °C -5,8 °C 0,0 km/h (0 Bft)
23.01.2019 13:52 -5,8 °C 88 % 997,3 hPa 0,0 mm 0,0 km/h (0 Bft) NW 307 ° 0 min 0,000 mm 1,1 UV-I 134 W/m² -7,5 °C -5,8 °C 0,0 km/h (0 Bft)
23.01.2019 13:53 -5,8 °C 88 % 997,3 hPa 0,0 mm 0,9 km/h (0 Bft) NW 307 ° 0 min 0,000 mm 1,1 UV-I 132 W/m² -7,5 °C -5,8 °C 1,6 km/h (1 Bft)
23.01.2019 13:54 -5,8 °C 88 % 997,3 hPa 0,0 mm 0,5 km/h (0 Bft) NW 307 ° 0 min 0,000 mm 1,1 UV-I 130 W/m² -7,5 °C -5,8 °C 1,6 km/h (1 Bft)
23.01.2019 13:55 -5,8 °C 88 % 997,3 hPa 0,0 mm 1,3 km/h (1 Bft) NW 307 ° 0 min 0,000 mm 1,0 UV-I 128 W/m² -7,5 °C -5,8 °C 3,2 km/h (1 Bft)
23.01.2019 13:56 -5,8 °C 88 % 997,3 hPa 0,0 mm 0,0 km/h (0 Bft) NW 307 ° 0 min 0,000 mm 1,0 UV-I 128 W/m² -7,5 °C -5,8 °C 0,0 km/h (0 Bft)
23.01.2019 13:57 -5,8 °C 89 % 997,3 hPa 0,0 mm 1,1 km/h (1 Bft) NW 307 ° 0 min 0,000 mm 1,0 UV-I 127 W/m² -7,3 °C -5,8 °C 3,2 km/h (1 Bft)
23.01.2019 13:58 -5,9 °C 88 % 997,2 hPa 0,0 mm 0,2 km/h (0 Bft) NW 307 ° 0 min 0,000 mm 1,0 UV-I 125 W/m² -7,6 °C -5,9 °C 3,2 km/h (1 Bft)
23.01.2019 13:59 -5,9 °C 88 % 997,3 hPa 0,0 mm 2,8 km/h (1 Bft) NW 307 ° 0 min 0,000 mm 1,0 UV-I 125 W/m² -7,6 °C -5,9 °C 4,8 km/h (1 Bft)
23.01.2019 14:00 -6,0 °C 88 % 997,3 hPa 0,0 mm 2,6 km/h (1 Bft) NW 307 ° 0 min 0,051 mm 1,0 UV-I 125 W/m² -7,7 °C -6,0 °C 3,2 km/h (1 Bft)
23.01.2019 14:01 -6,0 °C 88 % 997,3 hPa 0,0 mm 2,7 km/h (1 Bft) NW 307 ° 0 min 0,000 mm 1,0 UV-I 127 W/m² -7,7 °C -6,0 °C 3,2 km/h (1 Bft)
23.01.2019 14:02 -6,1 °C 89 % 997,3 hPa 0,0 mm 1,9 km/h (1 Bft) NW 307 ° 0 min 0,000 mm 1,0 UV-I 127 W/m² -7,6 °C -6,1 °C 3,2 km/h (1 Bft)
23.01.2019 14:03 -6,1 °C 89 % 997,3 hPa 0,0 mm 1,6 km/h (1 Bft) NW 307 ° 0 min 0,000 mm 1,0 UV-I 128 W/m² -7,6 °C -6,1 °C 1,6 km/h (1 Bft)
23.01.2019 14:04 -6,1 °C 88 % 997,3 hPa 0,0 mm 0,1 km/h (0 Bft) NW 307 ° 0 min 0,000 mm 1,0 UV-I 128 W/m² -7,8 °C -6,1 °C 1,6 km/h (1 Bft)
23.01.2019 14:05 -6,2 °C 89 % 997,3 hPa 0,0 mm 0,2 km/h (0 Bft) NW 307 ° 0 min 0,000 mm 1,0 UV-I 130 W/m² -7,7 °C -6,2 °C 1,6 km/h (1 Bft)
23.01.2019 14:06 -6,2 °C 89 % 997,3 hPa 0,0 mm 0,6 km/h (0 Bft) NW 307 ° 0 min 0,000 mm 1,0 UV-I 134 W/m² -7,7 °C -6,2 °C 1,6 km/h (1 Bft)
23.01.2019 14:07 -6,1 °C 89 % 997,3 hPa 0,0 mm 0,2 km/h (0 Bft) NW 307 ° 0 min 0,000 mm 1,0 UV-I 137 W/m² -7,6 °C -6,1 °C 3,2 km/h (1 Bft)
23.01.2019 14:08 -6,0 °C 89 % 997,3 hPa 0,0 mm 2,7 km/h (1 Bft) NW 307 ° 0 min 0,000 mm 1,0 UV-I 135 W/m² -7,5 °C -6,0 °C 4,8 km/h (1 Bft)
23.01.2019 14:09 -5,9 °C 89 % 997,3 hPa 0,0 mm 2,5 km/h (1 Bft) NW 307 ° 0 min 0,000 mm 1,0 UV-I 135 W/m² -7,4 °C -5,9 °C 4,8 km/h (1 Bft)
23.01.2019 14:10 -5,9 °C 89 % 997,3 hPa 0,0 mm 0,5 km/h (0 Bft) NW 307 ° 0 min 0,000 mm 1,0 UV-I 137 W/m² -7,4 °C -5,9 °C 3,2 km/h (1 Bft)
23.01.2019 14:11 -5,9 °C 89 % 997,3 hPa 0,0 mm 1,2 km/h (1 Bft) NW 307 ° 0 min 0,000 mm 1,0 UV-I 137 W/m² -7,4 °C -5,9 °C 3,2 km/h (1 Bft)
23.01.2019 14:12 -5,9 °C 89 % 997,4 hPa 0,0 mm 0,0 km/h (0 Bft) NW 307 ° 0 min 0,000 mm 1,0 UV-I 137 W/m² -7,4 °C -5,9 °C 0,0 km/h (0 Bft)
23.01.2019 14:13 -5,9 °C 89 % 997,3 hPa 0,0 mm 0,6 km/h (0 Bft) NW 307 ° 0 min 0,000 mm 1,0 UV-I 137 W/m² -7,4 °C -5,9 °C 3,2 km/h (1 Bft)
23.01.2019 14:14 -6,0 °C 89 % 997,3 hPa 0,0 mm 0,4 km/h (0 Bft) NW 307 ° 0 min 0,000 mm 1,0 UV-I 137 W/m² -7,5 °C -6,0 °C 1,6 km/h (1 Bft)
23.01.2019 14:15 -6,0 °C 89 % 997,4 hPa 0,0 mm 0,7 km/h (0 Bft) NW 307 ° 0 min 0,000 mm 0,9 UV-I 135 W/m² -7,5 °C -6,0 °C 1,6 km/h (1 Bft)
23.01.2019 14:16 -6,0 °C 89 % 997,3 hPa 0,0 mm 0,1 km/h (0 Bft) NW 307 ° 0 min 0,000 mm 0,9 UV-I 135 W/m² -7,5 °C -6,0 °C 1,6 km/h (1 Bft)
23.01.2019 14:17 -5,9 °C 89 % 997,4 hPa 0,0 mm 0,4 km/h (0 Bft) NW 307 ° 0 min 0,000 mm 0,9 UV-I 132 W/m² -7,4 °C -5,9 °C 1,6 km/h (1 Bft)
23.01.2019 14:18 -5,9 °C 89 % 997,3 hPa 0,0 mm 1,1 km/h (1 Bft) NW 307 ° 0 min 0,000 mm 0,9 UV-I 130 W/m² -7,4 °C -5,9 °C 1,6 km/h (1 Bft)
23.01.2019 14:19 -5,9 °C 89 % 997,3 hPa 0,0 mm 0,1 km/h (0 Bft) NW 307 ° 0 min 0,000 mm 0,9 UV-I 128 W/m² -7,4 °C -5,9 °C 1,6 km/h (1 Bft)
23.01.2019 14:20 -5,9 °C 89 % 997,3 hPa 0,0 mm 0,0 km/h (0 Bft) NW 307 ° 0 min 0,000 mm 0,9 UV-I 127 W/m² -7,4 °C -5,9 °C 0,0 km/h (0 Bft)
23.01.2019 14:21 -5,9 °C 89 % 997,4 hPa 0,0 mm 0,0 km/h (0 Bft) NW 307 ° 0 min 0,000 mm 0,9 UV-I 125 W/m² -7,4 °C -5,9 °C 0,0 km/h (0 Bft)
23.01.2019 14:22 -5,9 °C 89 % 997,3 hPa 0,0 mm 0,0 km/h (0 Bft) NW 307 ° 0 min 0,000 mm 0,9 UV-I 125 W/m² -7,4 °C -5,9 °C 0,0 km/h (0 Bft)
23.01.2019 14:23 -5,8 °C 89 % 997,3 hPa 0,0 mm 0,0 km/h (0 Bft) NW 307 ° 0 min 0,000 mm 0,9 UV-I 121 W/m² -7,3 °C -5,8 °C 0,0 km/h (0 Bft)
23.01.2019 14:24 -5,8 °C 89 % 997,4 hPa 0,0 mm 0,0 km/h (0 Bft) NW 307 ° 0 min 0,000 mm 0,9 UV-I 120 W/m² -7,3 °C -5,8 °C 0,0 km/h (0 Bft)
23.01.2019 14:25 -5,8 °C 89 % 997,4 hPa 0,0 mm 0,0 km/h (0 Bft) NW 307 ° 0 min 0,000 mm 0,9 UV-I 118 W/m² -7,3 °C -5,8 °C 0,0 km/h (0 Bft)
23.01.2019 14:26 -5,8 °C 89 % 997,4 hPa 0,0 mm 0,0 km/h (0 Bft) NW 307 ° 0 min 0,000 mm 0,9 UV-I 118 W/m² -7,3 °C -5,8 °C 0,0 km/h (0 Bft)
23.01.2019 14:27 -5,7 °C 89 % 997,4 hPa 0,0 mm 0,0 km/h (0 Bft) NW 307 ° 0 min 0,000 mm 0,9 UV-I 116 W/m² -7,2 °C -5,7 °C 0,0 km/h (0 Bft)
23.01.2019 14:28 -5,7 °C 89 % 997,4 hPa 0,0 mm 0,0 km/h (0 Bft) NW 307 ° 0 min 0,000 mm 0,9 UV-I 113 W/m² -7,2 °C -5,7 °C 0,0 km/h (0 Bft)
23.01.2019 14:29 -5,7 °C 89 % 997,4 hPa 0,0 mm 0,5 km/h (0 Bft) NW 307 ° 0 min 0,000 mm 0,8 UV-I 111 W/m² -7,2 °C -5,7 °C 3,2 km/h (1 Bft)
23.01.2019 14:30 -5,7 °C 89 % 997,4 hPa 0,0 mm 1,4 km/h (1 Bft) NW 307 ° 0 min 0,000 mm 0,8 UV-I 111 W/m² -7,2 °C -5,7 °C 3,2 km/h (1 Bft)
23.01.2019 14:31 -5,7 °C 89 % 997,4 hPa 0,0 mm 1,8 km/h (1 Bft) NW 307 ° 0 min 0,000 mm 0,8 UV-I 109 W/m² -7,2 °C -5,7 °C 3,2 km/h (1 Bft)
23.01.2019 14:32 -5,7 °C 89 % 997,4 hPa 0,0 mm 1,0 km/h (0 Bft) NW 307 ° 0 min 0,000 mm 0,8 UV-I 105 W/m² -7,2 °C -5,7 °C 1,6 km/h (1 Bft)
23.01.2019 14:33 -5,8 °C 89 % 997,4 hPa 0,0 mm 0,0 km/h (0 Bft) NW 307 ° 0 min 0,000 mm 0,8 UV-I 105 W/m² -7,3 °C -5,8 °C 0,0 km/h (0 Bft)
23.01.2019 14:34 -5,8 °C 89 % 997,4 hPa 0,0 mm 0,0 km/h (0 Bft) NW 307 ° 0 min 0,000 mm 0,8 UV-I 102 W/m² -7,3 °C -5,8 °C 0,0 km/h (0 Bft)
23.01.2019 14:35 -5,7 °C 89 % 997,4 hPa 0,0 mm 0,0 km/h (0 Bft) NW 307 ° 0 min 0,000 mm 0,8 UV-I 98 W/m² -7,2 °C -5,7 °C 0,0 km/h (0 Bft)
23.01.2019 14:36 -5,7 °C 89 % 997,4 hPa 0,0 mm 0,0 km/h (0 Bft) NW 307 ° 0 min 0,000 mm 0,8 UV-I 97 W/m² -7,2 °C -5,7 °C 0,0 km/h (0 Bft)
23.01.2019 14:37 -5,7 °C 89 % 997,4 hPa 0,0 mm 0,0 km/h (0 Bft) NW 307 ° 0 min 0,000 mm 0,8 UV-I 95 W/m² -7,2 °C -5,7 °C 0,0 km/h (0 Bft)
23.01.2019 14:38 -5,6 °C 89 % 997,4 hPa 0,0 mm 0,0 km/h (0 Bft) NW 307 ° 0 min 0,000 mm 0,8 UV-I 93 W/m² -7,1 °C -5,6 °C 0,0 km/h (0 Bft)
23.01.2019 14:39 -5,6 °C 89 % 997,4 hPa 0,0 mm 0,0 km/h (0 Bft) NW 307 ° 0 min 0,000 mm 0,8 UV-I 91 W/m² -7,1 °C -5,6 °C 0,0 km/h (0 Bft)
23.01.2019 14:40 -5,6 °C 89 % 997,4 hPa 0,0 mm 0,0 km/h (0 Bft) NW 307 ° 0 min 0,000 mm 0,8 UV-I 90 W/m² -7,1 °C -5,6 °C 0,0 km/h (0 Bft)
23.01.2019 14:41 -5,6 °C 89 % 997,4 hPa 0,0 mm 0,0 km/h (0 Bft) NW 307 ° 0 min 0,000 mm 0,7 UV-I 88 W/m² -7,1 °C -5,6 °C 0,0 km/h (0 Bft)
23.01.2019 14:42 -5,6 °C 89 % 997,4 hPa 0,0 mm 0,0 km/h (0 Bft) NW 307 ° 0 min 0,000 mm 0,7 UV-I 86 W/m² -7,1 °C -5,6 °C 0,0 km/h (0 Bft)
23.01.2019 14:43 -5,6 °C 89 % 997,4 hPa 0,0 mm 0,0 km/h (0 Bft) NW 307 ° 0 min 0,000 mm 0,7 UV-I 84 W/m² -7,1 °C -5,6 °C 0,0 km/h (0 Bft)
23.01.2019 14:44 -5,6 °C 89 % 997,4 hPa 0,0 mm 0,0 km/h (0 Bft) NW 307 ° 0 min 0,000 mm 0,7 UV-I 84 W/m² -7,1 °C -5,6 °C 0,0 km/h (0 Bft)
23.01.2019 14:45 -5,6 °C 89 % 997,4 hPa 0,0 mm 0,0 km/h (0 Bft) NW 307 ° 0 min 0,000 mm 0,7 UV-I 84 W/m² -7,1 °C -5,6 °C 0,0 km/h (0 Bft)
23.01.2019 14:46 -5,6 °C 89 % 997,4 hPa 0,0 mm 0,0 km/h (0 Bft) NW 307 ° 0 min 0,000 mm 0,7 UV-I 81 W/m² -7,1 °C -5,6 °C 0,0 km/h (0 Bft)
23.01.2019 14:47 -5,6 °C 89 % 997,4 hPa 0,0 mm 0,0 km/h (0 Bft) NW 307 ° 0 min 0,000 mm 0,7 UV-I 79 W/m² -7,1 °C -5,6 °C 0,0 km/h (0 Bft)
23.01.2019 14:48 -5,6 °C 89 % 997,4 hPa 0,0 mm 0,0 km/h (0 Bft) NW 307 ° 0 min 0,000 mm 0,7 UV-I 77 W/m² -7,1 °C -5,6 °C 0,0 km/h (0 Bft)
23.01.2019 14:49 -5,6 °C 89 % 997,4 hPa 0,0 mm 0,0 km/h (0 Bft) NW 307 ° 0 min 0,000 mm 0,7 UV-I 77 W/m² -7,1 °C -5,6 °C 0,0 km/h (0 Bft)
23.01.2019 14:50 -5,6 °C 88 % 997,4 hPa 0,0 mm 0,0 km/h (0 Bft) NW 307 ° 0 min 0,000 mm 0,7 UV-I 76 W/m² -7,3 °C -5,6 °C 0,0 km/h (0 Bft)
23.01.2019 14:51 -5,7 °C 88 % 997,4 hPa 0,0 mm 0,0 km/h (0 Bft) NW 307 ° 0 min 0,000 mm 0,7 UV-I 76 W/m² -7,4 °C -5,7 °C 0,0 km/h (0 Bft)
23.01.2019 14:52 -5,6 °C 88 % 997,4 hPa 0,0 mm 0,0 km/h (0 Bft) NW 307 ° 0 min 0,000 mm 0,7 UV-I 74 W/m² -7,3 °C -5,6 °C 0,0 km/h (0 Bft)
23.01.2019 14:53 -5,6 °C 88 % 997,4 hPa 0,0 mm 0,0 km/h (0 Bft) NW 307 ° 0 min 0,000 mm 0,7 UV-I 74 W/m² -7,3 °C -5,6 °C 0,0 km/h (0 Bft)
23.01.2019 14:54 -5,6 °C 88 % 997,4 hPa 0,0 mm 0,0 km/h (0 Bft) NW 307 ° 0 min 0,000 mm 0,7 UV-I 72 W/m² -7,3 °C -5,6 °C 0,0 km/h (0 Bft)
23.01.2019 14:55 -5,6 °C 89 % 997,5 hPa 0,0 mm 0,0 km/h (0 Bft) NW 307 ° 0 min 0,000 mm 0,7 UV-I 72 W/m² -7,1 °C -5,6 °C 0,0 km/h (0 Bft)
23.01.2019 14:56 -5,6 °C 89 % 997,4 hPa 0,0 mm 0,0 km/h (0 Bft) NW 307 ° 0 min 0,000 mm 0,7 UV-I 72 W/m² -7,1 °C -5,6 °C 0,0 km/h (0 Bft)
23.01.2019 14:57 -5,6 °C 89 % 997,4 hPa 0,0 mm 0,0 km/h (0 Bft) NW 307 ° 0 min 0,000 mm 0,7 UV-I 72 W/m² -7,1 °C -5,6 °C 0,0 km/h (0 Bft)
23.01.2019 14:58 -5,6 °C 89 % 997,4 hPa 0,0 mm 0,0 km/h (0 Bft) NW 307 ° 0 min 0,000 mm 0,7 UV-I 72 W/m² -7,1 °C -5,6 °C 0,0 km/h (0 Bft)
23.01.2019 14:59 -5,6 °C 89 % 997,4 hPa 0,0 mm 0,0 km/h (0 Bft) NW 307 ° 0 min 0,000 mm 0,6 UV-I 72 W/m² -7,1 °C -5,6 °C 0,0 km/h (0 Bft)
23.01.2019 15:00 -5,6 °C 89 % 997,4 hPa 0,0 mm 0,0 km/h (0 Bft) NW 307 ° 0 min 0,000 mm 0,6 UV-I 72 W/m² -7,1 °C -5,6 °C 0,0 km/h (0 Bft)
23.01.2019 15:01 -5,6 °C 89 % 997,4 hPa 0,0 mm 0,0 km/h (0 Bft) NW 307 ° 0 min 0,026 mm 0,6 UV-I 72 W/m² -7,1 °C -5,6 °C 0,0 km/h (0 Bft)
23.01.2019 15:02 -5,6 °C 89 % 997,5 hPa 0,0 mm 0,0 km/h (0 Bft) NW 307 ° 0 min 0,000 mm 0,6 UV-I 72 W/m² -7,1 °C -5,6 °C 0,0 km/h (0 Bft)
23.01.2019 15:03 -5,6 °C 88 % 997,5 hPa 0,0 mm 0,0 km/h (0 Bft) NW 307 ° 0 min 0,000 mm 0,6 UV-I 72 W/m² -7,3 °C -5,6 °C 0,0 km/h (0 Bft)
23.01.2019 15:04 -5,6 °C 88 % 997,4 hPa 0,0 mm 0,0 km/h (0 Bft) NW 307 ° 0 min 0,000 mm 0,6 UV-I 74 W/m² -7,3 °C -5,6 °C 0,0 km/h (0 Bft)
23.01.2019 15:05 -5,6 °C 88 % 997,5 hPa 0,0 mm 0,0 km/h (0 Bft) NW 307 ° 0 min 0,000 mm 0,6 UV-I 74 W/m² -7,3 °C -5,6 °C 0,0 km/h (0 Bft)
23.01.2019 15:06 -5,6 °C 88 % 997,5 hPa 0,0 mm 0,0 km/h (0 Bft) NW 307 ° 0 min 0,000 mm 0,6 UV-I 76 W/m² -7,3 °C -5,6 °C 0,0 km/h (0 Bft)
23.01.2019 15:07 -5,6 °C 88 % 997,5 hPa 0,0 mm 0,0 km/h (0 Bft) NW 307 ° 0 min 0,000 mm 0,6 UV-I 76 W/m² -7,3 °C -5,6 °C 0,0 km/h (0 Bft)
23.01.2019 15:08 -5,6 °C 88 % 997,5 hPa 0,0 mm 0,0 km/h (0 Bft) NW 307 ° 0 min 0,000 mm 0,6 UV-I 74 W/m² -7,3 °C -5,6 °C 0,0 km/h (0 Bft)
23.01.2019 15:09 -5,6 °C 88 % 997,5 hPa 0,0 mm 0,0 km/h (0 Bft) NW 307 ° 0 min 0,000 mm 0,6 UV-I 74 W/m² -7,3 °C -5,6 °C 0,0 km/h (0 Bft)
23.01.2019 15:10 -5,6 °C 88 % 997,5 hPa 0,0 mm 0,0 km/h (0 Bft) NW 307 ° 0 min 0,000 mm 0,6 UV-I 74 W/m² -7,3 °C -5,6 °C 0,0 km/h (0 Bft)
23.01.2019 15:11 -5,6 °C 88 % 997,5 hPa 0,0 mm 0,0 km/h (0 Bft) NW 307 ° 0 min 0,000 mm 0,6 UV-I 72 W/m² -7,3 °C -5,6 °C 0,0 km/h (0 Bft)
23.01.2019 15:12 -5,6 °C 88 % 997,5 hPa 0,0 mm 0,0 km/h (0 Bft) NW 307 ° 0 min 0,000 mm 0,6 UV-I 72 W/m² -7,3 °C -5,6 °C 0,0 km/h (0 Bft)
23.01.2019 15:13 -5,6 °C 88 % 997,5 hPa 0,0 mm 0,0 km/h (0 Bft) NW 307 ° 0 min 0,000 mm 0,6 UV-I 72 W/m² -7,3 °C -5,6 °C 0,0 km/h (0 Bft)
23.01.2019 15:14 -5,6 °C 88 % 997,6 hPa 0,0 mm 0,0 km/h (0 Bft) NW 307 ° 0 min 0,000 mm 0,6 UV-I 70 W/m² -7,3 °C -5,6 °C 0,0 km/h (0 Bft)
23.01.2019 15:15 -5,6 °C 88 % 997,6 hPa 0,0 mm 0,0 km/h (0 Bft) NW 307 ° 0 min 0,000 mm 0,6 UV-I 70 W/m² -7,3 °C -5,6 °C 0,0 km/h (0 Bft)
23.01.2019 15:16 -5,6 °C 88 % 997,6 hPa 0,0 mm 0,0 km/h (0 Bft) NW 307 ° 0 min 0,000 mm 0,6 UV-I 69 W/m² -7,3 °C -5,6 °C 0,0 km/h (0 Bft)
23.01.2019 15:17 -5,6 °C 88 % 997,7 hPa 0,0 mm 0,0 km/h (0 Bft) NW 307 ° 0 min 0,000 mm 0,5 UV-I 69 W/m² -7,3 °C -5,6 °C 0,0 km/h (0 Bft)
23.01.2019 15:18 -5,6 °C 88 % 997,7 hPa 0,0 mm 0,0 km/h (0 Bft) NW 307 ° 0 min 0,000 mm 0,5 UV-I 67 W/m² -7,3 °C -5,6 °C 0,0 km/h (0 Bft)
23.01.2019 15:19 -5,6 °C 88 % 997,7 hPa 0,0 mm 0,0 km/h (0 Bft) NW 307 ° 0 min 0,000 mm 0,5 UV-I 65 W/m² -7,3 °C -5,6 °C 0,0 km/h (0 Bft)
23.01.2019 15:20 -5,6 °C 88 % 997,7 hPa 0,0 mm 0,0 km/h (0 Bft) NW 307 ° 0 min 0,000 mm 0,5 UV-I 65 W/m² -7,3 °C -5,6 °C 0,0 km/h (0 Bft)
23.01.2019 15:21 -5,7 °C 88 % 997,6 hPa 0,0 mm 0,0 km/h (0 Bft) NW 307 ° 0 min 0,000 mm 0,5 UV-I 63 W/m² -7,4 °C -5,7 °C 0,0 km/h (0 Bft)
23.01.2019 15:22 -5,7 °C 88 % 997,6 hPa 0,0 mm 0,0 km/h (0 Bft) NW 307 ° 0 min 0,000 mm 0,5 UV-I 63 W/m² -7,4 °C -5,7 °C 0,0 km/h (0 Bft)
23.01.2019 15:23 -5,7 °C 88 % 997,7 hPa 0,0 mm 0,0 km/h (0 Bft) NW 307 ° 0 min 0,000 mm 0,5 UV-I 62 W/m² -7,4 °C -5,7 °C 0,0 km/h (0 Bft)
23.01.2019 15:24 -5,6 °C 88 % 997,7 hPa 0,0 mm 0,0 km/h (0 Bft) NW 307 ° 0 min 0,000 mm 0,5 UV-I 62 W/m² -7,3 °C -5,6 °C 0,0 km/h (0 Bft)
23.01.2019 15:25 -5,6 °C 88 % 997,7 hPa 0,0 mm 0,0 km/h (0 Bft) NW 307 ° 0 min 0,000 mm 0,5 UV-I 62 W/m² -7,3 °C -5,6 °C 0,0 km/h (0 Bft)
23.01.2019 15:26 -5,6 °C 88 % 997,7 hPa 0,0 mm 0,0 km/h (0 Bft) NW 307 ° 0 min 0,000 mm 0,5 UV-I 60 W/m² -7,3 °C -5,6 °C 0,0 km/h (0 Bft)
23.01.2019 15:27 -5,6 °C 88 % 997,7 hPa 0,0 mm 0,0 km/h (0 Bft) NW 307 ° 0 min 0,000 mm 0,5 UV-I 58 W/m² -7,3 °C -5,6 °C 0,0 km/h (0 Bft)
23.01.2019 15:28 -5,6 °C 88 % 997,7 hPa 0,0 mm 0,0 km/h (0 Bft) NW 307 ° 0 min 0,000 mm 0,5 UV-I 58 W/m² -7,3 °C -5,6 °C 0,0 km/h (0 Bft)
23.01.2019 15:29 -5,6 °C 88 % 997,7 hPa 0,0 mm 0,0 km/h (0 Bft) NW 307 ° 0 min 0,000 mm 0,5 UV-I 58 W/m² -7,3 °C -5,6 °C 0,0 km/h (0 Bft)
23.01.2019 15:30 -5,6 °C 88 % 997,7 hPa 0,0 mm 0,0 km/h (0 Bft) NW 307 ° 0 min 0,000 mm 0,0 UV-I 56 W/m² -7,3 °C -5,6 °C 0,0 km/h (0 Bft)
23.01.2019 15:31 -5,6 °C 88 % 997,7 hPa 0,0 mm 0,0 km/h (0 Bft) NW 307 ° 0 min 0,000 mm 0,0 UV-I 56 W/m² -7,3 °C -5,6 °C 0,0 km/h (0 Bft)
23.01.2019 15:32 -5,6 °C 88 % 997,7 hPa 0,0 mm 0,0 km/h (0 Bft) NW 307 ° 0 min 0,000 mm 0,0 UV-I 56 W/m² -7,3 °C -5,6 °C 0,0 km/h (0 Bft)
23.01.2019 15:33 -5,6 °C 88 % 997,7 hPa 0,0 mm 0,0 km/h (0 Bft) NW 307 ° 0 min 0,000 mm 0,0 UV-I 56 W/m² -7,3 °C -5,6 °C 0,0 km/h (0 Bft)
23.01.2019 15:34 -5,6 °C 88 % 997,7 hPa 0,0 mm 0,0 km/h (0 Bft) NW 307 ° 0 min 0,000 mm 0,0 UV-I 56 W/m² -7,3 °C -5,6 °C 0,0 km/h (0 Bft)
23.01.2019 15:35 -5,6 °C 88 % 997,7 hPa 0,0 mm 0,0 km/h (0 Bft) NW 307 ° 0 min 0,000 mm 0,0 UV-I 56 W/m² -7,3 °C -5,6 °C 0,0 km/h (0 Bft)
23.01.2019 15:36 -5,7 °C 88 % 997,7 hPa 0,0 mm 0,0 km/h (0 Bft) NW 307 ° 0 min 0,000 mm 0,0 UV-I 56 W/m² -7,4 °C -5,7 °C 0,0 km/h (0 Bft)
23.01.2019 15:37 -5,7 °C 88 % 997,7 hPa 0,0 mm 0,0 km/h (0 Bft) NW 307 ° 0 min 0,000 mm 0,0 UV-I 56 W/m² -7,4 °C -5,7 °C 0,0 km/h (0 Bft)
23.01.2019 15:38 -5,7 °C 88 % 997,7 hPa 0,0 mm 0,0 km/h (0 Bft) NW 307 ° 0 min 0,000 mm 0,0 UV-I 56 W/m² -7,4 °C -5,7 °C 0,0 km/h (0 Bft)
23.01.2019 15:39 -5,7 °C 88 % 997,7 hPa 0,0 mm 0,0 km/h (0 Bft) NW 307 ° 0 min 0,000 mm 0,0 UV-I 56 W/m² -7,4 °C -5,7 °C 0,0 km/h (0 Bft)
23.01.2019 15:40 -5,7 °C 88 % 997,7 hPa 0,0 mm 0,0 km/h (0 Bft) NW 307 ° 0 min 0,000 mm 0,0 UV-I 56 W/m² -7,4 °C -5,7 °C 0,0 km/h (0 Bft)
23.01.2019 15:41 -5,7 °C 88 % 997,7 hPa 0,0 mm 0,0 km/h (0 Bft) NW 307 ° 0 min 0,000 mm 0,0 UV-I 54 W/m² -7,4 °C -5,7 °C 0,0 km/h (0 Bft)
23.01.2019 15:42 -5,7 °C 88 % 997,7 hPa 0,0 mm 0,0 km/h (0 Bft) NW 307 ° 0 min 0,000 mm 0,0 UV-I 54 W/m² -7,4 °C -5,7 °C 0,0 km/h (0 Bft)
23.01.2019 15:43 -5,6 °C 88 % 997,7 hPa 0,0 mm 0,0 km/h (0 Bft) NW 307 ° 0 min 0,000 mm 0,0 UV-I 54 W/m² -7,3 °C -5,6 °C 0,0 km/h (0 Bft)
23.01.2019 15:44 -5,6 °C 88 % 997,7 hPa 0,0 mm 0,0 km/h (0 Bft) NW 307 ° 0 min 0,000 mm 0,0 UV-I 54 W/m² -7,3 °C -5,6 °C 0,0 km/h (0 Bft)
23.01.2019 15:45 -5,6 °C 88 % 997,7 hPa 0,0 mm 0,0 km/h (0 Bft) NW 307 ° 0 min 0,000 mm 0,0 UV-I 53 W/m² -7,3 °C -5,6 °C 0,0 km/h (0 Bft)
23.01.2019 15:46 -5,6 °C 88 % 997,8 hPa 0,0 mm 0,0 km/h (0 Bft) NW 307 ° 0 min 0,000 mm 0,0 UV-I 53 W/m² -7,3 °C -5,6 °C 0,0 km/h (0 Bft)
23.01.2019 15:47 -5,6 °C 88 % 997,8 hPa 0,0 mm 0,0 km/h (0 Bft) NW 307 ° 0 min 0,000 mm 0,0 UV-I 53 W/m² -7,3 °C -5,6 °C 0,0 km/h (0 Bft)
23.01.2019 15:48 -5,6 °C 88 % 997,7 hPa 0,0 mm 0,0 km/h (0 Bft) NW 307 ° 0 min 0,000 mm 0,0 UV-I 51 W/m² -7,3 °C -5,6 °C 0,0 km/h (0 Bft)
23.01.2019 15:49 -5,6 °C 88 % 997,7 hPa 0,0 mm 0,0 km/h (0 Bft) NW 307 ° 0 min 0,000 mm 0,0 UV-I 51 W/m² -7,3 °C -5,6 °C 0,0 km/h (0 Bft)
23.01.2019 15:50 -5,5 °C 88 % 997,7 hPa 0,0 mm 0,0 km/h (0 Bft) NW 307 ° 0 min 0,000 mm 0,0 UV-I 49 W/m² -7,2 °C -5,5 °C 0,0 km/h (0 Bft)
23.01.2019 15:51 -5,5 °C 88 % 997,7 hPa 0,0 mm 0,0 km/h (0 Bft) NW 307 ° 0 min 0,000 mm 0,0 UV-I 47 W/m² -7,2 °C -5,5 °C 0,0 km/h (0 Bft)
23.01.2019 15:52 -5,5 °C 88 % 997,7 hPa 0,0 mm 0,0 km/h (0 Bft) NW 307 ° 0 min 0,000 mm 0,0 UV-I 47 W/m² -7,2 °C -5,5 °C 0,0 km/h (0 Bft)
23.01.2019 15:53 -5,5 °C 88 % 997,7 hPa 0,0 mm 0,0 km/h (0 Bft) NW 307 ° 0 min 0,000 mm 0,0 UV-I 46 W/m² -7,2 °C -5,5 °C 0,0 km/h (0 Bft)
23.01.2019 15:54 -5,4 °C 88 % 997,7 hPa 0,0 mm 0,0 km/h (0 Bft) NW 307 ° 0 min 0,000 mm 0,0 UV-I 46 W/m² -7,1 °C -5,4 °C 0,0 km/h (0 Bft)
23.01.2019 15:55 -5,4 °C 88 % 997,7 hPa 0,0 mm 0,0 km/h (0 Bft) NW 307 ° 0 min 0,000 mm 0,0 UV-I 44 W/m² -7,1 °C -5,4 °C 0,0 km/h (0 Bft)
23.01.2019 15:56 -5,4 °C 88 % 997,7 hPa 0,0 mm 0,0 km/h (0 Bft) NW 307 ° 0 min 0,000 mm 0,0 UV-I 44 W/m² -7,1 °C -5,4 °C 0,0 km/h (0 Bft)
23.01.2019 15:57 -5,4 °C 88 % 997,7 hPa 0,0 mm 0,0 km/h (0 Bft) NW 307 ° 0 min 0,000 mm 0,0 UV-I 42 W/m² -7,1 °C -5,4 °C 0,0 km/h (0 Bft)
23.01.2019 15:58 -5,4 °C 88 % 997,7 hPa 0,0 mm 0,0 km/h (0 Bft) NW 307 ° 0 min 0,000 mm 0,0 UV-I 42 W/m² -7,1 °C -5,4 °C 0,0 km/h (0 Bft)
23.01.2019 15:59 -5,4 °C 88 % 997,7 hPa 0,0 mm 0,0 km/h (0 Bft) NW 307 ° 0 min 0,000 mm 0,0 UV-I 42 W/m² -7,1 °C -5,4 °C 0,0 km/h (0 Bft)
23.01.2019 16:00 -5,4 °C 88 % 997,7 hPa 0,0 mm 0,0 km/h (0 Bft) NW 307 ° 0 min 0,000 mm 0,0 UV-I 42 W/m² -7,1 °C -5,4 °C 0,0 km/h (0 Bft)
23.01.2019 16:01 -5,4 °C 88 % 997,7 hPa 0,0 mm 0,0 km/h (0 Bft) NW 307 ° 0 min 0,025 mm 0,0 UV-I 42 W/m² -7,1 °C -5,4 °C 0,0 km/h (0 Bft)
23.01.2019 16:02 -5,4 °C 88 % 997,7 hPa 0,0 mm 0,0 km/h (0 Bft) NW 307 ° 0 min 0,000 mm 0,0 UV-I 42 W/m² -7,1 °C -5,4 °C 0,0 km/h (0 Bft)
23.01.2019 16:03 -5,4 °C 88 % 997,7 hPa 0,0 mm 0,0 km/h (0 Bft) NW 307 ° 0 min 0,000 mm 0,0 UV-I 42 W/m² -7,1 °C -5,4 °C 0,0 km/h (0 Bft)
23.01.2019 16:04 -5,4 °C 88 % 997,8 hPa 0,0 mm 0,0 km/h (0 Bft) NW 307 ° 0 min 0,000 mm 0,0 UV-I 42 W/m² -7,1 °C -5,4 °C 0,0 km/h (0 Bft)
23.01.2019 16:05 -5,4 °C 88 % 997,8 hPa 0,0 mm 0,0 km/h (0 Bft) NW 307 ° 0 min 0,000 mm 0,0 UV-I 42 W/m² -7,1 °C -5,4 °C 0,0 km/h (0 Bft)
23.01.2019 16:06 -5,4 °C 88 % 997,8 hPa 0,0 mm 0,0 km/h (0 Bft) NW 307 ° 0 min 0,000 mm 0,0 UV-I 40 W/m² -7,1 °C -5,4 °C 0,0 km/h (0 Bft)
23.01.2019 16:07 -5,4 °C 88 % 997,7 hPa 0,0 mm 0,0 km/h (0 Bft) NW 307 ° 0 min 0,000 mm 0,0 UV-I 40 W/m² -7,1 °C -5,4 °C 0,0 km/h (0 Bft)
23.01.2019 16:08 -5,4 °C 88 % 997,8 hPa 0,0 mm 0,0 km/h (0 Bft) NW 307 ° 0 min 0,000 mm 0,0 UV-I 37 W/m² -7,1 °C -5,4 °C 0,0 km/h (0 Bft)
23.01.2019 16:09 -5,4 °C 88 % 997,8 hPa 0,0 mm 0,0 km/h (0 Bft) NW 307 ° 0 min 0,000 mm 0,0 UV-I 37 W/m² -7,1 °C -5,4 °C 0,0 km/h (0 Bft)
23.01.2019 16:10 -5,4 °C 88 % 997,8 hPa 0,0 mm 0,0 km/h (0 Bft) NW 307 ° 0 min 0,000 mm 0,0 UV-I 35 W/m² -7,1 °C -5,4 °C 0,0 km/h (0 Bft)
23.01.2019 16:11 -5,4 °C 88 % 997,9 hPa 0,0 mm 0,0 km/h (0 Bft) NW 307 ° 0 min 0,000 mm 0,0 UV-I 33 W/m² -7,1 °C -5,4 °C 0,0 km/h (0 Bft)
23.01.2019 16:12 -5,4 °C 88 % 997,8 hPa 0,0 mm 0,0 km/h (0 Bft) NW 307 ° 0 min 0,000 mm 0,0 UV-I 33 W/m² -7,1 °C -5,4 °C 0,0 km/h (0 Bft)
23.01.2019 16:13 -5,4 °C 88 % 997,8 hPa 0,0 mm 0,0 km/h (0 Bft) NW 307 ° 0 min 0,000 mm 0,0 UV-I 32 W/m² -7,1 °C -5,4 °C 0,0 km/h (0 Bft)
23.01.2019 16:14 -5,4 °C 88 % 997,8 hPa 0,0 mm 0,0 km/h (0 Bft) NW 307 ° 0 min 0,000 mm 0,0 UV-I 30 W/m² -7,1 °C -5,4 °C 0,0 km/h (0 Bft)
23.01.2019 16:15 -5,4 °C 88 % 997,8 hPa 0,0 mm 0,0 km/h (0 Bft) NW 307 ° 0 min 0,000 mm 0,0 UV-I 30 W/m² -7,1 °C -5,4 °C 0,0 km/h (0 Bft)
23.01.2019 16:16 -5,5 °C 88 % 997,9 hPa 0,0 mm 0,0 km/h (0 Bft) NW 307 ° 0 min 0,000 mm 0,0 UV-I 28 W/m² -7,2 °C -5,5 °C 0,0 km/h (0 Bft)
23.01.2019 16:17 -5,6 °C 88 % 997,9 hPa 0,0 mm 0,0 km/h (0 Bft) NW 307 ° 0 min 0,000 mm 0,0 UV-I 28 W/m² -7,3 °C -5,6 °C 0,0 km/h (0 Bft)
23.01.2019 16:18 -5,5 °C 88 % 997,9 hPa 0,0 mm 0,0 km/h (0 Bft) NW 307 ° 0 min 0,000 mm 0,0 UV-I 26 W/m² -7,2 °C -5,5 °C 0,0 km/h (0 Bft)
23.01.2019 16:19 -5,6 °C 88 % 997,9 hPa 0,0 mm 0,0 km/h (0 Bft) NW 307 ° 0 min 0,000 mm 0,0 UV-I 26 W/m² -7,3 °C -5,6 °C 0,0 km/h (0 Bft)
23.01.2019 16:20 -5,6 °C 88 % 997,9 hPa 0,0 mm 0,0 km/h (0 Bft) NW 307 ° 0 min 0,000 mm 0,0 UV-I 25 W/m² -7,3 °C -5,6 °C 0,0 km/h (0 Bft)
23.01.2019 16:21 -5,6 °C 88 % 997,9 hPa 0,0 mm 0,0 km/h (0 Bft) NW 307 ° 0 min 0,000 mm 0,0 UV-I 25 W/m² -7,3 °C -5,6 °C 0,0 km/h (0 Bft)
23.01.2019 16:22 -5,6 °C 88 % 997,9 hPa 0,0 mm 0,0 km/h (0 Bft) NW 307 ° 0 min 0,000 mm 0,0 UV-I 23 W/m² -7,3 °C -5,6 °C 0,0 km/h (0 Bft)
23.01.2019 16:23 -5,6 °C 88 % 997,9 hPa 0,0 mm 0,0 km/h (0 Bft) NW 307 ° 0 min 0,000 mm 0,0 UV-I 23 W/m² -7,3 °C -5,6 °C 0,0 km/h (0 Bft)
23.01.2019 16:24 -5,6 °C 88 % 997,9 hPa 0,0 mm 0,0 km/h (0 Bft) NW 307 ° 0 min 0,000 mm 0,0 UV-I 23 W/m² -7,3 °C -5,6 °C 0,0 km/h (0 Bft)
23.01.2019 16:25 -5,6 °C 88 % 997,9 hPa 0,0 mm 0,0 km/h (0 Bft) NW 307 ° 0 min 0,000 mm 0,0 UV-I 21 W/m² -7,3 °C -5,6 °C 0,0 km/h (0 Bft)
23.01.2019 16:26 -5,6 °C 88 % 997,9 hPa 0,0 mm 0,0 km/h (0 Bft) NW 307 ° 0 min 0,000 mm 0,0 UV-I 21 W/m² -7,3 °C -5,6 °C 0,0 km/h (0 Bft)
23.01.2019 16:27 -5,6 °C 88 % 997,9 hPa 0,0 mm 0,0 km/h (0 Bft) NW 307 ° 0 min 0,000 mm 0,0 UV-I 21 W/m² -7,3 °C -5,6 °C 0,0 km/h (0 Bft)
23.01.2019 16:28 -5,6 °C 88 % 997,9 hPa 0,0 mm 0,0 km/h (0 Bft) NW 307 ° 0 min 0,000 mm 0,0 UV-I 19 W/m² -7,3 °C -5,6 °C 0,0 km/h (0 Bft)
23.01.2019 16:29 -5,6 °C 88 % 997,9 hPa 0,0 mm 0,0 km/h (0 Bft) NW 307 ° 0 min 0,000 mm 0,0 UV-I 19 W/m² -7,3 °C -5,6 °C 0,0 km/h (0 Bft)
23.01.2019 16:30 -5,7 °C 88 % 997,9 hPa 0,0 mm 0,0 km/h (0 Bft) NW 307 ° 0 min 0,000 mm 0,0 UV-I 19 W/m² -7,4 °C -5,7 °C 0,0 km/h (0 Bft)
23.01.2019 16:31 -5,7 °C 88 % 997,9 hPa 0,0 mm 0,0 km/h (0 Bft) NW 307 ° 0 min 0,000 mm 0,0 UV-I 18 W/m² -7,4 °C -5,7 °C 0,0 km/h (0 Bft)
23.01.2019 16:32 -5,7 °C 88 % 997,9 hPa 0,0 mm 0,0 km/h (0 Bft) NW 307 ° 0 min 0,000 mm 0,0 UV-I 18 W/m² -7,4 °C -5,7 °C 0,0 km/h (0 Bft)
23.01.2019 16:33 -5,7 °C 88 % 997,9 hPa 0,0 mm 0,0 km/h (0 Bft) NW 307 ° 0 min 0,000 mm 0,0 UV-I 16 W/m² -7,4 °C -5,7 °C 0,0 km/h (0 Bft)
23.01.2019 16:34 -5,7 °C 88 % 997,9 hPa 0,0 mm 0,0 km/h (0 Bft) NW 307 ° 0 min 0,000 mm 0,0 UV-I 16 W/m² -7,4 °C -5,7 °C 0,0 km/h (0 Bft)
23.01.2019 16:35 -5,7 °C 88 % 997,9 hPa 0,0 mm 0,0 km/h (0 Bft) NW 307 ° 0 min 0,000 mm 0,0 UV-I 14 W/m² -7,4 °C -5,7 °C 0,0 km/h (0 Bft)
23.01.2019 16:36 -5,7 °C 88 % 997,9 hPa 0,0 mm 0,0 km/h (0 Bft) NW 307 ° 0 min 0,000 mm 0,0 UV-I 14 W/m² -7,4 °C -5,7 °C 0,0 km/h (0 Bft)
23.01.2019 16:37 -5,8 °C 88 % 998,0 hPa 0,0 mm 0,0 km/h (0 Bft) NW 307 ° 0 min 0,000 mm 0,0 UV-I 12 W/m² -7,5 °C -5,8 °C 0,0 km/h (0 Bft)
23.01.2019 16:38 -5,8 °C 88 % 998,0 hPa 0,0 mm 0,0 km/h (0 Bft) NW 307 ° 0 min 0,000 mm 0,0 UV-I 12 W/m² -7,5 °C -5,8 °C 0,0 km/h (0 Bft)
23.01.2019 16:39 -5,8 °C 88 % 997,9 hPa 0,0 mm 0,0 km/h (0 Bft) NW 307 ° 0 min 0,000 mm 0,0 UV-I 12 W/m² -7,5 °C -5,8 °C 0,0 km/h (0 Bft)
23.01.2019 16:40 -5,8 °C 88 % 998,0 hPa 0,0 mm 0,0 km/h (0 Bft) NW 307 ° 0 min 0,000 mm 0,0 UV-I 12 W/m² -7,5 °C -5,8 °C 0,0 km/h (0 Bft)
23.01.2019 16:41 -5,8 °C 88 % 998,0 hPa 0,0 mm 0,0 km/h (0 Bft) NW 307 ° 0 min 0,000 mm 0,0 UV-I 11 W/m² -7,5 °C -5,8 °C 0,0 km/h (0 Bft)
23.01.2019 16:42 -5,8 °C 88 % 998,0 hPa 0,0 mm 0,0 km/h (0 Bft) NW 307 ° 0 min 0,000 mm 0,0 UV-I 11 W/m² -7,5 °C -5,8 °C 0,0 km/h (0 Bft)
23.01.2019 16:43 -5,8 °C 88 % 998,0 hPa 0,0 mm 0,0 km/h (0 Bft) NW 307 ° 0 min 0,000 mm 0,0 UV-I 9 W/m² -7,5 °C -5,8 °C 0,0 km/h (0 Bft)
23.01.2019 16:44 -5,8 °C 88 % 998,0 hPa 0,0 mm 0,0 km/h (0 Bft) NW 307 ° 0 min 0,000 mm 0,0 UV-I 9 W/m² -7,5 °C -5,8 °C 0,0 km/h (0 Bft)
23.01.2019 16:45 -5,8 °C 88 % 998,0 hPa 0,0 mm 0,0 km/h (0 Bft) NW 307 ° 0 min 0,000 mm 0,0 UV-I 9 W/m² -7,5 °C -5,8 °C 0,0 km/h (0 Bft)
23.01.2019 16:46 -5,8 °C 88 % 998,0 hPa 0,0 mm 0,0 km/h (0 Bft) NW 307 ° 0 min 0,000 mm 0,0 UV-I 9 W/m² -7,5 °C -5,8 °C 0,0 km/h (0 Bft)
23.01.2019 16:47 -5,8 °C 88 % 998,0 hPa 0,0 mm 0,0 km/h (0 Bft) NW 307 ° 0 min 0,000 mm 0,0 UV-I 7 W/m² -7,5 °C -5,8 °C 0,0 km/h (0 Bft)
23.01.2019 16:48 -5,8 °C 88 % 998,0 hPa 0,0 mm 0,0 km/h (0 Bft) NW 307 ° 0 min 0,000 mm 0,0 UV-I 7 W/m² -7,5 °C -5,8 °C 0,0 km/h (0 Bft)
23.01.2019 16:49 -5,8 °C 88 % 998,0 hPa 0,0 mm 0,0 km/h (0 Bft) NW 307 ° 0 min 0,000 mm 0,0 UV-I 7 W/m² -7,5 °C -5,8 °C 0,0 km/h (0 Bft)
23.01.2019 16:50 -5,8 °C 88 % 998,0 hPa 0,0 mm 0,0 km/h (0 Bft) NW 307 ° 0 min 0,000 mm 0,0 UV-I 7 W/m² -7,5 °C -5,8 °C 0,0 km/h (0 Bft)
23.01.2019 16:51 -5,8 °C 88 % 998,0 hPa 0,0 mm 0,0 km/h (0 Bft) NW 307 ° 0 min 0,000 mm 0,0 UV-I 5 W/m² -7,5 °C -5,8 °C 0,0 km/h (0 Bft)
23.01.2019 16:52 -5,8 °C 88 % 998,1 hPa 0,0 mm 0,0 km/h (0 Bft) NW 307 ° 0 min 0,000 mm 0,0 UV-I 5 W/m² -7,5 °C -5,8 °C 0,0 km/h (0 Bft)
23.01.2019 16:53 -5,8 °C 88 % 998,1 hPa 0,0 mm 0,0 km/h (0 Bft) NW 307 ° 0 min 0,000 mm 0,0 UV-I 5 W/m² -7,5 °C -5,8 °C 0,0 km/h (0 Bft)
23.01.2019 16:54 -5,8 °C 88 % 998,1 hPa 0,0 mm 0,0 km/h (0 Bft) NW 307 ° 0 min 0,000 mm 0,0 UV-I 5 W/m² -7,5 °C -5,8 °C 0,0 km/h (0 Bft)
23.01.2019 16:55 -5,8 °C 88 % 998,1 hPa 0,0 mm 0,0 km/h (0 Bft) NW 307 ° 0 min 0,000 mm 0,0 UV-I 5 W/m² -7,5 °C -5,8 °C 0,0 km/h (0 Bft)
23.01.2019 16:56 -5,8 °C 88 % 998,1 hPa 0,0 mm 0,0 km/h (0 Bft) NW 307 ° 0 min 0,000 mm 0,0 UV-I 5 W/m² -7,5 °C -5,8 °C 0,0 km/h (0 Bft)
23.01.2019 16:57 -5,8 °C 88 % 998,1 hPa 0,0 mm 0,0 km/h (0 Bft) NW 307 ° 0 min 0,000 mm 0,0 UV-I 5 W/m² -7,5 °C -5,8 °C 0,0 km/h (0 Bft)
23.01.2019 16:58 -5,8 °C 88 % 998,1 hPa 0,0 mm 0,0 km/h (0 Bft) NW 307 ° 0 min 0,000 mm 0,0 UV-I 0 W/m² -7,5 °C -5,8 °C 0,0 km/h (0 Bft)
23.01.2019 16:59 -5,9 °C 88 % 998,1 hPa 0,0 mm 0,0 km/h (0 Bft) NW 307 ° 0 min 0,000 mm 0,0 UV-I 0 W/m² -7,6 °C -5,9 °C 0,0 km/h (0 Bft)
23.01.2019 17:00 -5,9 °C 88 % 998,1 hPa 0,0 mm 0,0 km/h (0 Bft) NW 307 ° 0 min 0,000 mm 0,0 UV-I 0 W/m² -7,6 °C -5,9 °C 0,0 km/h (0 Bft)
23.01.2019 17:01 -5,9 °C 88 % 998,1 hPa 0,0 mm 0,0 km/h (0 Bft) NW 307 ° 0 min 0,000 mm 0,0 UV-I 0 W/m² -7,6 °C -5,9 °C 0,0 km/h (0 Bft)
23.01.2019 17:02 -5,9 °C 88 % 998,1 hPa 0,0 mm 0,0 km/h (0 Bft) NW 307 ° 0 min 0,000 mm 0,0 UV-I 0 W/m² -7,6 °C -5,9 °C 0,0 km/h (0 Bft)
23.01.2019 17:03 -6,0 °C 88 % 998,1 hPa 0,0 mm 0,0 km/h (0 Bft) NW 307 ° 0 min 0,000 mm 0,0 UV-I 0 W/m² -7,7 °C -6,0 °C 0,0 km/h (0 Bft)
23.01.2019 17:04 -6,0 °C 88 % 998,2 hPa 0,0 mm 0,0 km/h (0 Bft) NW 307 ° 0 min 0,000 mm 0,0 UV-I 0 W/m² -7,7 °C -6,0 °C 0,0 km/h (0 Bft)
23.01.2019 17:05 -6,0 °C 88 % 998,2 hPa 0,0 mm 0,0 km/h (0 Bft) NW 307 ° 0 min 0,000 mm 0,0 UV-I 0 W/m² -7,7 °C -6,0 °C 0,0 km/h (0 Bft)
23.01.2019 17:06 -6,0 °C 88 % 998,2 hPa 0,0 mm 0,0 km/h (0 Bft) NW 307 ° 0 min 0,000 mm 0,0 UV-I 0 W/m² -7,7 °C -6,0 °C 0,0 km/h (0 Bft)
23.01.2019 17:07 -6,0 °C 88 % 998,2 hPa 0,0 mm 0,0 km/h (0 Bft) NW 307 ° 0 min 0,000 mm 0,0 UV-I 0 W/m² -7,7 °C -6,0 °C 0,0 km/h (0 Bft)
23.01.2019 17:08 -6,1 °C 88 % 998,2 hPa 0,0 mm 0,0 km/h (0 Bft) NW 307 ° 0 min 0,000 mm 0,0 UV-I 0 W/m² -7,8 °C -6,1 °C 0,0 km/h (0 Bft)
23.01.2019 17:09 -6,1 °C 88 % 998,2 hPa 0,0 mm 0,0 km/h (0 Bft) NW 307 ° 0 min 0,000 mm 0,0 UV-I 0 W/m² -7,8 °C -6,1 °C 0,0 km/h (0 Bft)
23.01.2019 17:10 -6,1 °C 88 % 998,2 hPa 0,0 mm 0,0 km/h (0 Bft) NW 307 ° 0 min 0,000 mm 0,0 UV-I 0 W/m² -7,8 °C -6,1 °C 0,0 km/h (0 Bft)
23.01.2019 17:11 -6,1 °C 88 % 998,2 hPa 0,0 mm 0,0 km/h (0 Bft) NW 307 ° 0 min 0,000 mm 0,0 UV-I 0 W/m² -7,8 °C -6,1 °C 0,0 km/h (0 Bft)
23.01.2019 17:12 -6,1 °C 88 % 998,2 hPa 0,0 mm 0,0 km/h (0 Bft) NW 307 ° 0 min 0,000 mm 0,0 UV-I 0 W/m² -7,8 °C -6,1 °C 0,0 km/h (0 Bft)
23.01.2019 17:13 -6,1 °C 88 % 998,2 hPa 0,0 mm 0,0 km/h (0 Bft) NW 307 ° 0 min 0,000 mm 0,0 UV-I 0 W/m² -7,8 °C -6,1 °C 0,0 km/h (0 Bft)
23.01.2019 17:14 -6,2 °C 88 % 998,3 hPa 0,0 mm 0,0 km/h (0 Bft) NW 307 ° 0 min 0,000 mm 0,0 UV-I 0 W/m² -7,9 °C -6,2 °C 0,0 km/h (0 Bft)
23.01.2019 17:15 -6,2 °C 88 % 998,2 hPa 0,0 mm 0,0 km/h (0 Bft) NW 307 ° 0 min 0,000 mm 0,0 UV-I 0 W/m² -7,9 °C -6,2 °C 0,0 km/h (0 Bft)
23.01.2019 17:16 -6,2 °C 88 % 998,3 hPa 0,0 mm 0,0 km/h (0 Bft) NW 307 ° 0 min 0,000 mm 0,0 UV-I 0 W/m² -7,9 °C -6,2 °C 0,0 km/h (0 Bft)
23.01.2019 17:17 -6,2 °C 88 % 998,3 hPa 0,0 mm 0,0 km/h (0 Bft) NW 307 ° 0 min 0,000 mm 0,0 UV-I 0 W/m² -7,9 °C -6,2 °C 0,0 km/h (0 Bft)
23.01.2019 17:18 -6,2 °C 88 % 998,3 hPa 0,0 mm 0,0 km/h (0 Bft) NW 307 ° 0 min 0,000 mm 0,0 UV-I 0 W/m² -7,9 °C -6,2 °C 0,0 km/h (0 Bft)
23.01.2019 17:19 -6,2 °C 88 % 998,3 hPa 0,0 mm 0,0 km/h (0 Bft) NW 307 ° 0 min 0,000 mm 0,0 UV-I 0 W/m² -7,9 °C -6,2 °C 0,0 km/h (0 Bft)
23.01.2019 17:20 -6,3 °C 88 % 998,3 hPa 0,0 mm 0,0 km/h (0 Bft) NW 307 ° 0 min 0,000 mm 0,0 UV-I 0 W/m² -8,0 °C -6,3 °C 0,0 km/h (0 Bft)
23.01.2019 17:21 -6,3 °C 88 % 998,3 hPa 0,0 mm 0,0 km/h (0 Bft) NW 307 ° 0 min 0,000 mm 0,0 UV-I 0 W/m² -8,0 °C -6,3 °C 0,0 km/h (0 Bft)
23.01.2019 17:22 -6,3 °C 88 % 998,3 hPa 0,0 mm 0,0 km/h (0 Bft) NW 307 ° 0 min 0,000 mm 0,0 UV-I 0 W/m² -8,0 °C -6,3 °C 0,0 km/h (0 Bft)
23.01.2019 17:23 -6,3 °C 88 % 998,3 hPa 0,0 mm 0,0 km/h (0 Bft) NW 307 ° 0 min 0,000 mm 0,0 UV-I 0 W/m² -8,0 °C -6,3 °C 0,0 km/h (0 Bft)
23.01.2019 17:24 -6,3 °C 88 % 998,3 hPa 0,0 mm 0,0 km/h (0 Bft) NW 307 ° 0 min 0,000 mm 0,0 UV-I 0 W/m² -8,0 °C -6,3 °C 0,0 km/h (0 Bft)
23.01.2019 17:25 -6,3 °C 88 % 998,3 hPa 0,0 mm 0,0 km/h (0 Bft) NW 307 ° 0 min 0,000 mm 0,0 UV-I 0 W/m² -8,0 °C -6,3 °C 0,0 km/h (0 Bft)
23.01.2019 17:26 -6,4 °C 88 % 998,3 hPa 0,0 mm 0,0 km/h (0 Bft) NW 307 ° 0 min 0,000 mm 0,0 UV-I 0 W/m² -8,1 °C -6,4 °C 0,0 km/h (0 Bft)
23.01.2019 17:27 -6,4 °C 88 % 998,3 hPa 0,0 mm 0,0 km/h (0 Bft) NW 307 ° 0 min 0,000 mm 0,0 UV-I 0 W/m² -8,1 °C -6,4 °C 0,0 km/h (0 Bft)
23.01.2019 17:28 -6,4 °C 88 % 998,3 hPa 0,0 mm 0,0 km/h (0 Bft) NW 307 ° 0 min 0,000 mm 0,0 UV-I 0 W/m² -8,1 °C -6,4 °C 0,0 km/h (0 Bft)
23.01.2019 17:29 -6,4 °C 88 % 998,3 hPa 0,0 mm 0,0 km/h (0 Bft) NW 307 ° 0 min 0,000 mm 0,0 UV-I 0 W/m² -8,1 °C -6,4 °C 0,0 km/h (0 Bft)
23.01.2019 17:30 -6,4 °C 88 % 998,3 hPa 0,0 mm 0,0 km/h (0 Bft) NW 307 ° 0 min 0,000 mm 0,0 UV-I 0 W/m² -8,1 °C -6,4 °C 0,0 km/h (0 Bft)
23.01.2019 17:31 -6,5 °C 88 % 998,3 hPa 0,0 mm 0,0 km/h (0 Bft) NW 307 ° 0 min 0,000 mm 0,0 UV-I 0 W/m² -8,1 °C -6,5 °C 0,0 km/h (0 Bft)
23.01.2019 17:32 -6,6 °C 88 % 998,3 hPa 0,0 mm 0,0 km/h (0 Bft) NW 307 ° 0 min 0,000 mm 0,0 UV-I 0 W/m² -8,2 °C -6,6 °C 0,0 km/h (0 Bft)
23.01.2019 17:33 -6,5 °C 88 % 998,3 hPa 0,0 mm 0,0 km/h (0 Bft) NW 307 ° 0 min 0,000 mm 0,0 UV-I 0 W/m² -8,1 °C -6,5 °C 0,0 km/h (0 Bft)
23.01.2019 17:34 -6,6 °C 88 % 998,3 hPa 0,0 mm 0,0 km/h (0 Bft) NW 307 ° 0 min 0,000 mm 0,0 UV-I 0 W/m² -8,2 °C -6,6 °C 0,0 km/h (0 Bft)
23.01.2019 17:35 -6,6 °C 88 % 998,4 hPa 0,0 mm 0,0 km/h (0 Bft) NW 307 ° 0 min 0,000 mm 0,0 UV-I 0 W/m² -8,2 °C -6,6 °C 0,0 km/h (0 Bft)
23.01.2019 17:36 -6,6 °C 88 % 998,4 hPa 0,0 mm 0,0 km/h (0 Bft) NW 307 ° 0 min 0,000 mm 0,0 UV-I 0 W/m² -8,2 °C -6,6 °C 0,0 km/h (0 Bft)
23.01.2019 17:37 -6,6 °C 88 % 998,4 hPa 0,0 mm 0,0 km/h (0 Bft) NW 307 ° 0 min 0,000 mm 0,0 UV-I 0 W/m² -8,2 °C -6,6 °C 0,0 km/h (0 Bft)
23.01.2019 17:38 -6,6 °C 88 % 998,4 hPa 0,0 mm 0,0 km/h (0 Bft) NW 307 ° 0 min 0,000 mm 0,0 UV-I 0 W/m² -8,2 °C -6,6 °C 0,0 km/h (0 Bft)
23.01.2019 17:39 -6,7 °C 88 % 998,4 hPa 0,0 mm 0,0 km/h (0 Bft) NW 307 ° 0 min 0,000 mm 0,0 UV-I 0 W/m² -8,3 °C -6,7 °C 0,0 km/h (0 Bft)
23.01.2019 17:40 -6,7 °C 88 % 998,4 hPa 0,0 mm 0,0 km/h (0 Bft) NW 307 ° 0 min 0,000 mm 0,0 UV-I 0 W/m² -8,3 °C -6,7 °C 0,0 km/h (0 Bft)
23.01.2019 17:41 -6,7 °C 88 % 998,5 hPa 0,0 mm 0,0 km/h (0 Bft) NW 307 ° 0 min 0,000 mm 0,0 UV-I 0 W/m² -8,3 °C -6,7 °C 0,0 km/h (0 Bft)
23.01.2019 17:42 -6,7 °C 88 % 998,4 hPa 0,0 mm 0,0 km/h (0 Bft) NW 307 ° 0 min 0,000 mm 0,0 UV-I 0 W/m² -8,3 °C -6,7 °C 0,0 km/h (0 Bft)
23.01.2019 17:43 -6,7 °C 88 % 998,5 hPa 0,0 mm 0,0 km/h (0 Bft) NW 307 ° 0 min 0,000 mm 0,0 UV-I 0 W/m² -8,3 °C -6,7 °C 0,0 km/h (0 Bft)
23.01.2019 17:44 -6,7 °C 88 % 998,5 hPa 0,0 mm 0,0 km/h (0 Bft) NW 307 ° 0 min 0,000 mm 0,0 UV-I 0 W/m² -8,3 °C -6,7 °C 0,0 km/h (0 Bft)
23.01.2019 17:45 -6,7 °C 88 % 998,4 hPa 0,0 mm 0,0 km/h (0 Bft) NW 307 ° 0 min 0,000 mm 0,0 UV-I 0 W/m² -8,3 °C -6,7 °C 0,0 km/h (0 Bft)
23.01.2019 17:46 -6,7 °C 88 % 998,5 hPa 0,0 mm 0,0 km/h (0 Bft) NW 307 ° 0 min 0,000 mm 0,0 UV-I 0 W/m² -8,3 °C -6,7 °C 0,0 km/h (0 Bft)
23.01.2019 17:47 -6,8 °C 88 % 998,5 hPa 0,0 mm 0,0 km/h (0 Bft) NW 307 ° 0 min 0,000 mm 0,0 UV-I 0 W/m² -8,4 °C -6,8 °C 0,0 km/h (0 Bft)
23.01.2019 17:48 -6,8 °C 88 % 998,5 hPa 0,0 mm 0,0 km/h (0 Bft) NW 307 ° 0 min 0,000 mm 0,0 UV-I 0 W/m² -8,4 °C -6,8 °C 0,0 km/h (0 Bft)
23.01.2019 17:49 -6,8 °C 88 % 998,5 hPa 0,0 mm 0,0 km/h (0 Bft) NW 307 ° 0 min 0,000 mm 0,0 UV-I 0 W/m² -8,4 °C -6,8 °C 0,0 km/h (0 Bft)
23.01.2019 17:50 -6,8 °C 88 % 998,5 hPa 0,0 mm 0,0 km/h (0 Bft) NW 307 ° 0 min 0,000 mm 0,0 UV-I 0 W/m² -8,4 °C -6,8 °C 0,0 km/h (0 Bft)
23.01.2019 17:51 -6,8 °C 88 % 998,5 hPa 0,0 mm 0,0 km/h (0 Bft) NW 307 ° 0 min 0,000 mm 0,0 UV-I 0 W/m² -8,4 °C -6,8 °C 0,0 km/h (0 Bft)
23.01.2019 17:52 -6,8 °C 88 % 998,6 hPa 0,0 mm 0,0 km/h (0 Bft) NW 307 ° 0 min 0,000 mm 0,0 UV-I 0 W/m² -8,4 °C -6,8 °C 0,0 km/h (0 Bft)
23.01.2019 17:53 -6,8 °C 88 % 998,6 hPa 0,0 mm 0,0 km/h (0 Bft) NW 307 ° 0 min 0,000 mm 0,0 UV-I 0 W/m² -8,4 °C -6,8 °C 0,0 km/h (0 Bft)
23.01.2019 17:54 -6,8 °C 88 % 998,6 hPa 0,0 mm 0,0 km/h (0 Bft) NW 307 ° 0 min 0,000 mm 0,0 UV-I 0 W/m² -8,4 °C -6,8 °C 0,0 km/h (0 Bft)
23.01.2019 17:55 -6,9 °C 88 % 998,6 hPa 0,0 mm 0,0 km/h (0 Bft) NW 307 ° 0 min 0,000 mm 0,0 UV-I 0 W/m² -8,5 °C -6,9 °C 0,0 km/h (0 Bft)
23.01.2019 17:56 -6,9 °C 88 % 998,6 hPa 0,0 mm 0,0 km/h (0 Bft) NW 307 ° 0 min 0,000 mm 0,0 UV-I 0 W/m² -8,5 °C -6,9 °C 0,0 km/h (0 Bft)
23.01.2019 17:57 -6,9 °C 88 % 998,6 hPa 0,0 mm 0,0 km/h (0 Bft) NW 307 ° 0 min 0,000 mm 0,0 UV-I 0 W/m² -8,5 °C -6,9 °C 0,0 km/h (0 Bft)
23.01.2019 17:58 -7,0 °C 88 % 998,6 hPa 0,0 mm 0,0 km/h (0 Bft) NW 307 ° 0 min 0,000 mm 0,0 UV-I 0 W/m² -8,6 °C -7,0 °C 0,0 km/h (0 Bft)
23.01.2019 17:59 -7,0 °C 88 % 998,6 hPa 0,0 mm 0,0 km/h (0 Bft) NW 307 ° 0 min 0,000 mm 0,0 UV-I 0 W/m² -8,6 °C -7,0 °C 0,0 km/h (0 Bft)
23.01.2019 18:00 -7,0 °C 88 % 998,7 hPa 0,0 mm 0,0 km/h (0 Bft) NW 307 ° 0 min 0,000 mm 0,0 UV-I 0 W/m² -8,6 °C -7,0 °C 0,0 km/h (0 Bft)
23.01.2019 18:01 -7,0 °C 88 % 998,7 hPa 0,0 mm 0,0 km/h (0 Bft) NW 307 ° 0 min 0,000 mm 0,0 UV-I 0 W/m² -8,6 °C -7,0 °C 0,0 km/h (0 Bft)
23.01.2019 18:02 -7,0 °C 88 % 998,7 hPa 0,0 mm 0,0 km/h (0 Bft) NW 307 ° 0 min 0,000 mm 0,0 UV-I 0 W/m² -8,6 °C -7,0 °C 0,0 km/h (0 Bft)
23.01.2019 18:03 -7,1 °C 88 % 998,7 hPa 0,0 mm 0,0 km/h (0 Bft) NW 307 ° 0 min 0,000 mm 0,0 UV-I 0 W/m² -8,7 °C -7,1 °C 0,0 km/h (0 Bft)
23.01.2019 18:04 -7,1 °C 88 % 998,7 hPa 0,0 mm 0,0 km/h (0 Bft) NW 307 ° 0 min 0,000 mm 0,0 UV-I 0 W/m² -8,7 °C -7,1 °C 0,0 km/h (0 Bft)
23.01.2019 18:05 -7,1 °C 88 % 998,7 hPa 0,0 mm 0,0 km/h (0 Bft) NW 307 ° 0 min 0,000 mm 0,0 UV-I 0 W/m² -8,7 °C -7,1 °C 0,0 km/h (0 Bft)
23.01.2019 18:06 -7,1 °C 88 % 998,7 hPa 0,0 mm 0,0 km/h (0 Bft) NW 307 ° 0 min 0,000 mm 0,0 UV-I 0 W/m² -8,7 °C -7,1 °C 0,0 km/h (0 Bft)
23.01.2019 18:07 -7,1 °C 88 % 998,7 hPa 0,0 mm 0,0 km/h (0 Bft) NW 307 ° 0 min 0,000 mm 0,0 UV-I 0 W/m² -8,7 °C -7,1 °C 0,0 km/h (0 Bft)
23.01.2019 18:08 -7,1 °C 88 % 998,7 hPa 0,0 mm 0,0 km/h (0 Bft) NW 307 ° 0 min 0,000 mm 0,0 UV-I 0 W/m² -8,7 °C -7,1 °C 0,0 km/h (0 Bft)
23.01.2019 18:09 -7,2 °C 88 % 998,7 hPa 0,0 mm 0,0 km/h (0 Bft) NW 307 ° 0 min 0,000 mm 0,0 UV-I 0 W/m² -8,8 °C -7,2 °C 0,0 km/h (0 Bft)
23.01.2019 18:10 -7,2 °C 88 % 998,8 hPa 0,0 mm 0,0 km/h (0 Bft) NW 307 ° 0 min 0,000 mm 0,0 UV-I 0 W/m² -8,8 °C -7,2 °C 0,0 km/h (0 Bft)
23.01.2019 18:11 -7,2 °C 88 % 998,8 hPa 0,0 mm 0,0 km/h (0 Bft) NW 307 ° 0 min 0,000 mm 0,0 UV-I 0 W/m² -8,8 °C -7,2 °C 0,0 km/h (0 Bft)
23.01.2019 18:12 -7,2 °C 88 % 998,8 hPa 0,0 mm 0,0 km/h (0 Bft) NW 307 ° 0 min 0,000 mm 0,0 UV-I 0 W/m² -8,8 °C -7,2 °C 0,0 km/h (0 Bft)
23.01.2019 18:13 -7,2 °C 88 % 998,8 hPa 0,0 mm 0,0 km/h (0 Bft) NW 307 ° 0 min 0,000 mm 0,0 UV-I 0 W/m² -8,8 °C -7,2 °C 0,0 km/h (0 Bft)
23.01.2019 18:14 -7,3 °C 88 % 998,8 hPa 0,0 mm 0,0 km/h (0 Bft) NW 307 ° 0 min 0,000 mm 0,0 UV-I 0 W/m² -8,9 °C -7,3 °C 0,0 km/h (0 Bft)
23.01.2019 18:15 -7,3 °C 88 % 998,8 hPa 0,0 mm 0,0 km/h (0 Bft) NW 307 ° 0 min 0,000 mm 0,0 UV-I 0 W/m² -8,9 °C -7,3 °C 0,0 km/h (0 Bft)
23.01.2019 18:16 -7,3 °C 88 % 998,8 hPa 0,0 mm 0,0 km/h (0 Bft) NW 307 ° 0 min 0,000 mm 0,0 UV-I 0 W/m² -8,9 °C -7,3 °C 0,0 km/h (0 Bft)
23.01.2019 18:17 -7,3 °C 88 % 998,8 hPa 0,0 mm 0,0 km/h (0 Bft) NW 307 ° 0 min 0,000 mm 0,0 UV-I 0 W/m² -8,9 °C -7,3 °C 0,0 km/h (0 Bft)
23.01.2019 18:18 -7,4 °C 88 % 998,9 hPa 0,0 mm 0,0 km/h (0 Bft) NW 307 ° 0 min 0,000 mm 0,0 UV-I 0 W/m² -9,0 °C -7,4 °C 0,0 km/h (0 Bft)
23.01.2019 18:19 -7,4 °C 88 % 998,9 hPa 0,0 mm 0,0 km/h (0 Bft) NW 307 ° 0 min 0,000 mm 0,0 UV-I 0 W/m² -9,0 °C -7,4 °C 0,0 km/h (0 Bft)
23.01.2019 18:20 -7,4 °C 88 % 998,8 hPa 0,0 mm 0,0 km/h (0 Bft) NW 307 ° 0 min 0,000 mm 0,0 UV-I 0 W/m² -9,0 °C -7,4 °C 0,0 km/h (0 Bft)
23.01.2019 18:21 -7,4 °C 88 % 999,0 hPa 0,0 mm 0,0 km/h (0 Bft) NW 307 ° 0 min 0,000 mm 0,0 UV-I 0 W/m² -9,0 °C -7,4 °C 0,0 km/h (0 Bft)
23.01.2019 18:22 -7,4 °C 88 % 999,0 hPa 0,0 mm 0,0 km/h (0 Bft) NW 307 ° 0 min 0,000 mm 0,0 UV-I 0 W/m² -9,0 °C -7,4 °C 0,0 km/h (0 Bft)
23.01.2019 18:23 -7,4 °C 88 % 999,0 hPa 0,0 mm 0,0 km/h (0 Bft) NW 307 ° 0 min 0,000 mm 0,0 UV-I 0 W/m² -9,0 °C -7,4 °C 0,0 km/h (0 Bft)
23.01.2019 18:24 -7,5 °C 88 % 999,0 hPa 0,0 mm 0,0 km/h (0 Bft) NW 307 ° 0 min 0,000 mm 0,0 UV-I 0 W/m² -9,1 °C -7,5 °C 0,0 km/h (0 Bft)
23.01.2019 18:25 -7,6 °C 88 % 999,0 hPa 0,0 mm 0,0 km/h (0 Bft) NW 307 ° 0 min 0,000 mm 0,0 UV-I 0 W/m² -9,2 °C -7,6 °C 0,0 km/h (0 Bft)
23.01.2019 18:26 -7,6 °C 88 % 999,0 hPa 0,0 mm 0,0 km/h (0 Bft) NW 307 ° 0 min 0,000 mm 0,0 UV-I 0 W/m² -9,2 °C -7,6 °C 0,0 km/h (0 Bft)
23.01.2019 18:27 -7,6 °C 88 % 999,0 hPa 0,0 mm 0,0 km/h (0 Bft) NW 307 ° 0 min 0,000 mm 0,0 UV-I 0 W/m² -9,2 °C -7,6 °C 0,0 km/h (0 Bft)
23.01.2019 18:28 -7,6 °C 88 % 999,0 hPa 0,0 mm 0,0 km/h (0 Bft) NW 307 ° 0 min 0,000 mm 0,0 UV-I 0 W/m² -9,2 °C -7,6 °C 0,0 km/h (0 Bft)
23.01.2019 18:29 -7,6 °C 88 % 999,0 hPa 0,0 mm 0,0 km/h (0 Bft) NW 307 ° 0 min 0,000 mm 0,0 UV-I 0 W/m² -9,2 °C -7,6 °C 0,0 km/h (0 Bft)
23.01.2019 18:30 -7,6 °C 88 % 999,0 hPa 0,0 mm 0,0 km/h (0 Bft) NW 307 ° 0 min 0,000 mm 0,0 UV-I 0 W/m² -9,2 °C -7,6 °C 0,0 km/h (0 Bft)
23.01.2019 18:31 -7,6 °C 88 % 999,0 hPa 0,0 mm 0,0 km/h (0 Bft) NW 307 ° 0 min 0,000 mm 0,0 UV-I 0 W/m² -9,2 °C -7,6 °C 0,0 km/h (0 Bft)
23.01.2019 18:32 -7,6 °C 88 % 999,0 hPa 0,0 mm 0,0 km/h (0 Bft) NW 307 ° 0 min 0,000 mm 0,0 UV-I 0 W/m² -9,2 °C -7,6 °C 0,0 km/h (0 Bft)
23.01.2019 18:33 -7,7 °C 89 % 999,0 hPa 0,0 mm 0,0 km/h (0 Bft) NW 307 ° 0 min 0,000 mm 0,0 UV-I 0 W/m² -9,2 °C -7,7 °C 0,0 km/h (0 Bft)
23.01.2019 18:34 -7,7 °C 89 % 999,1 hPa 0,0 mm 0,0 km/h (0 Bft) NW 307 ° 0 min 0,000 mm 0,0 UV-I 0 W/m² -9,2 °C -7,7 °C 0,0 km/h (0 Bft)
23.01.2019 18:35 -7,7 °C 89 % 999,0 hPa 0,0 mm 0,0 km/h (0 Bft) NW 307 ° 0 min 0,000 mm 0,0 UV-I 0 W/m² -9,2 °C -7,7 °C 0,0 km/h (0 Bft)
23.01.2019 18:36 -7,7 °C 89 % 999,0 hPa 0,0 mm 0,0 km/h (0 Bft) NW 307 ° 0 min 0,000 mm 0,0 UV-I 0 W/m² -9,2 °C -7,7 °C 0,0 km/h (0 Bft)
23.01.2019 18:37 -7,7 °C 89 % 999,1 hPa 0,0 mm 0,0 km/h (0 Bft) NW 307 ° 0 min 0,000 mm 0,0 UV-I 0 W/m² -9,2 °C -7,7 °C 0,0 km/h (0 Bft)
23.01.2019 18:38 -7,7 °C 89 % 999,0 hPa 0,0 mm 0,0 km/h (0 Bft) NW 307 ° 0 min 0,000 mm 0,0 UV-I 0 W/m² -9,2 °C -7,7 °C 0,0 km/h (0 Bft)
23.01.2019 18:39 -7,7 °C 89 % 999,1 hPa 0,0 mm 0,0 km/h (0 Bft) NW 307 ° 0 min 0,000 mm 0,0 UV-I 0 W/m² -9,2 °C -7,7 °C 0,0 km/h (0 Bft)
23.01.2019 18:40 -7,7 °C 89 % 999,1 hPa 0,0 mm 0,0 km/h (0 Bft) NW 307 ° 0 min 0,000 mm 0,0 UV-I 0 W/m² -9,2 °C -7,7 °C 0,0 km/h (0 Bft)
23.01.2019 18:41 -7,7 °C 89 % 999,1 hPa 0,0 mm 0,0 km/h (0 Bft) NW 307 ° 0 min 0,000 mm 0,0 UV-I 0 W/m² -9,2 °C -7,7 °C 0,0 km/h (0 Bft)
23.01.2019 18:42 -7,7 °C 89 % 999,1 hPa 0,0 mm 0,0 km/h (0 Bft) NW 307 ° 0 min 0,000 mm 0,0 UV-I 0 W/m² -9,2 °C -7,7 °C 0,0 km/h (0 Bft)
23.01.2019 18:43 -7,7 °C 89 % 999,1 hPa 0,0 mm 0,0 km/h (0 Bft) NW 307 ° 0 min 0,000 mm 0,0 UV-I 0 W/m² -9,2 °C -7,7 °C 0,0 km/h (0 Bft)
23.01.2019 18:44 -7,7 °C 90 % 999,1 hPa 0,0 mm 0,0 km/h (0 Bft) NW 307 ° 0 min 0,000 mm 0,0 UV-I 0 W/m² -9,0 °C -7,7 °C 0,0 km/h (0 Bft)
23.01.2019 18:45 -7,7 °C 90 % 999,1 hPa 0,0 mm 0,0 km/h (0 Bft) NW 307 ° 0 min 0,000 mm 0,0 UV-I 0 W/m² -9,0 °C -7,7 °C 0,0 km/h (0 Bft)
23.01.2019 18:46 -7,7 °C 89 % 999,1 hPa 0,0 mm 0,0 km/h (0 Bft) NW 307 ° 0 min 0,000 mm 0,0 UV-I 0 W/m² -9,2 °C -7,7 °C 0,0 km/h (0 Bft)
23.01.2019 18:47 -7,7 °C 89 % 999,1 hPa 0,0 mm 0,0 km/h (0 Bft) NW 307 ° 0 min 0,000 mm 0,0 UV-I 0 W/m² -9,2 °C -7,7 °C 0,0 km/h (0 Bft)
23.01.2019 18:48 -7,8 °C 89 % 999,1 hPa 0,0 mm 0,0 km/h (0 Bft) NW 307 ° 0 min 0,000 mm 0,0 UV-I 0 W/m² -9,3 °C -7,8 °C 0,0 km/h (0 Bft)
23.01.2019 18:49 -7,8 °C 90 % 999,1 hPa 0,0 mm 0,0 km/h (0 Bft) NW 307 ° 0 min 0,000 mm 0,0 UV-I 0 W/m² -9,1 °C -7,8 °C 0,0 km/h (0 Bft)
23.01.2019 18:50 -7,8 °C 90 % 999,1 hPa 0,0 mm 0,0 km/h (0 Bft) NW 307 ° 0 min 0,000 mm 0,0 UV-I 0 W/m² -9,1 °C -7,8 °C 0,0 km/h (0 Bft)
23.01.2019 18:51 -7,8 °C 89 % 999,1 hPa 0,0 mm 0,0 km/h (0 Bft) NW 307 ° 0 min 0,000 mm 0,0 UV-I 0 W/m² -9,3 °C -7,8 °C 0,0 km/h (0 Bft)
23.01.2019 18:52 -7,8 °C 90 % 999,1 hPa 0,0 mm 0,0 km/h (0 Bft) NW 307 ° 0 min 0,000 mm 0,0 UV-I 0 W/m² -9,1 °C -7,8 °C 0,0 km/h (0 Bft)
23.01.2019 18:53 -7,8 °C 89 % 999,1 hPa 0,0 mm 0,0 km/h (0 Bft) NW 307 ° 0 min 0,000 mm 0,0 UV-I 0 W/m² -9,3 °C -7,8 °C 0,0 km/h (0 Bft)
23.01.2019 18:54 -7,8 °C 89 % 999,1 hPa 0,0 mm 0,0 km/h (0 Bft) NW 307 ° 0 min 0,000 mm 0,0 UV-I 0 W/m² -9,3 °C -7,8 °C 0,0 km/h (0 Bft)
23.01.2019 18:55 -7,9 °C 89 % 999,1 hPa 0,0 mm 0,0 km/h (0 Bft) NW 307 ° 0 min 0,000 mm 0,0 UV-I 0 W/m² -9,4 °C -7,9 °C 0,0 km/h (0 Bft)
23.01.2019 18:56 -7,9 °C 89 % 999,2 hPa 0,0 mm 0,0 km/h (0 Bft) NW 307 ° 0 min 0,000 mm 0,0 UV-I 0 W/m² -9,4 °C -7,9 °C 0,0 km/h (0 Bft)
23.01.2019 18:57 -7,9 °C 89 % 999,2 hPa 0,0 mm 0,0 km/h (0 Bft) NW 307 ° 0 min 0,000 mm 0,0 UV-I 0 W/m² -9,4 °C -7,9 °C 0,0 km/h (0 Bft)
23.01.2019 18:58 -8,0 °C 89 % 999,1 hPa 0,0 mm 0,0 km/h (0 Bft) NW 307 ° 0 min 0,000 mm 0,0 UV-I 0 W/m² -9,5 °C -8,0 °C 0,0 km/h (0 Bft)
23.01.2019 18:59 -8,0 °C 89 % 999,2 hPa 0,0 mm 0,0 km/h (0 Bft) NW 307 ° 0 min 0,000 mm 0,0 UV-I 0 W/m² -9,5 °C -8,0 °C 0,0 km/h (0 Bft)
23.01.2019 19:00 -8,1 °C 89 % 999,1 hPa 0,0 mm 0,0 km/h (0 Bft) NW 307 ° 0 min 0,000 mm 0,0 UV-I 0 W/m² -9,6 °C -8,1 °C 0,0 km/h (0 Bft)
23.01.2019 19:01 -8,1 °C 89 % 999,1 hPa 0,0 mm 0,0 km/h (0 Bft) NW 307 ° 0 min 0,000 mm 0,0 UV-I 0 W/m² -9,6 °C -8,1 °C 0,0 km/h (0 Bft)
23.01.2019 19:02 -8,1 °C 89 % 999,2 hPa 0,0 mm 0,0 km/h (0 Bft) NW 307 ° 0 min 0,000 mm 0,0 UV-I 0 W/m² -9,6 °C -8,1 °C 0,0 km/h (0 Bft)
23.01.2019 19:03 -8,2 °C 89 % 999,2 hPa 0,0 mm 0,0 km/h (0 Bft) NW 307 ° 0 min 0,000 mm 0,0 UV-I 0 W/m² -9,7 °C -8,2 °C 0,0 km/h (0 Bft)
23.01.2019 19:04 -8,2 °C 89 % 999,1 hPa 0,0 mm 0,0 km/h (0 Bft) NW 307 ° 0 min 0,000 mm 0,0 UV-I 0 W/m² -9,7 °C -8,2 °C 0,0 km/h (0 Bft)
23.01.2019 19:05 -8,2 °C 89 % 999,2 hPa 0,0 mm 0,0 km/h (0 Bft) NW 307 ° 0 min 0,000 mm 0,0 UV-I 0 W/m² -9,7 °C -8,2 °C 0,0 km/h (0 Bft)
23.01.2019 19:06 -8,2 °C 89 % 999,2 hPa 0,0 mm 0,0 km/h (0 Bft) NW 307 ° 0 min 0,000 mm 0,0 UV-I 0 W/m² -9,7 °C -8,2 °C 0,0 km/h (0 Bft)
23.01.2019 19:07 -8,2 °C 89 % 999,2 hPa 0,0 mm 0,0 km/h (0 Bft) NW 307 ° 0 min 0,000 mm 0,0 UV-I 0 W/m² -9,7 °C -8,2 °C 0,0 km/h (0 Bft)
23.01.2019 19:08 -8,3 °C 89 % 999,2 hPa 0,0 mm 0,0 km/h (0 Bft) NW 307 ° 0 min 0,000 mm 0,0 UV-I 0 W/m² -9,8 °C -8,3 °C 0,0 km/h (0 Bft)
23.01.2019 19:09 -8,3 °C 89 % 999,2 hPa 0,0 mm 0,0 km/h (0 Bft) NW 307 ° 0 min 0,000 mm 0,0 UV-I 0 W/m² -9,8 °C -8,3 °C 0,0 km/h (0 Bft)
23.01.2019 19:10 -8,3 °C 89 % 999,2 hPa 0,0 mm 0,0 km/h (0 Bft) NW 307 ° 0 min 0,000 mm 0,0 UV-I 0 W/m² -9,8 °C -8,3 °C 0,0 km/h (0 Bft)
23.01.2019 19:11 -8,3 °C 89 % 999,3 hPa 0,0 mm 0,0 km/h (0 Bft) NW 307 ° 0 min 0,000 mm 0,0 UV-I 0 W/m² -9,8 °C -8,3 °C 0,0 km/h (0 Bft)
23.01.2019 19:12 -8,4 °C 89 % 999,3 hPa 0,0 mm 0,0 km/h (0 Bft) NW 307 ° 0 min 0,000 mm 0,0 UV-I 0 W/m² -9,9 °C -8,4 °C 0,0 km/h (0 Bft)
23.01.2019 19:13 -8,4 °C 89 % 999,3 hPa 0,0 mm 0,0 km/h (0 Bft) NW 307 ° 0 min 0,000 mm 0,0 UV-I 0 W/m² -9,9 °C -8,4 °C 0,0 km/h (0 Bft)
23.01.2019 19:14 -8,4 °C 89 % 999,3 hPa 0,0 mm 0,0 km/h (0 Bft) NW 307 ° 0 min 0,000 mm 0,0 UV-I 0 W/m² -9,9 °C -8,4 °C 0,0 km/h (0 Bft)
23.01.2019 19:15 -8,5 °C 89 % 999,2 hPa 0,0 mm 0,0 km/h (0 Bft) NW 307 ° 0 min 0,000 mm 0,0 UV-I 0 W/m² -10,0 °C -8,5 °C 0,0 km/h (0 Bft)
23.01.2019 19:16 -8,6 °C 89 % 999,2 hPa 0,0 mm 0,0 km/h (0 Bft) NW 307 ° 0 min 0,000 mm 0,0 UV-I 0 W/m² -10,1 °C -8,6 °C 0,0 km/h (0 Bft)
23.01.2019 19:17 -8,6 °C 89 % 999,3 hPa 0,0 mm 0,0 km/h (0 Bft) NW 307 ° 0 min 0,000 mm 0,0 UV-I 0 W/m² -10,1 °C -8,6 °C 0,0 km/h (0 Bft)
23.01.2019 19:18 -8,7 °C 88 % 999,3 hPa 0,0 mm 0,0 km/h (0 Bft) NW 307 ° 0 min 0,000 mm 0,0 UV-I 0 W/m² -10,3 °C -8,7 °C 0,0 km/h (0 Bft)
23.01.2019 19:19 -8,7 °C 88 % 999,3 hPa 0,0 mm 0,0 km/h (0 Bft) NW 307 ° 0 min 0,000 mm 0,0 UV-I 0 W/m² -10,3 °C -8,7 °C 0,0 km/h (0 Bft)
23.01.2019 19:20 -8,7 °C 89 % 999,3 hPa 0,0 mm 0,0 km/h (0 Bft) NW 307 ° 0 min 0,000 mm 0,0 UV-I 0 W/m² -10,2 °C -8,7 °C 0,0 km/h (0 Bft)
23.01.2019 19:21 -8,7 °C 89 % 999,3 hPa 0,0 mm 0,0 km/h (0 Bft) NW 307 ° 0 min 0,000 mm 0,0 UV-I 0 W/m² -10,2 °C -8,7 °C 0,0 km/h (0 Bft)
23.01.2019 19:22 -8,7 °C 88 % 999,3 hPa 0,0 mm 0,0 km/h (0 Bft) NW 307 ° 0 min 0,000 mm 0,0 UV-I 0 W/m² -10,3 °C -8,7 °C 0,0 km/h (0 Bft)
23.01.2019 19:23 -8,8 °C 88 % 999,3 hPa 0,0 mm 0,0 km/h (0 Bft) NW 307 ° 0 min 0,000 mm 0,0 UV-I 0 W/m² -10,4 °C -8,8 °C 0,0 km/h (0 Bft)
23.01.2019 19:24 -8,8 °C 88 % 999,3 hPa 0,0 mm 0,0 km/h (0 Bft) NW 307 ° 0 min 0,000 mm 0,0 UV-I 0 W/m² -10,4 °C -8,8 °C 0,0 km/h (0 Bft)
23.01.2019 19:25 -8,9 °C 88 % 999,3 hPa 0,0 mm 0,0 km/h (0 Bft) NW 307 ° 0 min 0,000 mm 0,0 UV-I 0 W/m² -10,5 °C -8,9 °C 0,0 km/h (0 Bft)
23.01.2019 19:26 -8,9 °C 88 % 999,3 hPa 0,0 mm 0,0 km/h (0 Bft) NW 307 ° 0 min 0,000 mm 0,0 UV-I 0 W/m² -10,5 °C -8,9 °C 0,0 km/h (0 Bft)
23.01.2019 19:27 -8,9 °C 88 % 999,3 hPa 0,0 mm 0,0 km/h (0 Bft) NW 307 ° 0 min 0,000 mm 0,0 UV-I 0 W/m² -10,5 °C -8,9 °C 0,0 km/h (0 Bft)
23.01.2019 19:28 -8,9 °C 88 % 999,3 hPa 0,0 mm 0,0 km/h (0 Bft) NW 307 ° 0 min 0,000 mm 0,0 UV-I 0 W/m² -10,5 °C -8,9 °C 0,0 km/h (0 Bft)
23.01.2019 19:29 -9,0 °C 88 % 999,3 hPa 0,0 mm 0,0 km/h (0 Bft) NW 307 ° 0 min 0,000 mm 0,0 UV-I 0 W/m² -10,6 °C -9,0 °C 0,0 km/h (0 Bft)
23.01.2019 19:30 -9,1 °C 88 % 999,3 hPa 0,0 mm 0,0 km/h (0 Bft) NW 307 ° 0 min 0,000 mm 0,0 UV-I 0 W/m² -10,7 °C -9,1 °C 0,0 km/h (0 Bft)
23.01.2019 19:31 -9,1 °C 88 % 999,3 hPa 0,0 mm 0,0 km/h (0 Bft) NW 307 ° 0 min 0,000 mm 0,0 UV-I 0 W/m² -10,7 °C -9,1 °C 0,0 km/h (0 Bft)
23.01.2019 19:32 -9,1 °C 89 % 999,3 hPa 0,0 mm 0,0 km/h (0 Bft) NW 307 ° 0 min 0,000 mm 0,0 UV-I 0 W/m² -10,6 °C -9,1 °C 0,0 km/h (0 Bft)
23.01.2019 19:33 -9,1 °C 88 % 999,3 hPa 0,0 mm 0,0 km/h (0 Bft) NW 307 ° 0 min 0,000 mm 0,0 UV-I 0 W/m² -10,7 °C -9,1 °C 0,0 km/h (0 Bft)
23.01.2019 19:34 -9,1 °C 89 % 999,3 hPa 0,0 mm 0,0 km/h (0 Bft) NW 307 ° 0 min 0,000 mm 0,0 UV-I 0 W/m² -10,6 °C -9,1 °C 0,0 km/h (0 Bft)
23.01.2019 19:35 -9,2 °C 88 % 999,4 hPa 0,0 mm 0,0 km/h (0 Bft) NW 307 ° 0 min 0,000 mm 0,0 UV-I 0 W/m² -10,8 °C -9,2 °C 0,0 km/h (0 Bft)
23.01.2019 19:36 -9,2 °C 88 % 999,4 hPa 0,0 mm 0,0 km/h (0 Bft) NW 307 ° 0 min 0,000 mm 0,0 UV-I 0 W/m² -10,8 °C -9,2 °C 0,0 km/h (0 Bft)
23.01.2019 19:37 -9,3 °C 88 % 999,3 hPa 0,0 mm 0,0 km/h (0 Bft) NW 307 ° 0 min 0,000 mm 0,0 UV-I 0 W/m² -10,9 °C -9,3 °C 0,0 km/h (0 Bft)
23.01.2019 19:38 -9,3 °C 88 % 999,3 hPa 0,0 mm 0,0 km/h (0 Bft) NW 307 ° 0 min 0,000 mm 0,0 UV-I 0 W/m² -10,9 °C -9,3 °C 0,0 km/h (0 Bft)
23.01.2019 19:39 -9,3 °C 88 % 999,4 hPa 0,0 mm 0,0 km/h (0 Bft) NW 307 ° 0 min 0,000 mm 0,0 UV-I 0 W/m² -10,9 °C -9,3 °C 0,0 km/h (0 Bft)
23.01.2019 19:40 -9,3 °C 88 % 999,3 hPa 0,0 mm 0,0 km/h (0 Bft) NW 307 ° 0 min 0,000 mm 0,0 UV-I 0 W/m² -10,9 °C -9,3 °C 0,0 km/h (0 Bft)
23.01.2019 19:41 -9,4 °C 88 % 999,4 hPa 0,0 mm 0,0 km/h (0 Bft) NW 307 ° 0 min 0,000 mm 0,0 UV-I 0 W/m² -11,0 °C -9,4 °C 0,0 km/h (0 Bft)
23.01.2019 19:42 -9,4 °C 88 % 999,3 hPa 0,0 mm 0,0 km/h (0 Bft) NW 307 ° 0 min 0,000 mm 0,0 UV-I 0 W/m² -11,0 °C -9,4 °C 0,0 km/h (0 Bft)
23.01.2019 19:43 -9,4 °C 88 % 999,3 hPa 0,0 mm 0,0 km/h (0 Bft) NW 307 ° 0 min 0,000 mm 0,0 UV-I 0 W/m² -11,0 °C -9,4 °C 0,0 km/h (0 Bft)
23.01.2019 19:44 -9,5 °C 88 % 999,4 hPa 0,0 mm 0,0 km/h (0 Bft) NW 307 ° 0 min 0,000 mm 0,0 UV-I 0 W/m² -11,1 °C -9,5 °C 0,0 km/h (0 Bft)
23.01.2019 19:45 -9,6 °C 88 % 999,4 hPa 0,0 mm 0,0 km/h (0 Bft) NW 307 ° 0 min 0,000 mm 0,0 UV-I 0 W/m² -11,2 °C -9,6 °C 0,0 km/h (0 Bft)
23.01.2019 19:46 -9,6 °C 88 % 999,4 hPa 0,0 mm 0,0 km/h (0 Bft) NW 307 ° 0 min 0,000 mm 0,0 UV-I 0 W/m² -11,2 °C -9,6 °C 0,0 km/h (0 Bft)
23.01.2019 19:47 -9,6 °C 88 % 999,5 hPa 0,0 mm 0,0 km/h (0 Bft) NW 307 ° 0 min 0,000 mm 0,0 UV-I 0 W/m² -11,2 °C -9,6 °C 0,0 km/h (0 Bft)
23.01.2019 19:48 -9,6 °C 88 % 999,4 hPa 0,0 mm 0,0 km/h (0 Bft) NW 307 ° 0 min 0,000 mm 0,0 UV-I 0 W/m² -11,2 °C -9,6 °C 0,0 km/h (0 Bft)
23.01.2019 19:49 -9,7 °C 88 % 999,5 hPa 0,0 mm 0,0 km/h (0 Bft) NW 307 ° 0 min 0,000 mm 0,0 UV-I 0 W/m² -11,3 °C -9,7 °C 0,0 km/h (0 Bft)
23.01.2019 19:50 -9,7 °C 88 % 999,5 hPa 0,0 mm 0,0 km/h (0 Bft) NW 307 ° 0 min 0,000 mm 0,0 UV-I 0 W/m² -11,3 °C -9,7 °C 0,0 km/h (0 Bft)
23.01.2019 19:51 -9,7 °C 88 % 999,5 hPa 0,0 mm 0,0 km/h (0 Bft) NW 307 ° 0 min 0,000 mm 0,0 UV-I 0 W/m² -11,3 °C -9,7 °C 0,0 km/h (0 Bft)
23.01.2019 19:52 -9,7 °C 88 % 999,5 hPa 0,0 mm 0,0 km/h (0 Bft) NW 307 ° 0 min 0,000 mm 0,0 UV-I 0 W/m² -11,3 °C -9,7 °C 0,0 km/h (0 Bft)
23.01.2019 19:53 -9,8 °C 88 % 999,5 hPa 0,0 mm 0,0 km/h (0 Bft) NW 307 ° 0 min 0,000 mm 0,0 UV-I 0 W/m² -11,4 °C -9,8 °C 0,0 km/h (0 Bft)
23.01.2019 19:54 -9,8 °C 88 % 999,6 hPa 0,0 mm 0,0 km/h (0 Bft) NW 307 ° 0 min 0,000 mm 0,0 UV-I 0 W/m² -11,4 °C -9,8 °C 0,0 km/h (0 Bft)
23.01.2019 19:55 -9,9 °C 88 % 999,6 hPa 0,0 mm 0,0 km/h (0 Bft) NW 307 ° 0 min 0,000 mm 0,0 UV-I 0 W/m² -11,5 °C -9,9 °C 0,0 km/h (0 Bft)
23.01.2019 19:56 -9,9 °C 88 % 999,6 hPa 0,0 mm 0,0 km/h (0 Bft) NW 307 ° 0 min 0,000 mm 0,0 UV-I 0 W/m² -11,5 °C -9,9 °C 0,0 km/h (0 Bft)
23.01.2019 19:57 -9,9 °C 88 % 999,6 hPa 0,0 mm 0,0 km/h (0 Bft) NW 307 ° 0 min 0,000 mm 0,0 UV-I 0 W/m² -11,5 °C -9,9 °C 0,0 km/h (0 Bft)
23.01.2019 19:58 -9,9 °C 88 % 999,6 hPa 0,0 mm 0,0 km/h (0 Bft) NW 307 ° 0 min 0,000 mm 0,0 UV-I 0 W/m² -11,5 °C -9,9 °C 0,0 km/h (0 Bft)
23.01.2019 19:59 -9,9 °C 88 % 999,6 hPa 0,0 mm 0,0 km/h (0 Bft) NW 307 ° 0 min 0,000 mm 0,0 UV-I 0 W/m² -11,5 °C -9,9 °C 0,0 km/h (0 Bft)
23.01.2019 20:00 -10,0 °C 88 % 999,6 hPa 0,0 mm 0,0 km/h (0 Bft) NW 307 ° 0 min 0,000 mm 0,0 UV-I 0 W/m² -11,6 °C -10,0 °C 0,0 km/h (0 Bft)
23.01.2019 20:01 -10,0 °C 89 % 999,7 hPa 0,0 mm 0,0 km/h (0 Bft) NW 307 ° 0 min 0,000 mm 0,0 UV-I 0 W/m² -11,5 °C -10,0 °C 0,0 km/h (0 Bft)
23.01.2019 20:02 -10,0 °C 89 % 999,7 hPa 0,0 mm 0,0 km/h (0 Bft) NW 307 ° 0 min 0,000 mm 0,0 UV-I 0 W/m² -11,5 °C -10,0 °C 0,0 km/h (0 Bft)
23.01.2019 20:03 -10,0 °C 89 % 999,7 hPa 0,0 mm 0,0 km/h (0 Bft) NW 307 ° 0 min 0,000 mm 0,0 UV-I 0 W/m² -11,5 °C -10,0 °C 0,0 km/h (0 Bft)
23.01.2019 20:04 -10,0 °C 89 % 999,6 hPa 0,0 mm 0,0 km/h (0 Bft) NW 307 ° 0 min 0,000 mm 0,0 UV-I 0 W/m² -11,5 °C -10,0 °C 0,0 km/h (0 Bft)
23.01.2019 20:05 -10,0 °C 89 % 999,7 hPa 0,0 mm 0,0 km/h (0 Bft) NW 307 ° 0 min 0,000 mm 0,0 UV-I 0 W/m² -11,5 °C -10,0 °C 0,0 km/h (0 Bft)
23.01.2019 20:06 -10,0 °C 89 % 999,7 hPa 0,0 mm 0,0 km/h (0 Bft) NW 307 ° 0 min 0,000 mm 0,0 UV-I 0 W/m² -11,5 °C -10,0 °C 0,0 km/h (0 Bft)
23.01.2019 20:07 -10,0 °C 89 % 999,7 hPa 0,0 mm 0,0 km/h (0 Bft) NW 307 ° 0 min 0,000 mm 0,0 UV-I 0 W/m² -11,5 °C -10,0 °C 0,0 km/h (0 Bft)
23.01.2019 20:08 -10,1 °C 89 % 999,7 hPa 0,0 mm 0,0 km/h (0 Bft) NW 307 ° 0 min 0,000 mm 0,0 UV-I 0 W/m² -11,6 °C -10,1 °C 0,0 km/h (0 Bft)
23.01.2019 20:09 -10,1 °C 89 % 999,7 hPa 0,0 mm 0,0 km/h (0 Bft) NW 307 ° 0 min 0,000 mm 0,0 UV-I 0 W/m² -11,6 °C -10,1 °C 0,0 km/h (0 Bft)
23.01.2019 20:10 -10,0 °C 89 % 999,7 hPa 0,0 mm 0,0 km/h (0 Bft) NW 307 ° 0 min 0,000 mm 0,0 UV-I 0 W/m² -11,5 °C -10,0 °C 0,0 km/h (0 Bft)
23.01.2019 20:11 -10,1 °C 89 % 999,7 hPa 0,0 mm 0,0 km/h (0 Bft) NW 307 ° 0 min 0,000 mm 0,0 UV-I 0 W/m² -11,6 °C -10,1 °C 0,0 km/h (0 Bft)
23.01.2019 20:12 -10,1 °C 89 % 999,8 hPa 0,0 mm 0,0 km/h (0 Bft) NW 307 ° 0 min 0,000 mm 0,0 UV-I 0 W/m² -11,6 °C -10,1 °C 0,0 km/h (0 Bft)
23.01.2019 20:13 -10,1 °C 89 % 999,8 hPa 0,0 mm 0,0 km/h (0 Bft) NW 307 ° 0 min 0,000 mm 0,0 UV-I 0 W/m² -11,6 °C -10,1 °C 0,0 km/h (0 Bft)
23.01.2019 20:14 -10,1 °C 89 % 999,9 hPa 0,0 mm 0,0 km/h (0 Bft) NW 307 ° 0 min 0,000 mm 0,0 UV-I 0 W/m² -11,6 °C -10,1 °C 0,0 km/h (0 Bft)
23.01.2019 20:15 -10,1 °C 89 % 999,8 hPa 0,0 mm 0,0 km/h (0 Bft) NW 307 ° 0 min 0,000 mm 0,0 UV-I 0 W/m² -11,6 °C -10,1 °C 0,0 km/h (0 Bft)
23.01.2019 20:16 -10,1 °C 89 % 999,9 hPa 0,0 mm 0,0 km/h (0 Bft) NW 307 ° 0 min 0,000 mm 0,0 UV-I 0 W/m² -11,6 °C -10,1 °C 0,0 km/h (0 Bft)
23.01.2019 20:17 -10,1 °C 89 % 999,9 hPa 0,0 mm 0,0 km/h (0 Bft) NW 307 ° 0 min 0,000 mm 0,0 UV-I 0 W/m² -11,6 °C -10,1 °C 0,0 km/h (0 Bft)
23.01.2019 20:18 -10,1 °C 89 % 999,9 hPa 0,0 mm 0,0 km/h (0 Bft) NW 307 ° 0 min 0,000 mm 0,0 UV-I 0 W/m² -11,6 °C -10,1 °C 0,0 km/h (0 Bft)
23.01.2019 20:19 -10,2 °C 89 % 999,9 hPa 0,0 mm 0,0 km/h (0 Bft) NW 307 ° 0 min 0,000 mm 0,0 UV-I 0 W/m² -11,7 °C -10,2 °C 0,0 km/h (0 Bft)
23.01.2019 20:20 -10,2 °C 89 % 999,8 hPa 0,0 mm 0,0 km/h (0 Bft) NW 307 ° 0 min 0,000 mm 0,0 UV-I 0 W/m² -11,7 °C -10,2 °C 0,0 km/h (0 Bft)
23.01.2019 20:21 -10,2 °C 90 % 999,9 hPa 0,0 mm 0,0 km/h (0 Bft) NW 307 ° 0 min 0,000 mm 0,0 UV-I 0 W/m² -11,5 °C -10,2 °C 0,0 km/h (0 Bft)
23.01.2019 20:22 -10,1 °C 90 % 999,9 hPa 0,0 mm 0,0 km/h (0 Bft) NW 307 ° 0 min 0,000 mm 0,0 UV-I 0 W/m² -11,4 °C -10,1 °C 0,0 km/h (0 Bft)
23.01.2019 20:23 -10,2 °C 90 % 999,9 hPa 0,0 mm 0,0 km/h (0 Bft) NW 307 ° 0 min 0,000 mm 0,0 UV-I 0 W/m² -11,5 °C -10,2 °C 0,0 km/h (0 Bft)
23.01.2019 20:24 -10,2 °C 90 % 999,9 hPa 0,0 mm 0,0 km/h (0 Bft) NW 307 ° 0 min 0,000 mm 0,0 UV-I 0 W/m² -11,5 °C -10,2 °C 0,0 km/h (0 Bft)
23.01.2019 20:25 -10,1 °C 90 % 999,9 hPa 0,0 mm 0,0 km/h (0 Bft) NW 307 ° 0 min 0,000 mm 0,0 UV-I 0 W/m² -11,4 °C -10,1 °C 0,0 km/h (0 Bft)
23.01.2019 20:26 -10,1 °C 90 % 999,9 hPa 0,0 mm 0,0 km/h (0 Bft) NW 307 ° 0 min 0,000 mm 0,0 UV-I 0 W/m² -11,4 °C -10,1 °C 0,0 km/h (0 Bft)
23.01.2019 20:27 -10,1 °C 90 % 999,9 hPa 0,0 mm 0,0 km/h (0 Bft) NW 307 ° 0 min 0,000 mm 0,0 UV-I 0 W/m² -11,4 °C -10,1 °C 0,0 km/h (0 Bft)
23.01.2019 20:28 -10,2 °C 90 % 999,9 hPa 0,0 mm 0,0 km/h (0 Bft) NW 307 ° 0 min 0,000 mm 0,0 UV-I 0 W/m² -11,5 °C -10,2 °C 0,0 km/h (0 Bft)
23.01.2019 20:29 -10,2 °C 90 % 999,9 hPa 0,0 mm 0,0 km/h (0 Bft) NW 307 ° 0 min 0,000 mm 0,0 UV-I 0 W/m² -11,5 °C -10,2 °C 0,0 km/h (0 Bft)
23.01.2019 20:30 -10,2 °C 90 % 999,9 hPa 0,0 mm 0,0 km/h (0 Bft) NW 307 ° 0 min 0,000 mm 0,0 UV-I 0 W/m² -11,5 °C -10,2 °C 0,0 km/h (0 Bft)
23.01.2019 20:31 -10,2 °C 90 % 999,9 hPa 0,0 mm 0,0 km/h (0 Bft) NW 307 ° 0 min 0,000 mm 0,0 UV-I 0 W/m² -11,5 °C -10,2 °C 0,0 km/h (0 Bft)
23.01.2019 20:32 -10,3 °C 90 % 999,9 hPa 0,0 mm 0,0 km/h (0 Bft) NW 307 ° 0 min 0,000 mm 0,0 UV-I 0 W/m² -11,6 °C -10,3 °C 0,0 km/h (0 Bft)
23.01.2019 20:33 -10,3 °C 90 % 1000,0 hPa 0,0 mm 0,0 km/h (0 Bft) NW 307 ° 0 min 0,000 mm 0,0 UV-I 0 W/m² -11,6 °C -10,3 °C 0,0 km/h (0 Bft)
23.01.2019 20:34 -10,3 °C 90 % 999,9 hPa 0,0 mm 0,0 km/h (0 Bft) NW 307 ° 0 min 0,000 mm 0,0 UV-I 0 W/m² -11,6 °C -10,3 °C 0,0 km/h (0 Bft)
23.01.2019 20:35 -10,3 °C 90 % 1000,0 hPa 0,0 mm 0,0 km/h (0 Bft) NW 307 ° 0 min 0,000 mm 0,0 UV-I 0 W/m² -11,6 °C -10,3 °C 0,0 km/h (0 Bft)
23.01.2019 20:36 -10,3 °C 90 % 999,9 hPa 0,0 mm 0,0 km/h (0 Bft) NW 307 ° 0 min 0,000 mm 0,0 UV-I 0 W/m² -11,6 °C -10,3 °C 0,0 km/h (0 Bft)
23.01.2019 20:37 -10,3 °C 90 % 999,9 hPa 0,0 mm 0,0 km/h (0 Bft) NW 307 ° 0 min 0,000 mm 0,0 UV-I 0 W/m² -11,6 °C -10,3 °C 0,0 km/h (0 Bft)
23.01.2019 20:38 -10,3 °C 90 % 999,9 hPa 0,0 mm 0,0 km/h (0 Bft) NW 307 ° 0 min 0,000 mm 0,0 UV-I 0 W/m² -11,6 °C -10,3 °C 0,0 km/h (0 Bft)
23.01.2019 20:39 -10,3 °C 90 % 1000,0 hPa 0,0 mm 0,0 km/h (0 Bft) NW 307 ° 0 min 0,000 mm 0,0 UV-I 0 W/m² -11,6 °C -10,3 °C 0,0 km/h (0 Bft)
23.01.2019 20:40 -10,3 °C 90 % 1000,0 hPa 0,0 mm 0,0 km/h (0 Bft) NW 307 ° 0 min 0,000 mm 0,0 UV-I 0 W/m² -11,6 °C -10,3 °C 0,0 km/h (0 Bft)
23.01.2019 20:41 -10,4 °C 90 % 1000,0 hPa 0,0 mm 0,0 km/h (0 Bft) NW 307 ° 0 min 0,000 mm 0,0 UV-I 0 W/m² -11,7 °C -10,4 °C 0,0 km/h (0 Bft)
23.01.2019 20:42 -10,3 °C 90 % 1000,0 hPa 0,0 mm 0,0 km/h (0 Bft) NW 307 ° 0 min 0,000 mm 0,0 UV-I 0 W/m² -11,6 °C -10,3 °C 0,0 km/h (0 Bft)
23.01.2019 20:43 -10,4 °C 90 % 1000,0 hPa 0,0 mm 0,0 km/h (0 Bft) NW 307 ° 0 min 0,000 mm 0,0 UV-I 0 W/m² -11,7 °C -10,4 °C 0,0 km/h (0 Bft)
23.01.2019 20:44 -10,4 °C 90 % 1000,0 hPa 0,0 mm 0,0 km/h (0 Bft) NW 307 ° 0 min 0,000 mm 0,0 UV-I 0 W/m² -11,7 °C -10,4 °C 0,0 km/h (0 Bft)
23.01.2019 20:45 -10,4 °C 90 % 1000,0 hPa 0,0 mm 0,0 km/h (0 Bft) NW 307 ° 0 min 0,000 mm 0,0 UV-I 0 W/m² -11,7 °C -10,4 °C 0,0 km/h (0 Bft)
23.01.2019 20:46 -10,4 °C 90 % 1000,1 hPa 0,0 mm 0,0 km/h (0 Bft) NW 307 ° 0 min 0,000 mm 0,0 UV-I 0 W/m² -11,7 °C -10,4 °C 0,0 km/h (0 Bft)
23.01.2019 20:47 -10,4 °C 90 % 1000,1 hPa 0,0 mm 0,0 km/h (0 Bft) NW 307 ° 0 min 0,000 mm 0,0 UV-I 0 W/m² -11,7 °C -10,4 °C 0,0 km/h (0 Bft)
23.01.2019 20:48 -10,4 °C 90 % 1000,1 hPa 0,0 mm 0,0 km/h (0 Bft) NW 307 ° 0 min 0,000 mm 0,0 UV-I 0 W/m² -11,7 °C -10,4 °C 0,0 km/h (0 Bft)
23.01.2019 20:49 -10,4 °C 90 % 1000,1 hPa 0,0 mm 0,0 km/h (0 Bft) NW 307 ° 0 min 0,000 mm 0,0 UV-I 0 W/m² -11,7 °C -10,4 °C 0,0 km/h (0 Bft)
23.01.2019 20:50 -10,4 °C 90 % 1000,1 hPa 0,0 mm 0,0 km/h (0 Bft) NW 307 ° 0 min 0,000 mm 0,0 UV-I 0 W/m² -11,7 °C -10,4 °C 0,0 km/h (0 Bft)
23.01.2019 20:51 -10,4 °C 90 % 1000,1 hPa 0,0 mm 0,0 km/h (0 Bft) NW 307 ° 0 min 0,000 mm 0,0 UV-I 0 W/m² -11,7 °C -10,4 °C 0,0 km/h (0 Bft)
23.01.2019 20:52 -10,4 °C 90 % 1000,1 hPa 0,0 mm 0,0 km/h (0 Bft) NW 307 ° 0 min 0,000 mm 0,0 UV-I 0 W/m² -11,7 °C -10,4 °C 0,0 km/h (0 Bft)
23.01.2019 20:53 -10,4 °C 90 % 1000,1 hPa 0,0 mm 0,0 km/h (0 Bft) NW 307 ° 0 min 0,000 mm 0,0 UV-I 0 W/m² -11,7 °C -10,4 °C 0,0 km/h (0 Bft)
23.01.2019 20:54 -10,4 °C 90 % 1000,1 hPa 0,0 mm 0,0 km/h (0 Bft) NW 307 ° 0 min 0,000 mm 0,0 UV-I 0 W/m² -11,7 °C -10,4 °C 0,0 km/h (0 Bft)
23.01.2019 20:55 -10,4 °C 90 % 1000,2 hPa 0,0 mm 0,0 km/h (0 Bft) NW 307 ° 0 min 0,000 mm 0,0 UV-I 0 W/m² -11,7 °C -10,4 °C 0,0 km/h (0 Bft)
23.01.2019 20:56 -10,5 °C 90 % 1000,2 hPa 0,0 mm 0,0 km/h (0 Bft) NW 307 ° 0 min 0,000 mm 0,0 UV-I 0 W/m² -11,8 °C -10,5 °C 0,0 km/h (0 Bft)
23.01.2019 20:57 -10,4 °C 90 % 1000,2 hPa 0,0 mm 0,0 km/h (0 Bft) NW 307 ° 0 min 0,000 mm 0,0 UV-I 0 W/m² -11,7 °C -10,4 °C 0,0 km/h (0 Bft)
23.01.2019 20:58 -10,4 °C 90 % 1000,2 hPa 0,0 mm 0,0 km/h (0 Bft) NW 307 ° 0 min 0,000 mm 0,0 UV-I 0 W/m² -11,7 °C -10,4 °C 0,0 km/h (0 Bft)
23.01.2019 20:59 -10,4 °C 90 % 1000,3 hPa 0,0 mm 0,0 km/h (0 Bft) NW 307 ° 0 min 0,000 mm 0,0 UV-I 0 W/m² -11,7 °C -10,4 °C 0,0 km/h (0 Bft)
23.01.2019 21:00 -10,4 °C 90 % 1000,3 hPa 0,0 mm 0,0 km/h (0 Bft) NW 307 ° 0 min 0,000 mm 0,0 UV-I 0 W/m² -11,7 °C -10,4 °C 0,0 km/h (0 Bft)
23.01.2019 21:01 -10,5 °C 90 % 1000,3 hPa 0,0 mm 0,0 km/h (0 Bft) NW 307 ° 0 min 0,000 mm 0,0 UV-I 0 W/m² -11,8 °C -10,5 °C 0,0 km/h (0 Bft)
23.01.2019 21:02 -10,5 °C 90 % 1000,3 hPa 0,0 mm 0,0 km/h (0 Bft) NW 307 ° 0 min 0,000 mm 0,0 UV-I 0 W/m² -11,8 °C -10,5 °C 0,0 km/h (0 Bft)
23.01.2019 21:03 -10,5 °C 90 % 1000,3 hPa 0,0 mm 0,0 km/h (0 Bft) NW 307 ° 0 min 0,000 mm 0,0 UV-I 0 W/m² -11,8 °C -10,5 °C 0,0 km/h (0 Bft)
23.01.2019 21:04 -10,5 °C 90 % 1000,3 hPa 0,0 mm 0,0 km/h (0 Bft) NW 307 ° 0 min 0,000 mm 0,0 UV-I 0 W/m² -11,8 °C -10,5 °C 0,0 km/h (0 Bft)
23.01.2019 21:05 -10,5 °C 90 % 1000,3 hPa 0,0 mm 0,0 km/h (0 Bft) NW 307 ° 0 min 0,000 mm 0,0 UV-I 0 W/m² -11,8 °C -10,5 °C 0,0 km/h (0 Bft)
23.01.2019 21:06 -10,5 °C 90 % 1000,3 hPa 0,0 mm 0,0 km/h (0 Bft) NW 307 ° 0 min 0,000 mm 0,0 UV-I 0 W/m² -11,8 °C -10,5 °C 0,0 km/h (0 Bft)
23.01.2019 21:07 -10,5 °C 90 % 1000,3 hPa 0,0 mm 0,0 km/h (0 Bft) NW 307 ° 0 min 0,000 mm 0,0 UV-I 0 W/m² -11,8 °C -10,5 °C 0,0 km/h (0 Bft)
23.01.2019 21:08 -10,4 °C 90 % 1000,4 hPa 0,0 mm 0,0 km/h (0 Bft) NW 307 ° 0 min 0,000 mm 0,0 UV-I 0 W/m² -11,7 °C -10,4 °C 0,0 km/h (0 Bft)
23.01.2019 21:09 -10,5 °C 90 % 1000,4 hPa 0,0 mm 0,0 km/h (0 Bft) NW 307 ° 0 min 0,000 mm 0,0 UV-I 0 W/m² -11,8 °C -10,5 °C 0,0 km/h (0 Bft)
23.01.2019 21:10 -10,5 °C 90 % 1000,4 hPa 0,0 mm 0,0 km/h (0 Bft) NW 307 ° 0 min 0,000 mm 0,0 UV-I 0 W/m² -11,8 °C -10,5 °C 0,0 km/h (0 Bft)
23.01.2019 21:11 -10,5 °C 90 % 1000,4 hPa 0,0 mm 0,0 km/h (0 Bft) NW 307 ° 0 min 0,000 mm 0,0 UV-I 0 W/m² -11,8 °C -10,5 °C 0,0 km/h (0 Bft)
23.01.2019 21:12 -10,5 °C 90 % 1000,3 hPa 0,0 mm 0,0 km/h (0 Bft) NW 307 ° 0 min 0,000 mm 0,0 UV-I 0 W/m² -11,8 °C -10,5 °C 0,0 km/h (0 Bft)
23.01.2019 21:13 -10,5 °C 90 % 1000,4 hPa 0,0 mm 0,0 km/h (0 Bft) NW 307 ° 0 min 0,000 mm 0,0 UV-I 0 W/m² -11,8 °C -10,5 °C 0,0 km/h (0 Bft)
23.01.2019 21:14 -10,5 °C 90 % 1000,4 hPa 0,0 mm 0,0 km/h (0 Bft) NW 307 ° 0 min 0,000 mm 0,0 UV-I 0 W/m² -11,8 °C -10,5 °C 0,0 km/h (0 Bft)
23.01.2019 21:15 -10,5 °C 90 % 1000,4 hPa 0,0 mm 0,0 km/h (0 Bft) NW 307 ° 0 min 0,000 mm 0,0 UV-I 0 W/m² -11,8 °C -10,5 °C 0,0 km/h (0 Bft)
23.01.2019 21:16 -10,5 °C 90 % 1000,4 hPa 0,0 mm 0,0 km/h (0 Bft) NW 307 ° 0 min 0,000 mm 0,0 UV-I 0 W/m² -11,8 °C -10,5 °C 0,0 km/h (0 Bft)
23.01.2019 21:17 -10,5 °C 90 % 1000,5 hPa 0,0 mm 0,0 km/h (0 Bft) NW 307 ° 0 min 0,000 mm 0,0 UV-I 0 W/m² -11,8 °C -10,5 °C 0,0 km/h (0 Bft)
23.01.2019 21:18 -10,5 °C 90 % 1000,5 hPa 0,0 mm 0,0 km/h (0 Bft) NW 307 ° 0 min 0,000 mm 0,0 UV-I 0 W/m² -11,8 °C -10,5 °C 0,0 km/h (0 Bft)
23.01.2019 21:19 -10,5 °C 90 % 1000,5 hPa 0,0 mm 0,0 km/h (0 Bft) NW 307 ° 0 min 0,000 mm 0,0 UV-I 0 W/m² -11,8 °C -10,5 °C 0,0 km/h (0 Bft)
23.01.2019 21:20 -10,4 °C 90 % 1000,5 hPa 0,0 mm 0,0 km/h (0 Bft) NW 307 ° 0 min 0,000 mm 0,0 UV-I 0 W/m² -11,7 °C -10,4 °C 0,0 km/h (0 Bft)
23.01.2019 21:21 -10,4 °C 90 % 1000,5 hPa 0,0 mm 0,0 km/h (0 Bft) NW 307 ° 0 min 0,000 mm 0,0 UV-I 0 W/m² -11,7 °C -10,4 °C 0,0 km/h (0 Bft)
23.01.2019 21:22 -10,4 °C 90 % 1000,5 hPa 0,0 mm 0,0 km/h (0 Bft) NW 307 ° 0 min 0,000 mm 0,0 UV-I 0 W/m² -11,7 °C -10,4 °C 0,0 km/h (0 Bft)
23.01.2019 21:23 -10,4 °C 90 % 1000,5 hPa 0,0 mm 0,0 km/h (0 Bft) NW 307 ° 0 min 0,000 mm 0,0 UV-I 0 W/m² -11,7 °C -10,4 °C 0,0 km/h (0 Bft)
23.01.2019 21:24 -10,4 °C 90 % 1000,6 hPa 0,0 mm 0,0 km/h (0 Bft) NW 307 ° 0 min 0,000 mm 0,0 UV-I 0 W/m² -11,7 °C -10,4 °C 0,0 km/h (0 Bft)
23.01.2019 21:25 -10,4 °C 90 % 1000,6 hPa 0,0 mm 0,0 km/h (0 Bft) NW 307 ° 0 min 0,000 mm 0,0 UV-I 0 W/m² -11,7 °C -10,4 °C 0,0 km/h (0 Bft)
23.01.2019 21:26 -10,4 °C 90 % 1000,6 hPa 0,0 mm 0,0 km/h (0 Bft) NW 307 ° 0 min 0,000 mm 0,0 UV-I 0 W/m² -11,7 °C -10,4 °C 0,0 km/h (0 Bft)
23.01.2019 21:27 -10,4 °C 90 % 1000,6 hPa 0,0 mm 0,0 km/h (0 Bft) NW 307 ° 0 min 0,000 mm 0,0 UV-I 0 W/m² -11,7 °C -10,4 °C 0,0 km/h (0 Bft)
23.01.2019 21:28 -10,4 °C 90 % 1000,6 hPa 0,0 mm 0,0 km/h (0 Bft) NW 307 ° 0 min 0,000 mm 0,0 UV-I 0 W/m² -11,7 °C -10,4 °C 0,0 km/h (0 Bft)
23.01.2019 21:29 -10,4 °C 90 % 1000,6 hPa 0,0 mm 0,0 km/h (0 Bft) NW 307 ° 0 min 0,000 mm 0,0 UV-I 0 W/m² -11,7 °C -10,4 °C 0,0 km/h (0 Bft)
23.01.2019 21:30 -10,4 °C 90 % 1000,6 hPa 0,0 mm 0,0 km/h (0 Bft) NW 307 ° 0 min 0,000 mm 0,0 UV-I 0 W/m² -11,7 °C -10,4 °C 0,0 km/h (0 Bft)
23.01.2019 21:31 -10,4 °C 90 % 1000,7 hPa 0,0 mm 0,0 km/h (0 Bft) NW 307 ° 0 min 0,000 mm 0,0 UV-I 0 W/m² -11,7 °C -10,4 °C 0,0 km/h (0 Bft)
23.01.2019 21:32 -10,4 °C 90 % 1000,7 hPa 0,0 mm 0,0 km/h (0 Bft) NW 307 ° 0 min 0,000 mm 0,0 UV-I 0 W/m² -11,7 °C -10,4 °C 0,0 km/h (0 Bft)
23.01.2019 21:33 -10,4 °C 90 % 1000,7 hPa 0,0 mm 0,0 km/h (0 Bft) NW 307 ° 0 min 0,000 mm 0,0 UV-I 0 W/m² -11,7 °C -10,4 °C 0,0 km/h (0 Bft)
23.01.2019 21:34 -10,4 °C 90 % 1000,7 hPa 0,0 mm 0,0 km/h (0 Bft) NW 307 ° 0 min 0,000 mm 0,0 UV-I 0 W/m² -11,7 °C -10,4 °C 0,0 km/h (0 Bft)
23.01.2019 21:35 -10,4 °C 90 % 1000,8 hPa 0,0 mm 0,0 km/h (0 Bft) NW 307 ° 0 min 0,000 mm 0,0 UV-I 0 W/m² -11,7 °C -10,4 °C 0,0 km/h (0 Bft)
23.01.2019 21:36 -10,3 °C 90 % 1000,7 hPa 0,0 mm 0,0 km/h (0 Bft) NW 307 ° 0 min 0,000 mm 0,0 UV-I 0 W/m² -11,6 °C -10,3 °C 0,0 km/h (0 Bft)
23.01.2019 21:37 -10,3 °C 91 % 1000,7 hPa 0,0 mm 0,0 km/h (0 Bft) NW 307 ° 0 min 0,000 mm 0,0 UV-I 0 W/m² -11,5 °C -10,3 °C 0,0 km/h (0 Bft)
23.01.2019 21:38 -10,3 °C 91 % 1000,8 hPa 0,0 mm 0,0 km/h (0 Bft) NW 307 ° 0 min 0,000 mm 0,0 UV-I 0 W/m² -11,5 °C -10,3 °C 0,0 km/h (0 Bft)
23.01.2019 21:39 -10,3 °C 91 % 1000,7 hPa 0,0 mm 0,0 km/h (0 Bft) NW 307 ° 0 min 0,000 mm 0,0 UV-I 0 W/m² -11,5 °C -10,3 °C 0,0 km/h (0 Bft)
23.01.2019 21:40 -10,3 °C 91 % 1000,8 hPa 0,0 mm 0,0 km/h (0 Bft) NW 307 ° 0 min 0,000 mm 0,0 UV-I 0 W/m² -11,5 °C -10,3 °C 0,0 km/h (0 Bft)
23.01.2019 21:41 -10,3 °C 91 % 1000,8 hPa 0,0 mm 0,0 km/h (0 Bft) NW 307 ° 0 min 0,000 mm 0,0 UV-I 0 W/m² -11,5 °C -10,3 °C 0,0 km/h (0 Bft)
23.01.2019 21:42 -10,3 °C 91 % 1000,8 hPa 0,0 mm 0,0 km/h (0 Bft) NW 307 ° 0 min 0,000 mm 0,0 UV-I 0 W/m² -11,5 °C -10,3 °C 0,0 km/h (0 Bft)
23.01.2019 21:43 -10,2 °C 91 % 1000,8 hPa 0,0 mm 0,0 km/h (0 Bft) NW 307 ° 0 min 0,000 mm 0,0 UV-I 0 W/m² -11,4 °C -10,2 °C 0,0 km/h (0 Bft)
23.01.2019 21:44 -10,2 °C 91 % 1000,8 hPa 0,0 mm 0,0 km/h (0 Bft) NW 307 ° 0 min 0,000 mm 0,0 UV-I 0 W/m² -11,4 °C -10,2 °C 0,0 km/h (0 Bft)
23.01.2019 21:45 -10,2 °C 91 % 1000,9 hPa 0,0 mm 0,0 km/h (0 Bft) NW 307 ° 0 min 0,000 mm 0,0 UV-I 0 W/m² -11,4 °C -10,2 °C 0,0 km/h (0 Bft)
23.01.2019 21:46 -10,2 °C 91 % 1000,9 hPa 0,0 mm 0,0 km/h (0 Bft) NW 307 ° 0 min 0,000 mm 0,0 UV-I 0 W/m² -11,4 °C -10,2 °C 0,0 km/h (0 Bft)
23.01.2019 21:47 -10,2 °C 91 % 1000,9 hPa 0,0 mm 0,0 km/h (0 Bft) NW 307 ° 0 min 0,000 mm 0,0 UV-I 0 W/m² -11,4 °C -10,2 °C 0,0 km/h (0 Bft)
23.01.2019 21:48 -10,2 °C 91 % 1000,9 hPa 0,0 mm 0,0 km/h (0 Bft) NW 307 ° 0 min 0,000 mm 0,0 UV-I 0 W/m² -11,4 °C -10,2 °C 0,0 km/h (0 Bft)
23.01.2019 21:49 -10,2 °C 91 % 1000,9 hPa 0,0 mm 0,0 km/h (0 Bft) NW 307 ° 0 min 0,000 mm 0,0 UV-I 0 W/m² -11,4 °C -10,2 °C 0,0 km/h (0 Bft)
23.01.2019 21:50 -10,2 °C 91 % 1000,9 hPa 0,0 mm 0,0 km/h (0 Bft) NW 307 ° 0 min 0,000 mm 0,0 UV-I 0 W/m² -11,4 °C -10,2 °C 0,0 km/h (0 Bft)
23.01.2019 21:51 -10,1 °C 91 % 1000,9 hPa 0,0 mm 0,0 km/h (0 Bft) NW 307 ° 0 min 0,000 mm 0,0 UV-I 0 W/m² -11,3 °C -10,1 °C 0,0 km/h (0 Bft)
23.01.2019 21:52 -10,1 °C 91 % 1000,9 hPa 0,0 mm 0,0 km/h (0 Bft) NW 307 ° 0 min 0,000 mm 0,0 UV-I 0 W/m² -11,3 °C -10,1 °C 0,0 km/h (0 Bft)
23.01.2019 21:53 -10,1 °C 91 % 1000,9 hPa 0,0 mm 0,0 km/h (0 Bft) NW 307 ° 0 min 0,000 mm 0,0 UV-I 0 W/m² -11,3 °C -10,1 °C 0,0 km/h (0 Bft)
23.01.2019 21:54 -10,1 °C 91 % 1000,9 hPa 0,0 mm 0,0 km/h (0 Bft) NW 307 ° 0 min 0,000 mm 0,0 UV-I 0 W/m² -11,3 °C -10,1 °C 0,0 km/h (0 Bft)
23.01.2019 21:55 -10,1 °C 91 % 1000,9 hPa 0,0 mm 0,0 km/h (0 Bft) NW 307 ° 0 min 0,000 mm 0,0 UV-I 0 W/m² -11,3 °C -10,1 °C 0,0 km/h (0 Bft)
23.01.2019 21:56 -10,1 °C 91 % 1000,9 hPa 0,0 mm 0,0 km/h (0 Bft) NW 307 ° 0 min 0,000 mm 0,0 UV-I 0 W/m² -11,3 °C -10,1 °C 0,0 km/h (0 Bft)
23.01.2019 21:57 -10,1 °C 91 % 1000,9 hPa 0,0 mm 0,0 km/h (0 Bft) NW 307 ° 0 min 0,000 mm 0,0 UV-I 0 W/m² -11,3 °C -10,1 °C 0,0 km/h (0 Bft)
23.01.2019 21:58 -10,0 °C 91 % 1000,9 hPa 0,0 mm 0,0 km/h (0 Bft) NW 307 ° 0 min 0,000 mm 0,0 UV-I 0 W/m² -11,2 °C -10,0 °C 0,0 km/h (0 Bft)
23.01.2019 21:59 -10,0 °C 91 % 1000,9 hPa 0,0 mm 1,2 km/h (1 Bft) NW 307 ° 0 min 0,000 mm 0,0 UV-I 0 W/m² -11,2 °C -10,0 °C 3,2 km/h (1 Bft)
23.01.2019 22:00 -9,9 °C 91 % 1001,0 hPa 0,0 mm 0,0 km/h (0 Bft) NW 307 ° 0 min 0,000 mm 0,0 UV-I 0 W/m² -11,1 °C -9,9 °C 0,0 km/h (0 Bft)
23.01.2019 22:01 -9,9 °C 91 % 1001,0 hPa 0,0 mm 0,0 km/h (0 Bft) NW 307 ° 0 min 0,000 mm 0,0 UV-I 0 W/m² -11,1 °C -9,9 °C 0,0 km/h (0 Bft)
23.01.2019 22:02 -9,9 °C 91 % 1001,0 hPa 0,0 mm 0,0 km/h (0 Bft) NW 307 ° 0 min 0,000 mm 0,0 UV-I 0 W/m² -11,1 °C -9,9 °C 0,0 km/h (0 Bft)
23.01.2019 22:03 -9,8 °C 92 % 1001,0 hPa 0,0 mm 2,4 km/h (1 Bft) W-NW 285 ° 0 min 0,000 mm 0,0 UV-I 0 W/m² -10,8 °C -9,8 °C 3,2 km/h (1 Bft)
23.01.2019 22:04 -9,7 °C 92 % 1001,0 hPa 0,0 mm 0,3 km/h (0 Bft) W-NW 285 ° 0 min 0,000 mm 0,0 UV-I 0 W/m² -10,7 °C -9,7 °C 1,6 km/h (1 Bft)
23.01.2019 22:05 -9,7 °C 92 % 1001,1 hPa 0,0 mm 0,3 km/h (0 Bft) W-NW 285 ° 0 min 0,000 mm 0,0 UV-I 0 W/m² -10,7 °C -9,7 °C 1,6 km/h (1 Bft)
23.01.2019 22:06 -9,7 °C 92 % 1001,0 hPa 0,0 mm 0,1 km/h (0 Bft) W-NW 285 ° 0 min 0,000 mm 0,0 UV-I 0 W/m² -10,7 °C -9,7 °C 1,6 km/h (1 Bft)
23.01.2019 22:07 -9,6 °C 92 % 1001,0 hPa 0,0 mm 0,0 km/h (0 Bft) W-NW 285 ° 0 min 0,000 mm 0,0 UV-I 0 W/m² -10,6 °C -9,6 °C 0,0 km/h (0 Bft)
23.01.2019 22:08 -9,6 °C 92 % 1001,0 hPa 0,0 mm 0,0 km/h (0 Bft) W-NW 285 ° 0 min 0,000 mm 0,0 UV-I 0 W/m² -10,6 °C -9,6 °C 0,0 km/h (0 Bft)
23.01.2019 22:09 -9,5 °C 92 % 1001,1 hPa 0,0 mm 0,0 km/h (0 Bft) W-NW 285 ° 0 min 0,000 mm 0,0 UV-I 0 W/m² -10,6 °C -9,5 °C 0,0 km/h (0 Bft)
23.01.2019 22:10 -9,4 °C 92 % 1001,1 hPa 0,0 mm 0,0 km/h (0 Bft) W-NW 285 ° 0 min 0,000 mm 0,0 UV-I 0 W/m² -10,5 °C -9,4 °C 0,0 km/h (0 Bft)
23.01.2019 22:11 -9,5 °C 92 % 1001,1 hPa 0,0 mm 0,0 km/h (0 Bft) W-NW 285 ° 0 min 0,000 mm 0,0 UV-I 0 W/m² -10,6 °C -9,5 °C 0,0 km/h (0 Bft)
23.01.2019 22:12 -9,4 °C 92 % 1001,1 hPa 0,0 mm 0,0 km/h (0 Bft) W-NW 285 ° 0 min 0,000 mm 0,0 UV-I 0 W/m² -10,5 °C -9,4 °C 0,0 km/h (0 Bft)
23.01.2019 22:13 -9,4 °C 92 % 1001,2 hPa 0,0 mm 0,0 km/h (0 Bft) W-NW 285 ° 0 min 0,000 mm 0,0 UV-I 0 W/m² -10,5 °C -9,4 °C 0,0 km/h (0 Bft)
23.01.2019 22:14 -9,4 °C 92 % 1001,2 hPa 0,0 mm 0,0 km/h (0 Bft) W-NW 285 ° 0 min 0,000 mm 0,0 UV-I 0 W/m² -10,5 °C -9,4 °C 0,0 km/h (0 Bft)
23.01.2019 22:15 -9,4 °C 92 % 1001,1 hPa 0,0 mm 0,0 km/h (0 Bft) W-NW 285 ° 0 min 0,000 mm 0,0 UV-I 0 W/m² -10,5 °C -9,4 °C 0,0 km/h (0 Bft)
23.01.2019 22:16 -9,4 °C 92 % 1001,2 hPa 0,0 mm 0,0 km/h (0 Bft) W-NW 285 ° 0 min 0,000 mm 0,0 UV-I 0 W/m² -10,5 °C -9,4 °C 0,0 km/h (0 Bft)
23.01.2019 22:17 -9,4 °C 92 % 1001,2 hPa 0,0 mm 0,0 km/h (0 Bft) W-NW 285 ° 0 min 0,000 mm 0,0 UV-I 0 W/m² -10,5 °C -9,4 °C 0,0 km/h (0 Bft)
23.01.2019 22:18 -9,4 °C 92 % 1001,2 hPa 0,0 mm 0,0 km/h (0 Bft) W-NW 285 ° 0 min 0,000 mm 0,0 UV-I 0 W/m² -10,5 °C -9,4 °C 0,0 km/h (0 Bft)
23.01.2019 22:19 -9,4 °C 92 % 1001,2 hPa 0,0 mm 0,0 km/h (0 Bft) W-NW 285 ° 0 min 0,000 mm 0,0 UV-I 0 W/m² -10,5 °C -9,4 °C 0,0 km/h (0 Bft)
23.01.2019 22:20 -9,3 °C 92 % 1001,2 hPa 0,0 mm 0,0 km/h (0 Bft) W-NW 285 ° 0 min 0,000 mm 0,0 UV-I 0 W/m² -10,4 °C -9,3 °C 0,0 km/h (0 Bft)
23.01.2019 22:21 -9,3 °C 92 % 1001,2 hPa 0,0 mm 0,0 km/h (0 Bft) W-NW 285 ° 0 min 0,000 mm 0,0 UV-I 0 W/m² -10,4 °C -9,3 °C 0,0 km/h (0 Bft)
23.01.2019 22:22 -9,4 °C 92 % 1001,3 hPa 0,0 mm 0,0 km/h (0 Bft) W-NW 285 ° 0 min 0,000 mm 0,0 UV-I 0 W/m² -10,5 °C -9,4 °C 0,0 km/h (0 Bft)
23.01.2019 22:23 -9,3 °C 92 % 1001,3 hPa 0,0 mm 0,0 km/h (0 Bft) W-NW 285 ° 0 min 0,000 mm 0,0 UV-I 0 W/m² -10,4 °C -9,3 °C 0,0 km/h (0 Bft)
23.01.2019 22:24 -9,3 °C 92 % 1001,3 hPa 0,0 mm 0,0 km/h (0 Bft) W-NW 285 ° 0 min 0,000 mm 0,0 UV-I 0 W/m² -10,4 °C -9,3 °C 0,0 km/h (0 Bft)
23.01.2019 22:25 -9,3 °C 92 % 1001,3 hPa 0,0 mm 0,0 km/h (0 Bft) W-NW 285 ° 0 min 0,000 mm 0,0 UV-I 0 W/m² -10,4 °C -9,3 °C 0,0 km/h (0 Bft)
23.01.2019 22:26 -9,3 °C 92 % 1001,4 hPa 0,0 mm 0,0 km/h (0 Bft) W-NW 285 ° 0 min 0,000 mm 0,0 UV-I 0 W/m² -10,4 °C -9,3 °C 0,0 km/h (0 Bft)
23.01.2019 22:27 -9,3 °C 92 % 1001,4 hPa 0,0 mm 0,0 km/h (0 Bft) W-NW 285 ° 0 min 0,000 mm 0,0 UV-I 0 W/m² -10,4 °C -9,3 °C 0,0 km/h (0 Bft)
23.01.2019 22:28 -9,3 °C 92 % 1001,4 hPa 0,0 mm 0,0 km/h (0 Bft) W-NW 285 ° 0 min 0,000 mm 0,0 UV-I 0 W/m² -10,4 °C -9,3 °C 0,0 km/h (0 Bft)
23.01.2019 22:29 -9,3 °C 92 % 1001,4 hPa 0,0 mm 0,0 km/h (0 Bft) W-NW 285 ° 0 min 0,000 mm 0,0 UV-I 0 W/m² -10,4 °C -9,3 °C 0,0 km/h (0 Bft)
23.01.2019 22:30 -9,3 °C 92 % 1001,4 hPa 0,0 mm 0,0 km/h (0 Bft) W-NW 285 ° 0 min 0,000 mm 0,0 UV-I 0 W/m² -10,4 °C -9,3 °C 0,0 km/h (0 Bft)
23.01.2019 22:31 -9,3 °C 92 % 1001,4 hPa 0,0 mm 0,0 km/h (0 Bft) W-NW 285 ° 0 min 0,000 mm 0,0 UV-I 0 W/m² -10,4 °C -9,3 °C 0,0 km/h (0 Bft)
23.01.2019 22:32 -9,3 °C 92 % 1001,4 hPa 0,0 mm 0,0 km/h (0 Bft) W-NW 285 ° 0 min 0,000 mm 0,0 UV-I 0 W/m² -10,4 °C -9,3 °C 0,0 km/h (0 Bft)
23.01.2019 22:33 -9,3 °C 92 % 1001,4 hPa 0,0 mm 0,0 km/h (0 Bft) W-NW 285 ° 0 min 0,000 mm 0,0 UV-I 0 W/m² -10,4 °C -9,3 °C 0,0 km/h (0 Bft)
23.01.2019 22:34 -9,3 °C 92 % 1001,4 hPa 0,0 mm 0,0 km/h (0 Bft) W-NW 285 ° 0 min 0,000 mm 0,0 UV-I 0 W/m² -10,4 °C -9,3 °C 0,0 km/h (0 Bft)
23.01.2019 22:35 -9,3 °C 92 % 1001,4 hPa 0,0 mm 0,0 km/h (0 Bft) W-NW 285 ° 0 min 0,000 mm 0,0 UV-I 0 W/m² -10,4 °C -9,3 °C 0,0 km/h (0 Bft)
23.01.2019 22:36 -9,3 °C 92 % 1001,4 hPa 0,0 mm 0,0 km/h (0 Bft) W-NW 285 ° 0 min 0,000 mm 0,0 UV-I 0 W/m² -10,4 °C -9,3 °C 0,0 km/h (0 Bft)
23.01.2019 22:37 -9,3 °C 92 % 1001,4 hPa 0,0 mm 0,0 km/h (0 Bft) W-NW 285 ° 0 min 0,000 mm 0,0 UV-I 0 W/m² -10,4 °C -9,3 °C 0,0 km/h (0 Bft)
23.01.2019 22:38 -9,3 °C 92 % 1001,4 hPa 0,0 mm 0,0 km/h (0 Bft) W-NW 285 ° 0 min 0,000 mm 0,0 UV-I 0 W/m² -10,4 °C -9,3 °C 0,0 km/h (0 Bft)
23.01.2019 22:39 -9,3 °C 92 % 1001,4 hPa 0,0 mm 0,0 km/h (0 Bft) W-NW 285 ° 0 min 0,000 mm 0,0 UV-I 0 W/m² -10,4 °C -9,3 °C 0,0 km/h (0 Bft)
23.01.2019 22:40 -9,3 °C 92 % 1001,4 hPa 0,0 mm 0,0 km/h (0 Bft) W-NW 285 ° 0 min 0,000 mm 0,0 UV-I 0 W/m² -10,4 °C -9,3 °C 0,0 km/h (0 Bft)
23.01.2019 22:41 -9,3 °C 92 % 1001,5 hPa 0,0 mm 0,0 km/h (0 Bft) W-NW 285 ° 0 min 0,000 mm 0,0 UV-I 0 W/m² -10,4 °C -9,3 °C 0,0 km/h (0 Bft)
23.01.2019 22:42 -9,3 °C 92 % 1001,5 hPa 0,0 mm 0,0 km/h (0 Bft) W-NW 285 ° 0 min 0,000 mm 0,0 UV-I 0 W/m² -10,4 °C -9,3 °C 0,0 km/h (0 Bft)
23.01.2019 22:43 -9,2 °C 92 % 1001,5 hPa 0,0 mm 0,0 km/h (0 Bft) W-NW 285 ° 0 min 0,000 mm 0,0 UV-I 0 W/m² -10,3 °C -9,2 °C 0,0 km/h (0 Bft)
23.01.2019 22:44 -9,2 °C 92 % 1001,5 hPa 0,0 mm 0,0 km/h (0 Bft) W-NW 285 ° 0 min 0,000 mm 0,0 UV-I 0 W/m² -10,3 °C -9,2 °C 0,0 km/h (0 Bft)
23.01.2019 22:45 -9,2 °C 92 % 1001,5 hPa 0,0 mm 0,0 km/h (0 Bft) W-NW 285 ° 0 min 0,000 mm 0,0 UV-I 0 W/m² -10,3 °C -9,2 °C 0,0 km/h (0 Bft)
23.01.2019 22:46 -9,2 °C 92 % 1001,5 hPa 0,0 mm 0,0 km/h (0 Bft) W-NW 285 ° 0 min 0,000 mm 0,0 UV-I 0 W/m² -10,3 °C -9,2 °C 0,0 km/h (0 Bft)
23.01.2019 22:47 -9,2 °C 92 % 1001,6 hPa 0,0 mm 0,0 km/h (0 Bft) W-NW 285 ° 0 min 0,000 mm 0,0 UV-I 0 W/m² -10,3 °C -9,2 °C 0,0 km/h (0 Bft)
23.01.2019 22:48 -9,3 °C 92 % 1001,6 hPa 0,0 mm 0,0 km/h (0 Bft) W-NW 285 ° 0 min 0,000 mm 0,0 UV-I 0 W/m² -10,4 °C -9,3 °C 0,0 km/h (0 Bft)
23.01.2019 22:49 -9,2 °C 92 % 1001,5 hPa 0,0 mm 0,0 km/h (0 Bft) W-NW 285 ° 0 min 0,000 mm 0,0 UV-I 0 W/m² -10,3 °C -9,2 °C 0,0 km/h (0 Bft)
23.01.2019 22:50 -9,2 °C 92 % 1001,6 hPa 0,0 mm 0,0 km/h (0 Bft) W-NW 285 ° 0 min 0,000 mm 0,0 UV-I 0 W/m² -10,3 °C -9,2 °C 0,0 km/h (0 Bft)
23.01.2019 22:51 -9,2 °C 92 % 1001,6 hPa 0,0 mm 0,0 km/h (0 Bft) W-NW 285 ° 0 min 0,000 mm 0,0 UV-I 0 W/m² -10,3 °C -9,2 °C 0,0 km/h (0 Bft)
23.01.2019 22:52 -9,2 °C 92 % 1001,6 hPa 0,0 mm 0,0 km/h (0 Bft) W-NW 285 ° 0 min 0,000 mm 0,0 UV-I 0 W/m² -10,3 °C -9,2 °C 0,0 km/h (0 Bft)
23.01.2019 22:53 -9,2 °C 92 % 1001,6 hPa 0,0 mm 0,0 km/h (0 Bft) W-NW 285 ° 0 min 0,000 mm 0,0 UV-I 0 W/m² -10,3 °C -9,2 °C 0,0 km/h (0 Bft)
23.01.2019 22:54 -9,2 °C 92 % 1001,6 hPa 0,0 mm 0,0 km/h (0 Bft) W-NW 285 ° 0 min 0,000 mm 0,0 UV-I 0 W/m² -10,3 °C -9,2 °C 0,0 km/h (0 Bft)
23.01.2019 22:55 -9,2 °C 92 % 1001,6 hPa 0,0 mm 0,0 km/h (0 Bft) W-NW 285 ° 0 min 0,000 mm 0,0 UV-I 0 W/m² -10,3 °C -9,2 °C 0,0 km/h (0 Bft)
23.01.2019 22:56 -9,1 °C 92 % 1001,6 hPa 0,0 mm 0,0 km/h (0 Bft) W-NW 285 ° 0 min 0,000 mm 0,0 UV-I 0 W/m² -10,2 °C -9,1 °C 0,0 km/h (0 Bft)
23.01.2019 22:57 -9,1 °C 92 % 1001,6 hPa 0,0 mm 0,0 km/h (0 Bft) W-NW 285 ° 0 min 0,000 mm 0,0 UV-I 0 W/m² -10,2 °C -9,1 °C 0,0 km/h (0 Bft)
23.01.2019 22:58 -9,1 °C 92 % 1001,6 hPa 0,0 mm 0,0 km/h (0 Bft) W-NW 285 ° 0 min 0,000 mm 0,0 UV-I 0 W/m² -10,2 °C -9,1 °C 0,0 km/h (0 Bft)
23.01.2019 22:59 -9,1 °C 92 % 1001,6 hPa 0,0 mm 0,0 km/h (0 Bft) W-NW 285 ° 0 min 0,000 mm 0,0 UV-I 0 W/m² -10,2 °C -9,1 °C 0,0 km/h (0 Bft)
23.01.2019 23:00 -9,1 °C 92 % 1001,7 hPa 0,0 mm 0,0 km/h (0 Bft) W-NW 285 ° 0 min 0,000 mm 0,0 UV-I 0 W/m² -10,2 °C -9,1 °C 0,0 km/h (0 Bft)
23.01.2019 23:01 -9,1 °C 92 % 1001,7 hPa 0,0 mm 0,0 km/h (0 Bft) W-NW 285 ° 0 min 0,000 mm 0,0 UV-I 0 W/m² -10,2 °C -9,1 °C 0,0 km/h (0 Bft)
23.01.2019 23:02 -9,1 °C 92 % 1001,6 hPa 0,0 mm 0,0 km/h (0 Bft) W-NW 285 ° 0 min 0,000 mm 0,0 UV-I 0 W/m² -10,2 °C -9,1 °C 0,0 km/h (0 Bft)
23.01.2019 23:03 -9,1 °C 92 % 1001,7 hPa 0,0 mm 0,0 km/h (0 Bft) W-NW 285 ° 0 min 0,000 mm 0,0 UV-I 0 W/m² -10,2 °C -9,1 °C 0,0 km/h (0 Bft)
23.01.2019 23:04 -9,1 °C 92 % 1001,7 hPa 0,0 mm 0,0 km/h (0 Bft) W-NW 285 ° 0 min 0,000 mm 0,0 UV-I 0 W/m² -10,2 °C -9,1 °C 0,0 km/h (0 Bft)
23.01.2019 23:05 -9,1 °C 92 % 1001,7 hPa 0,0 mm 0,0 km/h (0 Bft) W-NW 285 ° 0 min 0,000 mm 0,0 UV-I 0 W/m² -10,2 °C -9,1 °C 0,0 km/h (0 Bft)
23.01.2019 23:06 -9,1 °C 92 % 1001,8 hPa 0,0 mm 0,0 km/h (0 Bft) W-NW 285 ° 0 min 0,000 mm 0,0 UV-I 0 W/m² -10,2 °C -9,1 °C 0,0 km/h (0 Bft)
23.01.2019 23:07 -9,1 °C 92 % 1001,7 hPa 0,0 mm 0,0 km/h (0 Bft) W-NW 285 ° 0 min 0,000 mm 0,0 UV-I 0 W/m² -10,2 °C -9,1 °C 0,0 km/h (0 Bft)
23.01.2019 23:08 -9,1 °C 92 % 1001,8 hPa 0,0 mm 0,0 km/h (0 Bft) W-NW 285 ° 0 min 0,000 mm 0,0 UV-I 0 W/m² -10,2 °C -9,1 °C 0,0 km/h (0 Bft)
23.01.2019 23:09 -9,1 °C 92 % 1001,8 hPa 0,0 mm 0,0 km/h (0 Bft) W-NW 285 ° 0 min 0,000 mm 0,0 UV-I 0 W/m² -10,2 °C -9,1 °C 0,0 km/h (0 Bft)
23.01.2019 23:10 -9,0 °C 92 % 1001,8 hPa 0,0 mm 0,0 km/h (0 Bft) W-NW 285 ° 0 min 0,000 mm 0,0 UV-I 0 W/m² -10,1 °C -9,0 °C 0,0 km/h (0 Bft)
23.01.2019 23:11 -9,1 °C 92 % 1001,8 hPa 0,0 mm 0,0 km/h (0 Bft) W-NW 285 ° 0 min 0,000 mm 0,0 UV-I 0 W/m² -10,2 °C -9,1 °C 0,0 km/h (0 Bft)
23.01.2019 23:12 -9,0 °C 92 % 1001,8 hPa 0,0 mm 0,0 km/h (0 Bft) W-NW 285 ° 0 min 0,000 mm 0,0 UV-I 0 W/m² -10,1 °C -9,0 °C 0,0 km/h (0 Bft)
23.01.2019 23:13 -9,1 °C 92 % 1001,8 hPa 0,0 mm 0,9 km/h (0 Bft) W-NW 285 ° 0 min 0,000 mm 0,0 UV-I 0 W/m² -10,2 °C -9,1 °C 3,2 km/h (1 Bft)
23.01.2019 23:14 -9,0 °C 92 % 1001,9 hPa 0,0 mm 0,0 km/h (0 Bft) W-NW 285 ° 0 min 0,000 mm 0,0 UV-I 0 W/m² -10,1 °C -9,0 °C 0,0 km/h (0 Bft)
23.01.2019 23:15 -9,0 °C 92 % 1001,9 hPa 0,0 mm 0,4 km/h (0 Bft) W-NW 285 ° 0 min 0,000 mm 0,0 UV-I 0 W/m² -10,1 °C -9,0 °C 1,6 km/h (1 Bft)
23.01.2019 23:16 -9,0 °C 92 % 1001,9 hPa 0,0 mm 0,0 km/h (0 Bft) W-NW 285 ° 0 min 0,000 mm 0,0 UV-I 0 W/m² -10,1 °C -9,0 °C 0,0 km/h (0 Bft)
23.01.2019 23:17 -9,0 °C 92 % 1001,9 hPa 0,0 mm 0,0 km/h (0 Bft) W-NW 285 ° 0 min 0,000 mm 0,0 UV-I 0 W/m² -10,1 °C -9,0 °C 0,0 km/h (0 Bft)
23.01.2019 23:18 -9,0 °C 92 % 1002,0 hPa 0,0 mm 0,0 km/h (0 Bft) W-NW 285 ° 0 min 0,000 mm 0,0 UV-I 0 W/m² -10,1 °C -9,0 °C 0,0 km/h (0 Bft)
23.01.2019 23:19 -8,9 °C 92 % 1002,0 hPa 0,0 mm 0,0 km/h (0 Bft) W-NW 285 ° 0 min 0,000 mm 0,0 UV-I 0 W/m² -10,0 °C -8,9 °C 0,0 km/h (0 Bft)
23.01.2019 23:20 -9,0 °C 92 % 1002,0 hPa 0,0 mm 0,0 km/h (0 Bft) W-NW 285 ° 0 min 0,000 mm 0,0 UV-I 0 W/m² -10,1 °C -9,0 °C 0,0 km/h (0 Bft)
23.01.2019 23:21 -8,9 °C 92 % 1002,0 hPa 0,0 mm 0,0 km/h (0 Bft) W-NW 285 ° 0 min 0,000 mm 0,0 UV-I 0 W/m² -10,0 °C -8,9 °C 0,0 km/h (0 Bft)
23.01.2019 23:22 -8,9 °C 92 % 1002,1 hPa 0,0 mm 0,0 km/h (0 Bft) W-NW 285 ° 0 min 0,000 mm 0,0 UV-I 0 W/m² -10,0 °C -8,9 °C 0,0 km/h (0 Bft)
23.01.2019 23:23 -8,9 °C 92 % 1002,1 hPa 0,0 mm 0,0 km/h (0 Bft) W-NW 285 ° 0 min 0,000 mm 0,0 UV-I 0 W/m² -10,0 °C -8,9 °C 0,0 km/h (0 Bft)
23.01.2019 23:24 -8,9 °C 92 % 1002,1 hPa 0,0 mm 0,0 km/h (0 Bft) W-NW 285 ° 0 min 0,000 mm 0,0 UV-I 0 W/m² -10,0 °C -8,9 °C 0,0 km/h (0 Bft)
23.01.2019 23:25 -8,9 °C 92 % 1002,1 hPa 0,0 mm 0,0 km/h (0 Bft) W-NW 285 ° 0 min 0,000 mm 0,0 UV-I 0 W/m² -10,0 °C -8,9 °C 0,0 km/h (0 Bft)
23.01.2019 23:26 -8,9 °C 92 % 1002,1 hPa 0,0 mm 0,0 km/h (0 Bft) W-NW 285 ° 0 min 0,000 mm 0,0 UV-I 0 W/m² -10,0 °C -8,9 °C 0,0 km/h (0 Bft)
23.01.2019 23:27 -8,9 °C 92 % 1002,2 hPa 0,0 mm 0,1 km/h (0 Bft) W-NW 285 ° 0 min 0,000 mm 0,0 UV-I 0 W/m² -10,0 °C -8,9 °C 1,6 km/h (1 Bft)
23.01.2019 23:28 -8,9 °C 92 % 1002,1 hPa 0,0 mm 0,0 km/h (0 Bft) W-NW 285 ° 0 min 0,000 mm 0,0 UV-I 0 W/m² -10,0 °C -8,9 °C 0,0 km/h (0 Bft)
23.01.2019 23:29 -8,8 °C 92 % 1002,2 hPa 0,0 mm 0,0 km/h (0 Bft) W-NW 285 ° 0 min 0,000 mm 0,0 UV-I 0 W/m² -9,9 °C -8,8 °C 0,0 km/h (0 Bft)
23.01.2019 23:30 -8,9 °C 92 % 1002,2 hPa 0,0 mm 0,0 km/h (0 Bft) W-NW 285 ° 0 min 0,000 mm 0,0 UV-I 0 W/m² -10,0 °C -8,9 °C 0,0 km/h (0 Bft)
23.01.2019 23:31 -8,8 °C 92 % 1002,2 hPa 0,0 mm 0,0 km/h (0 Bft) W-NW 285 ° 0 min 0,000 mm 0,0 UV-I 0 W/m² -9,9 °C -8,8 °C 0,0 km/h (0 Bft)
23.01.2019 23:32 -8,8 °C 92 % 1002,2 hPa 0,0 mm 1,4 km/h (1 Bft) W-NW 285 ° 0 min 0,000 mm 0,0 UV-I 0 W/m² -9,9 °C -8,8 °C 1,6 km/h (1 Bft)
23.01.2019 23:33 -8,8 °C 92 % 1002,2 hPa 0,0 mm 3,4 km/h (1 Bft) SW 221 ° 0 min 0,000 mm 0,0 UV-I 0 W/m² -9,9 °C -8,8 °C 4,8 km/h (1 Bft)
23.01.2019 23:34 -8,8 °C 92 % 1002,2 hPa 0,0 mm 0,6 km/h (0 Bft) SW 221 ° 0 min 0,000 mm 0,0 UV-I 0 W/m² -9,9 °C -8,8 °C 1,6 km/h (1 Bft)
23.01.2019 23:35 -8,7 °C 92 % 1002,3 hPa 0,0 mm 4,0 km/h (1 Bft) SW 220 ° 0 min 0,000 mm 0,0 UV-I 0 W/m² -9,8 °C -8,7 °C 6,4 km/h (2 Bft)
23.01.2019 23:36 -8,6 °C 92 % 1002,3 hPa 0,0 mm 3,2 km/h (1 Bft) SW 220 ° 0 min 0,000 mm 0,0 UV-I 0 W/m² -9,7 °C -8,6 °C 4,8 km/h (1 Bft)
23.01.2019 23:37 -8,6 °C 92 % 1002,2 hPa 0,0 mm 0,0 km/h (0 Bft) SW 220 ° 0 min 0,000 mm 0,0 UV-I 0 W/m² -9,7 °C -8,6 °C 0,0 km/h (0 Bft)
23.01.2019 23:38 -8,6 °C 92 % 1002,3 hPa 0,0 mm 0,0 km/h (0 Bft) SW 220 ° 0 min 0,000 mm 0,0 UV-I 0 W/m² -9,7 °C -8,6 °C 0,0 km/h (0 Bft)
23.01.2019 23:39 -8,6 °C 92 % 1002,3 hPa 0,0 mm 0,0 km/h (0 Bft) SW 220 ° 0 min 0,000 mm 0,0 UV-I 0 W/m² -9,7 °C -8,6 °C 0,0 km/h (0 Bft)
23.01.2019 23:40 -8,5 °C 92 % 1002,3 hPa 0,0 mm 0,0 km/h (0 Bft) SW 220 ° 0 min 0,000 mm 0,0 UV-I 0 W/m² -9,6 °C -8,5 °C 0,0 km/h (0 Bft)
23.01.2019 23:41 -8,4 °C 92 % 1002,4 hPa 0,0 mm 0,0 km/h (0 Bft) SW 220 ° 0 min 0,000 mm 0,0 UV-I 0 W/m² -9,5 °C -8,4 °C 0,0 km/h (0 Bft)
23.01.2019 23:42 -8,4 °C 92 % 1002,4 hPa 0,0 mm 1,0 km/h (0 Bft) SW 220 ° 0 min 0,000 mm 0,0 UV-I 0 W/m² -9,5 °C -8,4 °C 3,2 km/h (1 Bft)
23.01.2019 23:43 -8,4 °C 92 % 1002,4 hPa 0,0 mm 2,3 km/h (1 Bft) SW 218 ° 0 min 0,000 mm 0,0 UV-I 0 W/m² -9,5 °C -8,4 °C 4,8 km/h (1 Bft)
23.01.2019 23:44 -8,3 °C 92 % 1002,4 hPa 0,0 mm 3,5 km/h (1 Bft) SW 218 ° 0 min 0,000 mm 0,0 UV-I 0 W/m² -9,4 °C -8,3 °C 4,8 km/h (1 Bft)
23.01.2019 23:45 -8,3 °C 92 % 1002,4 hPa 0,0 mm 3,1 km/h (1 Bft) SW 217 ° 0 min 0,000 mm 0,0 UV-I 0 W/m² -9,4 °C -8,3 °C 4,8 km/h (1 Bft)
23.01.2019 23:46 -8,2 °C 92 % 1002,4 hPa 0,0 mm 3,1 km/h (1 Bft) SW 217 ° 0 min 0,000 mm 0,0 UV-I 0 W/m² -9,3 °C -8,2 °C 4,8 km/h (1 Bft)
23.01.2019 23:47 -8,2 °C 92 % 1002,4 hPa 0,0 mm 4,8 km/h (1 Bft) SW 214 ° 0 min 0,000 mm 0,0 UV-I 0 W/m² -9,3 °C -10,8 °C 6,4 km/h (2 Bft)
23.01.2019 23:48 -8,2 °C 92 % 1002,4 hPa 0,0 mm 3,9 km/h (1 Bft) SW 214 ° 0 min 0,000 mm 0,0 UV-I 0 W/m² -9,3 °C -8,2 °C 4,8 km/h (1 Bft)
23.01.2019 23:49 -8,2 °C 92 % 1002,5 hPa 0,0 mm 2,2 km/h (1 Bft) SW 214 ° 0 min 0,000 mm 0,0 UV-I 0 W/m² -9,3 °C -8,2 °C 3,2 km/h (1 Bft)
23.01.2019 23:50 -8,2 °C 92 % 1002,5 hPa 0,0 mm 3,2 km/h (1 Bft) SW 214 ° 0 min 0,000 mm 0,0 UV-I 0 W/m² -9,3 °C -8,2 °C 4,8 km/h (1 Bft)
23.01.2019 23:51 -8,1 °C 92 % 1002,5 hPa 0,0 mm 3,0 km/h (1 Bft) SW 214 ° 0 min 0,000 mm 0,0 UV-I 0 W/m² -9,2 °C -8,1 °C 4,8 km/h (1 Bft)
23.01.2019 23:52 -8,1 °C 92 % 1002,5 hPa 0,0 mm 3,4 km/h (1 Bft) SW 214 ° 0 min 0,000 mm 0,0 UV-I 0 W/m² -9,2 °C -8,1 °C 4,8 km/h (1 Bft)
23.01.2019 23:53 -8,1 °C 92 % 1002,5 hPa 0,0 mm 3,2 km/h (1 Bft) SW 214 ° 0 min 0,000 mm 0,0 UV-I 0 W/m² -9,2 °C -8,1 °C 6,4 km/h (2 Bft)
23.01.2019 23:54 -8,1 °C 92 % 1002,5 hPa 0,0 mm 4,6 km/h (1 Bft) S-SW 213 ° 0 min 0,000 mm 0,0 UV-I 0 W/m² -9,2 °C -10,5 °C 4,8 km/h (1 Bft)
23.01.2019 23:55 -8,1 °C 92 % 1002,6 hPa 0,0 mm 3,5 km/h (1 Bft) S-SW 213 ° 0 min 0,000 mm 0,0 UV-I 0 W/m² -9,2 °C -8,1 °C 6,4 km/h (2 Bft)
23.01.2019 23:56 -8,1 °C 92 % 1002,6 hPa 0,0 mm 1,0 km/h (0 Bft) S-SW 213 ° 0 min 0,000 mm 0,0 UV-I 0 W/m² -9,2 °C -8,1 °C 3,2 km/h (1 Bft)
23.01.2019 23:57 -8,1 °C 92 % 1002,6 hPa 0,0 mm 0,1 km/h (0 Bft) S-SW 213 ° 0 min 0,000 mm 0,0 UV-I 0 W/m² -9,2 °C -8,1 °C 1,6 km/h (1 Bft)
23.01.2019 23:58 -8,1 °C 92 % 1002,6 hPa 0,0 mm 0,6 km/h (0 Bft) S-SW 213 ° 0 min 0,000 mm 0,0 UV-I 0 W/m² -9,2 °C -8,1 °C 3,2 km/h (1 Bft)
23.01.2019 23:59 -8,1 °C 92 % 1002,6 hPa 0,0 mm 0,3 km/h (0 Bft) S-SW 213 ° 0 min 0,000 mm 0,0 UV-I 0 W/m² -9,2 °C -8,1 °C 1,6 km/h (1 Bft)
_ Min-Zeit 07:16 13:20 13:58 - 23:41 - - - - - - 06:26 03:28 23:41
Minimum _ -12,1 °C 87 % 997,2 hPa - 0,0 km/h (0 Bft) - - - - - - -13,5 °C -13,3 °C 0,0 km/h (0 Bft)
_ Max-Zeit 16:15 23:59 00:07 23:59 00:20 - - 23:59 14:00 13:26 12:08 13:47 16:15 00:20
Maximum _ -5,4 °C 92 % 1003,3 hPa 0,0 mm 6,8 km/h
S-SW (2 Bft)
- - 0 min 0,051 mm 1,3 UV-I 216 W/m² -6,9 °C -5,4 °C 9,7 km/h
S-SW (2 Bft)
Durchschnitt _ -8,8 °C 90 % 999,6 hPa #0,0 mm 0,4 km/h (0 Bft) S-SW - #0 min. #0,254 mm 1,0 UV-I 39 W/m² -10,1 °C -8,8 °C 0,7 km/h (0 Bft)